<?xml version="1.0" encoding="UTF-8" standalone="no" ?>
<gpx xmlns="http://www.topografix.com/GPX/1/1" xmlns:xsi="http://www.w3.org/2001/XMLSchema-instance" xsi:schemaLocation="http://www.topografix.com/GPX/1/1 http://www.topografix.com/GPX/1/1/gpx.xsd" version="1.1" creator="VisuGPX - https://www.visugpx.com">
  <metadata>
    <name>Conflans Andresy Ecancourt Jouy</name>
  </metadata>
  <trk>
    <name><![CDATA[Conflans Andresy Ecancourt Jouy_1]]></name>
    <trkseg>
      <trkpt lat="48.99023" lon="2.08581">
        <ele>22.9</ele>
        <time>2022-04-18T12:01:39Z</time>
      </trkpt>
      <trkpt lat="48.99023" lon="2.08581">
        <ele>22.9</ele>
        <time>2022-04-18T12:01:45Z</time>
      </trkpt>
      <trkpt lat="48.99018" lon="2.08568">
        <ele>23</ele>
        <time>2022-04-18T12:01:51Z</time>
      </trkpt>
      <trkpt lat="48.99016" lon="2.0856">
        <ele>23</ele>
        <time>2022-04-18T12:01:57Z</time>
      </trkpt>
      <trkpt lat="48.99014" lon="2.08552">
        <ele>23</ele>
        <time>2022-04-18T12:02:02Z</time>
      </trkpt>
      <trkpt lat="48.99012" lon="2.08538">
        <ele>22.9</ele>
        <time>2022-04-18T12:02:08Z</time>
      </trkpt>
      <trkpt lat="48.99008" lon="2.08527">
        <ele>22.6</ele>
        <time>2022-04-18T12:02:14Z</time>
      </trkpt>
      <trkpt lat="48.99008" lon="2.08518">
        <ele>22.8</ele>
        <time>2022-04-18T12:02:19Z</time>
      </trkpt>
      <trkpt lat="48.99007" lon="2.08507">
        <ele>23.1</ele>
        <time>2022-04-18T12:02:25Z</time>
      </trkpt>
      <trkpt lat="48.99004" lon="2.08498">
        <ele>23.2</ele>
        <time>2022-04-18T12:02:30Z</time>
      </trkpt>
      <trkpt lat="48.99003" lon="2.08489">
        <ele>23.1</ele>
        <time>2022-04-18T12:02:36Z</time>
      </trkpt>
      <trkpt lat="48.99002" lon="2.08478">
        <ele>23.1</ele>
        <time>2022-04-18T12:02:41Z</time>
      </trkpt>
      <trkpt lat="48.98998" lon="2.08469">
        <ele>23</ele>
        <time>2022-04-18T12:02:47Z</time>
      </trkpt>
      <trkpt lat="48.98997" lon="2.08458">
        <ele>23.3</ele>
        <time>2022-04-18T12:02:52Z</time>
      </trkpt>
      <trkpt lat="48.98995" lon="2.08449">
        <ele>23.3</ele>
        <time>2022-04-18T12:02:57Z</time>
      </trkpt>
      <trkpt lat="48.98993" lon="2.08442">
        <ele>23.2</ele>
        <time>2022-04-18T12:03:03Z</time>
      </trkpt>
      <trkpt lat="48.98994" lon="2.08435">
        <ele>23.3</ele>
        <time>2022-04-18T12:03:08Z</time>
      </trkpt>
      <trkpt lat="48.98993" lon="2.08423">
        <ele>23</ele>
        <time>2022-04-18T12:03:13Z</time>
      </trkpt>
      <trkpt lat="48.98991" lon="2.08408">
        <ele>22.9</ele>
        <time>2022-04-18T12:03:19Z</time>
      </trkpt>
      <trkpt lat="48.98987" lon="2.08398">
        <ele>22.8</ele>
        <time>2022-04-18T12:03:24Z</time>
      </trkpt>
      <trkpt lat="48.98983" lon="2.08385">
        <ele>22.9</ele>
        <time>2022-04-18T12:03:30Z</time>
      </trkpt>
      <trkpt lat="48.98981" lon="2.08377">
        <ele>22.9</ele>
        <time>2022-04-18T12:03:35Z</time>
      </trkpt>
      <trkpt lat="48.98977" lon="2.08367">
        <ele>23</ele>
        <time>2022-04-18T12:03:41Z</time>
      </trkpt>
      <trkpt lat="48.98973" lon="2.08359">
        <ele>23</ele>
        <time>2022-04-18T12:03:47Z</time>
      </trkpt>
      <trkpt lat="48.9897" lon="2.08347">
        <ele>22.9</ele>
        <time>2022-04-18T12:03:52Z</time>
      </trkpt>
      <trkpt lat="48.98967" lon="2.08336">
        <ele>22.7</ele>
        <time>2022-04-18T12:03:58Z</time>
      </trkpt>
      <trkpt lat="48.98964" lon="2.08324">
        <ele>23.1</ele>
        <time>2022-04-18T12:04:04Z</time>
      </trkpt>
      <trkpt lat="48.98963" lon="2.08314">
        <ele>23.7</ele>
        <time>2022-04-18T12:04:10Z</time>
      </trkpt>
      <trkpt lat="48.98959" lon="2.08304">
        <ele>23.6</ele>
        <time>2022-04-18T12:04:16Z</time>
      </trkpt>
      <trkpt lat="48.98957" lon="2.08295">
        <ele>23.2</ele>
        <time>2022-04-18T12:04:21Z</time>
      </trkpt>
      <trkpt lat="48.98955" lon="2.08287">
        <ele>22.9</ele>
        <time>2022-04-18T12:04:26Z</time>
      </trkpt>
      <trkpt lat="48.98956" lon="2.08273">
        <ele>23.2</ele>
        <time>2022-04-18T12:04:32Z</time>
      </trkpt>
      <trkpt lat="48.98956" lon="2.08265">
        <ele>23.1</ele>
        <time>2022-04-18T12:04:37Z</time>
      </trkpt>
      <trkpt lat="48.98954" lon="2.08253">
        <ele>23</ele>
        <time>2022-04-18T12:04:43Z</time>
      </trkpt>
      <trkpt lat="48.98955" lon="2.08241">
        <ele>23</ele>
        <time>2022-04-18T12:04:49Z</time>
      </trkpt>
      <trkpt lat="48.98952" lon="2.0824">
        <ele>22.7</ele>
        <time>2022-04-18T12:04:55Z</time>
      </trkpt>
      <trkpt lat="48.9895" lon="2.08233">
        <ele>22.5</ele>
        <time>2022-04-18T12:05:00Z</time>
      </trkpt>
      <trkpt lat="48.98949" lon="2.08222">
        <ele>22.3</ele>
        <time>2022-04-18T12:05:05Z</time>
      </trkpt>
      <trkpt lat="48.98947" lon="2.08212">
        <ele>22.2</ele>
        <time>2022-04-18T12:05:11Z</time>
      </trkpt>
      <trkpt lat="48.98946" lon="2.08203">
        <ele>22.1</ele>
        <time>2022-04-18T12:05:17Z</time>
      </trkpt>
      <trkpt lat="48.98941" lon="2.08189">
        <ele>22.1</ele>
        <time>2022-04-18T12:05:23Z</time>
      </trkpt>
      <trkpt lat="48.98938" lon="2.08176">
        <ele>22.3</ele>
        <time>2022-04-18T12:05:28Z</time>
      </trkpt>
      <trkpt lat="48.98934" lon="2.08161">
        <ele>22.5</ele>
        <time>2022-04-18T12:05:34Z</time>
      </trkpt>
      <trkpt lat="48.98931" lon="2.08149">
        <ele>22.7</ele>
        <time>2022-04-18T12:05:39Z</time>
      </trkpt>
      <trkpt lat="48.98928" lon="2.08135">
        <ele>22.7</ele>
        <time>2022-04-18T12:05:45Z</time>
      </trkpt>
      <trkpt lat="48.98926" lon="2.08123">
        <ele>22.3</ele>
        <time>2022-04-18T12:05:50Z</time>
      </trkpt>
      <trkpt lat="48.98925" lon="2.08112">
        <ele>21.9</ele>
        <time>2022-04-18T12:05:55Z</time>
      </trkpt>
      <trkpt lat="48.98923" lon="2.08102">
        <ele>21.9</ele>
        <time>2022-04-18T12:06:00Z</time>
      </trkpt>
      <trkpt lat="48.98921" lon="2.0809">
        <ele>22.1</ele>
        <time>2022-04-18T12:06:06Z</time>
      </trkpt>
      <trkpt lat="48.98918" lon="2.08076">
        <ele>22.4</ele>
        <time>2022-04-18T12:06:12Z</time>
      </trkpt>
      <trkpt lat="48.98915" lon="2.08064">
        <ele>22.6</ele>
        <time>2022-04-18T12:06:17Z</time>
      </trkpt>
      <trkpt lat="48.98911" lon="2.08052">
        <ele>22.9</ele>
        <time>2022-04-18T12:06:22Z</time>
      </trkpt>
      <trkpt lat="48.98907" lon="2.08039">
        <ele>23.1</ele>
        <time>2022-04-18T12:06:28Z</time>
      </trkpt>
      <trkpt lat="48.98906" lon="2.08031">
        <ele>23.1</ele>
        <time>2022-04-18T12:06:33Z</time>
      </trkpt>
      <trkpt lat="48.98903" lon="2.08024">
        <ele>23</ele>
        <time>2022-04-18T12:06:38Z</time>
      </trkpt>
      <trkpt lat="48.989" lon="2.08015">
        <ele>22.5</ele>
        <time>2022-04-18T12:06:44Z</time>
      </trkpt>
      <trkpt lat="48.98898" lon="2.08007">
        <ele>22.2</ele>
        <time>2022-04-18T12:06:49Z</time>
      </trkpt>
      <trkpt lat="48.98896" lon="2.07996">
        <ele>21.9</ele>
        <time>2022-04-18T12:06:54Z</time>
      </trkpt>
      <trkpt lat="48.98894" lon="2.07982">
        <ele>22</ele>
        <time>2022-04-18T12:07:00Z</time>
      </trkpt>
      <trkpt lat="48.98892" lon="2.07968">
        <ele>22.4</ele>
        <time>2022-04-18T12:07:06Z</time>
      </trkpt>
      <trkpt lat="48.9889" lon="2.07957">
        <ele>22.6</ele>
        <time>2022-04-18T12:07:11Z</time>
      </trkpt>
      <trkpt lat="48.98888" lon="2.07948">
        <ele>22.8</ele>
        <time>2022-04-18T12:07:16Z</time>
      </trkpt>
      <trkpt lat="48.98886" lon="2.07938">
        <ele>23.1</ele>
        <time>2022-04-18T12:07:22Z</time>
      </trkpt>
      <trkpt lat="48.98884" lon="2.07929">
        <ele>23.3</ele>
        <time>2022-04-18T12:07:27Z</time>
      </trkpt>
      <trkpt lat="48.9888" lon="2.07918">
        <ele>23.3</ele>
        <time>2022-04-18T12:07:33Z</time>
      </trkpt>
      <trkpt lat="48.98876" lon="2.07907">
        <ele>23.1</ele>
        <time>2022-04-18T12:07:38Z</time>
      </trkpt>
      <trkpt lat="48.98873" lon="2.07894">
        <ele>22.9</ele>
        <time>2022-04-18T12:07:44Z</time>
      </trkpt>
      <trkpt lat="48.98871" lon="2.07883">
        <ele>22.7</ele>
        <time>2022-04-18T12:07:49Z</time>
      </trkpt>
      <trkpt lat="48.98869" lon="2.07872">
        <ele>22.5</ele>
        <time>2022-04-18T12:07:55Z</time>
      </trkpt>
      <trkpt lat="48.98867" lon="2.07862">
        <ele>22.5</ele>
        <time>2022-04-18T12:08:00Z</time>
      </trkpt>
      <trkpt lat="48.98865" lon="2.07854">
        <ele>22.5</ele>
        <time>2022-04-18T12:08:06Z</time>
      </trkpt>
      <trkpt lat="48.98865" lon="2.07854">
        <ele>22.5</ele>
        <time>2022-04-18T12:08:11Z</time>
      </trkpt>
      <trkpt lat="48.98862" lon="2.07839">
        <ele>22.8</ele>
        <time>2022-04-18T12:08:16Z</time>
      </trkpt>
      <trkpt lat="48.9886" lon="2.07824">
        <ele>23.3</ele>
        <time>2022-04-18T12:08:22Z</time>
      </trkpt>
      <trkpt lat="48.98858" lon="2.07816">
        <ele>23.5</ele>
        <time>2022-04-18T12:08:27Z</time>
      </trkpt>
      <trkpt lat="48.98853" lon="2.07803">
        <ele>23.4</ele>
        <time>2022-04-18T12:08:33Z</time>
      </trkpt>
      <trkpt lat="48.9885" lon="2.07791">
        <ele>23</ele>
        <time>2022-04-18T12:08:38Z</time>
      </trkpt>
      <trkpt lat="48.98846" lon="2.07779">
        <ele>22.4</ele>
        <time>2022-04-18T12:08:44Z</time>
      </trkpt>
      <trkpt lat="48.98844" lon="2.07766">
        <ele>22.2</ele>
        <time>2022-04-18T12:08:50Z</time>
      </trkpt>
      <trkpt lat="48.98841" lon="2.07757">
        <ele>21.9</ele>
        <time>2022-04-18T12:08:55Z</time>
      </trkpt>
      <trkpt lat="48.98837" lon="2.07745">
        <ele>21.6</ele>
        <time>2022-04-18T12:09:00Z</time>
      </trkpt>
      <trkpt lat="48.98834" lon="2.07733">
        <ele>21.6</ele>
        <time>2022-04-18T12:09:06Z</time>
      </trkpt>
      <trkpt lat="48.98832" lon="2.07723">
        <ele>21.9</ele>
        <time>2022-04-18T12:09:12Z</time>
      </trkpt>
      <trkpt lat="48.9883" lon="2.07714">
        <ele>22</ele>
        <time>2022-04-18T12:09:17Z</time>
      </trkpt>
      <trkpt lat="48.98826" lon="2.07699">
        <ele>22.1</ele>
        <time>2022-04-18T12:09:23Z</time>
      </trkpt>
      <trkpt lat="48.98823" lon="2.07685">
        <ele>21.9</ele>
        <time>2022-04-18T12:09:28Z</time>
      </trkpt>
      <trkpt lat="48.9882" lon="2.07672">
        <ele>21.5</ele>
        <time>2022-04-18T12:09:33Z</time>
      </trkpt>
      <trkpt lat="48.98817" lon="2.07664">
        <ele>21.3</ele>
        <time>2022-04-18T12:09:38Z</time>
      </trkpt>
      <trkpt lat="48.98816" lon="2.07656">
        <ele>21.5</ele>
        <time>2022-04-18T12:09:44Z</time>
      </trkpt>
      <trkpt lat="48.98815" lon="2.07644">
        <ele>21.8</ele>
        <time>2022-04-18T12:09:50Z</time>
      </trkpt>
      <trkpt lat="48.9881" lon="2.07629">
        <ele>21.8</ele>
        <time>2022-04-18T12:09:56Z</time>
      </trkpt>
      <trkpt lat="48.98806" lon="2.07617">
        <ele>21.8</ele>
        <time>2022-04-18T12:10:01Z</time>
      </trkpt>
      <trkpt lat="48.98805" lon="2.07607">
        <ele>22.1</ele>
        <time>2022-04-18T12:10:06Z</time>
      </trkpt>
      <trkpt lat="48.98805" lon="2.07599">
        <ele>22.4</ele>
        <time>2022-04-18T12:10:11Z</time>
      </trkpt>
      <trkpt lat="48.98802" lon="2.07587">
        <ele>22.7</ele>
        <time>2022-04-18T12:10:17Z</time>
      </trkpt>
      <trkpt lat="48.98801" lon="2.07577">
        <ele>23</ele>
        <time>2022-04-18T12:10:22Z</time>
      </trkpt>
      <trkpt lat="48.988" lon="2.07568">
        <ele>23.3</ele>
        <time>2022-04-18T12:10:28Z</time>
      </trkpt>
      <trkpt lat="48.98799" lon="2.07557">
        <ele>23.5</ele>
        <time>2022-04-18T12:10:33Z</time>
      </trkpt>
      <trkpt lat="48.98794" lon="2.07542">
        <ele>23.2</ele>
        <time>2022-04-18T12:10:39Z</time>
      </trkpt>
      <trkpt lat="48.98793" lon="2.07531">
        <ele>23.1</ele>
        <time>2022-04-18T12:10:45Z</time>
      </trkpt>
      <trkpt lat="48.98793" lon="2.0752">
        <ele>23.7</ele>
        <time>2022-04-18T12:10:50Z</time>
      </trkpt>
      <trkpt lat="48.98793" lon="2.07512">
        <ele>24.3</ele>
        <time>2022-04-18T12:10:56Z</time>
      </trkpt>
      <trkpt lat="48.98792" lon="2.075">
        <ele>25.1</ele>
        <time>2022-04-18T12:11:01Z</time>
      </trkpt>
      <trkpt lat="48.98788" lon="2.07492">
        <ele>24.2</ele>
        <time>2022-04-18T12:11:06Z</time>
      </trkpt>
      <trkpt lat="48.98786" lon="2.07482">
        <ele>23.9</ele>
        <time>2022-04-18T12:11:12Z</time>
      </trkpt>
      <trkpt lat="48.98785" lon="2.07471">
        <ele>23.8</ele>
        <time>2022-04-18T12:11:17Z</time>
      </trkpt>
      <trkpt lat="48.98784" lon="2.0746">
        <ele>23.9</ele>
        <time>2022-04-18T12:11:22Z</time>
      </trkpt>
      <trkpt lat="48.98782" lon="2.07447">
        <ele>24.1</ele>
        <time>2022-04-18T12:11:28Z</time>
      </trkpt>
      <trkpt lat="48.9878" lon="2.07439">
        <ele>24.2</ele>
        <time>2022-04-18T12:11:34Z</time>
      </trkpt>
      <trkpt lat="48.98779" lon="2.07433">
        <ele>24.4</ele>
        <time>2022-04-18T12:11:39Z</time>
      </trkpt>
      <trkpt lat="48.98774" lon="2.07421">
        <ele>24.3</ele>
        <time>2022-04-18T12:11:45Z</time>
      </trkpt>
      <trkpt lat="48.98773" lon="2.07413">
        <ele>24.2</ele>
        <time>2022-04-18T12:11:50Z</time>
      </trkpt>
      <trkpt lat="48.9877" lon="2.07402">
        <ele>23.9</ele>
        <time>2022-04-18T12:11:56Z</time>
      </trkpt>
      <trkpt lat="48.98768" lon="2.07392">
        <ele>23.6</ele>
        <time>2022-04-18T12:12:01Z</time>
      </trkpt>
      <trkpt lat="48.98766" lon="2.07377">
        <ele>23.5</ele>
        <time>2022-04-18T12:12:07Z</time>
      </trkpt>
      <trkpt lat="48.98761" lon="2.07363">
        <ele>23.2</ele>
        <time>2022-04-18T12:12:13Z</time>
      </trkpt>
      <trkpt lat="48.9876" lon="2.07354">
        <ele>23</ele>
        <time>2022-04-18T12:12:18Z</time>
      </trkpt>
      <trkpt lat="48.98761" lon="2.07345">
        <ele>23</ele>
        <time>2022-04-18T12:12:23Z</time>
      </trkpt>
      <trkpt lat="48.98761" lon="2.07334">
        <ele>22.8</ele>
        <time>2022-04-18T12:12:29Z</time>
      </trkpt>
      <trkpt lat="48.98761" lon="2.07322">
        <ele>23.1</ele>
        <time>2022-04-18T12:12:35Z</time>
      </trkpt>
      <trkpt lat="48.98763" lon="2.07312">
        <ele>23.3</ele>
        <time>2022-04-18T12:12:40Z</time>
      </trkpt>
      <trkpt lat="48.98766" lon="2.07299">
        <ele>23.6</ele>
        <time>2022-04-18T12:12:46Z</time>
      </trkpt>
      <trkpt lat="48.98763" lon="2.07293">
        <ele>23.5</ele>
        <time>2022-04-18T12:12:52Z</time>
      </trkpt>
      <trkpt lat="48.98764" lon="2.07302">
        <ele>23.5</ele>
        <time>2022-04-18T12:12:58Z</time>
      </trkpt>
      <trkpt lat="48.98763" lon="2.07302">
        <ele>23.5</ele>
        <time>2022-04-18T12:13:03Z</time>
      </trkpt>
      <trkpt lat="48.98763" lon="2.07302">
        <ele>23.5</ele>
        <time>2022-04-18T12:13:09Z</time>
      </trkpt>
      <trkpt lat="48.98764" lon="2.07296">
        <ele>23.5</ele>
        <time>2022-04-18T12:13:15Z</time>
      </trkpt>
      <trkpt lat="48.98759" lon="2.07283">
        <ele>23.3</ele>
        <time>2022-04-18T12:13:20Z</time>
      </trkpt>
      <trkpt lat="48.9875" lon="2.07261">
        <ele>23</ele>
        <time>2022-04-18T12:13:25Z</time>
      </trkpt>
      <trkpt lat="48.98742" lon="2.07245">
        <ele>22.3</ele>
        <time>2022-04-18T12:13:30Z</time>
      </trkpt>
      <trkpt lat="48.98746" lon="2.07234">
        <ele>22.2</ele>
        <time>2022-04-18T12:13:35Z</time>
      </trkpt>
      <trkpt lat="48.98753" lon="2.0722">
        <ele>22</ele>
        <time>2022-04-18T12:13:41Z</time>
      </trkpt>
      <trkpt lat="48.9876" lon="2.07214">
        <ele>22</ele>
        <time>2022-04-18T12:13:47Z</time>
      </trkpt>
      <trkpt lat="48.9877" lon="2.07212">
        <ele>22.1</ele>
        <time>2022-04-18T12:13:52Z</time>
      </trkpt>
      <trkpt lat="48.9878" lon="2.07214">
        <ele>22.4</ele>
        <time>2022-04-18T12:13:58Z</time>
      </trkpt>
      <trkpt lat="48.98786" lon="2.07217">
        <ele>22.4</ele>
        <time>2022-04-18T12:14:03Z</time>
      </trkpt>
      <trkpt lat="48.98792" lon="2.0722">
        <ele>22.4</ele>
        <time>2022-04-18T12:14:08Z</time>
      </trkpt>
      <trkpt lat="48.98799" lon="2.07228">
        <ele>22.6</ele>
        <time>2022-04-18T12:14:14Z</time>
      </trkpt>
      <trkpt lat="48.98805" lon="2.07234">
        <ele>22.9</ele>
        <time>2022-04-18T12:14:19Z</time>
      </trkpt>
      <trkpt lat="48.98812" lon="2.07238">
        <ele>23</ele>
        <time>2022-04-18T12:14:25Z</time>
      </trkpt>
      <trkpt lat="48.98819" lon="2.07236">
        <ele>22.8</ele>
        <time>2022-04-18T12:14:30Z</time>
      </trkpt>
      <trkpt lat="48.98829" lon="2.07233">
        <ele>22.2</ele>
        <time>2022-04-18T12:14:36Z</time>
      </trkpt>
      <trkpt lat="48.98837" lon="2.07234">
        <ele>22.2</ele>
        <time>2022-04-18T12:14:41Z</time>
      </trkpt>
      <trkpt lat="48.98844" lon="2.07237">
        <ele>22.4</ele>
        <time>2022-04-18T12:14:47Z</time>
      </trkpt>
      <trkpt lat="48.98851" lon="2.07242">
        <ele>22.6</ele>
        <time>2022-04-18T12:14:52Z</time>
      </trkpt>
      <trkpt lat="48.98859" lon="2.07245">
        <ele>22.7</ele>
        <time>2022-04-18T12:14:58Z</time>
      </trkpt>
      <trkpt lat="48.98864" lon="2.07248">
        <ele>22.9</ele>
        <time>2022-04-18T12:15:04Z</time>
      </trkpt>
      <trkpt lat="48.98873" lon="2.07252">
        <ele>23</ele>
        <time>2022-04-18T12:15:10Z</time>
      </trkpt>
      <trkpt lat="48.98877" lon="2.07257">
        <ele>23.1</ele>
        <time>2022-04-18T12:15:15Z</time>
      </trkpt>
      <trkpt lat="48.98878" lon="2.07268">
        <ele>23.2</ele>
        <time>2022-04-18T12:15:21Z</time>
      </trkpt>
      <trkpt lat="48.98874" lon="2.07278">
        <ele>23.6</ele>
        <time>2022-04-18T12:15:27Z</time>
      </trkpt>
      <trkpt lat="48.98873" lon="2.07283">
        <ele>23.6</ele>
        <time>2022-04-18T12:15:32Z</time>
      </trkpt>
      <trkpt lat="48.98867" lon="2.07293">
        <ele>23.8</ele>
        <time>2022-04-18T12:15:38Z</time>
      </trkpt>
      <trkpt lat="48.9886" lon="2.07304">
        <ele>24</ele>
        <time>2022-04-18T12:15:44Z</time>
      </trkpt>
      <trkpt lat="48.98858" lon="2.07313">
        <ele>24.1</ele>
        <time>2022-04-18T12:15:50Z</time>
      </trkpt>
      <trkpt lat="48.98854" lon="2.07318">
        <ele>24.4</ele>
        <time>2022-04-18T12:15:55Z</time>
      </trkpt>
      <trkpt lat="48.98856" lon="2.07311">
        <ele>24.1</ele>
        <time>2022-04-18T12:16:01Z</time>
      </trkpt>
      <trkpt lat="48.98861" lon="2.07303">
        <ele>24</ele>
        <time>2022-04-18T12:16:06Z</time>
      </trkpt>
      <trkpt lat="48.98866" lon="2.07291">
        <ele>23.8</ele>
        <time>2022-04-18T12:16:12Z</time>
      </trkpt>
      <trkpt lat="48.98869" lon="2.07282">
        <ele>23.7</ele>
        <time>2022-04-18T12:16:17Z</time>
      </trkpt>
      <trkpt lat="48.9887" lon="2.07281">
        <ele>23.7</ele>
        <time>2022-04-18T12:16:23Z</time>
      </trkpt>
      <trkpt lat="48.98872" lon="2.07277">
        <ele>23.6</ele>
        <time>2022-04-18T12:16:29Z</time>
      </trkpt>
      <trkpt lat="48.98874" lon="2.07267">
        <ele>23.3</ele>
        <time>2022-04-18T12:16:35Z</time>
      </trkpt>
      <trkpt lat="48.98878" lon="2.07252">
        <ele>23</ele>
        <time>2022-04-18T12:16:41Z</time>
      </trkpt>
      <trkpt lat="48.98881" lon="2.0724">
        <ele>22.3</ele>
        <time>2022-04-18T12:16:46Z</time>
      </trkpt>
      <trkpt lat="48.98885" lon="2.0723">
        <ele>21.5</ele>
        <time>2022-04-18T12:16:52Z</time>
      </trkpt>
      <trkpt lat="48.98891" lon="2.07222">
        <ele>21</ele>
        <time>2022-04-18T12:16:58Z</time>
      </trkpt>
      <trkpt lat="48.98896" lon="2.07212">
        <ele>21</ele>
        <time>2022-04-18T12:17:04Z</time>
      </trkpt>
      <trkpt lat="48.989" lon="2.07201">
        <ele>21</ele>
        <time>2022-04-18T12:17:10Z</time>
      </trkpt>
      <trkpt lat="48.98903" lon="2.07189">
        <ele>21</ele>
        <time>2022-04-18T12:17:16Z</time>
      </trkpt>
      <trkpt lat="48.98908" lon="2.07177">
        <ele>21</ele>
        <time>2022-04-18T12:17:22Z</time>
      </trkpt>
      <trkpt lat="48.98912" lon="2.07166">
        <ele>21</ele>
        <time>2022-04-18T12:17:28Z</time>
      </trkpt>
      <trkpt lat="48.98916" lon="2.07151">
        <ele>21</ele>
        <time>2022-04-18T12:17:34Z</time>
      </trkpt>
      <trkpt lat="48.98919" lon="2.0714">
        <ele>21</ele>
        <time>2022-04-18T12:17:39Z</time>
      </trkpt>
      <trkpt lat="48.98924" lon="2.07128">
        <ele>22.1</ele>
        <time>2022-04-18T12:17:45Z</time>
      </trkpt>
      <trkpt lat="48.98928" lon="2.07121">
        <ele>22.7</ele>
        <time>2022-04-18T12:17:50Z</time>
      </trkpt>
      <trkpt lat="48.98932" lon="2.07109">
        <ele>23.5</ele>
        <time>2022-04-18T12:17:56Z</time>
      </trkpt>
      <trkpt lat="48.98935" lon="2.07099">
        <ele>23.5</ele>
        <time>2022-04-18T12:18:02Z</time>
      </trkpt>
      <trkpt lat="48.9894" lon="2.07087">
        <ele>23.8</ele>
        <time>2022-04-18T12:18:08Z</time>
      </trkpt>
      <trkpt lat="48.98944" lon="2.07076">
        <ele>24.5</ele>
        <time>2022-04-18T12:18:13Z</time>
      </trkpt>
      <trkpt lat="48.98947" lon="2.07065">
        <ele>25.1</ele>
        <time>2022-04-18T12:18:19Z</time>
      </trkpt>
      <trkpt lat="48.98948" lon="2.07055">
        <ele>25.6</ele>
        <time>2022-04-18T12:18:24Z</time>
      </trkpt>
      <trkpt lat="48.98952" lon="2.07058">
        <ele>25.1</ele>
        <time>2022-04-18T12:18:29Z</time>
      </trkpt>
      <trkpt lat="48.98948" lon="2.07071">
        <ele>24.6</ele>
        <time>2022-04-18T12:18:35Z</time>
      </trkpt>
      <trkpt lat="48.98942" lon="2.07084">
        <ele>23.9</ele>
        <time>2022-04-18T12:18:41Z</time>
      </trkpt>
      <trkpt lat="48.98936" lon="2.07093">
        <ele>23.6</ele>
        <time>2022-04-18T12:18:46Z</time>
      </trkpt>
      <trkpt lat="48.98932" lon="2.07104">
        <ele>23.5</ele>
        <time>2022-04-18T12:18:52Z</time>
      </trkpt>
      <trkpt lat="48.98929" lon="2.07104">
        <ele>23.5</ele>
        <time>2022-04-18T12:18:57Z</time>
      </trkpt>
      <trkpt lat="48.98926" lon="2.07098">
        <ele>23.5</ele>
        <time>2022-04-18T12:19:03Z</time>
      </trkpt>
      <trkpt lat="48.98923" lon="2.07097">
        <ele>23.5</ele>
        <time>2022-04-18T12:19:08Z</time>
      </trkpt>
      <trkpt lat="48.9892" lon="2.07097">
        <ele>23.5</ele>
        <time>2022-04-18T12:19:14Z</time>
      </trkpt>
      <trkpt lat="48.98914" lon="2.07098">
        <ele>23.4</ele>
        <time>2022-04-18T12:19:19Z</time>
      </trkpt>
      <trkpt lat="48.98906" lon="2.07097">
        <ele>23.1</ele>
        <time>2022-04-18T12:19:24Z</time>
      </trkpt>
      <trkpt lat="48.98894" lon="2.07095">
        <ele>22.7</ele>
        <time>2022-04-18T12:19:30Z</time>
      </trkpt>
      <trkpt lat="48.98884" lon="2.07093">
        <ele>22.8</ele>
        <time>2022-04-18T12:19:36Z</time>
      </trkpt>
      <trkpt lat="48.98878" lon="2.07092">
        <ele>23.1</ele>
        <time>2022-04-18T12:19:41Z</time>
      </trkpt>
      <trkpt lat="48.98872" lon="2.07089">
        <ele>23.4</ele>
        <time>2022-04-18T12:19:46Z</time>
      </trkpt>
      <trkpt lat="48.98866" lon="2.07086">
        <ele>23.7</ele>
        <time>2022-04-18T12:19:52Z</time>
      </trkpt>
      <trkpt lat="48.98857" lon="2.07083">
        <ele>24</ele>
        <time>2022-04-18T12:19:58Z</time>
      </trkpt>
      <trkpt lat="48.9885" lon="2.07081">
        <ele>24</ele>
        <time>2022-04-18T12:20:05Z</time>
      </trkpt>
      <trkpt lat="48.98842" lon="2.0708">
        <ele>24</ele>
        <time>2022-04-18T12:20:10Z</time>
      </trkpt>
      <trkpt lat="48.98833" lon="2.07078">
        <ele>24</ele>
        <time>2022-04-18T12:20:16Z</time>
      </trkpt>
      <trkpt lat="48.98824" lon="2.07077">
        <ele>23.7</ele>
        <time>2022-04-18T12:20:22Z</time>
      </trkpt>
      <trkpt lat="48.98816" lon="2.07077">
        <ele>23.4</ele>
        <time>2022-04-18T12:20:28Z</time>
      </trkpt>
      <trkpt lat="48.98808" lon="2.07075">
        <ele>23.1</ele>
        <time>2022-04-18T12:20:34Z</time>
      </trkpt>
      <trkpt lat="48.98799" lon="2.07072">
        <ele>22.7</ele>
        <time>2022-04-18T12:20:40Z</time>
      </trkpt>
      <trkpt lat="48.98791" lon="2.07067">
        <ele>22.5</ele>
        <time>2022-04-18T12:20:46Z</time>
      </trkpt>
      <trkpt lat="48.98783" lon="2.07063">
        <ele>22.5</ele>
        <time>2022-04-18T12:20:51Z</time>
      </trkpt>
      <trkpt lat="48.98776" lon="2.07058">
        <ele>22.7</ele>
        <time>2022-04-18T12:20:57Z</time>
      </trkpt>
      <trkpt lat="48.9877" lon="2.07055">
        <ele>22.7</ele>
        <time>2022-04-18T12:21:03Z</time>
      </trkpt>
      <trkpt lat="48.98764" lon="2.07051">
        <ele>22.7</ele>
        <time>2022-04-18T12:21:08Z</time>
      </trkpt>
      <trkpt lat="48.98759" lon="2.07047">
        <ele>22.6</ele>
        <time>2022-04-18T12:21:13Z</time>
      </trkpt>
      <trkpt lat="48.98752" lon="2.0704">
        <ele>22.6</ele>
        <time>2022-04-18T12:21:19Z</time>
      </trkpt>
      <trkpt lat="48.98743" lon="2.07036">
        <ele>22.5</ele>
        <time>2022-04-18T12:21:25Z</time>
      </trkpt>
      <trkpt lat="48.98736" lon="2.07033">
        <ele>22.3</ele>
        <time>2022-04-18T12:21:30Z</time>
      </trkpt>
      <trkpt lat="48.98725" lon="2.07024">
        <ele>22.4</ele>
        <time>2022-04-18T12:21:36Z</time>
      </trkpt>
      <trkpt lat="48.9872" lon="2.07019">
        <ele>22.5</ele>
        <time>2022-04-18T12:21:41Z</time>
      </trkpt>
      <trkpt lat="48.98716" lon="2.07015">
        <ele>22.7</ele>
        <time>2022-04-18T12:21:47Z</time>
      </trkpt>
      <trkpt lat="48.9871" lon="2.07009">
        <ele>22.9</ele>
        <time>2022-04-18T12:21:53Z</time>
      </trkpt>
      <trkpt lat="48.98702" lon="2.06999">
        <ele>23.3</ele>
        <time>2022-04-18T12:21:58Z</time>
      </trkpt>
      <trkpt lat="48.98697" lon="2.06993">
        <ele>23.1</ele>
        <time>2022-04-18T12:22:03Z</time>
      </trkpt>
      <trkpt lat="48.9869" lon="2.06988">
        <ele>22.8</ele>
        <time>2022-04-18T12:22:09Z</time>
      </trkpt>
      <trkpt lat="48.98683" lon="2.06979">
        <ele>22.5</ele>
        <time>2022-04-18T12:22:15Z</time>
      </trkpt>
      <trkpt lat="48.98679" lon="2.06972">
        <ele>22.4</ele>
        <time>2022-04-18T12:22:20Z</time>
      </trkpt>
      <trkpt lat="48.98674" lon="2.06966">
        <ele>22.6</ele>
        <time>2022-04-18T12:22:26Z</time>
      </trkpt>
      <trkpt lat="48.98667" lon="2.0696">
        <ele>22.9</ele>
        <time>2022-04-18T12:22:32Z</time>
      </trkpt>
      <trkpt lat="48.98662" lon="2.06953">
        <ele>23.1</ele>
        <time>2022-04-18T12:22:37Z</time>
      </trkpt>
      <trkpt lat="48.98657" lon="2.06942">
        <ele>23.3</ele>
        <time>2022-04-18T12:22:43Z</time>
      </trkpt>
      <trkpt lat="48.98652" lon="2.06932">
        <ele>23.2</ele>
        <time>2022-04-18T12:22:49Z</time>
      </trkpt>
      <trkpt lat="48.98647" lon="2.06923">
        <ele>23.1</ele>
        <time>2022-04-18T12:22:55Z</time>
      </trkpt>
      <trkpt lat="48.98641" lon="2.06915">
        <ele>23.1</ele>
        <time>2022-04-18T12:23:01Z</time>
      </trkpt>
      <trkpt lat="48.98635" lon="2.06904">
        <ele>22.8</ele>
        <time>2022-04-18T12:23:07Z</time>
      </trkpt>
      <trkpt lat="48.98631" lon="2.06897">
        <ele>22.7</ele>
        <time>2022-04-18T12:23:12Z</time>
      </trkpt>
      <trkpt lat="48.98629" lon="2.06892">
        <ele>22.6</ele>
        <time>2022-04-18T12:23:17Z</time>
      </trkpt>
      <trkpt lat="48.98627" lon="2.06879">
        <ele>22.7</ele>
        <time>2022-04-18T12:23:23Z</time>
      </trkpt>
      <trkpt lat="48.98621" lon="2.06867">
        <ele>22.9</ele>
        <time>2022-04-18T12:23:29Z</time>
      </trkpt>
      <trkpt lat="48.98615" lon="2.06856">
        <ele>23</ele>
        <time>2022-04-18T12:23:34Z</time>
      </trkpt>
      <trkpt lat="48.98607" lon="2.06844">
        <ele>22.7</ele>
        <time>2022-04-18T12:23:40Z</time>
      </trkpt>
      <trkpt lat="48.98604" lon="2.06835">
        <ele>22.5</ele>
        <time>2022-04-18T12:23:45Z</time>
      </trkpt>
      <trkpt lat="48.986" lon="2.06825">
        <ele>22.5</ele>
        <time>2022-04-18T12:23:50Z</time>
      </trkpt>
      <trkpt lat="48.98595" lon="2.06814">
        <ele>22.7</ele>
        <time>2022-04-18T12:23:56Z</time>
      </trkpt>
      <trkpt lat="48.98592" lon="2.06804">
        <ele>23</ele>
        <time>2022-04-18T12:24:02Z</time>
      </trkpt>
      <trkpt lat="48.98588" lon="2.06794">
        <ele>23</ele>
        <time>2022-04-18T12:24:08Z</time>
      </trkpt>
      <trkpt lat="48.98586" lon="2.06786">
        <ele>23</ele>
        <time>2022-04-18T12:24:14Z</time>
      </trkpt>
      <trkpt lat="48.98581" lon="2.06775">
        <ele>22.9</ele>
        <time>2022-04-18T12:24:20Z</time>
      </trkpt>
      <trkpt lat="48.98576" lon="2.06761">
        <ele>22.6</ele>
        <time>2022-04-18T12:24:26Z</time>
      </trkpt>
      <trkpt lat="48.9857" lon="2.06753">
        <ele>22.5</ele>
        <time>2022-04-18T12:24:31Z</time>
      </trkpt>
      <trkpt lat="48.98568" lon="2.06745">
        <ele>22.5</ele>
        <time>2022-04-18T12:24:37Z</time>
      </trkpt>
      <trkpt lat="48.98564" lon="2.06731">
        <ele>22.8</ele>
        <time>2022-04-18T12:24:43Z</time>
      </trkpt>
      <trkpt lat="48.98561" lon="2.06722">
        <ele>23</ele>
        <time>2022-04-18T12:24:48Z</time>
      </trkpt>
      <trkpt lat="48.98557" lon="2.06713">
        <ele>23.3</ele>
        <time>2022-04-18T12:24:54Z</time>
      </trkpt>
      <trkpt lat="48.98553" lon="2.06705">
        <ele>23.4</ele>
        <time>2022-04-18T12:24:59Z</time>
      </trkpt>
      <trkpt lat="48.98547" lon="2.06694">
        <ele>23.4</ele>
        <time>2022-04-18T12:25:05Z</time>
      </trkpt>
      <trkpt lat="48.98544" lon="2.06683">
        <ele>23.1</ele>
        <time>2022-04-18T12:25:10Z</time>
      </trkpt>
      <trkpt lat="48.9854" lon="2.06668">
        <ele>23</ele>
        <time>2022-04-18T12:25:16Z</time>
      </trkpt>
      <trkpt lat="48.98538" lon="2.06656">
        <ele>23</ele>
        <time>2022-04-18T12:25:22Z</time>
      </trkpt>
      <trkpt lat="48.98537" lon="2.06644">
        <ele>23</ele>
        <time>2022-04-18T12:25:27Z</time>
      </trkpt>
      <trkpt lat="48.98539" lon="2.06635">
        <ele>23.1</ele>
        <time>2022-04-18T12:25:32Z</time>
      </trkpt>
      <trkpt lat="48.98541" lon="2.06631">
        <ele>23.2</ele>
        <time>2022-04-18T12:25:38Z</time>
      </trkpt>
      <trkpt lat="48.98543" lon="2.06624">
        <ele>23.2</ele>
        <time>2022-04-18T12:25:43Z</time>
      </trkpt>
      <trkpt lat="48.98545" lon="2.06614">
        <ele>23.3</ele>
        <time>2022-04-18T12:25:48Z</time>
      </trkpt>
      <trkpt lat="48.98547" lon="2.06603">
        <ele>23.3</ele>
        <time>2022-04-18T12:25:53Z</time>
      </trkpt>
      <trkpt lat="48.98551" lon="2.06591">
        <ele>23.2</ele>
        <time>2022-04-18T12:25:59Z</time>
      </trkpt>
      <trkpt lat="48.98556" lon="2.0658">
        <ele>23</ele>
        <time>2022-04-18T12:26:05Z</time>
      </trkpt>
      <trkpt lat="48.98562" lon="2.06566">
        <ele>22.9</ele>
        <time>2022-04-18T12:26:11Z</time>
      </trkpt>
      <trkpt lat="48.98565" lon="2.06556">
        <ele>23</ele>
        <time>2022-04-18T12:26:17Z</time>
      </trkpt>
      <trkpt lat="48.9857" lon="2.06545">
        <ele>23.2</ele>
        <time>2022-04-18T12:26:22Z</time>
      </trkpt>
      <trkpt lat="48.98572" lon="2.06536">
        <ele>23.3</ele>
        <time>2022-04-18T12:26:27Z</time>
      </trkpt>
      <trkpt lat="48.98576" lon="2.06524">
        <ele>23.3</ele>
        <time>2022-04-18T12:26:33Z</time>
      </trkpt>
      <trkpt lat="48.98577" lon="2.06516">
        <ele>23.3</ele>
        <time>2022-04-18T12:26:38Z</time>
      </trkpt>
      <trkpt lat="48.98582" lon="2.06506">
        <ele>23.1</ele>
        <time>2022-04-18T12:26:44Z</time>
      </trkpt>
      <trkpt lat="48.98584" lon="2.06494">
        <ele>23</ele>
        <time>2022-04-18T12:26:49Z</time>
      </trkpt>
      <trkpt lat="48.98585" lon="2.06479">
        <ele>23.1</ele>
        <time>2022-04-18T12:26:55Z</time>
      </trkpt>
      <trkpt lat="48.9859" lon="2.06471">
        <ele>23.3</ele>
        <time>2022-04-18T12:27:01Z</time>
      </trkpt>
      <trkpt lat="48.98594" lon="2.06459">
        <ele>24</ele>
        <time>2022-04-18T12:27:07Z</time>
      </trkpt>
      <trkpt lat="48.98596" lon="2.06449">
        <ele>24.4</ele>
        <time>2022-04-18T12:27:12Z</time>
      </trkpt>
      <trkpt lat="48.98599" lon="2.06441">
        <ele>24.4</ele>
        <time>2022-04-18T12:27:17Z</time>
      </trkpt>
      <trkpt lat="48.98604" lon="2.06433">
        <ele>24.2</ele>
        <time>2022-04-18T12:27:22Z</time>
      </trkpt>
      <trkpt lat="48.98608" lon="2.06421">
        <ele>24.1</ele>
        <time>2022-04-18T12:27:28Z</time>
      </trkpt>
      <trkpt lat="48.98612" lon="2.06409">
        <ele>24</ele>
        <time>2022-04-18T12:27:34Z</time>
      </trkpt>
      <trkpt lat="48.98617" lon="2.06399">
        <ele>24</ele>
        <time>2022-04-18T12:27:40Z</time>
      </trkpt>
      <trkpt lat="48.98619" lon="2.0639">
        <ele>24</ele>
        <time>2022-04-18T12:27:45Z</time>
      </trkpt>
      <trkpt lat="48.98621" lon="2.06378">
        <ele>24.4</ele>
        <time>2022-04-18T12:27:51Z</time>
      </trkpt>
      <trkpt lat="48.98618" lon="2.06366">
        <ele>24.8</ele>
        <time>2022-04-18T12:27:56Z</time>
      </trkpt>
      <trkpt lat="48.98617" lon="2.06352">
        <ele>25</ele>
        <time>2022-04-18T12:28:02Z</time>
      </trkpt>
      <trkpt lat="48.98616" lon="2.06344">
        <ele>25</ele>
        <time>2022-04-18T12:28:07Z</time>
      </trkpt>
      <trkpt lat="48.98611" lon="2.06338">
        <ele>25</ele>
        <time>2022-04-18T12:28:13Z</time>
      </trkpt>
      <trkpt lat="48.98614" lon="2.06328">
        <ele>25</ele>
        <time>2022-04-18T12:28:18Z</time>
      </trkpt>
      <trkpt lat="48.98619" lon="2.06318">
        <ele>25.2</ele>
        <time>2022-04-18T12:28:23Z</time>
      </trkpt>
      <trkpt lat="48.98623" lon="2.06306">
        <ele>25.4</ele>
        <time>2022-04-18T12:28:29Z</time>
      </trkpt>
      <trkpt lat="48.98627" lon="2.06293">
        <ele>25.3</ele>
        <time>2022-04-18T12:28:35Z</time>
      </trkpt>
      <trkpt lat="48.98628" lon="2.0628">
        <ele>25</ele>
        <time>2022-04-18T12:28:41Z</time>
      </trkpt>
      <trkpt lat="48.98631" lon="2.06265">
        <ele>25</ele>
        <time>2022-04-18T12:28:47Z</time>
      </trkpt>
      <trkpt lat="48.98633" lon="2.06252">
        <ele>25</ele>
        <time>2022-04-18T12:28:53Z</time>
      </trkpt>
      <trkpt lat="48.98635" lon="2.06242">
        <ele>25.3</ele>
        <time>2022-04-18T12:28:59Z</time>
      </trkpt>
      <trkpt lat="48.98637" lon="2.06226">
        <ele>25.9</ele>
        <time>2022-04-18T12:29:05Z</time>
      </trkpt>
      <trkpt lat="48.9864" lon="2.06214">
        <ele>26.3</ele>
        <time>2022-04-18T12:29:10Z</time>
      </trkpt>
      <trkpt lat="48.98643" lon="2.06203">
        <ele>26.8</ele>
        <time>2022-04-18T12:29:15Z</time>
      </trkpt>
      <trkpt lat="48.98647" lon="2.06193">
        <ele>27.1</ele>
        <time>2022-04-18T12:29:21Z</time>
      </trkpt>
      <trkpt lat="48.9865" lon="2.06182">
        <ele>27.4</ele>
        <time>2022-04-18T12:29:26Z</time>
      </trkpt>
      <trkpt lat="48.98649" lon="2.06172">
        <ele>27.8</ele>
        <time>2022-04-18T12:29:31Z</time>
      </trkpt>
      <trkpt lat="48.98652" lon="2.06164">
        <ele>28</ele>
        <time>2022-04-18T12:29:36Z</time>
      </trkpt>
      <trkpt lat="48.98654" lon="2.06154">
        <ele>28.2</ele>
        <time>2022-04-18T12:29:42Z</time>
      </trkpt>
      <trkpt lat="48.98656" lon="2.06142">
        <ele>28.6</ele>
        <time>2022-04-18T12:29:48Z</time>
      </trkpt>
      <trkpt lat="48.98658" lon="2.06131">
        <ele>29.6</ele>
        <time>2022-04-18T12:29:53Z</time>
      </trkpt>
      <trkpt lat="48.98659" lon="2.06122">
        <ele>30.6</ele>
        <time>2022-04-18T12:29:58Z</time>
      </trkpt>
      <trkpt lat="48.98665" lon="2.06117">
        <ele>31.3</ele>
        <time>2022-04-18T12:30:04Z</time>
      </trkpt>
      <trkpt lat="48.98672" lon="2.06119">
        <ele>31.2</ele>
        <time>2022-04-18T12:30:10Z</time>
      </trkpt>
      <trkpt lat="48.9868" lon="2.06121">
        <ele>31.1</ele>
        <time>2022-04-18T12:30:16Z</time>
      </trkpt>
      <trkpt lat="48.98685" lon="2.06119">
        <ele>31.3</ele>
        <time>2022-04-18T12:30:21Z</time>
      </trkpt>
      <trkpt lat="48.98687" lon="2.06111">
        <ele>32</ele>
        <time>2022-04-18T12:30:27Z</time>
      </trkpt>
      <trkpt lat="48.98687" lon="2.06097">
        <ele>32.7</ele>
        <time>2022-04-18T12:30:32Z</time>
      </trkpt>
      <trkpt lat="48.98687" lon="2.06084">
        <ele>33.2</ele>
        <time>2022-04-18T12:30:38Z</time>
      </trkpt>
      <trkpt lat="48.98687" lon="2.06074">
        <ele>34.2</ele>
        <time>2022-04-18T12:30:43Z</time>
      </trkpt>
      <trkpt lat="48.98687" lon="2.06065">
        <ele>35</ele>
        <time>2022-04-18T12:30:48Z</time>
      </trkpt>
      <trkpt lat="48.98689" lon="2.06054">
        <ele>36.1</ele>
        <time>2022-04-18T12:30:54Z</time>
      </trkpt>
      <trkpt lat="48.98689" lon="2.06041">
        <ele>37</ele>
        <time>2022-04-18T12:31:00Z</time>
      </trkpt>
      <trkpt lat="48.98687" lon="2.0603">
        <ele>37.9</ele>
        <time>2022-04-18T12:31:06Z</time>
      </trkpt>
      <trkpt lat="48.98687" lon="2.06019">
        <ele>38.9</ele>
        <time>2022-04-18T12:31:11Z</time>
      </trkpt>
      <trkpt lat="48.98691" lon="2.0601">
        <ele>39.8</ele>
        <time>2022-04-18T12:31:17Z</time>
      </trkpt>
      <trkpt lat="48.98697" lon="2.06007">
        <ele>40.4</ele>
        <time>2022-04-18T12:31:22Z</time>
      </trkpt>
      <trkpt lat="48.98703" lon="2.06006">
        <ele>40.9</ele>
        <time>2022-04-18T12:31:28Z</time>
      </trkpt>
      <trkpt lat="48.98711" lon="2.06006">
        <ele>41.3</ele>
        <time>2022-04-18T12:31:34Z</time>
      </trkpt>
      <trkpt lat="48.98719" lon="2.06009">
        <ele>41.3</ele>
        <time>2022-04-18T12:31:39Z</time>
      </trkpt>
      <trkpt lat="48.98719" lon="2.06006">
        <ele>41.7</ele>
        <time>2022-04-18T12:31:45Z</time>
      </trkpt>
      <trkpt lat="48.98719" lon="2.06007">
        <ele>41.6</ele>
        <time>2022-04-18T12:31:51Z</time>
      </trkpt>
      <trkpt lat="48.98722" lon="2.06008">
        <ele>41.5</ele>
        <time>2022-04-18T12:31:57Z</time>
      </trkpt>
      <trkpt lat="48.98728" lon="2.06015">
        <ele>40.7</ele>
        <time>2022-04-18T12:32:03Z</time>
      </trkpt>
      <trkpt lat="48.98732" lon="2.0601">
        <ele>41.8</ele>
        <time>2022-04-18T12:32:08Z</time>
      </trkpt>
      <trkpt lat="48.98725" lon="2.05982">
        <ele>43.6</ele>
        <time>2022-04-18T12:32:14Z</time>
      </trkpt>
      <trkpt lat="48.98724" lon="2.05975">
        <ele>43.9</ele>
        <time>2022-04-18T12:32:19Z</time>
      </trkpt>
      <trkpt lat="48.98722" lon="2.0597">
        <ele>44.3</ele>
        <time>2022-04-18T12:32:24Z</time>
      </trkpt>
      <trkpt lat="48.98718" lon="2.05963">
        <ele>45.1</ele>
        <time>2022-04-18T12:32:29Z</time>
      </trkpt>
      <trkpt lat="48.98713" lon="2.05956">
        <ele>45.9</ele>
        <time>2022-04-18T12:32:34Z</time>
      </trkpt>
      <trkpt lat="48.98709" lon="2.05949">
        <ele>46.5</ele>
        <time>2022-04-18T12:32:40Z</time>
      </trkpt>
      <trkpt lat="48.98712" lon="2.05946">
        <ele>46.8</ele>
        <time>2022-04-18T12:32:46Z</time>
      </trkpt>
      <trkpt lat="48.98714" lon="2.05941">
        <ele>47.8</ele>
        <time>2022-04-18T12:32:52Z</time>
      </trkpt>
      <trkpt lat="48.98713" lon="2.05937">
        <ele>48.8</ele>
        <time>2022-04-18T12:32:58Z</time>
      </trkpt>
      <trkpt lat="48.98711" lon="2.05924">
        <ele>52.3</ele>
        <time>2022-04-18T12:33:04Z</time>
      </trkpt>
      <trkpt lat="48.9871" lon="2.05917">
        <ele>54.2</ele>
        <time>2022-04-18T12:33:09Z</time>
      </trkpt>
      <trkpt lat="48.9871" lon="2.05914">
        <ele>54.7</ele>
        <time>2022-04-18T12:33:14Z</time>
      </trkpt>
      <trkpt lat="48.98711" lon="2.0591">
        <ele>55.3</ele>
        <time>2022-04-18T12:33:20Z</time>
      </trkpt>
      <trkpt lat="48.9871" lon="2.059">
        <ele>56.9</ele>
        <time>2022-04-18T12:33:26Z</time>
      </trkpt>
      <trkpt lat="48.98709" lon="2.05893">
        <ele>57.8</ele>
        <time>2022-04-18T12:33:31Z</time>
      </trkpt>
      <trkpt lat="48.98709" lon="2.05883">
        <ele>58.9</ele>
        <time>2022-04-18T12:33:36Z</time>
      </trkpt>
      <trkpt lat="48.98709" lon="2.05873">
        <ele>59.7</ele>
        <time>2022-04-18T12:33:41Z</time>
      </trkpt>
      <trkpt lat="48.98707" lon="2.05863">
        <ele>60.4</ele>
        <time>2022-04-18T12:33:47Z</time>
      </trkpt>
      <trkpt lat="48.98704" lon="2.05851">
        <ele>61</ele>
        <time>2022-04-18T12:33:53Z</time>
      </trkpt>
      <trkpt lat="48.98703" lon="2.05843">
        <ele>61.3</ele>
        <time>2022-04-18T12:33:58Z</time>
      </trkpt>
      <trkpt lat="48.98702" lon="2.05833">
        <ele>61.8</ele>
        <time>2022-04-18T12:34:04Z</time>
      </trkpt>
      <trkpt lat="48.98702" lon="2.05823">
        <ele>62.5</ele>
        <time>2022-04-18T12:34:10Z</time>
      </trkpt>
      <trkpt lat="48.98702" lon="2.05814">
        <ele>63.1</ele>
        <time>2022-04-18T12:34:15Z</time>
      </trkpt>
      <trkpt lat="48.98702" lon="2.05808">
        <ele>63.6</ele>
        <time>2022-04-18T12:34:21Z</time>
      </trkpt>
      <trkpt lat="48.98703" lon="2.05802">
        <ele>63.8</ele>
        <time>2022-04-18T12:34:27Z</time>
      </trkpt>
      <trkpt lat="48.98703" lon="2.05789">
        <ele>64.3</ele>
        <time>2022-04-18T12:34:33Z</time>
      </trkpt>
      <trkpt lat="48.98703" lon="2.05788">
        <ele>64.3</ele>
        <time>2022-04-18T12:34:39Z</time>
      </trkpt>
      <trkpt lat="48.98703" lon="2.05788">
        <ele>64.3</ele>
        <time>2022-04-18T12:34:45Z</time>
      </trkpt>
      <trkpt lat="48.98703" lon="2.05789">
        <ele>64.3</ele>
        <time>2022-04-18T12:34:51Z</time>
      </trkpt>
      <trkpt lat="48.98703" lon="2.05789">
        <ele>64.3</ele>
        <time>2022-04-18T12:34:57Z</time>
      </trkpt>
      <trkpt lat="48.98703" lon="2.05789">
        <ele>64.3</ele>
        <time>2022-04-18T12:35:02Z</time>
      </trkpt>
      <trkpt lat="48.98703" lon="2.05789">
        <ele>64.3</ele>
        <time>2022-04-18T12:35:08Z</time>
      </trkpt>
      <trkpt lat="48.98703" lon="2.05789">
        <ele>64.3</ele>
        <time>2022-04-18T12:35:13Z</time>
      </trkpt>
      <trkpt lat="48.98703" lon="2.05789">
        <ele>64.3</ele>
        <time>2022-04-18T12:35:19Z</time>
      </trkpt>
      <trkpt lat="48.98703" lon="2.05789">
        <ele>64.3</ele>
        <time>2022-04-18T12:35:24Z</time>
      </trkpt>
      <trkpt lat="48.98703" lon="2.05789">
        <ele>64.3</ele>
        <time>2022-04-18T12:35:30Z</time>
      </trkpt>
      <trkpt lat="48.98703" lon="2.05789">
        <ele>64.3</ele>
        <time>2022-04-18T12:35:35Z</time>
      </trkpt>
      <trkpt lat="48.98703" lon="2.05789">
        <ele>64.3</ele>
        <time>2022-04-18T12:35:41Z</time>
      </trkpt>
      <trkpt lat="48.98703" lon="2.05789">
        <ele>64.3</ele>
        <time>2022-04-18T12:35:47Z</time>
      </trkpt>
      <trkpt lat="48.98703" lon="2.05789">
        <ele>64.3</ele>
        <time>2022-04-18T12:35:52Z</time>
      </trkpt>
      <trkpt lat="48.98703" lon="2.05789">
        <ele>64.3</ele>
        <time>2022-04-18T12:35:58Z</time>
      </trkpt>
      <trkpt lat="48.98702" lon="2.05789">
        <ele>64.3</ele>
        <time>2022-04-18T12:36:03Z</time>
      </trkpt>
      <trkpt lat="48.98702" lon="2.05789">
        <ele>64.3</ele>
        <time>2022-04-18T12:36:08Z</time>
      </trkpt>
      <trkpt lat="48.98702" lon="2.05789">
        <ele>64.3</ele>
        <time>2022-04-18T12:36:14Z</time>
      </trkpt>
      <trkpt lat="48.98702" lon="2.05789">
        <ele>64.3</ele>
        <time>2022-04-18T12:36:20Z</time>
      </trkpt>
      <trkpt lat="48.98702" lon="2.0579">
        <ele>64.3</ele>
        <time>2022-04-18T12:36:25Z</time>
      </trkpt>
      <trkpt lat="48.98703" lon="2.05789">
        <ele>64.3</ele>
        <time>2022-04-18T12:36:30Z</time>
      </trkpt>
      <trkpt lat="48.98704" lon="2.05789">
        <ele>64.2</ele>
        <time>2022-04-18T12:36:35Z</time>
      </trkpt>
      <trkpt lat="48.98705" lon="2.0579">
        <ele>64.2</ele>
        <time>2022-04-18T12:36:41Z</time>
      </trkpt>
      <trkpt lat="48.98705" lon="2.0579">
        <ele>64.2</ele>
        <time>2022-04-18T12:36:46Z</time>
      </trkpt>
      <trkpt lat="48.98707" lon="2.05789">
        <ele>64.2</ele>
        <time>2022-04-18T12:36:52Z</time>
      </trkpt>
      <trkpt lat="48.98708" lon="2.05789">
        <ele>64.1</ele>
        <time>2022-04-18T12:36:58Z</time>
      </trkpt>
      <trkpt lat="48.98708" lon="2.0579">
        <ele>64.1</ele>
        <time>2022-04-18T12:37:04Z</time>
      </trkpt>
      <trkpt lat="48.98708" lon="2.05785">
        <ele>64.3</ele>
        <time>2022-04-18T12:37:10Z</time>
      </trkpt>
      <trkpt lat="48.98706" lon="2.05776">
        <ele>64.6</ele>
        <time>2022-04-18T12:37:16Z</time>
      </trkpt>
      <trkpt lat="48.98703" lon="2.05767">
        <ele>65.1</ele>
        <time>2022-04-18T12:37:21Z</time>
      </trkpt>
      <trkpt lat="48.98699" lon="2.05756">
        <ele>65.6</ele>
        <time>2022-04-18T12:37:27Z</time>
      </trkpt>
      <trkpt lat="48.98693" lon="2.05743">
        <ele>66.3</ele>
        <time>2022-04-18T12:37:33Z</time>
      </trkpt>
      <trkpt lat="48.98689" lon="2.05731">
        <ele>66.9</ele>
        <time>2022-04-18T12:37:39Z</time>
      </trkpt>
      <trkpt lat="48.98685" lon="2.05721">
        <ele>67.4</ele>
        <time>2022-04-18T12:37:45Z</time>
      </trkpt>
      <trkpt lat="48.98683" lon="2.05711">
        <ele>67.6</ele>
        <time>2022-04-18T12:37:50Z</time>
      </trkpt>
      <trkpt lat="48.98681" lon="2.05699">
        <ele>67.9</ele>
        <time>2022-04-18T12:37:56Z</time>
      </trkpt>
      <trkpt lat="48.9868" lon="2.05687">
        <ele>68</ele>
        <time>2022-04-18T12:38:02Z</time>
      </trkpt>
      <trkpt lat="48.98679" lon="2.05677">
        <ele>68.1</ele>
        <time>2022-04-18T12:38:07Z</time>
      </trkpt>
      <trkpt lat="48.98677" lon="2.05666">
        <ele>68.3</ele>
        <time>2022-04-18T12:38:13Z</time>
      </trkpt>
      <trkpt lat="48.98676" lon="2.05656">
        <ele>68.6</ele>
        <time>2022-04-18T12:38:18Z</time>
      </trkpt>
      <trkpt lat="48.98675" lon="2.05644">
        <ele>68.9</ele>
        <time>2022-04-18T12:38:24Z</time>
      </trkpt>
      <trkpt lat="48.98674" lon="2.05635">
        <ele>69.4</ele>
        <time>2022-04-18T12:38:29Z</time>
      </trkpt>
      <trkpt lat="48.98672" lon="2.05623">
        <ele>70.1</ele>
        <time>2022-04-18T12:38:35Z</time>
      </trkpt>
      <trkpt lat="48.98669" lon="2.05612">
        <ele>70.8</ele>
        <time>2022-04-18T12:38:41Z</time>
      </trkpt>
      <trkpt lat="48.98667" lon="2.05601">
        <ele>71</ele>
        <time>2022-04-18T12:38:46Z</time>
      </trkpt>
      <trkpt lat="48.98666" lon="2.05589">
        <ele>71</ele>
        <time>2022-04-18T12:38:52Z</time>
      </trkpt>
      <trkpt lat="48.98665" lon="2.05579">
        <ele>71.2</ele>
        <time>2022-04-18T12:38:57Z</time>
      </trkpt>
      <trkpt lat="48.98663" lon="2.05566">
        <ele>71.8</ele>
        <time>2022-04-18T12:39:03Z</time>
      </trkpt>
      <trkpt lat="48.9866" lon="2.05556">
        <ele>72.2</ele>
        <time>2022-04-18T12:39:08Z</time>
      </trkpt>
      <trkpt lat="48.98658" lon="2.05543">
        <ele>72.5</ele>
        <time>2022-04-18T12:39:14Z</time>
      </trkpt>
      <trkpt lat="48.98655" lon="2.0553">
        <ele>72.8</ele>
        <time>2022-04-18T12:39:20Z</time>
      </trkpt>
      <trkpt lat="48.98654" lon="2.05521">
        <ele>73.2</ele>
        <time>2022-04-18T12:39:25Z</time>
      </trkpt>
      <trkpt lat="48.98651" lon="2.05508">
        <ele>73.8</ele>
        <time>2022-04-18T12:39:31Z</time>
      </trkpt>
      <trkpt lat="48.98649" lon="2.05499">
        <ele>74.3</ele>
        <time>2022-04-18T12:39:36Z</time>
      </trkpt>
      <trkpt lat="48.98648" lon="2.05488">
        <ele>74.8</ele>
        <time>2022-04-18T12:39:42Z</time>
      </trkpt>
      <trkpt lat="48.98647" lon="2.05479">
        <ele>75.1</ele>
        <time>2022-04-18T12:39:48Z</time>
      </trkpt>
      <trkpt lat="48.98647" lon="2.05468">
        <ele>75.6</ele>
        <time>2022-04-18T12:39:53Z</time>
      </trkpt>
      <trkpt lat="48.98647" lon="2.05454">
        <ele>76.5</ele>
        <time>2022-04-18T12:39:59Z</time>
      </trkpt>
      <trkpt lat="48.98647" lon="2.05443">
        <ele>77.2</ele>
        <time>2022-04-18T12:40:05Z</time>
      </trkpt>
      <trkpt lat="48.98646" lon="2.05432">
        <ele>77.8</ele>
        <time>2022-04-18T12:40:10Z</time>
      </trkpt>
      <trkpt lat="48.98643" lon="2.0542">
        <ele>78.5</ele>
        <time>2022-04-18T12:40:16Z</time>
      </trkpt>
      <trkpt lat="48.98641" lon="2.05409">
        <ele>78.9</ele>
        <time>2022-04-18T12:40:21Z</time>
      </trkpt>
      <trkpt lat="48.98639" lon="2.05399">
        <ele>79</ele>
        <time>2022-04-18T12:40:26Z</time>
      </trkpt>
      <trkpt lat="48.98638" lon="2.05383">
        <ele>79.3</ele>
        <time>2022-04-18T12:40:32Z</time>
      </trkpt>
      <trkpt lat="48.98638" lon="2.05369">
        <ele>79.8</ele>
        <time>2022-04-18T12:40:38Z</time>
      </trkpt>
      <trkpt lat="48.98639" lon="2.05357">
        <ele>80.3</ele>
        <time>2022-04-18T12:40:43Z</time>
      </trkpt>
      <trkpt lat="48.9864" lon="2.0535">
        <ele>80.7</ele>
        <time>2022-04-18T12:40:48Z</time>
      </trkpt>
      <trkpt lat="48.98639" lon="2.05342">
        <ele>81.4</ele>
        <time>2022-04-18T12:40:53Z</time>
      </trkpt>
      <trkpt lat="48.98638" lon="2.05338">
        <ele>81.7</ele>
        <time>2022-04-18T12:40:59Z</time>
      </trkpt>
      <trkpt lat="48.98639" lon="2.05335">
        <ele>81.9</ele>
        <time>2022-04-18T12:41:05Z</time>
      </trkpt>
      <trkpt lat="48.98644" lon="2.05334">
        <ele>81.7</ele>
        <time>2022-04-18T12:41:11Z</time>
      </trkpt>
      <trkpt lat="48.9865" lon="2.05331">
        <ele>81.6</ele>
        <time>2022-04-18T12:41:16Z</time>
      </trkpt>
      <trkpt lat="48.98654" lon="2.05321">
        <ele>81.2</ele>
        <time>2022-04-18T12:41:22Z</time>
      </trkpt>
      <trkpt lat="48.98648" lon="2.05319">
        <ele>81.5</ele>
        <time>2022-04-18T12:41:27Z</time>
      </trkpt>
      <trkpt lat="48.98642" lon="2.05319">
        <ele>81.8</ele>
        <time>2022-04-18T12:41:33Z</time>
      </trkpt>
      <trkpt lat="48.98638" lon="2.05309">
        <ele>82.1</ele>
        <time>2022-04-18T12:41:39Z</time>
      </trkpt>
      <trkpt lat="48.98636" lon="2.05298">
        <ele>82.4</ele>
        <time>2022-04-18T12:41:44Z</time>
      </trkpt>
      <trkpt lat="48.98633" lon="2.05282">
        <ele>82.8</ele>
        <time>2022-04-18T12:41:50Z</time>
      </trkpt>
      <trkpt lat="48.98633" lon="2.05274">
        <ele>83.1</ele>
        <time>2022-04-18T12:41:55Z</time>
      </trkpt>
      <trkpt lat="48.98632" lon="2.0526">
        <ele>84.1</ele>
        <time>2022-04-18T12:42:01Z</time>
      </trkpt>
      <trkpt lat="48.98631" lon="2.05248">
        <ele>84.9</ele>
        <time>2022-04-18T12:42:07Z</time>
      </trkpt>
      <trkpt lat="48.98628" lon="2.05238">
        <ele>85.4</ele>
        <time>2022-04-18T12:42:12Z</time>
      </trkpt>
      <trkpt lat="48.98626" lon="2.05227">
        <ele>85.8</ele>
        <time>2022-04-18T12:42:18Z</time>
      </trkpt>
      <trkpt lat="48.98626" lon="2.05217">
        <ele>86.3</ele>
        <time>2022-04-18T12:42:23Z</time>
      </trkpt>
      <trkpt lat="48.98628" lon="2.05209">
        <ele>86.8</ele>
        <time>2022-04-18T12:42:28Z</time>
      </trkpt>
      <trkpt lat="48.98628" lon="2.05199">
        <ele>87.6</ele>
        <time>2022-04-18T12:42:33Z</time>
      </trkpt>
      <trkpt lat="48.98627" lon="2.05186">
        <ele>88.4</ele>
        <time>2022-04-18T12:42:39Z</time>
      </trkpt>
      <trkpt lat="48.98628" lon="2.05173">
        <ele>89.1</ele>
        <time>2022-04-18T12:42:45Z</time>
      </trkpt>
      <trkpt lat="48.98627" lon="2.05161">
        <ele>89.8</ele>
        <time>2022-04-18T12:42:51Z</time>
      </trkpt>
      <trkpt lat="48.98627" lon="2.05151">
        <ele>90.3</ele>
        <time>2022-04-18T12:42:56Z</time>
      </trkpt>
      <trkpt lat="48.98624" lon="2.05139">
        <ele>91</ele>
        <time>2022-04-18T12:43:02Z</time>
      </trkpt>
      <trkpt lat="48.98622" lon="2.05127">
        <ele>91.7</ele>
        <time>2022-04-18T12:43:07Z</time>
      </trkpt>
      <trkpt lat="48.9862" lon="2.05117">
        <ele>92.3</ele>
        <time>2022-04-18T12:43:12Z</time>
      </trkpt>
      <trkpt lat="48.98619" lon="2.05106">
        <ele>93</ele>
        <time>2022-04-18T12:43:18Z</time>
      </trkpt>
      <trkpt lat="48.98618" lon="2.05095">
        <ele>93.5</ele>
        <time>2022-04-18T12:43:23Z</time>
      </trkpt>
      <trkpt lat="48.98622" lon="2.05087">
        <ele>93.8</ele>
        <time>2022-04-18T12:43:29Z</time>
      </trkpt>
      <trkpt lat="48.98631" lon="2.05078">
        <ele>94.2</ele>
        <time>2022-04-18T12:43:35Z</time>
      </trkpt>
      <trkpt lat="48.98636" lon="2.05069">
        <ele>94.5</ele>
        <time>2022-04-18T12:43:41Z</time>
      </trkpt>
      <trkpt lat="48.9864" lon="2.05061">
        <ele>94.8</ele>
        <time>2022-04-18T12:43:46Z</time>
      </trkpt>
      <trkpt lat="48.98645" lon="2.05053">
        <ele>95.4</ele>
        <time>2022-04-18T12:43:51Z</time>
      </trkpt>
      <trkpt lat="48.98651" lon="2.05044">
        <ele>96.3</ele>
        <time>2022-04-18T12:43:57Z</time>
      </trkpt>
      <trkpt lat="48.98657" lon="2.05035">
        <ele>97.1</ele>
        <time>2022-04-18T12:44:02Z</time>
      </trkpt>
      <trkpt lat="48.98661" lon="2.05029">
        <ele>97.7</ele>
        <time>2022-04-18T12:44:07Z</time>
      </trkpt>
      <trkpt lat="48.98666" lon="2.05022">
        <ele>98.4</ele>
        <time>2022-04-18T12:44:13Z</time>
      </trkpt>
      <trkpt lat="48.98672" lon="2.05014">
        <ele>99</ele>
        <time>2022-04-18T12:44:19Z</time>
      </trkpt>
      <trkpt lat="48.98678" lon="2.05006">
        <ele>99.5</ele>
        <time>2022-04-18T12:44:25Z</time>
      </trkpt>
      <trkpt lat="48.98683" lon="2.04999">
        <ele>100</ele>
        <time>2022-04-18T12:44:30Z</time>
      </trkpt>
      <trkpt lat="48.98691" lon="2.04988">
        <ele>100.4</ele>
        <time>2022-04-18T12:44:36Z</time>
      </trkpt>
      <trkpt lat="48.98695" lon="2.04983">
        <ele>100.6</ele>
        <time>2022-04-18T12:44:41Z</time>
      </trkpt>
      <trkpt lat="48.98703" lon="2.04974">
        <ele>100.9</ele>
        <time>2022-04-18T12:44:47Z</time>
      </trkpt>
      <trkpt lat="48.98709" lon="2.04966">
        <ele>101.3</ele>
        <time>2022-04-18T12:44:52Z</time>
      </trkpt>
      <trkpt lat="48.98714" lon="2.04958">
        <ele>101.7</ele>
        <time>2022-04-18T12:44:58Z</time>
      </trkpt>
      <trkpt lat="48.98718" lon="2.0495">
        <ele>101.9</ele>
        <time>2022-04-18T12:45:03Z</time>
      </trkpt>
      <trkpt lat="48.98725" lon="2.04942">
        <ele>102.2</ele>
        <time>2022-04-18T12:45:09Z</time>
      </trkpt>
      <trkpt lat="48.98732" lon="2.04933">
        <ele>102.7</ele>
        <time>2022-04-18T12:45:14Z</time>
      </trkpt>
      <trkpt lat="48.98739" lon="2.04924">
        <ele>103</ele>
        <time>2022-04-18T12:45:20Z</time>
      </trkpt>
      <trkpt lat="48.98745" lon="2.04916">
        <ele>103.2</ele>
        <time>2022-04-18T12:45:26Z</time>
      </trkpt>
      <trkpt lat="48.9875" lon="2.04909">
        <ele>103.6</ele>
        <time>2022-04-18T12:45:31Z</time>
      </trkpt>
      <trkpt lat="48.98754" lon="2.04901">
        <ele>103.9</ele>
        <time>2022-04-18T12:45:36Z</time>
      </trkpt>
      <trkpt lat="48.9876" lon="2.04893">
        <ele>104</ele>
        <time>2022-04-18T12:45:42Z</time>
      </trkpt>
      <trkpt lat="48.98766" lon="2.04885">
        <ele>104.2</ele>
        <time>2022-04-18T12:45:47Z</time>
      </trkpt>
      <trkpt lat="48.98772" lon="2.04877">
        <ele>104.6</ele>
        <time>2022-04-18T12:45:52Z</time>
      </trkpt>
      <trkpt lat="48.98776" lon="2.04868">
        <ele>105.3</ele>
        <time>2022-04-18T12:45:58Z</time>
      </trkpt>
      <trkpt lat="48.98782" lon="2.0486">
        <ele>105.7</ele>
        <time>2022-04-18T12:46:04Z</time>
      </trkpt>
      <trkpt lat="48.98789" lon="2.04852">
        <ele>105.6</ele>
        <time>2022-04-18T12:46:09Z</time>
      </trkpt>
      <trkpt lat="48.98795" lon="2.04846">
        <ele>105.6</ele>
        <time>2022-04-18T12:46:14Z</time>
      </trkpt>
      <trkpt lat="48.98801" lon="2.04839">
        <ele>105.8</ele>
        <time>2022-04-18T12:46:20Z</time>
      </trkpt>
      <trkpt lat="48.98808" lon="2.04834">
        <ele>105.9</ele>
        <time>2022-04-18T12:46:26Z</time>
      </trkpt>
      <trkpt lat="48.98819" lon="2.04831">
        <ele>105.6</ele>
        <time>2022-04-18T12:46:32Z</time>
      </trkpt>
      <trkpt lat="48.98829" lon="2.04828">
        <ele>105.3</ele>
        <time>2022-04-18T12:46:38Z</time>
      </trkpt>
      <trkpt lat="48.98835" lon="2.04826">
        <ele>105.2</ele>
        <time>2022-04-18T12:46:43Z</time>
      </trkpt>
      <trkpt lat="48.98844" lon="2.04822">
        <ele>105</ele>
        <time>2022-04-18T12:46:49Z</time>
      </trkpt>
      <trkpt lat="48.98852" lon="2.04816">
        <ele>104.9</ele>
        <time>2022-04-18T12:46:55Z</time>
      </trkpt>
      <trkpt lat="48.98858" lon="2.04812">
        <ele>104.9</ele>
        <time>2022-04-18T12:47:00Z</time>
      </trkpt>
      <trkpt lat="48.98865" lon="2.04809">
        <ele>104.8</ele>
        <time>2022-04-18T12:47:05Z</time>
      </trkpt>
      <trkpt lat="48.98876" lon="2.04804">
        <ele>104.5</ele>
        <time>2022-04-18T12:47:11Z</time>
      </trkpt>
      <trkpt lat="48.98881" lon="2.04802">
        <ele>104.4</ele>
        <time>2022-04-18T12:47:16Z</time>
      </trkpt>
      <trkpt lat="48.98887" lon="2.04796">
        <ele>104.4</ele>
        <time>2022-04-18T12:47:21Z</time>
      </trkpt>
      <trkpt lat="48.98894" lon="2.04792">
        <ele>104.3</ele>
        <time>2022-04-18T12:47:27Z</time>
      </trkpt>
      <trkpt lat="48.98901" lon="2.04788">
        <ele>104.2</ele>
        <time>2022-04-18T12:47:33Z</time>
      </trkpt>
      <trkpt lat="48.9891" lon="2.04784">
        <ele>104</ele>
        <time>2022-04-18T12:47:39Z</time>
      </trkpt>
      <trkpt lat="48.98918" lon="2.0478">
        <ele>103.8</ele>
        <time>2022-04-18T12:47:45Z</time>
      </trkpt>
      <trkpt lat="48.98924" lon="2.04774">
        <ele>103.6</ele>
        <time>2022-04-18T12:47:51Z</time>
      </trkpt>
      <trkpt lat="48.98931" lon="2.04771">
        <ele>103.2</ele>
        <time>2022-04-18T12:47:56Z</time>
      </trkpt>
      <trkpt lat="48.98939" lon="2.04766">
        <ele>102.8</ele>
        <time>2022-04-18T12:48:01Z</time>
      </trkpt>
      <trkpt lat="48.98945" lon="2.04761">
        <ele>102.6</ele>
        <time>2022-04-18T12:48:07Z</time>
      </trkpt>
      <trkpt lat="48.98954" lon="2.04755">
        <ele>102.2</ele>
        <time>2022-04-18T12:48:13Z</time>
      </trkpt>
      <trkpt lat="48.98961" lon="2.0475">
        <ele>101.8</ele>
        <time>2022-04-18T12:48:19Z</time>
      </trkpt>
      <trkpt lat="48.98969" lon="2.04746">
        <ele>101.2</ele>
        <time>2022-04-18T12:48:24Z</time>
      </trkpt>
      <trkpt lat="48.98978" lon="2.04743">
        <ele>100.8</ele>
        <time>2022-04-18T12:48:30Z</time>
      </trkpt>
      <trkpt lat="48.98986" lon="2.04739">
        <ele>100.5</ele>
        <time>2022-04-18T12:48:35Z</time>
      </trkpt>
      <trkpt lat="48.98992" lon="2.04735">
        <ele>100.3</ele>
        <time>2022-04-18T12:48:40Z</time>
      </trkpt>
      <trkpt lat="48.99001" lon="2.04733">
        <ele>99.9</ele>
        <time>2022-04-18T12:48:46Z</time>
      </trkpt>
      <trkpt lat="48.9901" lon="2.04729">
        <ele>99.6</ele>
        <time>2022-04-18T12:48:52Z</time>
      </trkpt>
      <trkpt lat="48.99017" lon="2.04725">
        <ele>99.3</ele>
        <time>2022-04-18T12:48:57Z</time>
      </trkpt>
      <trkpt lat="48.99025" lon="2.04718">
        <ele>99.2</ele>
        <time>2022-04-18T12:49:03Z</time>
      </trkpt>
      <trkpt lat="48.99032" lon="2.04714">
        <ele>99.1</ele>
        <time>2022-04-18T12:49:08Z</time>
      </trkpt>
      <trkpt lat="48.99042" lon="2.04711">
        <ele>98.9</ele>
        <time>2022-04-18T12:49:14Z</time>
      </trkpt>
      <trkpt lat="48.99049" lon="2.04705">
        <ele>98.9</ele>
        <time>2022-04-18T12:49:19Z</time>
      </trkpt>
      <trkpt lat="48.9905" lon="2.04691">
        <ele>99.2</ele>
        <time>2022-04-18T12:49:25Z</time>
      </trkpt>
      <trkpt lat="48.99047" lon="2.04679">
        <ele>99.5</ele>
        <time>2022-04-18T12:49:31Z</time>
      </trkpt>
      <trkpt lat="48.99045" lon="2.04669">
        <ele>99.7</ele>
        <time>2022-04-18T12:49:36Z</time>
      </trkpt>
      <trkpt lat="48.99043" lon="2.04657">
        <ele>99.9</ele>
        <time>2022-04-18T12:49:41Z</time>
      </trkpt>
      <trkpt lat="48.99041" lon="2.04648">
        <ele>100</ele>
        <time>2022-04-18T12:49:46Z</time>
      </trkpt>
      <trkpt lat="48.99034" lon="2.04635">
        <ele>100.5</ele>
        <time>2022-04-18T12:49:52Z</time>
      </trkpt>
      <trkpt lat="48.99032" lon="2.04623">
        <ele>100.7</ele>
        <time>2022-04-18T12:49:58Z</time>
      </trkpt>
      <trkpt lat="48.9903" lon="2.04613">
        <ele>100.9</ele>
        <time>2022-04-18T12:50:03Z</time>
      </trkpt>
      <trkpt lat="48.99029" lon="2.04602">
        <ele>101</ele>
        <time>2022-04-18T12:50:08Z</time>
      </trkpt>
      <trkpt lat="48.99026" lon="2.0459">
        <ele>101.1</ele>
        <time>2022-04-18T12:50:14Z</time>
      </trkpt>
      <trkpt lat="48.99024" lon="2.04582">
        <ele>101.1</ele>
        <time>2022-04-18T12:50:19Z</time>
      </trkpt>
      <trkpt lat="48.99021" lon="2.04567">
        <ele>101.2</ele>
        <time>2022-04-18T12:50:25Z</time>
      </trkpt>
      <trkpt lat="48.99018" lon="2.04555">
        <ele>101.4</ele>
        <time>2022-04-18T12:50:31Z</time>
      </trkpt>
      <trkpt lat="48.99015" lon="2.04545">
        <ele>100.9</ele>
        <time>2022-04-18T12:50:36Z</time>
      </trkpt>
      <trkpt lat="48.99012" lon="2.04533">
        <ele>100.3</ele>
        <time>2022-04-18T12:50:41Z</time>
      </trkpt>
      <trkpt lat="48.99009" lon="2.04521">
        <ele>100</ele>
        <time>2022-04-18T12:50:46Z</time>
      </trkpt>
      <trkpt lat="48.99007" lon="2.04509">
        <ele>100</ele>
        <time>2022-04-18T12:50:52Z</time>
      </trkpt>
      <trkpt lat="48.99005" lon="2.045">
        <ele>100</ele>
        <time>2022-04-18T12:50:57Z</time>
      </trkpt>
      <trkpt lat="48.99003" lon="2.04486">
        <ele>99.9</ele>
        <time>2022-04-18T12:51:03Z</time>
      </trkpt>
      <trkpt lat="48.99" lon="2.04473">
        <ele>100</ele>
        <time>2022-04-18T12:51:09Z</time>
      </trkpt>
      <trkpt lat="48.98999" lon="2.04464">
        <ele>100</ele>
        <time>2022-04-18T12:51:14Z</time>
      </trkpt>
      <trkpt lat="48.98997" lon="2.0445">
        <ele>100.1</ele>
        <time>2022-04-18T12:51:20Z</time>
      </trkpt>
      <trkpt lat="48.98995" lon="2.04439">
        <ele>100.2</ele>
        <time>2022-04-18T12:51:25Z</time>
      </trkpt>
      <trkpt lat="48.98994" lon="2.04426">
        <ele>100.2</ele>
        <time>2022-04-18T12:51:31Z</time>
      </trkpt>
      <trkpt lat="48.98992" lon="2.04416">
        <ele>100.3</ele>
        <time>2022-04-18T12:51:36Z</time>
      </trkpt>
      <trkpt lat="48.9899" lon="2.04407">
        <ele>100.5</ele>
        <time>2022-04-18T12:51:41Z</time>
      </trkpt>
      <trkpt lat="48.98989" lon="2.04397">
        <ele>100.7</ele>
        <time>2022-04-18T12:51:46Z</time>
      </trkpt>
      <trkpt lat="48.98986" lon="2.04387">
        <ele>101</ele>
        <time>2022-04-18T12:51:51Z</time>
      </trkpt>
      <trkpt lat="48.98984" lon="2.04375">
        <ele>101.1</ele>
        <time>2022-04-18T12:51:57Z</time>
      </trkpt>
      <trkpt lat="48.98983" lon="2.04366">
        <ele>101.2</ele>
        <time>2022-04-18T12:52:02Z</time>
      </trkpt>
      <trkpt lat="48.98981" lon="2.04354">
        <ele>101.6</ele>
        <time>2022-04-18T12:52:08Z</time>
      </trkpt>
      <trkpt lat="48.98981" lon="2.04344">
        <ele>102</ele>
        <time>2022-04-18T12:52:13Z</time>
      </trkpt>
      <trkpt lat="48.9898" lon="2.04333">
        <ele>102.5</ele>
        <time>2022-04-18T12:52:19Z</time>
      </trkpt>
      <trkpt lat="48.98978" lon="2.04323">
        <ele>102.6</ele>
        <time>2022-04-18T12:52:24Z</time>
      </trkpt>
      <trkpt lat="48.98975" lon="2.04308">
        <ele>102.8</ele>
        <time>2022-04-18T12:52:30Z</time>
      </trkpt>
      <trkpt lat="48.98973" lon="2.04296">
        <ele>103.3</ele>
        <time>2022-04-18T12:52:36Z</time>
      </trkpt>
      <trkpt lat="48.98969" lon="2.04285">
        <ele>104</ele>
        <time>2022-04-18T12:52:41Z</time>
      </trkpt>
      <trkpt lat="48.98967" lon="2.0427">
        <ele>104.6</ele>
        <time>2022-04-18T12:52:47Z</time>
      </trkpt>
      <trkpt lat="48.98965" lon="2.0426">
        <ele>105</ele>
        <time>2022-04-18T12:52:52Z</time>
      </trkpt>
      <trkpt lat="48.98963" lon="2.04247">
        <ele>105.4</ele>
        <time>2022-04-18T12:52:58Z</time>
      </trkpt>
      <trkpt lat="48.98961" lon="2.04232">
        <ele>105.7</ele>
        <time>2022-04-18T12:53:04Z</time>
      </trkpt>
      <trkpt lat="48.98958" lon="2.0422">
        <ele>106.1</ele>
        <time>2022-04-18T12:53:10Z</time>
      </trkpt>
      <trkpt lat="48.98955" lon="2.0421">
        <ele>106.7</ele>
        <time>2022-04-18T12:53:16Z</time>
      </trkpt>
      <trkpt lat="48.98953" lon="2.04199">
        <ele>107.2</ele>
        <time>2022-04-18T12:53:22Z</time>
      </trkpt>
      <trkpt lat="48.98953" lon="2.0419">
        <ele>107.5</ele>
        <time>2022-04-18T12:53:27Z</time>
      </trkpt>
      <trkpt lat="48.98951" lon="2.04178">
        <ele>108.1</ele>
        <time>2022-04-18T12:53:33Z</time>
      </trkpt>
      <trkpt lat="48.9895" lon="2.04167">
        <ele>108.6</ele>
        <time>2022-04-18T12:53:38Z</time>
      </trkpt>
      <trkpt lat="48.9895" lon="2.04157">
        <ele>108.9</ele>
        <time>2022-04-18T12:53:44Z</time>
      </trkpt>
      <trkpt lat="48.98948" lon="2.04146">
        <ele>109.5</ele>
        <time>2022-04-18T12:53:49Z</time>
      </trkpt>
      <trkpt lat="48.98945" lon="2.04135">
        <ele>109.9</ele>
        <time>2022-04-18T12:53:54Z</time>
      </trkpt>
      <trkpt lat="48.98943" lon="2.04123">
        <ele>110.1</ele>
        <time>2022-04-18T12:54:00Z</time>
      </trkpt>
      <trkpt lat="48.98939" lon="2.0411">
        <ele>110.4</ele>
        <time>2022-04-18T12:54:05Z</time>
      </trkpt>
      <trkpt lat="48.98937" lon="2.04099">
        <ele>110.5</ele>
        <time>2022-04-18T12:54:10Z</time>
      </trkpt>
      <trkpt lat="48.98937" lon="2.04087">
        <ele>110.6</ele>
        <time>2022-04-18T12:54:16Z</time>
      </trkpt>
      <trkpt lat="48.98933" lon="2.04072">
        <ele>110.8</ele>
        <time>2022-04-18T12:54:22Z</time>
      </trkpt>
      <trkpt lat="48.98931" lon="2.04058">
        <ele>111</ele>
        <time>2022-04-18T12:54:28Z</time>
      </trkpt>
      <trkpt lat="48.98931" lon="2.04048">
        <ele>111</ele>
        <time>2022-04-18T12:54:33Z</time>
      </trkpt>
      <trkpt lat="48.9893" lon="2.04038">
        <ele>111</ele>
        <time>2022-04-18T12:54:38Z</time>
      </trkpt>
      <trkpt lat="48.98929" lon="2.04027">
        <ele>111.1</ele>
        <time>2022-04-18T12:54:43Z</time>
      </trkpt>
      <trkpt lat="48.98928" lon="2.04017">
        <ele>111</ele>
        <time>2022-04-18T12:54:48Z</time>
      </trkpt>
      <trkpt lat="48.98926" lon="2.04007">
        <ele>111.1</ele>
        <time>2022-04-18T12:54:54Z</time>
      </trkpt>
      <trkpt lat="48.98927" lon="2.03994">
        <ele>110.7</ele>
        <time>2022-04-18T12:55:00Z</time>
      </trkpt>
      <trkpt lat="48.98929" lon="2.03982">
        <ele>110</ele>
        <time>2022-04-18T12:55:06Z</time>
      </trkpt>
      <trkpt lat="48.9893" lon="2.03972">
        <ele>109.5</ele>
        <time>2022-04-18T12:55:11Z</time>
      </trkpt>
      <trkpt lat="48.98932" lon="2.03959">
        <ele>109.1</ele>
        <time>2022-04-18T12:55:16Z</time>
      </trkpt>
      <trkpt lat="48.98935" lon="2.03946">
        <ele>108.7</ele>
        <time>2022-04-18T12:55:22Z</time>
      </trkpt>
      <trkpt lat="48.98936" lon="2.03937">
        <ele>108.1</ele>
        <time>2022-04-18T12:55:28Z</time>
      </trkpt>
      <trkpt lat="48.98938" lon="2.03924">
        <ele>107.1</ele>
        <time>2022-04-18T12:55:33Z</time>
      </trkpt>
      <trkpt lat="48.9894" lon="2.0391">
        <ele>106.2</ele>
        <time>2022-04-18T12:55:39Z</time>
      </trkpt>
      <trkpt lat="48.98943" lon="2.039">
        <ele>105.6</ele>
        <time>2022-04-18T12:55:45Z</time>
      </trkpt>
      <trkpt lat="48.98944" lon="2.03892">
        <ele>105.1</ele>
        <time>2022-04-18T12:55:50Z</time>
      </trkpt>
      <trkpt lat="48.98947" lon="2.03885">
        <ele>104.7</ele>
        <time>2022-04-18T12:55:55Z</time>
      </trkpt>
      <trkpt lat="48.98955" lon="2.03874">
        <ele>103.9</ele>
        <time>2022-04-18T12:56:01Z</time>
      </trkpt>
      <trkpt lat="48.98957" lon="2.03864">
        <ele>103.6</ele>
        <time>2022-04-18T12:56:07Z</time>
      </trkpt>
      <trkpt lat="48.98959" lon="2.03858">
        <ele>103.5</ele>
        <time>2022-04-18T12:56:13Z</time>
      </trkpt>
      <trkpt lat="48.98966" lon="2.03851">
        <ele>102.7</ele>
        <time>2022-04-18T12:56:19Z</time>
      </trkpt>
      <trkpt lat="48.98966" lon="2.03842">
        <ele>102.7</ele>
        <time>2022-04-18T12:56:24Z</time>
      </trkpt>
      <trkpt lat="48.98963" lon="2.03837">
        <ele>103</ele>
        <time>2022-04-18T12:56:30Z</time>
      </trkpt>
      <trkpt lat="48.98961" lon="2.03831">
        <ele>103.3</ele>
        <time>2022-04-18T12:56:35Z</time>
      </trkpt>
      <trkpt lat="48.98956" lon="2.0383">
        <ele>103.8</ele>
        <time>2022-04-18T12:56:40Z</time>
      </trkpt>
      <trkpt lat="48.98955" lon="2.0383">
        <ele>103.9</ele>
        <time>2022-04-18T12:56:45Z</time>
      </trkpt>
      <trkpt lat="48.98953" lon="2.0383">
        <ele>104.1</ele>
        <time>2022-04-18T12:56:51Z</time>
      </trkpt>
      <trkpt lat="48.98951" lon="2.03829">
        <ele>104.3</ele>
        <time>2022-04-18T12:56:57Z</time>
      </trkpt>
      <trkpt lat="48.98951" lon="2.03829">
        <ele>104.3</ele>
        <time>2022-04-18T12:57:03Z</time>
      </trkpt>
      <trkpt lat="48.98951" lon="2.03828">
        <ele>104.3</ele>
        <time>2022-04-18T12:57:09Z</time>
      </trkpt>
      <trkpt lat="48.98951" lon="2.03828">
        <ele>104.3</ele>
        <time>2022-04-18T12:57:14Z</time>
      </trkpt>
      <trkpt lat="48.98951" lon="2.03828">
        <ele>104.4</ele>
        <time>2022-04-18T12:57:20Z</time>
      </trkpt>
      <trkpt lat="48.9895" lon="2.03828">
        <ele>104.4</ele>
        <time>2022-04-18T12:57:26Z</time>
      </trkpt>
      <trkpt lat="48.9895" lon="2.03829">
        <ele>104.4</ele>
        <time>2022-04-18T12:57:32Z</time>
      </trkpt>
      <trkpt lat="48.9895" lon="2.03829">
        <ele>104.4</ele>
        <time>2022-04-18T12:57:37Z</time>
      </trkpt>
      <trkpt lat="48.98951" lon="2.03829">
        <ele>104.3</ele>
        <time>2022-04-18T12:57:43Z</time>
      </trkpt>
      <trkpt lat="48.98953" lon="2.0383">
        <ele>104.1</ele>
        <time>2022-04-18T12:57:48Z</time>
      </trkpt>
      <trkpt lat="48.98955" lon="2.03831">
        <ele>103.9</ele>
        <time>2022-04-18T12:57:54Z</time>
      </trkpt>
      <trkpt lat="48.98956" lon="2.03832">
        <ele>103.8</ele>
        <time>2022-04-18T12:57:59Z</time>
      </trkpt>
      <trkpt lat="48.98958" lon="2.03834">
        <ele>103.6</ele>
        <time>2022-04-18T12:58:05Z</time>
      </trkpt>
      <trkpt lat="48.98957" lon="2.03832">
        <ele>103.6</ele>
        <time>2022-04-18T12:58:11Z</time>
      </trkpt>
      <trkpt lat="48.98958" lon="2.03833">
        <ele>103.6</ele>
        <time>2022-04-18T12:58:17Z</time>
      </trkpt>
      <trkpt lat="48.98958" lon="2.03833">
        <ele>103.5</ele>
        <time>2022-04-18T12:58:22Z</time>
      </trkpt>
      <trkpt lat="48.98957" lon="2.0383">
        <ele>103.7</ele>
        <time>2022-04-18T12:58:28Z</time>
      </trkpt>
      <trkpt lat="48.98957" lon="2.0383">
        <ele>103.7</ele>
        <time>2022-04-18T12:58:34Z</time>
      </trkpt>
      <trkpt lat="48.98956" lon="2.0383">
        <ele>103.8</ele>
        <time>2022-04-18T12:58:40Z</time>
      </trkpt>
      <trkpt lat="48.98955" lon="2.03831">
        <ele>103.9</ele>
        <time>2022-04-18T12:58:45Z</time>
      </trkpt>
      <trkpt lat="48.98955" lon="2.03832">
        <ele>103.9</ele>
        <time>2022-04-18T12:58:50Z</time>
      </trkpt>
      <trkpt lat="48.98954" lon="2.03838">
        <ele>104</ele>
        <time>2022-04-18T12:58:55Z</time>
      </trkpt>
      <trkpt lat="48.98954" lon="2.0384">
        <ele>104</ele>
        <time>2022-04-18T12:59:01Z</time>
      </trkpt>
      <trkpt lat="48.98956" lon="2.03841">
        <ele>103.7</ele>
        <time>2022-04-18T12:59:07Z</time>
      </trkpt>
      <trkpt lat="48.98958" lon="2.03841">
        <ele>103.6</ele>
        <time>2022-04-18T12:59:12Z</time>
      </trkpt>
      <trkpt lat="48.98959" lon="2.03841">
        <ele>103.4</ele>
        <time>2022-04-18T12:59:18Z</time>
      </trkpt>
      <trkpt lat="48.98959" lon="2.03839">
        <ele>103.4</ele>
        <time>2022-04-18T12:59:23Z</time>
      </trkpt>
      <trkpt lat="48.98958" lon="2.03836">
        <ele>103.5</ele>
        <time>2022-04-18T12:59:29Z</time>
      </trkpt>
      <trkpt lat="48.98959" lon="2.03835">
        <ele>103.4</ele>
        <time>2022-04-18T12:59:34Z</time>
      </trkpt>
      <trkpt lat="48.98959" lon="2.03835">
        <ele>103.4</ele>
        <time>2022-04-18T12:59:40Z</time>
      </trkpt>
      <trkpt lat="48.98959" lon="2.03836">
        <ele>103.4</ele>
        <time>2022-04-18T12:59:45Z</time>
      </trkpt>
      <trkpt lat="48.98958" lon="2.03837">
        <ele>103.5</ele>
        <time>2022-04-18T12:59:50Z</time>
      </trkpt>
      <trkpt lat="48.98957" lon="2.03838">
        <ele>103.7</ele>
        <time>2022-04-18T12:59:56Z</time>
      </trkpt>
      <trkpt lat="48.98956" lon="2.03838">
        <ele>103.8</ele>
        <time>2022-04-18T13:00:02Z</time>
      </trkpt>
      <trkpt lat="48.98956" lon="2.03837">
        <ele>103.8</ele>
        <time>2022-04-18T13:00:07Z</time>
      </trkpt>
      <trkpt lat="48.98956" lon="2.03833">
        <ele>103.7</ele>
        <time>2022-04-18T13:00:13Z</time>
      </trkpt>
      <trkpt lat="48.98957" lon="2.03833">
        <ele>103.7</ele>
        <time>2022-04-18T13:00:18Z</time>
      </trkpt>
      <trkpt lat="48.98956" lon="2.03837">
        <ele>103.7</ele>
        <time>2022-04-18T13:00:23Z</time>
      </trkpt>
      <trkpt lat="48.98958" lon="2.03833">
        <ele>103.6</ele>
        <time>2022-04-18T13:00:28Z</time>
      </trkpt>
      <trkpt lat="48.98958" lon="2.03836">
        <ele>103.5</ele>
        <time>2022-04-18T13:00:34Z</time>
      </trkpt>
      <trkpt lat="48.98961" lon="2.03838">
        <ele>103.2</ele>
        <time>2022-04-18T13:00:39Z</time>
      </trkpt>
      <trkpt lat="48.98967" lon="2.03844">
        <ele>102.5</ele>
        <time>2022-04-18T13:00:45Z</time>
      </trkpt>
      <trkpt lat="48.9897" lon="2.03842">
        <ele>102.2</ele>
        <time>2022-04-18T13:00:50Z</time>
      </trkpt>
      <trkpt lat="48.98971" lon="2.03842">
        <ele>102.2</ele>
        <time>2022-04-18T13:00:55Z</time>
      </trkpt>
      <trkpt lat="48.98971" lon="2.03841">
        <ele>102.1</ele>
        <time>2022-04-18T13:01:01Z</time>
      </trkpt>
      <trkpt lat="48.98971" lon="2.0384">
        <ele>102.1</ele>
        <time>2022-04-18T13:01:06Z</time>
      </trkpt>
      <trkpt lat="48.98971" lon="2.03838">
        <ele>102.1</ele>
        <time>2022-04-18T13:01:12Z</time>
      </trkpt>
      <trkpt lat="48.98969" lon="2.03838">
        <ele>102.4</ele>
        <time>2022-04-18T13:01:18Z</time>
      </trkpt>
      <trkpt lat="48.9897" lon="2.03836">
        <ele>102.3</ele>
        <time>2022-04-18T13:01:23Z</time>
      </trkpt>
      <trkpt lat="48.9897" lon="2.03835">
        <ele>102.2</ele>
        <time>2022-04-18T13:01:28Z</time>
      </trkpt>
      <trkpt lat="48.98971" lon="2.0383">
        <ele>102.2</ele>
        <time>2022-04-18T13:01:34Z</time>
      </trkpt>
      <trkpt lat="48.98972" lon="2.03826">
        <ele>102.3</ele>
        <time>2022-04-18T13:01:40Z</time>
      </trkpt>
      <trkpt lat="48.98975" lon="2.03814">
        <ele>102.5</ele>
        <time>2022-04-18T13:01:46Z</time>
      </trkpt>
      <trkpt lat="48.9898" lon="2.03804">
        <ele>102.5</ele>
        <time>2022-04-18T13:01:52Z</time>
      </trkpt>
      <trkpt lat="48.98983" lon="2.03793">
        <ele>102.7</ele>
        <time>2022-04-18T13:01:58Z</time>
      </trkpt>
      <trkpt lat="48.98982" lon="2.03783">
        <ele>103.1</ele>
        <time>2022-04-18T13:02:03Z</time>
      </trkpt>
      <trkpt lat="48.98983" lon="2.03771">
        <ele>103.5</ele>
        <time>2022-04-18T13:02:08Z</time>
      </trkpt>
      <trkpt lat="48.98985" lon="2.03757">
        <ele>103.9</ele>
        <time>2022-04-18T13:02:14Z</time>
      </trkpt>
      <trkpt lat="48.98984" lon="2.03745">
        <ele>104.3</ele>
        <time>2022-04-18T13:02:19Z</time>
      </trkpt>
      <trkpt lat="48.98986" lon="2.03733">
        <ele>104.6</ele>
        <time>2022-04-18T13:02:25Z</time>
      </trkpt>
      <trkpt lat="48.98989" lon="2.03724">
        <ele>104.7</ele>
        <time>2022-04-18T13:02:30Z</time>
      </trkpt>
      <trkpt lat="48.98993" lon="2.03712">
        <ele>105.2</ele>
        <time>2022-04-18T13:02:36Z</time>
      </trkpt>
      <trkpt lat="48.98996" lon="2.03702">
        <ele>105.7</ele>
        <time>2022-04-18T13:02:41Z</time>
      </trkpt>
      <trkpt lat="48.98998" lon="2.03695">
        <ele>106</ele>
        <time>2022-04-18T13:02:46Z</time>
      </trkpt>
      <trkpt lat="48.99001" lon="2.03682">
        <ele>106.4</ele>
        <time>2022-04-18T13:02:52Z</time>
      </trkpt>
      <trkpt lat="48.99002" lon="2.03673">
        <ele>106.7</ele>
        <time>2022-04-18T13:02:57Z</time>
      </trkpt>
      <trkpt lat="48.99003" lon="2.03661">
        <ele>107.1</ele>
        <time>2022-04-18T13:03:02Z</time>
      </trkpt>
      <trkpt lat="48.99004" lon="2.0365">
        <ele>107.5</ele>
        <time>2022-04-18T13:03:08Z</time>
      </trkpt>
      <trkpt lat="48.99007" lon="2.03635">
        <ele>108</ele>
        <time>2022-04-18T13:03:14Z</time>
      </trkpt>
      <trkpt lat="48.99008" lon="2.03625">
        <ele>108.7</ele>
        <time>2022-04-18T13:03:20Z</time>
      </trkpt>
      <trkpt lat="48.99007" lon="2.03615">
        <ele>109.5</ele>
        <time>2022-04-18T13:03:25Z</time>
      </trkpt>
      <trkpt lat="48.99007" lon="2.03599">
        <ele>110.2</ele>
        <time>2022-04-18T13:03:31Z</time>
      </trkpt>
      <trkpt lat="48.99009" lon="2.03587">
        <ele>110.5</ele>
        <time>2022-04-18T13:03:36Z</time>
      </trkpt>
      <trkpt lat="48.99013" lon="2.03576">
        <ele>110.8</ele>
        <time>2022-04-18T13:03:42Z</time>
      </trkpt>
      <trkpt lat="48.99014" lon="2.03564">
        <ele>111.2</ele>
        <time>2022-04-18T13:03:48Z</time>
      </trkpt>
      <trkpt lat="48.99013" lon="2.03551">
        <ele>111.7</ele>
        <time>2022-04-18T13:03:54Z</time>
      </trkpt>
      <trkpt lat="48.99015" lon="2.03544">
        <ele>111.9</ele>
        <time>2022-04-18T13:04:00Z</time>
      </trkpt>
      <trkpt lat="48.99019" lon="2.03545">
        <ele>111.7</ele>
        <time>2022-04-18T13:04:06Z</time>
      </trkpt>
      <trkpt lat="48.99021" lon="2.03547">
        <ele>111.6</ele>
        <time>2022-04-18T13:04:11Z</time>
      </trkpt>
      <trkpt lat="48.99023" lon="2.03548">
        <ele>111.4</ele>
        <time>2022-04-18T13:04:17Z</time>
      </trkpt>
      <trkpt lat="48.99025" lon="2.03551">
        <ele>111.3</ele>
        <time>2022-04-18T13:04:23Z</time>
      </trkpt>
      <trkpt lat="48.99029" lon="2.03552">
        <ele>111</ele>
        <time>2022-04-18T13:04:28Z</time>
      </trkpt>
      <trkpt lat="48.99035" lon="2.03554">
        <ele>110.5</ele>
        <time>2022-04-18T13:04:33Z</time>
      </trkpt>
      <trkpt lat="48.99044" lon="2.03558">
        <ele>109.8</ele>
        <time>2022-04-18T13:04:38Z</time>
      </trkpt>
      <trkpt lat="48.99054" lon="2.03562">
        <ele>108.9</ele>
        <time>2022-04-18T13:04:44Z</time>
      </trkpt>
      <trkpt lat="48.99061" lon="2.03565">
        <ele>108.2</ele>
        <time>2022-04-18T13:04:49Z</time>
      </trkpt>
      <trkpt lat="48.99069" lon="2.03566">
        <ele>107.7</ele>
        <time>2022-04-18T13:04:54Z</time>
      </trkpt>
      <trkpt lat="48.99077" lon="2.03569">
        <ele>107</ele>
        <time>2022-04-18T13:04:59Z</time>
      </trkpt>
      <trkpt lat="48.99086" lon="2.03572">
        <ele>106.2</ele>
        <time>2022-04-18T13:05:05Z</time>
      </trkpt>
      <trkpt lat="48.99096" lon="2.03578">
        <ele>105.2</ele>
        <time>2022-04-18T13:05:11Z</time>
      </trkpt>
      <trkpt lat="48.99104" lon="2.03581">
        <ele>104.5</ele>
        <time>2022-04-18T13:05:17Z</time>
      </trkpt>
      <trkpt lat="48.99111" lon="2.03586">
        <ele>104</ele>
        <time>2022-04-18T13:05:23Z</time>
      </trkpt>
      <trkpt lat="48.99116" lon="2.03589">
        <ele>103.4</ele>
        <time>2022-04-18T13:05:28Z</time>
      </trkpt>
      <trkpt lat="48.99123" lon="2.03593">
        <ele>102.7</ele>
        <time>2022-04-18T13:05:34Z</time>
      </trkpt>
      <trkpt lat="48.9913" lon="2.03596">
        <ele>101.9</ele>
        <time>2022-04-18T13:05:40Z</time>
      </trkpt>
      <trkpt lat="48.99138" lon="2.03598">
        <ele>101.1</ele>
        <time>2022-04-18T13:05:46Z</time>
      </trkpt>
      <trkpt lat="48.99146" lon="2.03601">
        <ele>100.6</ele>
        <time>2022-04-18T13:05:51Z</time>
      </trkpt>
      <trkpt lat="48.99152" lon="2.03603">
        <ele>100.2</ele>
        <time>2022-04-18T13:05:56Z</time>
      </trkpt>
      <trkpt lat="48.99159" lon="2.03606">
        <ele>99.7</ele>
        <time>2022-04-18T13:06:02Z</time>
      </trkpt>
      <trkpt lat="48.99166" lon="2.03609">
        <ele>99.1</ele>
        <time>2022-04-18T13:06:08Z</time>
      </trkpt>
      <trkpt lat="48.99175" lon="2.03612">
        <ele>98.4</ele>
        <time>2022-04-18T13:06:14Z</time>
      </trkpt>
      <trkpt lat="48.99181" lon="2.03613">
        <ele>97.9</ele>
        <time>2022-04-18T13:06:19Z</time>
      </trkpt>
      <trkpt lat="48.99189" lon="2.03614">
        <ele>97.3</ele>
        <time>2022-04-18T13:06:25Z</time>
      </trkpt>
      <trkpt lat="48.99196" lon="2.03616">
        <ele>96.8</ele>
        <time>2022-04-18T13:06:30Z</time>
      </trkpt>
      <trkpt lat="48.99204" lon="2.0362">
        <ele>96.3</ele>
        <time>2022-04-18T13:06:36Z</time>
      </trkpt>
      <trkpt lat="48.99212" lon="2.03624">
        <ele>95.9</ele>
        <time>2022-04-18T13:06:41Z</time>
      </trkpt>
      <trkpt lat="48.9922" lon="2.03627">
        <ele>95.5</ele>
        <time>2022-04-18T13:06:46Z</time>
      </trkpt>
      <trkpt lat="48.99228" lon="2.03631">
        <ele>95.3</ele>
        <time>2022-04-18T13:06:51Z</time>
      </trkpt>
      <trkpt lat="48.99236" lon="2.03635">
        <ele>95.2</ele>
        <time>2022-04-18T13:06:57Z</time>
      </trkpt>
      <trkpt lat="48.99244" lon="2.03637">
        <ele>95.1</ele>
        <time>2022-04-18T13:07:02Z</time>
      </trkpt>
      <trkpt lat="48.99252" lon="2.03639">
        <ele>95.1</ele>
        <time>2022-04-18T13:07:08Z</time>
      </trkpt>
      <trkpt lat="48.99262" lon="2.0364">
        <ele>95.4</ele>
        <time>2022-04-18T13:07:14Z</time>
      </trkpt>
      <trkpt lat="48.9927" lon="2.03641">
        <ele>95.6</ele>
        <time>2022-04-18T13:07:20Z</time>
      </trkpt>
      <trkpt lat="48.99278" lon="2.03641">
        <ele>95.8</ele>
        <time>2022-04-18T13:07:25Z</time>
      </trkpt>
      <trkpt lat="48.99288" lon="2.03642">
        <ele>96.2</ele>
        <time>2022-04-18T13:07:31Z</time>
      </trkpt>
      <trkpt lat="48.99295" lon="2.03642">
        <ele>96.4</ele>
        <time>2022-04-18T13:07:36Z</time>
      </trkpt>
      <trkpt lat="48.993" lon="2.0364">
        <ele>96.7</ele>
        <time>2022-04-18T13:07:41Z</time>
      </trkpt>
      <trkpt lat="48.99306" lon="2.03638">
        <ele>97</ele>
        <time>2022-04-18T13:07:47Z</time>
      </trkpt>
      <trkpt lat="48.99313" lon="2.03638">
        <ele>97.3</ele>
        <time>2022-04-18T13:07:53Z</time>
      </trkpt>
      <trkpt lat="48.99319" lon="2.03638">
        <ele>97.5</ele>
        <time>2022-04-18T13:07:59Z</time>
      </trkpt>
      <trkpt lat="48.99325" lon="2.0364">
        <ele>97.7</ele>
        <time>2022-04-18T13:08:04Z</time>
      </trkpt>
      <trkpt lat="48.99333" lon="2.03642">
        <ele>98.1</ele>
        <time>2022-04-18T13:08:09Z</time>
      </trkpt>
      <trkpt lat="48.99341" lon="2.03643">
        <ele>98.7</ele>
        <time>2022-04-18T13:08:15Z</time>
      </trkpt>
      <trkpt lat="48.99347" lon="2.03642">
        <ele>99.1</ele>
        <time>2022-04-18T13:08:20Z</time>
      </trkpt>
      <trkpt lat="48.99353" lon="2.03639">
        <ele>99.4</ele>
        <time>2022-04-18T13:08:25Z</time>
      </trkpt>
      <trkpt lat="48.99359" lon="2.03635">
        <ele>99.7</ele>
        <time>2022-04-18T13:08:31Z</time>
      </trkpt>
      <trkpt lat="48.99365" lon="2.03632">
        <ele>100</ele>
        <time>2022-04-18T13:08:37Z</time>
      </trkpt>
      <trkpt lat="48.99369" lon="2.03632">
        <ele>100.3</ele>
        <time>2022-04-18T13:08:42Z</time>
      </trkpt>
      <trkpt lat="48.99375" lon="2.03632">
        <ele>100.7</ele>
        <time>2022-04-18T13:08:48Z</time>
      </trkpt>
      <trkpt lat="48.99382" lon="2.03632">
        <ele>101</ele>
        <time>2022-04-18T13:08:54Z</time>
      </trkpt>
      <trkpt lat="48.99386" lon="2.03632">
        <ele>101.3</ele>
        <time>2022-04-18T13:08:59Z</time>
      </trkpt>
      <trkpt lat="48.99392" lon="2.0363">
        <ele>101.6</ele>
        <time>2022-04-18T13:09:04Z</time>
      </trkpt>
      <trkpt lat="48.99399" lon="2.03629">
        <ele>101.8</ele>
        <time>2022-04-18T13:09:10Z</time>
      </trkpt>
      <trkpt lat="48.99405" lon="2.03629">
        <ele>102.1</ele>
        <time>2022-04-18T13:09:16Z</time>
      </trkpt>
      <trkpt lat="48.99411" lon="2.0363">
        <ele>102.4</ele>
        <time>2022-04-18T13:09:21Z</time>
      </trkpt>
      <trkpt lat="48.99419" lon="2.0363">
        <ele>102.7</ele>
        <time>2022-04-18T13:09:26Z</time>
      </trkpt>
      <trkpt lat="48.99429" lon="2.0363">
        <ele>102.8</ele>
        <time>2022-04-18T13:09:32Z</time>
      </trkpt>
      <trkpt lat="48.99436" lon="2.0363">
        <ele>102.9</ele>
        <time>2022-04-18T13:09:37Z</time>
      </trkpt>
      <trkpt lat="48.99443" lon="2.03631">
        <ele>103</ele>
        <time>2022-04-18T13:09:42Z</time>
      </trkpt>
      <trkpt lat="48.9945" lon="2.03628">
        <ele>103.2</ele>
        <time>2022-04-18T13:09:48Z</time>
      </trkpt>
      <trkpt lat="48.99456" lon="2.03625">
        <ele>103.4</ele>
        <time>2022-04-18T13:09:53Z</time>
      </trkpt>
      <trkpt lat="48.99461" lon="2.0362">
        <ele>103.6</ele>
        <time>2022-04-18T13:09:59Z</time>
      </trkpt>
      <trkpt lat="48.99466" lon="2.03618">
        <ele>103.8</ele>
        <time>2022-04-18T13:10:04Z</time>
      </trkpt>
      <trkpt lat="48.99471" lon="2.03619">
        <ele>103.9</ele>
        <time>2022-04-18T13:10:09Z</time>
      </trkpt>
      <trkpt lat="48.99476" lon="2.03617">
        <ele>104.1</ele>
        <time>2022-04-18T13:10:14Z</time>
      </trkpt>
      <trkpt lat="48.99482" lon="2.03614">
        <ele>104.3</ele>
        <time>2022-04-18T13:10:20Z</time>
      </trkpt>
      <trkpt lat="48.99487" lon="2.03611">
        <ele>104.5</ele>
        <time>2022-04-18T13:10:25Z</time>
      </trkpt>
      <trkpt lat="48.99493" lon="2.03607">
        <ele>104.9</ele>
        <time>2022-04-18T13:10:31Z</time>
      </trkpt>
      <trkpt lat="48.99498" lon="2.03604">
        <ele>105.2</ele>
        <time>2022-04-18T13:10:36Z</time>
      </trkpt>
      <trkpt lat="48.99505" lon="2.03601">
        <ele>105.5</ele>
        <time>2022-04-18T13:10:42Z</time>
      </trkpt>
      <trkpt lat="48.99511" lon="2.036">
        <ele>105.8</ele>
        <time>2022-04-18T13:10:47Z</time>
      </trkpt>
      <trkpt lat="48.99519" lon="2.03601">
        <ele>106</ele>
        <time>2022-04-18T13:10:53Z</time>
      </trkpt>
      <trkpt lat="48.99529" lon="2.036">
        <ele>106.4</ele>
        <time>2022-04-18T13:10:59Z</time>
      </trkpt>
      <trkpt lat="48.99539" lon="2.03596">
        <ele>106.6</ele>
        <time>2022-04-18T13:11:05Z</time>
      </trkpt>
      <trkpt lat="48.99547" lon="2.03592">
        <ele>106.7</ele>
        <time>2022-04-18T13:11:11Z</time>
      </trkpt>
      <trkpt lat="48.99554" lon="2.03589">
        <ele>106.8</ele>
        <time>2022-04-18T13:11:16Z</time>
      </trkpt>
      <trkpt lat="48.9956" lon="2.03591">
        <ele>106.9</ele>
        <time>2022-04-18T13:11:22Z</time>
      </trkpt>
      <trkpt lat="48.99563" lon="2.03591">
        <ele>106.9</ele>
        <time>2022-04-18T13:11:27Z</time>
      </trkpt>
      <trkpt lat="48.99565" lon="2.03592">
        <ele>106.9</ele>
        <time>2022-04-18T13:11:33Z</time>
      </trkpt>
      <trkpt lat="48.99566" lon="2.03594">
        <ele>106.9</ele>
        <time>2022-04-18T13:11:39Z</time>
      </trkpt>
      <trkpt lat="48.99567" lon="2.03595">
        <ele>106.8</ele>
        <time>2022-04-18T13:11:45Z</time>
      </trkpt>
      <trkpt lat="48.99568" lon="2.03595">
        <ele>106.8</ele>
        <time>2022-04-18T13:11:50Z</time>
      </trkpt>
      <trkpt lat="48.99568" lon="2.03596">
        <ele>106.8</ele>
        <time>2022-04-18T13:11:56Z</time>
      </trkpt>
      <trkpt lat="48.99568" lon="2.03596">
        <ele>106.8</ele>
        <time>2022-04-18T13:12:01Z</time>
      </trkpt>
      <trkpt lat="48.99568" lon="2.03597">
        <ele>106.8</ele>
        <time>2022-04-18T13:12:06Z</time>
      </trkpt>
      <trkpt lat="48.99568" lon="2.03597">
        <ele>106.7</ele>
        <time>2022-04-18T13:12:12Z</time>
      </trkpt>
      <trkpt lat="48.99568" lon="2.03598">
        <ele>106.7</ele>
        <time>2022-04-18T13:12:18Z</time>
      </trkpt>
      <trkpt lat="48.99568" lon="2.03598">
        <ele>106.7</ele>
        <time>2022-04-18T13:12:23Z</time>
      </trkpt>
      <trkpt lat="48.99569" lon="2.03599">
        <ele>106.7</ele>
        <time>2022-04-18T13:12:29Z</time>
      </trkpt>
      <trkpt lat="48.99571" lon="2.03602">
        <ele>106.5</ele>
        <time>2022-04-18T13:12:36Z</time>
      </trkpt>
      <trkpt lat="48.99572" lon="2.03603">
        <ele>106.5</ele>
        <time>2022-04-18T13:12:42Z</time>
      </trkpt>
      <trkpt lat="48.99572" lon="2.03603">
        <ele>106.5</ele>
        <time>2022-04-18T13:12:48Z</time>
      </trkpt>
      <trkpt lat="48.99571" lon="2.03602">
        <ele>106.5</ele>
        <time>2022-04-18T13:12:53Z</time>
      </trkpt>
      <trkpt lat="48.9957" lon="2.03602">
        <ele>106.5</ele>
        <time>2022-04-18T13:12:59Z</time>
      </trkpt>
      <trkpt lat="48.9957" lon="2.03602">
        <ele>106.5</ele>
        <time>2022-04-18T13:13:05Z</time>
      </trkpt>
      <trkpt lat="48.9957" lon="2.03601">
        <ele>106.6</ele>
        <time>2022-04-18T13:13:10Z</time>
      </trkpt>
      <trkpt lat="48.9957" lon="2.036">
        <ele>106.6</ele>
        <time>2022-04-18T13:13:15Z</time>
      </trkpt>
      <trkpt lat="48.9957" lon="2.036">
        <ele>106.6</ele>
        <time>2022-04-18T13:13:20Z</time>
      </trkpt>
      <trkpt lat="48.9957" lon="2.03601">
        <ele>106.6</ele>
        <time>2022-04-18T13:13:26Z</time>
      </trkpt>
      <trkpt lat="48.9957" lon="2.03601">
        <ele>106.6</ele>
        <time>2022-04-18T13:13:31Z</time>
      </trkpt>
      <trkpt lat="48.9957" lon="2.036">
        <ele>106.6</ele>
        <time>2022-04-18T13:13:37Z</time>
      </trkpt>
      <trkpt lat="48.9957" lon="2.03599">
        <ele>106.7</ele>
        <time>2022-04-18T13:13:42Z</time>
      </trkpt>
      <trkpt lat="48.99569" lon="2.03599">
        <ele>106.7</ele>
        <time>2022-04-18T13:13:48Z</time>
      </trkpt>
      <trkpt lat="48.99569" lon="2.03598">
        <ele>106.7</ele>
        <time>2022-04-18T13:13:54Z</time>
      </trkpt>
      <trkpt lat="48.9957" lon="2.03598">
        <ele>106.7</ele>
        <time>2022-04-18T13:14:00Z</time>
      </trkpt>
      <trkpt lat="48.99569" lon="2.03598">
        <ele>106.7</ele>
        <time>2022-04-18T13:14:06Z</time>
      </trkpt>
      <trkpt lat="48.99569" lon="2.03597">
        <ele>106.7</ele>
        <time>2022-04-18T13:14:11Z</time>
      </trkpt>
      <trkpt lat="48.99568" lon="2.03597">
        <ele>106.7</ele>
        <time>2022-04-18T13:14:17Z</time>
      </trkpt>
      <trkpt lat="48.99568" lon="2.03596">
        <ele>106.8</ele>
        <time>2022-04-18T13:14:23Z</time>
      </trkpt>
      <trkpt lat="48.99568" lon="2.03597">
        <ele>106.8</ele>
        <time>2022-04-18T13:14:28Z</time>
      </trkpt>
      <trkpt lat="48.99569" lon="2.03597">
        <ele>106.8</ele>
        <time>2022-04-18T13:14:33Z</time>
      </trkpt>
      <trkpt lat="48.99568" lon="2.036">
        <ele>106.6</ele>
        <time>2022-04-18T13:14:39Z</time>
      </trkpt>
      <trkpt lat="48.99573" lon="2.03596">
        <ele>106.9</ele>
        <time>2022-04-18T13:14:44Z</time>
      </trkpt>
      <trkpt lat="48.99582" lon="2.03593">
        <ele>107.3</ele>
        <time>2022-04-18T13:14:50Z</time>
      </trkpt>
      <trkpt lat="48.99589" lon="2.0359">
        <ele>107.5</ele>
        <time>2022-04-18T13:14:55Z</time>
      </trkpt>
      <trkpt lat="48.99596" lon="2.03588">
        <ele>107.7</ele>
        <time>2022-04-18T13:15:01Z</time>
      </trkpt>
      <trkpt lat="48.99604" lon="2.03584">
        <ele>108</ele>
        <time>2022-04-18T13:15:07Z</time>
      </trkpt>
      <trkpt lat="48.99611" lon="2.03579">
        <ele>108.2</ele>
        <time>2022-04-18T13:15:12Z</time>
      </trkpt>
      <trkpt lat="48.9962" lon="2.03574">
        <ele>108.3</ele>
        <time>2022-04-18T13:15:17Z</time>
      </trkpt>
      <trkpt lat="48.99629" lon="2.03572">
        <ele>108.4</ele>
        <time>2022-04-18T13:15:22Z</time>
      </trkpt>
      <trkpt lat="48.99636" lon="2.03568">
        <ele>108.5</ele>
        <time>2022-04-18T13:15:28Z</time>
      </trkpt>
      <trkpt lat="48.99644" lon="2.03564">
        <ele>108.6</ele>
        <time>2022-04-18T13:15:34Z</time>
      </trkpt>
      <trkpt lat="48.99652" lon="2.03562">
        <ele>108.7</ele>
        <time>2022-04-18T13:15:39Z</time>
      </trkpt>
      <trkpt lat="48.99662" lon="2.03559">
        <ele>108.8</ele>
        <time>2022-04-18T13:15:45Z</time>
      </trkpt>
      <trkpt lat="48.99669" lon="2.03556">
        <ele>108.8</ele>
        <time>2022-04-18T13:15:51Z</time>
      </trkpt>
      <trkpt lat="48.99677" lon="2.03552">
        <ele>108.5</ele>
        <time>2022-04-18T13:15:57Z</time>
      </trkpt>
      <trkpt lat="48.99687" lon="2.03546">
        <ele>108.1</ele>
        <time>2022-04-18T13:16:03Z</time>
      </trkpt>
      <trkpt lat="48.99696" lon="2.03543">
        <ele>107.8</ele>
        <time>2022-04-18T13:16:08Z</time>
      </trkpt>
      <trkpt lat="48.99703" lon="2.03541">
        <ele>107.5</ele>
        <time>2022-04-18T13:16:14Z</time>
      </trkpt>
      <trkpt lat="48.99709" lon="2.03538">
        <ele>107.4</ele>
        <time>2022-04-18T13:16:19Z</time>
      </trkpt>
      <trkpt lat="48.99717" lon="2.03532">
        <ele>107.2</ele>
        <time>2022-04-18T13:16:25Z</time>
      </trkpt>
      <trkpt lat="48.99724" lon="2.03526">
        <ele>107</ele>
        <time>2022-04-18T13:16:30Z</time>
      </trkpt>
      <trkpt lat="48.99734" lon="2.03522">
        <ele>106.8</ele>
        <time>2022-04-18T13:16:36Z</time>
      </trkpt>
      <trkpt lat="48.99742" lon="2.03519">
        <ele>106.6</ele>
        <time>2022-04-18T13:16:42Z</time>
      </trkpt>
      <trkpt lat="48.99748" lon="2.03517">
        <ele>106.5</ele>
        <time>2022-04-18T13:16:47Z</time>
      </trkpt>
      <trkpt lat="48.99757" lon="2.03513">
        <ele>106.3</ele>
        <time>2022-04-18T13:16:52Z</time>
      </trkpt>
      <trkpt lat="48.99766" lon="2.03507">
        <ele>106.2</ele>
        <time>2022-04-18T13:16:58Z</time>
      </trkpt>
      <trkpt lat="48.99773" lon="2.03504">
        <ele>106</ele>
        <time>2022-04-18T13:17:03Z</time>
      </trkpt>
      <trkpt lat="48.99778" lon="2.03502">
        <ele>105.9</ele>
        <time>2022-04-18T13:17:08Z</time>
      </trkpt>
      <trkpt lat="48.99784" lon="2.035">
        <ele>106</ele>
        <time>2022-04-18T13:17:14Z</time>
      </trkpt>
      <trkpt lat="48.99789" lon="2.03497">
        <ele>106.1</ele>
        <time>2022-04-18T13:17:19Z</time>
      </trkpt>
      <trkpt lat="48.99799" lon="2.03492">
        <ele>106.3</ele>
        <time>2022-04-18T13:17:25Z</time>
      </trkpt>
      <trkpt lat="48.99809" lon="2.03487">
        <ele>106.2</ele>
        <time>2022-04-18T13:17:31Z</time>
      </trkpt>
      <trkpt lat="48.99819" lon="2.03482">
        <ele>106</ele>
        <time>2022-04-18T13:17:37Z</time>
      </trkpt>
      <trkpt lat="48.99825" lon="2.03477">
        <ele>106</ele>
        <time>2022-04-18T13:17:42Z</time>
      </trkpt>
      <trkpt lat="48.99836" lon="2.03473">
        <ele>105.8</ele>
        <time>2022-04-18T13:17:48Z</time>
      </trkpt>
      <trkpt lat="48.99845" lon="2.03469">
        <ele>105.8</ele>
        <time>2022-04-18T13:17:54Z</time>
      </trkpt>
      <trkpt lat="48.99855" lon="2.03465">
        <ele>105.6</ele>
        <time>2022-04-18T13:18:00Z</time>
      </trkpt>
      <trkpt lat="48.99865" lon="2.0346">
        <ele>105.7</ele>
        <time>2022-04-18T13:18:06Z</time>
      </trkpt>
      <trkpt lat="48.99874" lon="2.03458">
        <ele>105.5</ele>
        <time>2022-04-18T13:18:12Z</time>
      </trkpt>
      <trkpt lat="48.99882" lon="2.03456">
        <ele>105.4</ele>
        <time>2022-04-18T13:18:17Z</time>
      </trkpt>
      <trkpt lat="48.99889" lon="2.03451">
        <ele>105.5</ele>
        <time>2022-04-18T13:18:23Z</time>
      </trkpt>
      <trkpt lat="48.99896" lon="2.03448">
        <ele>105.2</ele>
        <time>2022-04-18T13:18:29Z</time>
      </trkpt>
      <trkpt lat="48.99905" lon="2.03444">
        <ele>104.9</ele>
        <time>2022-04-18T13:18:35Z</time>
      </trkpt>
      <trkpt lat="48.99913" lon="2.03441">
        <ele>104.4</ele>
        <time>2022-04-18T13:18:40Z</time>
      </trkpt>
      <trkpt lat="48.99922" lon="2.03439">
        <ele>104</ele>
        <time>2022-04-18T13:18:45Z</time>
      </trkpt>
      <trkpt lat="48.99931" lon="2.03436">
        <ele>103.8</ele>
        <time>2022-04-18T13:18:51Z</time>
      </trkpt>
      <trkpt lat="48.99937" lon="2.03432">
        <ele>103.7</ele>
        <time>2022-04-18T13:18:56Z</time>
      </trkpt>
      <trkpt lat="48.99945" lon="2.03429">
        <ele>103.6</ele>
        <time>2022-04-18T13:19:01Z</time>
      </trkpt>
      <trkpt lat="48.99952" lon="2.03424">
        <ele>103.3</ele>
        <time>2022-04-18T13:19:06Z</time>
      </trkpt>
      <trkpt lat="48.99959" lon="2.03416">
        <ele>103</ele>
        <time>2022-04-18T13:19:12Z</time>
      </trkpt>
      <trkpt lat="48.99963" lon="2.03406">
        <ele>102.9</ele>
        <time>2022-04-18T13:19:18Z</time>
      </trkpt>
      <trkpt lat="48.99965" lon="2.03397">
        <ele>103</ele>
        <time>2022-04-18T13:19:23Z</time>
      </trkpt>
      <trkpt lat="48.9997" lon="2.03381">
        <ele>103.1</ele>
        <time>2022-04-18T13:19:29Z</time>
      </trkpt>
      <trkpt lat="48.99971" lon="2.03368">
        <ele>103.1</ele>
        <time>2022-04-18T13:19:35Z</time>
      </trkpt>
      <trkpt lat="48.99973" lon="2.03354">
        <ele>102.9</ele>
        <time>2022-04-18T13:19:41Z</time>
      </trkpt>
      <trkpt lat="48.99975" lon="2.03339">
        <ele>102.8</ele>
        <time>2022-04-18T13:19:47Z</time>
      </trkpt>
      <trkpt lat="48.99978" lon="2.03326">
        <ele>102.8</ele>
        <time>2022-04-18T13:19:53Z</time>
      </trkpt>
      <trkpt lat="48.99981" lon="2.03313">
        <ele>102.8</ele>
        <time>2022-04-18T13:19:59Z</time>
      </trkpt>
      <trkpt lat="48.99983" lon="2.03301">
        <ele>102.9</ele>
        <time>2022-04-18T13:20:04Z</time>
      </trkpt>
      <trkpt lat="48.99987" lon="2.03286">
        <ele>102.8</ele>
        <time>2022-04-18T13:20:10Z</time>
      </trkpt>
      <trkpt lat="48.99988" lon="2.03272">
        <ele>103</ele>
        <time>2022-04-18T13:20:15Z</time>
      </trkpt>
      <trkpt lat="48.99988" lon="2.03262">
        <ele>103.2</ele>
        <time>2022-04-18T13:20:20Z</time>
      </trkpt>
      <trkpt lat="48.99987" lon="2.03251">
        <ele>103.4</ele>
        <time>2022-04-18T13:20:26Z</time>
      </trkpt>
      <trkpt lat="48.99987" lon="2.03241">
        <ele>103.8</ele>
        <time>2022-04-18T13:20:31Z</time>
      </trkpt>
      <trkpt lat="48.99987" lon="2.03229">
        <ele>104.2</ele>
        <time>2022-04-18T13:20:36Z</time>
      </trkpt>
      <trkpt lat="48.99987" lon="2.03214">
        <ele>104.8</ele>
        <time>2022-04-18T13:20:41Z</time>
      </trkpt>
      <trkpt lat="48.99988" lon="2.03201">
        <ele>105.2</ele>
        <time>2022-04-18T13:20:47Z</time>
      </trkpt>
      <trkpt lat="48.99991" lon="2.03192">
        <ele>105.4</ele>
        <time>2022-04-18T13:20:52Z</time>
      </trkpt>
      <trkpt lat="48.99995" lon="2.03181">
        <ele>105.7</ele>
        <time>2022-04-18T13:20:57Z</time>
      </trkpt>
      <trkpt lat="49.00002" lon="2.03174">
        <ele>105.7</ele>
        <time>2022-04-18T13:21:03Z</time>
      </trkpt>
      <trkpt lat="49.00009" lon="2.03172">
        <ele>105.8</ele>
        <time>2022-04-18T13:21:09Z</time>
      </trkpt>
      <trkpt lat="49.00018" lon="2.03165">
        <ele>106.1</ele>
        <time>2022-04-18T13:21:15Z</time>
      </trkpt>
      <trkpt lat="49.00024" lon="2.0316">
        <ele>106.3</ele>
        <time>2022-04-18T13:21:20Z</time>
      </trkpt>
      <trkpt lat="49.00034" lon="2.03155">
        <ele>106.4</ele>
        <time>2022-04-18T13:21:26Z</time>
      </trkpt>
      <trkpt lat="49.00041" lon="2.03149">
        <ele>106.7</ele>
        <time>2022-04-18T13:21:32Z</time>
      </trkpt>
      <trkpt lat="49.00046" lon="2.03142">
        <ele>106.9</ele>
        <time>2022-04-18T13:21:38Z</time>
      </trkpt>
      <trkpt lat="49.00048" lon="2.03141">
        <ele>106.9</ele>
        <time>2022-04-18T13:21:43Z</time>
      </trkpt>
      <trkpt lat="49.00053" lon="2.03138">
        <ele>107</ele>
        <time>2022-04-18T13:21:49Z</time>
      </trkpt>
      <trkpt lat="49.00063" lon="2.03132">
        <ele>107</ele>
        <time>2022-04-18T13:21:55Z</time>
      </trkpt>
      <trkpt lat="49.00074" lon="2.03125">
        <ele>106.8</ele>
        <time>2022-04-18T13:22:01Z</time>
      </trkpt>
      <trkpt lat="49.00082" lon="2.03119">
        <ele>106.8</ele>
        <time>2022-04-18T13:22:07Z</time>
      </trkpt>
      <trkpt lat="49.00088" lon="2.03114">
        <ele>106.9</ele>
        <time>2022-04-18T13:22:12Z</time>
      </trkpt>
      <trkpt lat="49.00096" lon="2.0311">
        <ele>107</ele>
        <time>2022-04-18T13:22:18Z</time>
      </trkpt>
      <trkpt lat="49.00105" lon="2.03108">
        <ele>107.1</ele>
        <time>2022-04-18T13:22:23Z</time>
      </trkpt>
      <trkpt lat="49.00109" lon="2.03103">
        <ele>107.3</ele>
        <time>2022-04-18T13:22:28Z</time>
      </trkpt>
      <trkpt lat="49.00117" lon="2.03097">
        <ele>107.3</ele>
        <time>2022-04-18T13:22:34Z</time>
      </trkpt>
      <trkpt lat="49.00126" lon="2.03093">
        <ele>107.1</ele>
        <time>2022-04-18T13:22:39Z</time>
      </trkpt>
      <trkpt lat="49.00132" lon="2.03086">
        <ele>107.1</ele>
        <time>2022-04-18T13:22:45Z</time>
      </trkpt>
      <trkpt lat="49.00139" lon="2.0308">
        <ele>107.1</ele>
        <time>2022-04-18T13:22:51Z</time>
      </trkpt>
      <trkpt lat="49.00146" lon="2.03075">
        <ele>107</ele>
        <time>2022-04-18T13:22:56Z</time>
      </trkpt>
      <trkpt lat="49.00153" lon="2.03071">
        <ele>107</ele>
        <time>2022-04-18T13:23:01Z</time>
      </trkpt>
      <trkpt lat="49.00161" lon="2.03067">
        <ele>106.8</ele>
        <time>2022-04-18T13:23:06Z</time>
      </trkpt>
      <trkpt lat="49.00168" lon="2.03062">
        <ele>106.7</ele>
        <time>2022-04-18T13:23:12Z</time>
      </trkpt>
      <trkpt lat="49.00176" lon="2.03057">
        <ele>106.3</ele>
        <time>2022-04-18T13:23:17Z</time>
      </trkpt>
      <trkpt lat="49.00182" lon="2.03051">
        <ele>106</ele>
        <time>2022-04-18T13:23:23Z</time>
      </trkpt>
      <trkpt lat="49.00186" lon="2.03044">
        <ele>105.7</ele>
        <time>2022-04-18T13:23:28Z</time>
      </trkpt>
      <trkpt lat="49.00193" lon="2.03039">
        <ele>105.1</ele>
        <time>2022-04-18T13:23:33Z</time>
      </trkpt>
      <trkpt lat="49.00199" lon="2.03032">
        <ele>104.7</ele>
        <time>2022-04-18T13:23:39Z</time>
      </trkpt>
      <trkpt lat="49.00206" lon="2.03024">
        <ele>104.3</ele>
        <time>2022-04-18T13:23:45Z</time>
      </trkpt>
      <trkpt lat="49.0021" lon="2.03019">
        <ele>104.2</ele>
        <time>2022-04-18T13:23:50Z</time>
      </trkpt>
      <trkpt lat="49.00216" lon="2.03013">
        <ele>104</ele>
        <time>2022-04-18T13:23:56Z</time>
      </trkpt>
      <trkpt lat="49.00219" lon="2.03008">
        <ele>104</ele>
        <time>2022-04-18T13:24:02Z</time>
      </trkpt>
      <trkpt lat="49.00219" lon="2.03009">
        <ele>103.9</ele>
        <time>2022-04-18T13:24:07Z</time>
      </trkpt>
      <trkpt lat="49.00222" lon="2.03004">
        <ele>103.9</ele>
        <time>2022-04-18T13:24:13Z</time>
      </trkpt>
      <trkpt lat="49.00229" lon="2.02996">
        <ele>103.5</ele>
        <time>2022-04-18T13:24:18Z</time>
      </trkpt>
      <trkpt lat="49.00237" lon="2.02988">
        <ele>103</ele>
        <time>2022-04-18T13:24:23Z</time>
      </trkpt>
      <trkpt lat="49.00241" lon="2.02982">
        <ele>102.7</ele>
        <time>2022-04-18T13:24:29Z</time>
      </trkpt>
      <trkpt lat="49.00247" lon="2.02976">
        <ele>102.2</ele>
        <time>2022-04-18T13:24:34Z</time>
      </trkpt>
      <trkpt lat="49.00253" lon="2.02968">
        <ele>101.9</ele>
        <time>2022-04-18T13:24:39Z</time>
      </trkpt>
      <trkpt lat="49.00259" lon="2.02961">
        <ele>101.6</ele>
        <time>2022-04-18T13:24:44Z</time>
      </trkpt>
      <trkpt lat="49.00264" lon="2.02957">
        <ele>101.2</ele>
        <time>2022-04-18T13:24:49Z</time>
      </trkpt>
      <trkpt lat="49.0027" lon="2.0295">
        <ele>100.7</ele>
        <time>2022-04-18T13:24:54Z</time>
      </trkpt>
      <trkpt lat="49.00278" lon="2.02941">
        <ele>100</ele>
        <time>2022-04-18T13:25:00Z</time>
      </trkpt>
      <trkpt lat="49.00285" lon="2.02931">
        <ele>99.4</ele>
        <time>2022-04-18T13:25:06Z</time>
      </trkpt>
      <trkpt lat="49.00292" lon="2.02926">
        <ele>99</ele>
        <time>2022-04-18T13:25:12Z</time>
      </trkpt>
      <trkpt lat="49.00298" lon="2.02919">
        <ele>98.6</ele>
        <time>2022-04-18T13:25:17Z</time>
      </trkpt>
      <trkpt lat="49.00305" lon="2.02914">
        <ele>98.1</ele>
        <time>2022-04-18T13:25:22Z</time>
      </trkpt>
      <trkpt lat="49.00312" lon="2.02906">
        <ele>97.6</ele>
        <time>2022-04-18T13:25:27Z</time>
      </trkpt>
      <trkpt lat="49.00316" lon="2.02899">
        <ele>97.5</ele>
        <time>2022-04-18T13:25:32Z</time>
      </trkpt>
      <trkpt lat="49.00322" lon="2.02895">
        <ele>97.3</ele>
        <time>2022-04-18T13:25:38Z</time>
      </trkpt>
      <trkpt lat="49.0033" lon="2.02888">
        <ele>97.1</ele>
        <time>2022-04-18T13:25:44Z</time>
      </trkpt>
      <trkpt lat="49.00338" lon="2.02882">
        <ele>96.9</ele>
        <time>2022-04-18T13:25:50Z</time>
      </trkpt>
      <trkpt lat="49.00343" lon="2.02878">
        <ele>96.9</ele>
        <time>2022-04-18T13:25:55Z</time>
      </trkpt>
      <trkpt lat="49.00354" lon="2.02871">
        <ele>97.2</ele>
        <time>2022-04-18T13:26:01Z</time>
      </trkpt>
      <trkpt lat="49.00361" lon="2.02865">
        <ele>97.7</ele>
        <time>2022-04-18T13:26:07Z</time>
      </trkpt>
      <trkpt lat="49.00368" lon="2.02861">
        <ele>97.7</ele>
        <time>2022-04-18T13:26:13Z</time>
      </trkpt>
      <trkpt lat="49.00376" lon="2.02855">
        <ele>97.7</ele>
        <time>2022-04-18T13:26:19Z</time>
      </trkpt>
      <trkpt lat="49.00383" lon="2.02849">
        <ele>97.9</ele>
        <time>2022-04-18T13:26:24Z</time>
      </trkpt>
      <trkpt lat="49.00389" lon="2.02841">
        <ele>98.4</ele>
        <time>2022-04-18T13:26:30Z</time>
      </trkpt>
      <trkpt lat="49.00388" lon="2.02833">
        <ele>99</ele>
        <time>2022-04-18T13:26:35Z</time>
      </trkpt>
      <trkpt lat="49.00384" lon="2.02821">
        <ele>99.2</ele>
        <time>2022-04-18T13:26:41Z</time>
      </trkpt>
      <trkpt lat="49.00382" lon="2.02811">
        <ele>99.4</ele>
        <time>2022-04-18T13:26:46Z</time>
      </trkpt>
      <trkpt lat="49.00379" lon="2.02802">
        <ele>99.4</ele>
        <time>2022-04-18T13:26:51Z</time>
      </trkpt>
      <trkpt lat="49.00375" lon="2.02789">
        <ele>99.9</ele>
        <time>2022-04-18T13:26:57Z</time>
      </trkpt>
      <trkpt lat="49.00371" lon="2.02783">
        <ele>100.1</ele>
        <time>2022-04-18T13:27:03Z</time>
      </trkpt>
      <trkpt lat="49.00368" lon="2.02774">
        <ele>100.5</ele>
        <time>2022-04-18T13:27:08Z</time>
      </trkpt>
      <trkpt lat="49.00364" lon="2.02762">
        <ele>101.2</ele>
        <time>2022-04-18T13:27:14Z</time>
      </trkpt>
      <trkpt lat="49.00361" lon="2.02751">
        <ele>101.9</ele>
        <time>2022-04-18T13:27:20Z</time>
      </trkpt>
      <trkpt lat="49.00356" lon="2.02739">
        <ele>102.2</ele>
        <time>2022-04-18T13:27:26Z</time>
      </trkpt>
      <trkpt lat="49.00353" lon="2.02727">
        <ele>102.5</ele>
        <time>2022-04-18T13:27:32Z</time>
      </trkpt>
      <trkpt lat="49.00345" lon="2.02716">
        <ele>102.8</ele>
        <time>2022-04-18T13:27:38Z</time>
      </trkpt>
      <trkpt lat="49.00342" lon="2.02705">
        <ele>103.4</ele>
        <time>2022-04-18T13:27:43Z</time>
      </trkpt>
      <trkpt lat="49.00338" lon="2.02697">
        <ele>103.9</ele>
        <time>2022-04-18T13:27:48Z</time>
      </trkpt>
      <trkpt lat="49.00333" lon="2.02688">
        <ele>104.2</ele>
        <time>2022-04-18T13:27:53Z</time>
      </trkpt>
      <trkpt lat="49.00326" lon="2.02677">
        <ele>104.5</ele>
        <time>2022-04-18T13:27:59Z</time>
      </trkpt>
      <trkpt lat="49.00318" lon="2.02667">
        <ele>105</ele>
        <time>2022-04-18T13:28:05Z</time>
      </trkpt>
      <trkpt lat="49.00312" lon="2.02659">
        <ele>105.6</ele>
        <time>2022-04-18T13:28:11Z</time>
      </trkpt>
      <trkpt lat="49.00304" lon="2.02652">
        <ele>106.1</ele>
        <time>2022-04-18T13:28:16Z</time>
      </trkpt>
      <trkpt lat="49.00297" lon="2.02645">
        <ele>106.3</ele>
        <time>2022-04-18T13:28:21Z</time>
      </trkpt>
      <trkpt lat="49.00291" lon="2.02639">
        <ele>106.5</ele>
        <time>2022-04-18T13:28:27Z</time>
      </trkpt>
      <trkpt lat="49.00284" lon="2.02632">
        <ele>106.9</ele>
        <time>2022-04-18T13:28:33Z</time>
      </trkpt>
      <trkpt lat="49.00277" lon="2.02625">
        <ele>107.5</ele>
        <time>2022-04-18T13:28:38Z</time>
      </trkpt>
      <trkpt lat="49.00273" lon="2.02619">
        <ele>108.2</ele>
        <time>2022-04-18T13:28:43Z</time>
      </trkpt>
      <trkpt lat="49.00266" lon="2.02615">
        <ele>108.6</ele>
        <time>2022-04-18T13:28:48Z</time>
      </trkpt>
      <trkpt lat="49.00259" lon="2.0261">
        <ele>109.1</ele>
        <time>2022-04-18T13:28:54Z</time>
      </trkpt>
      <trkpt lat="49.00253" lon="2.02604">
        <ele>109.5</ele>
        <time>2022-04-18T13:28:59Z</time>
      </trkpt>
      <trkpt lat="49.00248" lon="2.026">
        <ele>109.8</ele>
        <time>2022-04-18T13:29:04Z</time>
      </trkpt>
      <trkpt lat="49.00242" lon="2.02594">
        <ele>110.2</ele>
        <time>2022-04-18T13:29:09Z</time>
      </trkpt>
      <trkpt lat="49.00236" lon="2.02588">
        <ele>110.7</ele>
        <time>2022-04-18T13:29:15Z</time>
      </trkpt>
      <trkpt lat="49.0023" lon="2.02583">
        <ele>111</ele>
        <time>2022-04-18T13:29:20Z</time>
      </trkpt>
      <trkpt lat="49.00223" lon="2.02579">
        <ele>111.2</ele>
        <time>2022-04-18T13:29:26Z</time>
      </trkpt>
      <trkpt lat="49.00216" lon="2.02574">
        <ele>111.4</ele>
        <time>2022-04-18T13:29:31Z</time>
      </trkpt>
      <trkpt lat="49.00211" lon="2.02568">
        <ele>111.8</ele>
        <time>2022-04-18T13:29:37Z</time>
      </trkpt>
      <trkpt lat="49.00204" lon="2.02561">
        <ele>112.3</ele>
        <time>2022-04-18T13:29:42Z</time>
      </trkpt>
      <trkpt lat="49.00196" lon="2.02553">
        <ele>113</ele>
        <time>2022-04-18T13:29:48Z</time>
      </trkpt>
      <trkpt lat="49.00189" lon="2.02548">
        <ele>113.3</ele>
        <time>2022-04-18T13:29:54Z</time>
      </trkpt>
      <trkpt lat="49.00184" lon="2.02543">
        <ele>113.4</ele>
        <time>2022-04-18T13:29:59Z</time>
      </trkpt>
      <trkpt lat="49.00176" lon="2.02536">
        <ele>113.7</ele>
        <time>2022-04-18T13:30:05Z</time>
      </trkpt>
      <trkpt lat="49.0017" lon="2.02527">
        <ele>114</ele>
        <time>2022-04-18T13:30:11Z</time>
      </trkpt>
      <trkpt lat="49.00168" lon="2.02517">
        <ele>114.4</ele>
        <time>2022-04-18T13:30:17Z</time>
      </trkpt>
      <trkpt lat="49.00165" lon="2.02507">
        <ele>114.7</ele>
        <time>2022-04-18T13:30:22Z</time>
      </trkpt>
      <trkpt lat="49.00163" lon="2.02498">
        <ele>115.1</ele>
        <time>2022-04-18T13:30:27Z</time>
      </trkpt>
      <trkpt lat="49.00161" lon="2.02487">
        <ele>115.6</ele>
        <time>2022-04-18T13:30:33Z</time>
      </trkpt>
      <trkpt lat="49.00158" lon="2.02478">
        <ele>116.1</ele>
        <time>2022-04-18T13:30:39Z</time>
      </trkpt>
      <trkpt lat="49.00156" lon="2.02468">
        <ele>116.6</ele>
        <time>2022-04-18T13:30:44Z</time>
      </trkpt>
      <trkpt lat="49.00153" lon="2.02459">
        <ele>117.2</ele>
        <time>2022-04-18T13:30:50Z</time>
      </trkpt>
      <trkpt lat="49.00152" lon="2.0245">
        <ele>117.7</ele>
        <time>2022-04-18T13:30:55Z</time>
      </trkpt>
      <trkpt lat="49.00152" lon="2.02444">
        <ele>118</ele>
        <time>2022-04-18T13:31:00Z</time>
      </trkpt>
      <trkpt lat="49.0015" lon="2.02436">
        <ele>118.5</ele>
        <time>2022-04-18T13:31:06Z</time>
      </trkpt>
      <trkpt lat="49.00148" lon="2.02428">
        <ele>119</ele>
        <time>2022-04-18T13:31:11Z</time>
      </trkpt>
      <trkpt lat="49.00149" lon="2.02418">
        <ele>119.5</ele>
        <time>2022-04-18T13:31:17Z</time>
      </trkpt>
      <trkpt lat="49.00151" lon="2.02412">
        <ele>119.9</ele>
        <time>2022-04-18T13:31:23Z</time>
      </trkpt>
      <trkpt lat="49.00151" lon="2.0241">
        <ele>120.1</ele>
        <time>2022-04-18T13:31:29Z</time>
      </trkpt>
      <trkpt lat="49.0015" lon="2.02407">
        <ele>120.3</ele>
        <time>2022-04-18T13:31:34Z</time>
      </trkpt>
      <trkpt lat="49.0015" lon="2.02407">
        <ele>120.3</ele>
        <time>2022-04-18T13:31:39Z</time>
      </trkpt>
      <trkpt lat="49.00149" lon="2.02408">
        <ele>120.2</ele>
        <time>2022-04-18T13:31:44Z</time>
      </trkpt>
      <trkpt lat="49.00149" lon="2.02409">
        <ele>120.2</ele>
        <time>2022-04-18T13:31:50Z</time>
      </trkpt>
      <trkpt lat="49.00148" lon="2.0241">
        <ele>120.2</ele>
        <time>2022-04-18T13:31:56Z</time>
      </trkpt>
      <trkpt lat="49.00148" lon="2.0241">
        <ele>120.2</ele>
        <time>2022-04-18T13:32:02Z</time>
      </trkpt>
      <trkpt lat="49.00147" lon="2.02411">
        <ele>120.1</ele>
        <time>2022-04-18T13:32:08Z</time>
      </trkpt>
      <trkpt lat="49.00148" lon="2.02413">
        <ele>120</ele>
        <time>2022-04-18T13:32:14Z</time>
      </trkpt>
      <trkpt lat="49.0015" lon="2.02416">
        <ele>119.6</ele>
        <time>2022-04-18T13:32:20Z</time>
      </trkpt>
      <trkpt lat="49.00151" lon="2.02419">
        <ele>119.4</ele>
        <time>2022-04-18T13:32:26Z</time>
      </trkpt>
      <trkpt lat="49.00153" lon="2.02425">
        <ele>119</ele>
        <time>2022-04-18T13:32:32Z</time>
      </trkpt>
      <trkpt lat="49.00154" lon="2.02427">
        <ele>118.9</ele>
        <time>2022-04-18T13:32:37Z</time>
      </trkpt>
      <trkpt lat="49.00154" lon="2.02427">
        <ele>118.9</ele>
        <time>2022-04-18T13:32:43Z</time>
      </trkpt>
      <trkpt lat="49.00155" lon="2.02426">
        <ele>118.9</ele>
        <time>2022-04-18T13:32:49Z</time>
      </trkpt>
      <trkpt lat="49.00155" lon="2.02425">
        <ele>119</ele>
        <time>2022-04-18T13:32:55Z</time>
      </trkpt>
      <trkpt lat="49.00155" lon="2.02423">
        <ele>119.1</ele>
        <time>2022-04-18T13:33:01Z</time>
      </trkpt>
      <trkpt lat="49.00155" lon="2.02421">
        <ele>119.2</ele>
        <time>2022-04-18T13:33:06Z</time>
      </trkpt>
      <trkpt lat="49.00154" lon="2.0242">
        <ele>119.3</ele>
        <time>2022-04-18T13:33:11Z</time>
      </trkpt>
      <trkpt lat="49.00152" lon="2.02421">
        <ele>119.3</ele>
        <time>2022-04-18T13:33:17Z</time>
      </trkpt>
      <trkpt lat="49.00151" lon="2.02421">
        <ele>119.3</ele>
        <time>2022-04-18T13:33:23Z</time>
      </trkpt>
      <trkpt lat="49.0015" lon="2.02419">
        <ele>119.4</ele>
        <time>2022-04-18T13:33:28Z</time>
      </trkpt>
      <trkpt lat="49.0015" lon="2.02418">
        <ele>119.5</ele>
        <time>2022-04-18T13:33:33Z</time>
      </trkpt>
      <trkpt lat="49.00149" lon="2.02416">
        <ele>119.7</ele>
        <time>2022-04-18T13:33:38Z</time>
      </trkpt>
      <trkpt lat="49.00148" lon="2.02413">
        <ele>120</ele>
        <time>2022-04-18T13:33:43Z</time>
      </trkpt>
      <trkpt lat="49.00147" lon="2.02406">
        <ele>120.4</ele>
        <time>2022-04-18T13:33:48Z</time>
      </trkpt>
      <trkpt lat="49.00147" lon="2.02399">
        <ele>121</ele>
        <time>2022-04-18T13:33:53Z</time>
      </trkpt>
      <trkpt lat="49.00147" lon="2.02392">
        <ele>121.5</ele>
        <time>2022-04-18T13:33:59Z</time>
      </trkpt>
      <trkpt lat="49.00147" lon="2.02385">
        <ele>121.9</ele>
        <time>2022-04-18T13:34:04Z</time>
      </trkpt>
      <trkpt lat="49.00148" lon="2.02372">
        <ele>122.5</ele>
        <time>2022-04-18T13:34:10Z</time>
      </trkpt>
      <trkpt lat="49.00149" lon="2.02364">
        <ele>122.9</ele>
        <time>2022-04-18T13:34:15Z</time>
      </trkpt>
      <trkpt lat="49.0015" lon="2.02354">
        <ele>123.5</ele>
        <time>2022-04-18T13:34:21Z</time>
      </trkpt>
      <trkpt lat="49.00152" lon="2.02347">
        <ele>124</ele>
        <time>2022-04-18T13:34:26Z</time>
      </trkpt>
      <trkpt lat="49.00153" lon="2.0234">
        <ele>124.5</ele>
        <time>2022-04-18T13:34:32Z</time>
      </trkpt>
      <trkpt lat="49.00154" lon="2.02333">
        <ele>125</ele>
        <time>2022-04-18T13:34:38Z</time>
      </trkpt>
      <trkpt lat="49.00159" lon="2.02326">
        <ele>125.5</ele>
        <time>2022-04-18T13:34:44Z</time>
      </trkpt>
      <trkpt lat="49.00163" lon="2.02321">
        <ele>125.9</ele>
        <time>2022-04-18T13:34:49Z</time>
      </trkpt>
      <trkpt lat="49.00172" lon="2.02313">
        <ele>126.3</ele>
        <time>2022-04-18T13:34:55Z</time>
      </trkpt>
      <trkpt lat="49.00179" lon="2.02306">
        <ele>126.5</ele>
        <time>2022-04-18T13:35:00Z</time>
      </trkpt>
      <trkpt lat="49.00188" lon="2.02298">
        <ele>127</ele>
        <time>2022-04-18T13:35:06Z</time>
      </trkpt>
      <trkpt lat="49.00193" lon="2.02291">
        <ele>127.6</ele>
        <time>2022-04-18T13:35:11Z</time>
      </trkpt>
      <trkpt lat="49.00199" lon="2.0228">
        <ele>128.4</ele>
        <time>2022-04-18T13:35:17Z</time>
      </trkpt>
      <trkpt lat="49.00204" lon="2.02272">
        <ele>128.7</ele>
        <time>2022-04-18T13:35:22Z</time>
      </trkpt>
      <trkpt lat="49.00208" lon="2.02263">
        <ele>129.1</ele>
        <time>2022-04-18T13:35:28Z</time>
      </trkpt>
      <trkpt lat="49.0021" lon="2.02257">
        <ele>129.4</ele>
        <time>2022-04-18T13:35:33Z</time>
      </trkpt>
      <trkpt lat="49.00212" lon="2.02247">
        <ele>129.9</ele>
        <time>2022-04-18T13:35:39Z</time>
      </trkpt>
      <trkpt lat="49.00215" lon="2.02238">
        <ele>130.4</ele>
        <time>2022-04-18T13:35:44Z</time>
      </trkpt>
      <trkpt lat="49.00222" lon="2.02216">
        <ele>131.2</ele>
        <time>2022-04-18T13:35:56Z</time>
      </trkpt>
      <trkpt lat="49.00276" lon="2.02215">
        <ele>126.2</ele>
        <time>2022-04-18T13:37:10Z</time>
      </trkpt>
      <trkpt lat="49.00286" lon="2.02203">
        <ele>125.4</ele>
        <time>2022-04-18T13:37:16Z</time>
      </trkpt>
      <trkpt lat="49.00297" lon="2.02191">
        <ele>124.7</ele>
        <time>2022-04-18T13:37:21Z</time>
      </trkpt>
      <trkpt lat="49.00311" lon="2.02176">
        <ele>124.1</ele>
        <time>2022-04-18T13:37:27Z</time>
      </trkpt>
      <trkpt lat="49.00315" lon="2.02165">
        <ele>124</ele>
        <time>2022-04-18T13:37:32Z</time>
      </trkpt>
      <trkpt lat="49.00315" lon="2.02159">
        <ele>124.1</ele>
        <time>2022-04-18T13:37:38Z</time>
      </trkpt>
      <trkpt lat="49.00315" lon="2.02156">
        <ele>124.2</ele>
        <time>2022-04-18T13:37:44Z</time>
      </trkpt>
      <trkpt lat="49.00318" lon="2.02151">
        <ele>123.9</ele>
        <time>2022-04-18T13:37:50Z</time>
      </trkpt>
      <trkpt lat="49.0032" lon="2.02147">
        <ele>123.8</ele>
        <time>2022-04-18T13:37:55Z</time>
      </trkpt>
      <trkpt lat="49.00322" lon="2.02145">
        <ele>123.7</ele>
        <time>2022-04-18T13:38:01Z</time>
      </trkpt>
      <trkpt lat="49.00328" lon="2.0214">
        <ele>123.4</ele>
        <time>2022-04-18T13:38:06Z</time>
      </trkpt>
      <trkpt lat="49.00337" lon="2.02129">
        <ele>122.7</ele>
        <time>2022-04-18T13:38:12Z</time>
      </trkpt>
      <trkpt lat="49.00345" lon="2.0212">
        <ele>122.2</ele>
        <time>2022-04-18T13:38:18Z</time>
      </trkpt>
      <trkpt lat="49.0035" lon="2.02113">
        <ele>121.8</ele>
        <time>2022-04-18T13:38:23Z</time>
      </trkpt>
      <trkpt lat="49.00358" lon="2.02106">
        <ele>121.4</ele>
        <time>2022-04-18T13:38:29Z</time>
      </trkpt>
      <trkpt lat="49.00367" lon="2.02101">
        <ele>121</ele>
        <time>2022-04-18T13:38:34Z</time>
      </trkpt>
      <trkpt lat="49.00379" lon="2.02096">
        <ele>120.3</ele>
        <time>2022-04-18T13:38:40Z</time>
      </trkpt>
      <trkpt lat="49.00393" lon="2.02088">
        <ele>119.4</ele>
        <time>2022-04-18T13:38:46Z</time>
      </trkpt>
      <trkpt lat="49.00404" lon="2.02079">
        <ele>118.4</ele>
        <time>2022-04-18T13:38:51Z</time>
      </trkpt>
      <trkpt lat="49.00415" lon="2.0207">
        <ele>117.6</ele>
        <time>2022-04-18T13:38:57Z</time>
      </trkpt>
      <trkpt lat="49.00426" lon="2.02063">
        <ele>117.1</ele>
        <time>2022-04-18T13:39:03Z</time>
      </trkpt>
      <trkpt lat="49.00439" lon="2.02054">
        <ele>116.4</ele>
        <time>2022-04-18T13:39:08Z</time>
      </trkpt>
      <trkpt lat="49.00453" lon="2.02046">
        <ele>115.2</ele>
        <time>2022-04-18T13:39:14Z</time>
      </trkpt>
      <trkpt lat="49.00463" lon="2.02038">
        <ele>114.4</ele>
        <time>2022-04-18T13:39:20Z</time>
      </trkpt>
      <trkpt lat="49.00468" lon="2.02028">
        <ele>114.3</ele>
        <time>2022-04-18T13:39:26Z</time>
      </trkpt>
      <trkpt lat="49.00465" lon="2.02017">
        <ele>114.6</ele>
        <time>2022-04-18T13:39:32Z</time>
      </trkpt>
      <trkpt lat="49.00465" lon="2.02008">
        <ele>114.7</ele>
        <time>2022-04-18T13:39:37Z</time>
      </trkpt>
      <trkpt lat="49.00468" lon="2.01998">
        <ele>114.5</ele>
        <time>2022-04-18T13:39:43Z</time>
      </trkpt>
      <trkpt lat="49.00472" lon="2.01993">
        <ele>114.3</ele>
        <time>2022-04-18T13:39:48Z</time>
      </trkpt>
      <trkpt lat="49.00477" lon="2.01987">
        <ele>114.1</ele>
        <time>2022-04-18T13:39:54Z</time>
      </trkpt>
      <trkpt lat="49.00482" lon="2.01982">
        <ele>113.7</ele>
        <time>2022-04-18T13:40:00Z</time>
      </trkpt>
      <trkpt lat="49.00483" lon="2.01975">
        <ele>113.8</ele>
        <time>2022-04-18T13:40:05Z</time>
      </trkpt>
      <trkpt lat="49.00484" lon="2.01965">
        <ele>113.7</ele>
        <time>2022-04-18T13:40:11Z</time>
      </trkpt>
      <trkpt lat="49.00487" lon="2.01957">
        <ele>113.4</ele>
        <time>2022-04-18T13:40:16Z</time>
      </trkpt>
      <trkpt lat="49.0049" lon="2.01951">
        <ele>113.1</ele>
        <time>2022-04-18T13:40:21Z</time>
      </trkpt>
      <trkpt lat="49.00494" lon="2.01943">
        <ele>112.6</ele>
        <time>2022-04-18T13:40:26Z</time>
      </trkpt>
      <trkpt lat="49.005" lon="2.01931">
        <ele>112</ele>
        <time>2022-04-18T13:40:32Z</time>
      </trkpt>
      <trkpt lat="49.00506" lon="2.01918">
        <ele>111.4</ele>
        <time>2022-04-18T13:40:38Z</time>
      </trkpt>
      <trkpt lat="49.0051" lon="2.01909">
        <ele>110.9</ele>
        <time>2022-04-18T13:40:44Z</time>
      </trkpt>
      <trkpt lat="49.00515" lon="2.01903">
        <ele>110.4</ele>
        <time>2022-04-18T13:40:49Z</time>
      </trkpt>
      <trkpt lat="49.00523" lon="2.01895">
        <ele>109.5</ele>
        <time>2022-04-18T13:40:55Z</time>
      </trkpt>
      <trkpt lat="49.00533" lon="2.01886">
        <ele>108.9</ele>
        <time>2022-04-18T13:41:01Z</time>
      </trkpt>
      <trkpt lat="49.00542" lon="2.01878">
        <ele>108.9</ele>
        <time>2022-04-18T13:41:06Z</time>
      </trkpt>
      <trkpt lat="49.00553" lon="2.01871">
        <ele>108.8</ele>
        <time>2022-04-18T13:41:16Z</time>
      </trkpt>
      <trkpt lat="49.00554" lon="2.01869">
        <ele>108.8</ele>
        <time>2022-04-18T13:41:21Z</time>
      </trkpt>
      <trkpt lat="49.0056" lon="2.01862">
        <ele>109</ele>
        <time>2022-04-18T13:41:26Z</time>
      </trkpt>
      <trkpt lat="49.00568" lon="2.01854">
        <ele>109.4</ele>
        <time>2022-04-18T13:41:31Z</time>
      </trkpt>
      <trkpt lat="49.00575" lon="2.01844">
        <ele>110</ele>
        <time>2022-04-18T13:41:37Z</time>
      </trkpt>
      <trkpt lat="49.0058" lon="2.01835">
        <ele>110.8</ele>
        <time>2022-04-18T13:41:42Z</time>
      </trkpt>
      <trkpt lat="49.00585" lon="2.01826">
        <ele>111.6</ele>
        <time>2022-04-18T13:41:48Z</time>
      </trkpt>
      <trkpt lat="49.00588" lon="2.0182">
        <ele>112</ele>
        <time>2022-04-18T13:41:53Z</time>
      </trkpt>
      <trkpt lat="49.00592" lon="2.01814">
        <ele>112.5</ele>
        <time>2022-04-18T13:41:59Z</time>
      </trkpt>
      <trkpt lat="49.00598" lon="2.01807">
        <ele>112.9</ele>
        <time>2022-04-18T13:42:05Z</time>
      </trkpt>
      <trkpt lat="49.00603" lon="2.018">
        <ele>113.2</ele>
        <time>2022-04-18T13:42:11Z</time>
      </trkpt>
      <trkpt lat="49.0061" lon="2.01791">
        <ele>113.5</ele>
        <time>2022-04-18T13:42:17Z</time>
      </trkpt>
      <trkpt lat="49.00619" lon="2.0178">
        <ele>113.9</ele>
        <time>2022-04-18T13:42:23Z</time>
      </trkpt>
      <trkpt lat="49.00625" lon="2.01774">
        <ele>114.2</ele>
        <time>2022-04-18T13:42:28Z</time>
      </trkpt>
      <trkpt lat="49.00633" lon="2.01768">
        <ele>114.4</ele>
        <time>2022-04-18T13:42:34Z</time>
      </trkpt>
      <trkpt lat="49.0064" lon="2.01763">
        <ele>114.5</ele>
        <time>2022-04-18T13:42:40Z</time>
      </trkpt>
      <trkpt lat="49.00643" lon="2.01756">
        <ele>114.5</ele>
        <time>2022-04-18T13:42:45Z</time>
      </trkpt>
      <trkpt lat="49.00645" lon="2.01744">
        <ele>114.8</ele>
        <time>2022-04-18T13:42:51Z</time>
      </trkpt>
      <trkpt lat="49.00645" lon="2.01731">
        <ele>115.2</ele>
        <time>2022-04-18T13:42:57Z</time>
      </trkpt>
      <trkpt lat="49.00645" lon="2.01719">
        <ele>115.7</ele>
        <time>2022-04-18T13:43:02Z</time>
      </trkpt>
      <trkpt lat="49.00644" lon="2.01704">
        <ele>116.3</ele>
        <time>2022-04-18T13:43:08Z</time>
      </trkpt>
      <trkpt lat="49.00646" lon="2.0169">
        <ele>116.7</ele>
        <time>2022-04-18T13:43:14Z</time>
      </trkpt>
      <trkpt lat="49.00647" lon="2.01679">
        <ele>117</ele>
        <time>2022-04-18T13:43:19Z</time>
      </trkpt>
      <trkpt lat="49.00648" lon="2.01666">
        <ele>117.4</ele>
        <time>2022-04-18T13:43:25Z</time>
      </trkpt>
      <trkpt lat="49.00647" lon="2.01653">
        <ele>117.9</ele>
        <time>2022-04-18T13:43:31Z</time>
      </trkpt>
      <trkpt lat="49.00644" lon="2.01645">
        <ele>118.4</ele>
        <time>2022-04-18T13:43:36Z</time>
      </trkpt>
      <trkpt lat="49.0064" lon="2.01637">
        <ele>119.1</ele>
        <time>2022-04-18T13:43:41Z</time>
      </trkpt>
      <trkpt lat="49.00635" lon="2.01625">
        <ele>120.2</ele>
        <time>2022-04-18T13:43:47Z</time>
      </trkpt>
      <trkpt lat="49.00632" lon="2.01614">
        <ele>121.1</ele>
        <time>2022-04-18T13:43:52Z</time>
      </trkpt>
      <trkpt lat="49.00632" lon="2.01606">
        <ele>121.6</ele>
        <time>2022-04-18T13:43:58Z</time>
      </trkpt>
      <trkpt lat="49.00632" lon="2.01603">
        <ele>121.7</ele>
        <time>2022-04-18T13:44:04Z</time>
      </trkpt>
      <trkpt lat="49.00632" lon="2.01602">
        <ele>121.8</ele>
        <time>2022-04-18T13:44:10Z</time>
      </trkpt>
      <trkpt lat="49.00634" lon="2.01599">
        <ele>122</ele>
        <time>2022-04-18T13:44:15Z</time>
      </trkpt>
      <trkpt lat="49.00638" lon="2.01595">
        <ele>122.2</ele>
        <time>2022-04-18T13:44:21Z</time>
      </trkpt>
      <trkpt lat="49.00641" lon="2.01595">
        <ele>122.1</ele>
        <time>2022-04-18T13:44:26Z</time>
      </trkpt>
      <trkpt lat="49.00646" lon="2.01592">
        <ele>121.9</ele>
        <time>2022-04-18T13:44:32Z</time>
      </trkpt>
      <trkpt lat="49.00652" lon="2.01588">
        <ele>122</ele>
        <time>2022-04-18T13:44:38Z</time>
      </trkpt>
      <trkpt lat="49.00655" lon="2.01586">
        <ele>122.1</ele>
        <time>2022-04-18T13:44:43Z</time>
      </trkpt>
      <trkpt lat="49.00658" lon="2.01585">
        <ele>122.2</ele>
        <time>2022-04-18T13:44:49Z</time>
      </trkpt>
      <trkpt lat="49.00659" lon="2.01583">
        <ele>122.3</ele>
        <time>2022-04-18T13:44:54Z</time>
      </trkpt>
      <trkpt lat="49.00663" lon="2.01579">
        <ele>122.3</ele>
        <time>2022-04-18T13:45:00Z</time>
      </trkpt>
      <trkpt lat="49.00671" lon="2.01571">
        <ele>122.2</ele>
        <time>2022-04-18T13:45:06Z</time>
      </trkpt>
      <trkpt lat="49.00679" lon="2.01564">
        <ele>122.1</ele>
        <time>2022-04-18T13:45:12Z</time>
      </trkpt>
      <trkpt lat="49.00687" lon="2.01561">
        <ele>122</ele>
        <time>2022-04-18T13:45:18Z</time>
      </trkpt>
      <trkpt lat="49.00697" lon="2.01557">
        <ele>121.8</ele>
        <time>2022-04-18T13:45:24Z</time>
      </trkpt>
      <trkpt lat="49.00713" lon="2.01553">
        <ele>121.4</ele>
        <time>2022-04-18T13:45:30Z</time>
      </trkpt>
      <trkpt lat="49.00726" lon="2.01549">
        <ele>121</ele>
        <time>2022-04-18T13:45:36Z</time>
      </trkpt>
      <trkpt lat="49.00737" lon="2.01549">
        <ele>120.3</ele>
        <time>2022-04-18T13:45:42Z</time>
      </trkpt>
      <trkpt lat="49.00742" lon="2.01556">
        <ele>119.6</ele>
        <time>2022-04-18T13:45:48Z</time>
      </trkpt>
      <trkpt lat="49.00745" lon="2.01563">
        <ele>119</ele>
        <time>2022-04-18T13:45:54Z</time>
      </trkpt>
      <trkpt lat="49.00749" lon="2.01565">
        <ele>118.7</ele>
        <time>2022-04-18T13:45:59Z</time>
      </trkpt>
      <trkpt lat="49.00754" lon="2.01565">
        <ele>118.5</ele>
        <time>2022-04-18T13:46:04Z</time>
      </trkpt>
      <trkpt lat="49.00762" lon="2.01561">
        <ele>118.4</ele>
        <time>2022-04-18T13:46:10Z</time>
      </trkpt>
      <trkpt lat="49.00767" lon="2.01557">
        <ele>118.3</ele>
        <time>2022-04-18T13:46:15Z</time>
      </trkpt>
      <trkpt lat="49.00774" lon="2.01552">
        <ele>118.4</ele>
        <time>2022-04-18T13:46:21Z</time>
      </trkpt>
      <trkpt lat="49.00778" lon="2.01548">
        <ele>118.6</ele>
        <time>2022-04-18T13:46:26Z</time>
      </trkpt>
      <trkpt lat="49.00783" lon="2.01543">
        <ele>118.7</ele>
        <time>2022-04-18T13:46:32Z</time>
      </trkpt>
      <trkpt lat="49.00786" lon="2.01538">
        <ele>118.8</ele>
        <time>2022-04-18T13:46:37Z</time>
      </trkpt>
      <trkpt lat="49.00787" lon="2.01534">
        <ele>118.9</ele>
        <time>2022-04-18T13:46:43Z</time>
      </trkpt>
      <trkpt lat="49.00786" lon="2.01534">
        <ele>119.1</ele>
        <time>2022-04-18T13:46:48Z</time>
      </trkpt>
      <trkpt lat="49.00783" lon="2.01534">
        <ele>119.2</ele>
        <time>2022-04-18T13:46:53Z</time>
      </trkpt>
      <trkpt lat="49.00783" lon="2.01537">
        <ele>119</ele>
        <time>2022-04-18T13:46:59Z</time>
      </trkpt>
      <trkpt lat="49.00784" lon="2.01538">
        <ele>118.9</ele>
        <time>2022-04-18T13:47:04Z</time>
      </trkpt>
      <trkpt lat="49.00784" lon="2.01539">
        <ele>118.8</ele>
        <time>2022-04-18T13:47:10Z</time>
      </trkpt>
      <trkpt lat="49.00785" lon="2.0154">
        <ele>118.7</ele>
        <time>2022-04-18T13:47:16Z</time>
      </trkpt>
      <trkpt lat="49.00786" lon="2.01541">
        <ele>118.6</ele>
        <time>2022-04-18T13:47:22Z</time>
      </trkpt>
      <trkpt lat="49.00786" lon="2.01541">
        <ele>118.6</ele>
        <time>2022-04-18T13:47:28Z</time>
      </trkpt>
      <trkpt lat="49.00787" lon="2.01542">
        <ele>118.5</ele>
        <time>2022-04-18T13:47:34Z</time>
      </trkpt>
      <trkpt lat="49.00787" lon="2.01542">
        <ele>118.5</ele>
        <time>2022-04-18T13:47:40Z</time>
      </trkpt>
      <trkpt lat="49.00788" lon="2.01542">
        <ele>118.4</ele>
        <time>2022-04-18T13:47:45Z</time>
      </trkpt>
      <trkpt lat="49.00789" lon="2.01542">
        <ele>118.3</ele>
        <time>2022-04-18T13:47:51Z</time>
      </trkpt>
      <trkpt lat="49.00791" lon="2.01543">
        <ele>118.2</ele>
        <time>2022-04-18T13:47:57Z</time>
      </trkpt>
      <trkpt lat="49.00793" lon="2.01543">
        <ele>118.1</ele>
        <time>2022-04-18T13:48:03Z</time>
      </trkpt>
      <trkpt lat="49.00793" lon="2.01543">
        <ele>118.1</ele>
        <time>2022-04-18T13:48:08Z</time>
      </trkpt>
      <trkpt lat="49.00793" lon="2.01543">
        <ele>118.1</ele>
        <time>2022-04-18T13:48:14Z</time>
      </trkpt>
      <trkpt lat="49.00794" lon="2.01543">
        <ele>118.1</ele>
        <time>2022-04-18T13:48:20Z</time>
      </trkpt>
      <trkpt lat="49.00794" lon="2.01544">
        <ele>118</ele>
        <time>2022-04-18T13:48:26Z</time>
      </trkpt>
      <trkpt lat="49.00794" lon="2.01544">
        <ele>118</ele>
        <time>2022-04-18T13:48:32Z</time>
      </trkpt>
      <trkpt lat="49.00795" lon="2.01544">
        <ele>118</ele>
        <time>2022-04-18T13:48:38Z</time>
      </trkpt>
      <trkpt lat="49.00795" lon="2.01544">
        <ele>118</ele>
        <time>2022-04-18T13:48:44Z</time>
      </trkpt>
      <trkpt lat="49.00795" lon="2.01544">
        <ele>118</ele>
        <time>2022-04-18T13:48:50Z</time>
      </trkpt>
      <trkpt lat="49.00795" lon="2.01544">
        <ele>117.9</ele>
        <time>2022-04-18T13:48:56Z</time>
      </trkpt>
      <trkpt lat="49.00795" lon="2.01544">
        <ele>117.9</ele>
        <time>2022-04-18T13:49:01Z</time>
      </trkpt>
      <trkpt lat="49.00795" lon="2.01544">
        <ele>117.9</ele>
        <time>2022-04-18T13:49:06Z</time>
      </trkpt>
      <trkpt lat="49.00796" lon="2.01544">
        <ele>117.9</ele>
        <time>2022-04-18T13:49:12Z</time>
      </trkpt>
      <trkpt lat="49.00796" lon="2.01544">
        <ele>117.9</ele>
        <time>2022-04-18T13:49:17Z</time>
      </trkpt>
      <trkpt lat="49.00796" lon="2.01544">
        <ele>117.9</ele>
        <time>2022-04-18T13:49:23Z</time>
      </trkpt>
      <trkpt lat="49.00798" lon="2.01545">
        <ele>117.8</ele>
        <time>2022-04-18T13:49:28Z</time>
      </trkpt>
      <trkpt lat="49.00799" lon="2.01545">
        <ele>117.7</ele>
        <time>2022-04-18T13:49:33Z</time>
      </trkpt>
      <trkpt lat="49.008" lon="2.01545">
        <ele>117.7</ele>
        <time>2022-04-18T13:49:39Z</time>
      </trkpt>
      <trkpt lat="49.008" lon="2.01545">
        <ele>117.6</ele>
        <time>2022-04-18T13:49:45Z</time>
      </trkpt>
      <trkpt lat="49.00801" lon="2.01545">
        <ele>117.6</ele>
        <time>2022-04-18T13:49:51Z</time>
      </trkpt>
      <trkpt lat="49.00801" lon="2.01546">
        <ele>117.6</ele>
        <time>2022-04-18T13:49:56Z</time>
      </trkpt>
      <trkpt lat="49.00801" lon="2.01546">
        <ele>117.6</ele>
        <time>2022-04-18T13:50:02Z</time>
      </trkpt>
      <trkpt lat="49.00801" lon="2.01548">
        <ele>117.4</ele>
        <time>2022-04-18T13:50:08Z</time>
      </trkpt>
      <trkpt lat="49.00802" lon="2.01549">
        <ele>117.4</ele>
        <time>2022-04-18T13:50:14Z</time>
      </trkpt>
      <trkpt lat="49.00802" lon="2.01549">
        <ele>117.4</ele>
        <time>2022-04-18T13:50:20Z</time>
      </trkpt>
      <trkpt lat="49.00802" lon="2.01549">
        <ele>117.4</ele>
        <time>2022-04-18T13:50:26Z</time>
      </trkpt>
      <trkpt lat="49.00802" lon="2.01549">
        <ele>117.4</ele>
        <time>2022-04-18T13:50:32Z</time>
      </trkpt>
      <trkpt lat="49.00802" lon="2.01549">
        <ele>117.4</ele>
        <time>2022-04-18T13:50:38Z</time>
      </trkpt>
      <trkpt lat="49.00802" lon="2.01549">
        <ele>117.4</ele>
        <time>2022-04-18T13:50:43Z</time>
      </trkpt>
      <trkpt lat="49.00802" lon="2.01549">
        <ele>117.4</ele>
        <time>2022-04-18T13:50:49Z</time>
      </trkpt>
      <trkpt lat="49.00803" lon="2.01549">
        <ele>117.4</ele>
        <time>2022-04-18T13:50:55Z</time>
      </trkpt>
      <trkpt lat="49.00803" lon="2.01549">
        <ele>117.4</ele>
        <time>2022-04-18T13:51:01Z</time>
      </trkpt>
      <trkpt lat="49.00803" lon="2.01549">
        <ele>117.4</ele>
        <time>2022-04-18T13:51:06Z</time>
      </trkpt>
      <trkpt lat="49.00803" lon="2.01549">
        <ele>117.4</ele>
        <time>2022-04-18T13:51:12Z</time>
      </trkpt>
      <trkpt lat="49.00803" lon="2.01549">
        <ele>117.4</ele>
        <time>2022-04-18T13:51:17Z</time>
      </trkpt>
      <trkpt lat="49.00803" lon="2.01549">
        <ele>117.3</ele>
        <time>2022-04-18T13:51:23Z</time>
      </trkpt>
      <trkpt lat="49.00803" lon="2.0155">
        <ele>117.3</ele>
        <time>2022-04-18T13:51:28Z</time>
      </trkpt>
      <trkpt lat="49.00803" lon="2.0155">
        <ele>117.3</ele>
        <time>2022-04-18T13:51:33Z</time>
      </trkpt>
      <trkpt lat="49.00803" lon="2.01549">
        <ele>117.3</ele>
        <time>2022-04-18T13:51:39Z</time>
      </trkpt>
      <trkpt lat="49.00803" lon="2.01549">
        <ele>117.3</ele>
        <time>2022-04-18T13:51:45Z</time>
      </trkpt>
      <trkpt lat="49.00803" lon="2.01549">
        <ele>117.3</ele>
        <time>2022-04-18T13:51:50Z</time>
      </trkpt>
      <trkpt lat="49.00803" lon="2.01548">
        <ele>117.4</ele>
        <time>2022-04-18T13:51:55Z</time>
      </trkpt>
      <trkpt lat="49.00803" lon="2.01549">
        <ele>117.3</ele>
        <time>2022-04-18T13:52:01Z</time>
      </trkpt>
      <trkpt lat="49.00804" lon="2.01549">
        <ele>117.3</ele>
        <time>2022-04-18T13:52:07Z</time>
      </trkpt>
      <trkpt lat="49.00803" lon="2.0155">
        <ele>117.3</ele>
        <time>2022-04-18T13:52:12Z</time>
      </trkpt>
      <trkpt lat="49.00803" lon="2.0155">
        <ele>117.3</ele>
        <time>2022-04-18T13:52:17Z</time>
      </trkpt>
      <trkpt lat="49.00803" lon="2.0155">
        <ele>117.3</ele>
        <time>2022-04-18T13:52:23Z</time>
      </trkpt>
      <trkpt lat="49.00804" lon="2.0155">
        <ele>117.3</ele>
        <time>2022-04-18T13:52:29Z</time>
      </trkpt>
      <trkpt lat="49.00804" lon="2.0155">
        <ele>117.3</ele>
        <time>2022-04-18T13:52:34Z</time>
      </trkpt>
      <trkpt lat="49.00804" lon="2.01549">
        <ele>117.3</ele>
        <time>2022-04-18T13:52:40Z</time>
      </trkpt>
      <trkpt lat="49.00804" lon="2.01549">
        <ele>117.3</ele>
        <time>2022-04-18T13:52:46Z</time>
      </trkpt>
      <trkpt lat="49.00804" lon="2.01549">
        <ele>117.3</ele>
        <time>2022-04-18T13:52:51Z</time>
      </trkpt>
      <trkpt lat="49.00805" lon="2.01549">
        <ele>117.3</ele>
        <time>2022-04-18T13:52:57Z</time>
      </trkpt>
      <trkpt lat="49.00806" lon="2.01548">
        <ele>117.3</ele>
        <time>2022-04-18T13:53:03Z</time>
      </trkpt>
      <trkpt lat="49.00806" lon="2.01547">
        <ele>117.3</ele>
        <time>2022-04-18T13:53:09Z</time>
      </trkpt>
      <trkpt lat="49.00806" lon="2.01547">
        <ele>117.3</ele>
        <time>2022-04-18T13:53:14Z</time>
      </trkpt>
      <trkpt lat="49.00806" lon="2.01546">
        <ele>117.3</ele>
        <time>2022-04-18T13:53:20Z</time>
      </trkpt>
      <trkpt lat="49.00806" lon="2.01546">
        <ele>117.3</ele>
        <time>2022-04-18T13:53:26Z</time>
      </trkpt>
      <trkpt lat="49.00806" lon="2.01546">
        <ele>117.3</ele>
        <time>2022-04-18T13:53:32Z</time>
      </trkpt>
      <trkpt lat="49.00805" lon="2.01546">
        <ele>117.4</ele>
        <time>2022-04-18T13:53:38Z</time>
      </trkpt>
      <trkpt lat="49.00805" lon="2.01546">
        <ele>117.4</ele>
        <time>2022-04-18T13:53:44Z</time>
      </trkpt>
      <trkpt lat="49.00805" lon="2.01546">
        <ele>117.4</ele>
        <time>2022-04-18T13:53:50Z</time>
      </trkpt>
      <trkpt lat="49.00805" lon="2.01546">
        <ele>117.4</ele>
        <time>2022-04-18T13:53:56Z</time>
      </trkpt>
      <trkpt lat="49.00805" lon="2.01545">
        <ele>117.4</ele>
        <time>2022-04-18T13:54:01Z</time>
      </trkpt>
      <trkpt lat="49.00805" lon="2.01545">
        <ele>117.4</ele>
        <time>2022-04-18T13:54:07Z</time>
      </trkpt>
      <trkpt lat="49.00806" lon="2.01545">
        <ele>117.4</ele>
        <time>2022-04-18T13:54:12Z</time>
      </trkpt>
      <trkpt lat="49.00806" lon="2.01545">
        <ele>117.4</ele>
        <time>2022-04-18T13:54:18Z</time>
      </trkpt>
      <trkpt lat="49.00806" lon="2.01546">
        <ele>117.3</ele>
        <time>2022-04-18T13:54:24Z</time>
      </trkpt>
      <trkpt lat="49.00807" lon="2.01546">
        <ele>117.3</ele>
        <time>2022-04-18T13:54:30Z</time>
      </trkpt>
      <trkpt lat="49.00807" lon="2.01547">
        <ele>117.3</ele>
        <time>2022-04-18T13:54:36Z</time>
      </trkpt>
      <trkpt lat="49.00807" lon="2.01547">
        <ele>117.3</ele>
        <time>2022-04-18T13:54:41Z</time>
      </trkpt>
      <trkpt lat="49.00806" lon="2.01547">
        <ele>117.3</ele>
        <time>2022-04-18T13:54:47Z</time>
      </trkpt>
      <trkpt lat="49.00806" lon="2.01548">
        <ele>117.3</ele>
        <time>2022-04-18T13:54:52Z</time>
      </trkpt>
      <trkpt lat="49.00806" lon="2.01548">
        <ele>117.3</ele>
        <time>2022-04-18T13:54:58Z</time>
      </trkpt>
      <trkpt lat="49.00806" lon="2.01548">
        <ele>117.3</ele>
        <time>2022-04-18T13:55:03Z</time>
      </trkpt>
      <trkpt lat="49.00805" lon="2.01548">
        <ele>117.3</ele>
        <time>2022-04-18T13:55:09Z</time>
      </trkpt>
      <trkpt lat="49.00805" lon="2.01548">
        <ele>117.3</ele>
        <time>2022-04-18T13:55:15Z</time>
      </trkpt>
      <trkpt lat="49.00804" lon="2.01548">
        <ele>117.3</ele>
        <time>2022-04-18T13:55:21Z</time>
      </trkpt>
      <trkpt lat="49.00804" lon="2.01548">
        <ele>117.3</ele>
        <time>2022-04-18T13:55:26Z</time>
      </trkpt>
      <trkpt lat="49.00804" lon="2.01548">
        <ele>117.3</ele>
        <time>2022-04-18T13:55:32Z</time>
      </trkpt>
      <trkpt lat="49.00805" lon="2.01549">
        <ele>117.3</ele>
        <time>2022-04-18T13:55:37Z</time>
      </trkpt>
      <trkpt lat="49.00805" lon="2.01549">
        <ele>117.3</ele>
        <time>2022-04-18T13:55:43Z</time>
      </trkpt>
      <trkpt lat="49.00805" lon="2.01549">
        <ele>117.2</ele>
        <time>2022-04-18T13:55:48Z</time>
      </trkpt>
      <trkpt lat="49.00805" lon="2.01552">
        <ele>117.1</ele>
        <time>2022-04-18T13:55:54Z</time>
      </trkpt>
      <trkpt lat="49.00805" lon="2.01553">
        <ele>117.1</ele>
        <time>2022-04-18T13:55:59Z</time>
      </trkpt>
      <trkpt lat="49.00805" lon="2.01553">
        <ele>117.1</ele>
        <time>2022-04-18T13:56:05Z</time>
      </trkpt>
      <trkpt lat="49.00805" lon="2.01553">
        <ele>117.1</ele>
        <time>2022-04-18T13:56:10Z</time>
      </trkpt>
      <trkpt lat="49.00805" lon="2.01553">
        <ele>117.1</ele>
        <time>2022-04-18T13:56:16Z</time>
      </trkpt>
      <trkpt lat="49.00805" lon="2.01552">
        <ele>117.1</ele>
        <time>2022-04-18T13:56:21Z</time>
      </trkpt>
      <trkpt lat="49.00806" lon="2.01552">
        <ele>117.1</ele>
        <time>2022-04-18T13:56:26Z</time>
      </trkpt>
      <trkpt lat="49.00806" lon="2.01551">
        <ele>117.2</ele>
        <time>2022-04-18T13:56:32Z</time>
      </trkpt>
      <trkpt lat="49.00806" lon="2.0155">
        <ele>117.2</ele>
        <time>2022-04-18T13:56:37Z</time>
      </trkpt>
      <trkpt lat="49.00807" lon="2.01549">
        <ele>117.2</ele>
        <time>2022-04-18T13:56:42Z</time>
      </trkpt>
      <trkpt lat="49.00807" lon="2.01548">
        <ele>117.2</ele>
        <time>2022-04-18T13:56:48Z</time>
      </trkpt>
      <trkpt lat="49.00807" lon="2.01548">
        <ele>117.2</ele>
        <time>2022-04-18T13:56:54Z</time>
      </trkpt>
      <trkpt lat="49.00806" lon="2.01547">
        <ele>117.3</ele>
        <time>2022-04-18T13:57:00Z</time>
      </trkpt>
      <trkpt lat="49.00805" lon="2.01546">
        <ele>117.4</ele>
        <time>2022-04-18T13:57:06Z</time>
      </trkpt>
      <trkpt lat="49.00804" lon="2.01546">
        <ele>117.4</ele>
        <time>2022-04-18T13:57:11Z</time>
      </trkpt>
      <trkpt lat="49.00804" lon="2.01545">
        <ele>117.4</ele>
        <time>2022-04-18T13:57:17Z</time>
      </trkpt>
      <trkpt lat="49.00804" lon="2.01545">
        <ele>117.5</ele>
        <time>2022-04-18T13:57:23Z</time>
      </trkpt>
      <trkpt lat="49.00803" lon="2.01545">
        <ele>117.5</ele>
        <time>2022-04-18T13:57:28Z</time>
      </trkpt>
      <trkpt lat="49.00803" lon="2.01545">
        <ele>117.5</ele>
        <time>2022-04-18T13:57:34Z</time>
      </trkpt>
      <trkpt lat="49.00803" lon="2.01545">
        <ele>117.5</ele>
        <time>2022-04-18T13:57:40Z</time>
      </trkpt>
      <trkpt lat="49.00803" lon="2.01544">
        <ele>117.5</ele>
        <time>2022-04-18T13:57:45Z</time>
      </trkpt>
      <trkpt lat="49.00802" lon="2.01544">
        <ele>117.6</ele>
        <time>2022-04-18T13:57:51Z</time>
      </trkpt>
      <trkpt lat="49.00802" lon="2.01544">
        <ele>117.6</ele>
        <time>2022-04-18T13:57:56Z</time>
      </trkpt>
      <trkpt lat="49.00802" lon="2.01544">
        <ele>117.6</ele>
        <time>2022-04-18T13:58:02Z</time>
      </trkpt>
      <trkpt lat="49.00801" lon="2.01543">
        <ele>117.7</ele>
        <time>2022-04-18T13:58:08Z</time>
      </trkpt>
      <trkpt lat="49.00801" lon="2.01543">
        <ele>117.7</ele>
        <time>2022-04-18T13:58:14Z</time>
      </trkpt>
      <trkpt lat="49.00801" lon="2.01543">
        <ele>117.7</ele>
        <time>2022-04-18T13:58:20Z</time>
      </trkpt>
      <trkpt lat="49.00801" lon="2.01544">
        <ele>117.6</ele>
        <time>2022-04-18T13:58:26Z</time>
      </trkpt>
      <trkpt lat="49.00801" lon="2.01544">
        <ele>117.6</ele>
        <time>2022-04-18T13:58:32Z</time>
      </trkpt>
      <trkpt lat="49.00802" lon="2.01543">
        <ele>117.6</ele>
        <time>2022-04-18T13:58:38Z</time>
      </trkpt>
      <trkpt lat="49.00802" lon="2.01544">
        <ele>117.6</ele>
        <time>2022-04-18T13:58:44Z</time>
      </trkpt>
      <trkpt lat="49.00802" lon="2.01544">
        <ele>117.6</ele>
        <time>2022-04-18T13:58:50Z</time>
      </trkpt>
      <trkpt lat="49.00802" lon="2.01544">
        <ele>117.6</ele>
        <time>2022-04-18T13:58:56Z</time>
      </trkpt>
      <trkpt lat="49.00802" lon="2.01544">
        <ele>117.6</ele>
        <time>2022-04-18T13:59:02Z</time>
      </trkpt>
      <trkpt lat="49.00802" lon="2.01545">
        <ele>117.6</ele>
        <time>2022-04-18T13:59:08Z</time>
      </trkpt>
      <trkpt lat="49.00803" lon="2.01545">
        <ele>117.5</ele>
        <time>2022-04-18T13:59:14Z</time>
      </trkpt>
      <trkpt lat="49.00803" lon="2.01545">
        <ele>117.5</ele>
        <time>2022-04-18T13:59:20Z</time>
      </trkpt>
      <trkpt lat="49.00804" lon="2.01545">
        <ele>117.5</ele>
        <time>2022-04-18T13:59:26Z</time>
      </trkpt>
      <trkpt lat="49.00804" lon="2.01545">
        <ele>117.4</ele>
        <time>2022-04-18T13:59:32Z</time>
      </trkpt>
      <trkpt lat="49.00804" lon="2.01545">
        <ele>117.4</ele>
        <time>2022-04-18T13:59:38Z</time>
      </trkpt>
      <trkpt lat="49.00805" lon="2.01546">
        <ele>117.4</ele>
        <time>2022-04-18T13:59:44Z</time>
      </trkpt>
      <trkpt lat="49.00805" lon="2.01546">
        <ele>117.4</ele>
        <time>2022-04-18T13:59:50Z</time>
      </trkpt>
      <trkpt lat="49.00805" lon="2.01547">
        <ele>117.4</ele>
        <time>2022-04-18T13:59:56Z</time>
      </trkpt>
      <trkpt lat="49.00805" lon="2.01547">
        <ele>117.3</ele>
        <time>2022-04-18T14:00:02Z</time>
      </trkpt>
      <trkpt lat="49.00805" lon="2.01548">
        <ele>117.3</ele>
        <time>2022-04-18T14:00:08Z</time>
      </trkpt>
      <trkpt lat="49.00803" lon="2.01548">
        <ele>117.4</ele>
        <time>2022-04-18T14:00:13Z</time>
      </trkpt>
      <trkpt lat="49.00803" lon="2.01544">
        <ele>117.6</ele>
        <time>2022-04-18T14:00:20Z</time>
      </trkpt>
      <trkpt lat="49.00797" lon="2.01538">
        <ele>118.2</ele>
        <time>2022-04-18T14:00:25Z</time>
      </trkpt>
      <trkpt lat="49.00797" lon="2.01538">
        <ele>118.2</ele>
        <time>2022-04-18T14:00:31Z</time>
      </trkpt>
      <trkpt lat="49.00799" lon="2.01542">
        <ele>117.9</ele>
        <time>2022-04-18T14:00:36Z</time>
      </trkpt>
      <trkpt lat="49.00803" lon="2.01543">
        <ele>117.6</ele>
        <time>2022-04-18T14:00:42Z</time>
      </trkpt>
      <trkpt lat="49.00805" lon="2.01539">
        <ele>117.6</ele>
        <time>2022-04-18T14:00:48Z</time>
      </trkpt>
      <trkpt lat="49.00808" lon="2.01537">
        <ele>117.6</ele>
        <time>2022-04-18T14:00:54Z</time>
      </trkpt>
      <trkpt lat="49.00809" lon="2.01537">
        <ele>117.6</ele>
        <time>2022-04-18T14:00:59Z</time>
      </trkpt>
      <trkpt lat="49.00813" lon="2.01546">
        <ele>117.2</ele>
        <time>2022-04-18T14:01:05Z</time>
      </trkpt>
      <trkpt lat="49.00817" lon="2.01551">
        <ele>116.8</ele>
        <time>2022-04-18T14:01:10Z</time>
      </trkpt>
      <trkpt lat="49.00822" lon="2.01558">
        <ele>116.4</ele>
        <time>2022-04-18T14:01:16Z</time>
      </trkpt>
      <trkpt lat="49.00826" lon="2.01565">
        <ele>116.2</ele>
        <time>2022-04-18T14:01:21Z</time>
      </trkpt>
      <trkpt lat="49.00829" lon="2.01567">
        <ele>116.1</ele>
        <time>2022-04-18T14:01:27Z</time>
      </trkpt>
      <trkpt lat="49.00831" lon="2.01567">
        <ele>116</ele>
        <time>2022-04-18T14:01:32Z</time>
      </trkpt>
      <trkpt lat="49.00833" lon="2.01572">
        <ele>116</ele>
        <time>2022-04-18T14:01:38Z</time>
      </trkpt>
      <trkpt lat="49.0084" lon="2.01585">
        <ele>115.7</ele>
        <time>2022-04-18T14:01:44Z</time>
      </trkpt>
      <trkpt lat="49.00846" lon="2.01593">
        <ele>115.2</ele>
        <time>2022-04-18T14:01:50Z</time>
      </trkpt>
      <trkpt lat="49.00851" lon="2.01601">
        <ele>114.7</ele>
        <time>2022-04-18T14:01:55Z</time>
      </trkpt>
      <trkpt lat="49.00855" lon="2.01608">
        <ele>114.3</ele>
        <time>2022-04-18T14:02:00Z</time>
      </trkpt>
      <trkpt lat="49.00859" lon="2.01617">
        <ele>114</ele>
        <time>2022-04-18T14:02:06Z</time>
      </trkpt>
      <trkpt lat="49.00867" lon="2.01628">
        <ele>113.9</ele>
        <time>2022-04-18T14:02:12Z</time>
      </trkpt>
      <trkpt lat="49.00871" lon="2.01635">
        <ele>113.7</ele>
        <time>2022-04-18T14:02:17Z</time>
      </trkpt>
      <trkpt lat="49.00877" lon="2.01644">
        <ele>113.4</ele>
        <time>2022-04-18T14:02:23Z</time>
      </trkpt>
      <trkpt lat="49.00882" lon="2.01652">
        <ele>113.1</ele>
        <time>2022-04-18T14:02:29Z</time>
      </trkpt>
      <trkpt lat="49.00885" lon="2.01659">
        <ele>113</ele>
        <time>2022-04-18T14:02:34Z</time>
      </trkpt>
      <trkpt lat="49.00892" lon="2.01669">
        <ele>112.8</ele>
        <time>2022-04-18T14:02:40Z</time>
      </trkpt>
      <trkpt lat="49.00897" lon="2.01675">
        <ele>112.5</ele>
        <time>2022-04-18T14:02:45Z</time>
      </trkpt>
      <trkpt lat="49.00901" lon="2.01682">
        <ele>112.2</ele>
        <time>2022-04-18T14:02:50Z</time>
      </trkpt>
      <trkpt lat="49.00907" lon="2.01694">
        <ele>112</ele>
        <time>2022-04-18T14:02:56Z</time>
      </trkpt>
      <trkpt lat="49.00911" lon="2.017">
        <ele>111.8</ele>
        <time>2022-04-18T14:03:01Z</time>
      </trkpt>
      <trkpt lat="49.00917" lon="2.0171">
        <ele>111.4</ele>
        <time>2022-04-18T14:03:07Z</time>
      </trkpt>
      <trkpt lat="49.00924" lon="2.0172">
        <ele>111.1</ele>
        <time>2022-04-18T14:03:13Z</time>
      </trkpt>
      <trkpt lat="49.0093" lon="2.01723">
        <ele>111</ele>
        <time>2022-04-18T14:03:18Z</time>
      </trkpt>
      <trkpt lat="49.00937" lon="2.01726">
        <ele>110.9</ele>
        <time>2022-04-18T14:03:23Z</time>
      </trkpt>
      <trkpt lat="49.00945" lon="2.01732">
        <ele>110.6</ele>
        <time>2022-04-18T14:03:28Z</time>
      </trkpt>
      <trkpt lat="49.00952" lon="2.01735">
        <ele>110.4</ele>
        <time>2022-04-18T14:03:34Z</time>
      </trkpt>
      <trkpt lat="49.0096" lon="2.0174">
        <ele>110.2</ele>
        <time>2022-04-18T14:03:39Z</time>
      </trkpt>
      <trkpt lat="49.00968" lon="2.01744">
        <ele>110</ele>
        <time>2022-04-18T14:03:45Z</time>
      </trkpt>
      <trkpt lat="49.00975" lon="2.01747">
        <ele>110</ele>
        <time>2022-04-18T14:03:51Z</time>
      </trkpt>
      <trkpt lat="49.00983" lon="2.0175">
        <ele>110</ele>
        <time>2022-04-18T14:03:57Z</time>
      </trkpt>
      <trkpt lat="49.00991" lon="2.01754">
        <ele>109.8</ele>
        <time>2022-04-18T14:04:02Z</time>
      </trkpt>
      <trkpt lat="49.00997" lon="2.01758">
        <ele>109.7</ele>
        <time>2022-04-18T14:04:07Z</time>
      </trkpt>
      <trkpt lat="49.01007" lon="2.01764">
        <ele>109.2</ele>
        <time>2022-04-18T14:04:13Z</time>
      </trkpt>
      <trkpt lat="49.01015" lon="2.01773">
        <ele>108.6</ele>
        <time>2022-04-18T14:04:19Z</time>
      </trkpt>
      <trkpt lat="49.0102" lon="2.0178">
        <ele>108.2</ele>
        <time>2022-04-18T14:04:24Z</time>
      </trkpt>
      <trkpt lat="49.01026" lon="2.01791">
        <ele>107.6</ele>
        <time>2022-04-18T14:04:30Z</time>
      </trkpt>
      <trkpt lat="49.01031" lon="2.01803">
        <ele>107</ele>
        <time>2022-04-18T14:04:36Z</time>
      </trkpt>
      <trkpt lat="49.01035" lon="2.01815">
        <ele>106.5</ele>
        <time>2022-04-18T14:04:42Z</time>
      </trkpt>
      <trkpt lat="49.01039" lon="2.01824">
        <ele>106.2</ele>
        <time>2022-04-18T14:04:47Z</time>
      </trkpt>
      <trkpt lat="49.01044" lon="2.01832">
        <ele>106</ele>
        <time>2022-04-18T14:04:52Z</time>
      </trkpt>
      <trkpt lat="49.01048" lon="2.01842">
        <ele>105.7</ele>
        <time>2022-04-18T14:04:57Z</time>
      </trkpt>
      <trkpt lat="49.01053" lon="2.01854">
        <ele>105.2</ele>
        <time>2022-04-18T14:05:03Z</time>
      </trkpt>
      <trkpt lat="49.01058" lon="2.01862">
        <ele>104.9</ele>
        <time>2022-04-18T14:05:08Z</time>
      </trkpt>
      <trkpt lat="49.01065" lon="2.01873">
        <ele>104.4</ele>
        <time>2022-04-18T14:05:14Z</time>
      </trkpt>
      <trkpt lat="49.01069" lon="2.01882">
        <ele>104.1</ele>
        <time>2022-04-18T14:05:19Z</time>
      </trkpt>
      <trkpt lat="49.01074" lon="2.01893">
        <ele>104</ele>
        <time>2022-04-18T14:05:25Z</time>
      </trkpt>
      <trkpt lat="49.01079" lon="2.01902">
        <ele>104</ele>
        <time>2022-04-18T14:05:31Z</time>
      </trkpt>
      <trkpt lat="49.01084" lon="2.01913">
        <ele>104</ele>
        <time>2022-04-18T14:05:37Z</time>
      </trkpt>
      <trkpt lat="49.0109" lon="2.01925">
        <ele>103.5</ele>
        <time>2022-04-18T14:05:43Z</time>
      </trkpt>
      <trkpt lat="49.01093" lon="2.01933">
        <ele>103</ele>
        <time>2022-04-18T14:05:48Z</time>
      </trkpt>
      <trkpt lat="49.01097" lon="2.01942">
        <ele>102.6</ele>
        <time>2022-04-18T14:05:53Z</time>
      </trkpt>
      <trkpt lat="49.01102" lon="2.01955">
        <ele>102.2</ele>
        <time>2022-04-18T14:05:59Z</time>
      </trkpt>
      <trkpt lat="49.01107" lon="2.01964">
        <ele>102</ele>
        <time>2022-04-18T14:06:05Z</time>
      </trkpt>
      <trkpt lat="49.01109" lon="2.01974">
        <ele>102</ele>
        <time>2022-04-18T14:06:11Z</time>
      </trkpt>
      <trkpt lat="49.01114" lon="2.01984">
        <ele>101.9</ele>
        <time>2022-04-18T14:06:16Z</time>
      </trkpt>
      <trkpt lat="49.0112" lon="2.01994">
        <ele>101.7</ele>
        <time>2022-04-18T14:06:21Z</time>
      </trkpt>
      <trkpt lat="49.01125" lon="2.01996">
        <ele>101.6</ele>
        <time>2022-04-18T14:06:26Z</time>
      </trkpt>
      <trkpt lat="49.01136" lon="2.01991">
        <ele>101.4</ele>
        <time>2022-04-18T14:06:32Z</time>
      </trkpt>
      <trkpt lat="49.01146" lon="2.01985">
        <ele>101.3</ele>
        <time>2022-04-18T14:06:37Z</time>
      </trkpt>
      <trkpt lat="49.01154" lon="2.01982">
        <ele>101.1</ele>
        <time>2022-04-18T14:06:43Z</time>
      </trkpt>
      <trkpt lat="49.01156" lon="2.01993">
        <ele>100.6</ele>
        <time>2022-04-18T14:06:49Z</time>
      </trkpt>
      <trkpt lat="49.0116" lon="2.02006">
        <ele>100.2</ele>
        <time>2022-04-18T14:06:54Z</time>
      </trkpt>
      <trkpt lat="49.01163" lon="2.02018">
        <ele>100</ele>
        <time>2022-04-18T14:07:00Z</time>
      </trkpt>
      <trkpt lat="49.01166" lon="2.02028">
        <ele>100</ele>
        <time>2022-04-18T14:07:05Z</time>
      </trkpt>
      <trkpt lat="49.01169" lon="2.02036">
        <ele>99.6</ele>
        <time>2022-04-18T14:07:10Z</time>
      </trkpt>
      <trkpt lat="49.01173" lon="2.02045">
        <ele>99.1</ele>
        <time>2022-04-18T14:07:15Z</time>
      </trkpt>
      <trkpt lat="49.01177" lon="2.0206">
        <ele>98.6</ele>
        <time>2022-04-18T14:07:21Z</time>
      </trkpt>
      <trkpt lat="49.01182" lon="2.02075">
        <ele>98.5</ele>
        <time>2022-04-18T14:07:27Z</time>
      </trkpt>
      <trkpt lat="49.01184" lon="2.02083">
        <ele>98.4</ele>
        <time>2022-04-18T14:07:32Z</time>
      </trkpt>
      <trkpt lat="49.01188" lon="2.02093">
        <ele>98.2</ele>
        <time>2022-04-18T14:07:38Z</time>
      </trkpt>
      <trkpt lat="49.01192" lon="2.02105">
        <ele>98.1</ele>
        <time>2022-04-18T14:07:44Z</time>
      </trkpt>
      <trkpt lat="49.01197" lon="2.02118">
        <ele>97.9</ele>
        <time>2022-04-18T14:07:50Z</time>
      </trkpt>
      <trkpt lat="49.012" lon="2.02133">
        <ele>97.8</ele>
        <time>2022-04-18T14:07:56Z</time>
      </trkpt>
      <trkpt lat="49.01203" lon="2.02145">
        <ele>97.7</ele>
        <time>2022-04-18T14:08:01Z</time>
      </trkpt>
      <trkpt lat="49.01208" lon="2.02154">
        <ele>97.5</ele>
        <time>2022-04-18T14:08:07Z</time>
      </trkpt>
      <trkpt lat="49.01211" lon="2.02166">
        <ele>97.4</ele>
        <time>2022-04-18T14:08:13Z</time>
      </trkpt>
      <trkpt lat="49.01218" lon="2.02178">
        <ele>97.5</ele>
        <time>2022-04-18T14:08:19Z</time>
      </trkpt>
      <trkpt lat="49.01223" lon="2.02188">
        <ele>97.7</ele>
        <time>2022-04-18T14:08:24Z</time>
      </trkpt>
      <trkpt lat="49.01228" lon="2.02201">
        <ele>97.5</ele>
        <time>2022-04-18T14:08:30Z</time>
      </trkpt>
      <trkpt lat="49.0123" lon="2.02211">
        <ele>97.4</ele>
        <time>2022-04-18T14:08:35Z</time>
      </trkpt>
      <trkpt lat="49.01234" lon="2.02221">
        <ele>97.1</ele>
        <time>2022-04-18T14:08:41Z</time>
      </trkpt>
      <trkpt lat="49.0124" lon="2.02232">
        <ele>96.9</ele>
        <time>2022-04-18T14:08:47Z</time>
      </trkpt>
      <trkpt lat="49.01243" lon="2.02245">
        <ele>97.1</ele>
        <time>2022-04-18T14:08:53Z</time>
      </trkpt>
      <trkpt lat="49.01243" lon="2.0226">
        <ele>97.3</ele>
        <time>2022-04-18T14:08:59Z</time>
      </trkpt>
      <trkpt lat="49.01243" lon="2.02272">
        <ele>97.2</ele>
        <time>2022-04-18T14:09:04Z</time>
      </trkpt>
      <trkpt lat="49.01246" lon="2.02283">
        <ele>97.2</ele>
        <time>2022-04-18T14:09:09Z</time>
      </trkpt>
      <trkpt lat="49.0125" lon="2.02293">
        <ele>97</ele>
        <time>2022-04-18T14:09:15Z</time>
      </trkpt>
      <trkpt lat="49.01254" lon="2.02305">
        <ele>96.8</ele>
        <time>2022-04-18T14:09:21Z</time>
      </trkpt>
      <trkpt lat="49.01259" lon="2.02318">
        <ele>96.7</ele>
        <time>2022-04-18T14:09:27Z</time>
      </trkpt>
      <trkpt lat="49.01263" lon="2.02327">
        <ele>96.6</ele>
        <time>2022-04-18T14:09:32Z</time>
      </trkpt>
      <trkpt lat="49.01267" lon="2.02339">
        <ele>96.5</ele>
        <time>2022-04-18T14:09:38Z</time>
      </trkpt>
      <trkpt lat="49.01272" lon="2.02349">
        <ele>96.3</ele>
        <time>2022-04-18T14:09:43Z</time>
      </trkpt>
      <trkpt lat="49.01278" lon="2.02361">
        <ele>96</ele>
        <time>2022-04-18T14:09:49Z</time>
      </trkpt>
      <trkpt lat="49.01282" lon="2.02371">
        <ele>95.8</ele>
        <time>2022-04-18T14:09:55Z</time>
      </trkpt>
      <trkpt lat="49.01286" lon="2.02379">
        <ele>95.5</ele>
        <time>2022-04-18T14:10:00Z</time>
      </trkpt>
      <trkpt lat="49.0129" lon="2.02391">
        <ele>95.1</ele>
        <time>2022-04-18T14:10:06Z</time>
      </trkpt>
      <trkpt lat="49.01294" lon="2.024">
        <ele>94.8</ele>
        <time>2022-04-18T14:10:11Z</time>
      </trkpt>
      <trkpt lat="49.013" lon="2.02413">
        <ele>94.4</ele>
        <time>2022-04-18T14:10:17Z</time>
      </trkpt>
      <trkpt lat="49.01303" lon="2.02421">
        <ele>94.3</ele>
        <time>2022-04-18T14:10:22Z</time>
      </trkpt>
      <trkpt lat="49.01307" lon="2.0243">
        <ele>94.4</ele>
        <time>2022-04-18T14:10:28Z</time>
      </trkpt>
      <trkpt lat="49.01311" lon="2.02438">
        <ele>94.4</ele>
        <time>2022-04-18T14:10:33Z</time>
      </trkpt>
      <trkpt lat="49.01315" lon="2.02448">
        <ele>94.3</ele>
        <time>2022-04-18T14:10:39Z</time>
      </trkpt>
      <trkpt lat="49.01308" lon="2.02457">
        <ele>94.8</ele>
        <time>2022-04-18T14:10:45Z</time>
      </trkpt>
      <trkpt lat="49.01299" lon="2.02466">
        <ele>95.1</ele>
        <time>2022-04-18T14:10:51Z</time>
      </trkpt>
      <trkpt lat="49.01294" lon="2.02472">
        <ele>95</ele>
        <time>2022-04-18T14:10:56Z</time>
      </trkpt>
      <trkpt lat="49.01289" lon="2.0248">
        <ele>95</ele>
        <time>2022-04-18T14:11:01Z</time>
      </trkpt>
      <trkpt lat="49.01288" lon="2.0249">
        <ele>95</ele>
        <time>2022-04-18T14:11:06Z</time>
      </trkpt>
      <trkpt lat="49.01294" lon="2.02503">
        <ele>94.9</ele>
        <time>2022-04-18T14:11:12Z</time>
      </trkpt>
      <trkpt lat="49.01297" lon="2.02511">
        <ele>94.7</ele>
        <time>2022-04-18T14:11:17Z</time>
      </trkpt>
      <trkpt lat="49.01299" lon="2.02523">
        <ele>94.3</ele>
        <time>2022-04-18T14:11:23Z</time>
      </trkpt>
      <trkpt lat="49.01303" lon="2.02533">
        <ele>94.1</ele>
        <time>2022-04-18T14:11:28Z</time>
      </trkpt>
      <trkpt lat="49.01307" lon="2.02541">
        <ele>94</ele>
        <time>2022-04-18T14:11:34Z</time>
      </trkpt>
      <trkpt lat="49.0131" lon="2.0255">
        <ele>93.9</ele>
        <time>2022-04-18T14:11:39Z</time>
      </trkpt>
      <trkpt lat="49.01314" lon="2.02562">
        <ele>93.7</ele>
        <time>2022-04-18T14:11:45Z</time>
      </trkpt>
      <trkpt lat="49.01321" lon="2.02572">
        <ele>93.4</ele>
        <time>2022-04-18T14:11:51Z</time>
      </trkpt>
      <trkpt lat="49.01321" lon="2.0258">
        <ele>93.4</ele>
        <time>2022-04-18T14:11:57Z</time>
      </trkpt>
      <trkpt lat="49.01316" lon="2.02588">
        <ele>93.6</ele>
        <time>2022-04-18T14:12:03Z</time>
      </trkpt>
      <trkpt lat="49.01312" lon="2.02596">
        <ele>93.8</ele>
        <time>2022-04-18T14:12:08Z</time>
      </trkpt>
      <trkpt lat="49.01304" lon="2.02605">
        <ele>94</ele>
        <time>2022-04-18T14:12:14Z</time>
      </trkpt>
      <trkpt lat="49.01294" lon="2.02616">
        <ele>94</ele>
        <time>2022-04-18T14:12:20Z</time>
      </trkpt>
      <trkpt lat="49.01286" lon="2.02624">
        <ele>94</ele>
        <time>2022-04-18T14:12:25Z</time>
      </trkpt>
      <trkpt lat="49.01281" lon="2.02635">
        <ele>94</ele>
        <time>2022-04-18T14:12:31Z</time>
      </trkpt>
      <trkpt lat="49.0128" lon="2.02648">
        <ele>94</ele>
        <time>2022-04-18T14:12:37Z</time>
      </trkpt>
      <trkpt lat="49.01288" lon="2.02657">
        <ele>93.7</ele>
        <time>2022-04-18T14:12:42Z</time>
      </trkpt>
      <trkpt lat="49.01298" lon="2.02666">
        <ele>93.3</ele>
        <time>2022-04-18T14:12:48Z</time>
      </trkpt>
      <trkpt lat="49.01305" lon="2.02672">
        <ele>93</ele>
        <time>2022-04-18T14:12:54Z</time>
      </trkpt>
      <trkpt lat="49.01311" lon="2.02681">
        <ele>92.9</ele>
        <time>2022-04-18T14:12:59Z</time>
      </trkpt>
      <trkpt lat="49.01316" lon="2.0269">
        <ele>92.7</ele>
        <time>2022-04-18T14:13:05Z</time>
      </trkpt>
      <trkpt lat="49.01319" lon="2.027">
        <ele>92.5</ele>
        <time>2022-04-18T14:13:10Z</time>
      </trkpt>
      <trkpt lat="49.01323" lon="2.02708">
        <ele>92.4</ele>
        <time>2022-04-18T14:13:15Z</time>
      </trkpt>
      <trkpt lat="49.01329" lon="2.0272">
        <ele>92.1</ele>
        <time>2022-04-18T14:13:21Z</time>
      </trkpt>
      <trkpt lat="49.01332" lon="2.0273">
        <ele>91.8</ele>
        <time>2022-04-18T14:13:26Z</time>
      </trkpt>
      <trkpt lat="49.01338" lon="2.02737">
        <ele>91.3</ele>
        <time>2022-04-18T14:13:32Z</time>
      </trkpt>
      <trkpt lat="49.01342" lon="2.02745">
        <ele>90.9</ele>
        <time>2022-04-18T14:13:37Z</time>
      </trkpt>
      <trkpt lat="49.0135" lon="2.02745">
        <ele>90.6</ele>
        <time>2022-04-18T14:13:42Z</time>
      </trkpt>
      <trkpt lat="49.01352" lon="2.02741">
        <ele>90.7</ele>
        <time>2022-04-18T14:13:48Z</time>
      </trkpt>
      <trkpt lat="49.01351" lon="2.02741">
        <ele>90.7</ele>
        <time>2022-04-18T14:13:54Z</time>
      </trkpt>
      <trkpt lat="49.01351" lon="2.02741">
        <ele>90.7</ele>
        <time>2022-04-18T14:13:59Z</time>
      </trkpt>
      <trkpt lat="49.01353" lon="2.02743">
        <ele>90.6</ele>
        <time>2022-04-18T14:14:05Z</time>
      </trkpt>
      <trkpt lat="49.01359" lon="2.0275">
        <ele>90.1</ele>
        <time>2022-04-18T14:14:10Z</time>
      </trkpt>
      <trkpt lat="49.01364" lon="2.02746">
        <ele>90.1</ele>
        <time>2022-04-18T14:14:15Z</time>
      </trkpt>
      <trkpt lat="49.01368" lon="2.02739">
        <ele>90.3</ele>
        <time>2022-04-18T14:14:21Z</time>
      </trkpt>
      <trkpt lat="49.01375" lon="2.02731">
        <ele>90.3</ele>
        <time>2022-04-18T14:14:27Z</time>
      </trkpt>
      <trkpt lat="49.0138" lon="2.02723">
        <ele>90.3</ele>
        <time>2022-04-18T14:14:32Z</time>
      </trkpt>
      <trkpt lat="49.01382" lon="2.02717">
        <ele>90.3</ele>
        <time>2022-04-18T14:14:37Z</time>
      </trkpt>
      <trkpt lat="49.01388" lon="2.02709">
        <ele>90.1</ele>
        <time>2022-04-18T14:14:43Z</time>
      </trkpt>
      <trkpt lat="49.01394" lon="2.02703">
        <ele>89.8</ele>
        <time>2022-04-18T14:14:48Z</time>
      </trkpt>
      <trkpt lat="49.01399" lon="2.02693">
        <ele>89.7</ele>
        <time>2022-04-18T14:14:54Z</time>
      </trkpt>
      <trkpt lat="49.01407" lon="2.02682">
        <ele>89.5</ele>
        <time>2022-04-18T14:15:00Z</time>
      </trkpt>
      <trkpt lat="49.0141" lon="2.02676">
        <ele>89.4</ele>
        <time>2022-04-18T14:15:05Z</time>
      </trkpt>
      <trkpt lat="49.01413" lon="2.02673">
        <ele>89.2</ele>
        <time>2022-04-18T14:15:10Z</time>
      </trkpt>
      <trkpt lat="49.01417" lon="2.02668">
        <ele>89</ele>
        <time>2022-04-18T14:15:16Z</time>
      </trkpt>
      <trkpt lat="49.01421" lon="2.02662">
        <ele>89.1</ele>
        <time>2022-04-18T14:15:22Z</time>
      </trkpt>
      <trkpt lat="49.01427" lon="2.02655">
        <ele>89</ele>
        <time>2022-04-18T14:15:27Z</time>
      </trkpt>
      <trkpt lat="49.01437" lon="2.02646">
        <ele>88.1</ele>
        <time>2022-04-18T14:15:33Z</time>
      </trkpt>
      <trkpt lat="49.01445" lon="2.02637">
        <ele>87.1</ele>
        <time>2022-04-18T14:15:38Z</time>
      </trkpt>
      <trkpt lat="49.01455" lon="2.02627">
        <ele>86.7</ele>
        <time>2022-04-18T14:15:44Z</time>
      </trkpt>
      <trkpt lat="49.01463" lon="2.02619">
        <ele>86.1</ele>
        <time>2022-04-18T14:15:49Z</time>
      </trkpt>
      <trkpt lat="49.01471" lon="2.0261">
        <ele>85.1</ele>
        <time>2022-04-18T14:15:55Z</time>
      </trkpt>
      <trkpt lat="49.01479" lon="2.02601">
        <ele>84.7</ele>
        <time>2022-04-18T14:16:01Z</time>
      </trkpt>
      <trkpt lat="49.01488" lon="2.02593">
        <ele>84.4</ele>
        <time>2022-04-18T14:16:07Z</time>
      </trkpt>
      <trkpt lat="49.01495" lon="2.02587">
        <ele>84.2</ele>
        <time>2022-04-18T14:16:13Z</time>
      </trkpt>
      <trkpt lat="49.01501" lon="2.02587">
        <ele>83.9</ele>
        <time>2022-04-18T14:16:18Z</time>
      </trkpt>
      <trkpt lat="49.01508" lon="2.02592">
        <ele>83</ele>
        <time>2022-04-18T14:16:24Z</time>
      </trkpt>
      <trkpt lat="49.01515" lon="2.02599">
        <ele>82</ele>
        <time>2022-04-18T14:16:30Z</time>
      </trkpt>
      <trkpt lat="49.01521" lon="2.02606">
        <ele>81.1</ele>
        <time>2022-04-18T14:16:35Z</time>
      </trkpt>
      <trkpt lat="49.01526" lon="2.02616">
        <ele>80.2</ele>
        <time>2022-04-18T14:16:41Z</time>
      </trkpt>
      <trkpt lat="49.01527" lon="2.02625">
        <ele>80.1</ele>
        <time>2022-04-18T14:16:46Z</time>
      </trkpt>
      <trkpt lat="49.01528" lon="2.02635">
        <ele>80</ele>
        <time>2022-04-18T14:16:51Z</time>
      </trkpt>
      <trkpt lat="49.01529" lon="2.02648">
        <ele>80.1</ele>
        <time>2022-04-18T14:16:57Z</time>
      </trkpt>
      <trkpt lat="49.01531" lon="2.0266">
        <ele>80.2</ele>
        <time>2022-04-18T14:17:03Z</time>
      </trkpt>
      <trkpt lat="49.01532" lon="2.02675">
        <ele>80.6</ele>
        <time>2022-04-18T14:17:09Z</time>
      </trkpt>
      <trkpt lat="49.01533" lon="2.02686">
        <ele>81.1</ele>
        <time>2022-04-18T14:17:14Z</time>
      </trkpt>
      <trkpt lat="49.01535" lon="2.02697">
        <ele>81.2</ele>
        <time>2022-04-18T14:17:20Z</time>
      </trkpt>
      <trkpt lat="49.01538" lon="2.02707">
        <ele>80.5</ele>
        <time>2022-04-18T14:17:25Z</time>
      </trkpt>
      <trkpt lat="49.0154" lon="2.02717">
        <ele>80.3</ele>
        <time>2022-04-18T14:17:30Z</time>
      </trkpt>
      <trkpt lat="49.01539" lon="2.02727">
        <ele>80.8</ele>
        <time>2022-04-18T14:17:36Z</time>
      </trkpt>
      <trkpt lat="49.01537" lon="2.02735">
        <ele>81.5</ele>
        <time>2022-04-18T14:17:41Z</time>
      </trkpt>
      <trkpt lat="49.01535" lon="2.02742">
        <ele>82.1</ele>
        <time>2022-04-18T14:17:46Z</time>
      </trkpt>
      <trkpt lat="49.01532" lon="2.02751">
        <ele>83.1</ele>
        <time>2022-04-18T14:17:52Z</time>
      </trkpt>
      <trkpt lat="49.01528" lon="2.02757">
        <ele>84.2</ele>
        <time>2022-04-18T14:17:58Z</time>
      </trkpt>
      <trkpt lat="49.01524" lon="2.0276">
        <ele>84.7</ele>
        <time>2022-04-18T14:18:03Z</time>
      </trkpt>
      <trkpt lat="49.01519" lon="2.02764">
        <ele>85.3</ele>
        <time>2022-04-18T14:18:09Z</time>
      </trkpt>
      <trkpt lat="49.01513" lon="2.0277">
        <ele>85.9</ele>
        <time>2022-04-18T14:18:14Z</time>
      </trkpt>
      <trkpt lat="49.01507" lon="2.02775">
        <ele>86.4</ele>
        <time>2022-04-18T14:18:19Z</time>
      </trkpt>
      <trkpt lat="49.01505" lon="2.02782">
        <ele>86.6</ele>
        <time>2022-04-18T14:18:25Z</time>
      </trkpt>
      <trkpt lat="49.01504" lon="2.02792">
        <ele>86.7</ele>
        <time>2022-04-18T14:18:30Z</time>
      </trkpt>
      <trkpt lat="49.01505" lon="2.02804">
        <ele>86.7</ele>
        <time>2022-04-18T14:18:36Z</time>
      </trkpt>
      <trkpt lat="49.01505" lon="2.02814">
        <ele>86.6</ele>
        <time>2022-04-18T14:18:41Z</time>
      </trkpt>
      <trkpt lat="49.01507" lon="2.02826">
        <ele>86.5</ele>
        <time>2022-04-18T14:18:47Z</time>
      </trkpt>
      <trkpt lat="49.01511" lon="2.02835">
        <ele>86.2</ele>
        <time>2022-04-18T14:18:52Z</time>
      </trkpt>
      <trkpt lat="49.01516" lon="2.02848">
        <ele>85.6</ele>
        <time>2022-04-18T14:18:58Z</time>
      </trkpt>
      <trkpt lat="49.0152" lon="2.02858">
        <ele>85.3</ele>
        <time>2022-04-18T14:19:03Z</time>
      </trkpt>
      <trkpt lat="49.01525" lon="2.02867">
        <ele>85.1</ele>
        <time>2022-04-18T14:19:08Z</time>
      </trkpt>
      <trkpt lat="49.01531" lon="2.02877">
        <ele>84.6</ele>
        <time>2022-04-18T14:19:14Z</time>
      </trkpt>
      <trkpt lat="49.01536" lon="2.02887">
        <ele>84.1</ele>
        <time>2022-04-18T14:19:20Z</time>
      </trkpt>
      <trkpt lat="49.0154" lon="2.02891">
        <ele>83.6</ele>
        <time>2022-04-18T14:19:26Z</time>
      </trkpt>
      <trkpt lat="49.01546" lon="2.02896">
        <ele>83</ele>
        <time>2022-04-18T14:19:31Z</time>
      </trkpt>
      <trkpt lat="49.01555" lon="2.02903">
        <ele>82.1</ele>
        <time>2022-04-18T14:19:37Z</time>
      </trkpt>
      <trkpt lat="49.0156" lon="2.02914">
        <ele>81.2</ele>
        <time>2022-04-18T14:19:43Z</time>
      </trkpt>
      <trkpt lat="49.01562" lon="2.02923">
        <ele>80.6</ele>
        <time>2022-04-18T14:19:48Z</time>
      </trkpt>
      <trkpt lat="49.01561" lon="2.02933">
        <ele>80.6</ele>
        <time>2022-04-18T14:19:53Z</time>
      </trkpt>
      <trkpt lat="49.01556" lon="2.02945">
        <ele>80.9</ele>
        <time>2022-04-18T14:19:59Z</time>
      </trkpt>
      <trkpt lat="49.01552" lon="2.02953">
        <ele>80.5</ele>
        <time>2022-04-18T14:20:04Z</time>
      </trkpt>
      <trkpt lat="49.01548" lon="2.02964">
        <ele>80.1</ele>
        <time>2022-04-18T14:20:10Z</time>
      </trkpt>
      <trkpt lat="49.01548" lon="2.02976">
        <ele>79.4</ele>
        <time>2022-04-18T14:20:16Z</time>
      </trkpt>
      <trkpt lat="49.01553" lon="2.02988">
        <ele>78.7</ele>
        <time>2022-04-18T14:20:22Z</time>
      </trkpt>
      <trkpt lat="49.01559" lon="2.02999">
        <ele>77.4</ele>
        <time>2022-04-18T14:20:28Z</time>
      </trkpt>
      <trkpt lat="49.01566" lon="2.03009">
        <ele>75.7</ele>
        <time>2022-04-18T14:20:34Z</time>
      </trkpt>
      <trkpt lat="49.01572" lon="2.03019">
        <ele>74.1</ele>
        <time>2022-04-18T14:20:40Z</time>
      </trkpt>
      <trkpt lat="49.01577" lon="2.03022">
        <ele>72.8</ele>
        <time>2022-04-18T14:20:45Z</time>
      </trkpt>
      <trkpt lat="49.01581" lon="2.03021">
        <ele>71.9</ele>
        <time>2022-04-18T14:20:50Z</time>
      </trkpt>
      <trkpt lat="49.01586" lon="2.03015">
        <ele>71.1</ele>
        <time>2022-04-18T14:20:56Z</time>
      </trkpt>
      <trkpt lat="49.01588" lon="2.03006">
        <ele>70.8</ele>
        <time>2022-04-18T14:21:02Z</time>
      </trkpt>
      <trkpt lat="49.01592" lon="2.02997">
        <ele>70.2</ele>
        <time>2022-04-18T14:21:07Z</time>
      </trkpt>
      <trkpt lat="49.01595" lon="2.02993">
        <ele>69.4</ele>
        <time>2022-04-18T14:21:12Z</time>
      </trkpt>
      <trkpt lat="49.01599" lon="2.02996">
        <ele>67.7</ele>
        <time>2022-04-18T14:21:18Z</time>
      </trkpt>
      <trkpt lat="49.01603" lon="2.03002">
        <ele>65.8</ele>
        <time>2022-04-18T14:21:23Z</time>
      </trkpt>
      <trkpt lat="49.01607" lon="2.03012">
        <ele>64.1</ele>
        <time>2022-04-18T14:21:29Z</time>
      </trkpt>
      <trkpt lat="49.0161" lon="2.03016">
        <ele>62.9</ele>
        <time>2022-04-18T14:21:34Z</time>
      </trkpt>
      <trkpt lat="49.01613" lon="2.03016">
        <ele>62.4</ele>
        <time>2022-04-18T14:21:40Z</time>
      </trkpt>
      <trkpt lat="49.01614" lon="2.03015">
        <ele>62.5</ele>
        <time>2022-04-18T14:21:46Z</time>
      </trkpt>
      <trkpt lat="49.0162" lon="2.03013">
        <ele>62.5</ele>
        <time>2022-04-18T14:21:52Z</time>
      </trkpt>
      <trkpt lat="49.01628" lon="2.03012">
        <ele>62.6</ele>
        <time>2022-04-18T14:21:57Z</time>
      </trkpt>
      <trkpt lat="49.01635" lon="2.03012">
        <ele>62.6</ele>
        <time>2022-04-18T14:22:03Z</time>
      </trkpt>
      <trkpt lat="49.01642" lon="2.0301">
        <ele>63.5</ele>
        <time>2022-04-18T14:22:09Z</time>
      </trkpt>
      <trkpt lat="49.01646" lon="2.03004">
        <ele>65</ele>
        <time>2022-04-18T14:22:15Z</time>
      </trkpt>
      <trkpt lat="49.01648" lon="2.02996">
        <ele>65.8</ele>
        <time>2022-04-18T14:22:20Z</time>
      </trkpt>
      <trkpt lat="49.01648" lon="2.02986">
        <ele>66.3</ele>
        <time>2022-04-18T14:22:25Z</time>
      </trkpt>
      <trkpt lat="49.01649" lon="2.02977">
        <ele>66.4</ele>
        <time>2022-04-18T14:22:30Z</time>
      </trkpt>
      <trkpt lat="49.01649" lon="2.02976">
        <ele>66.6</ele>
        <time>2022-04-18T14:22:35Z</time>
      </trkpt>
      <trkpt lat="49.0165" lon="2.02981">
        <ele>66.7</ele>
        <time>2022-04-18T14:22:41Z</time>
      </trkpt>
      <trkpt lat="49.01651" lon="2.0299">
        <ele>67</ele>
        <time>2022-04-18T14:22:47Z</time>
      </trkpt>
      <trkpt lat="49.01654" lon="2.03001">
        <ele>67.7</ele>
        <time>2022-04-18T14:22:53Z</time>
      </trkpt>
      <trkpt lat="49.01657" lon="2.03001">
        <ele>69</ele>
        <time>2022-04-18T14:22:59Z</time>
      </trkpt>
      <trkpt lat="49.01659" lon="2.02994">
        <ele>69.7</ele>
        <time>2022-04-18T14:23:05Z</time>
      </trkpt>
      <trkpt lat="49.0166" lon="2.02985">
        <ele>70.2</ele>
        <time>2022-04-18T14:23:11Z</time>
      </trkpt>
      <trkpt lat="49.01661" lon="2.02977">
        <ele>70.8</ele>
        <time>2022-04-18T14:23:16Z</time>
      </trkpt>
      <trkpt lat="49.01664" lon="2.02974">
        <ele>72</ele>
        <time>2022-04-18T14:23:22Z</time>
      </trkpt>
      <trkpt lat="49.01668" lon="2.0298">
        <ele>73</ele>
        <time>2022-04-18T14:23:28Z</time>
      </trkpt>
      <trkpt lat="49.01673" lon="2.02986">
        <ele>73.9</ele>
        <time>2022-04-18T14:23:33Z</time>
      </trkpt>
      <trkpt lat="49.01679" lon="2.02993">
        <ele>74.9</ele>
        <time>2022-04-18T14:23:39Z</time>
      </trkpt>
      <trkpt lat="49.01684" lon="2.02997">
        <ele>75.8</ele>
        <time>2022-04-18T14:23:45Z</time>
      </trkpt>
      <trkpt lat="49.01686" lon="2.03">
        <ele>76.2</ele>
        <time>2022-04-18T14:23:50Z</time>
      </trkpt>
      <trkpt lat="49.01687" lon="2.03009">
        <ele>76.2</ele>
        <time>2022-04-18T14:23:56Z</time>
      </trkpt>
      <trkpt lat="49.01687" lon="2.03017">
        <ele>76.3</ele>
        <time>2022-04-18T14:24:01Z</time>
      </trkpt>
      <trkpt lat="49.01687" lon="2.03033">
        <ele>75.9</ele>
        <time>2022-04-18T14:24:07Z</time>
      </trkpt>
      <trkpt lat="49.01686" lon="2.03048">
        <ele>75.3</ele>
        <time>2022-04-18T14:24:13Z</time>
      </trkpt>
      <trkpt lat="49.01685" lon="2.03062">
        <ele>74.9</ele>
        <time>2022-04-18T14:24:19Z</time>
      </trkpt>
      <trkpt lat="49.01684" lon="2.03075">
        <ele>74.8</ele>
        <time>2022-04-18T14:24:24Z</time>
      </trkpt>
      <trkpt lat="49.01684" lon="2.03087">
        <ele>74.6</ele>
        <time>2022-04-18T14:24:30Z</time>
      </trkpt>
      <trkpt lat="49.01683" lon="2.03096">
        <ele>74.1</ele>
        <time>2022-04-18T14:24:36Z</time>
      </trkpt>
      <trkpt lat="49.01682" lon="2.03106">
        <ele>73.5</ele>
        <time>2022-04-18T14:24:41Z</time>
      </trkpt>
      <trkpt lat="49.01682" lon="2.03111">
        <ele>73.4</ele>
        <time>2022-04-18T14:24:46Z</time>
      </trkpt>
      <trkpt lat="49.01685" lon="2.03116">
        <ele>74</ele>
        <time>2022-04-18T14:24:52Z</time>
      </trkpt>
      <trkpt lat="49.01689" lon="2.03118">
        <ele>74.7</ele>
        <time>2022-04-18T14:24:57Z</time>
      </trkpt>
      <trkpt lat="49.01695" lon="2.03119">
        <ele>76</ele>
        <time>2022-04-18T14:25:03Z</time>
      </trkpt>
      <trkpt lat="49.01703" lon="2.03121">
        <ele>76.8</ele>
        <time>2022-04-18T14:25:08Z</time>
      </trkpt>
      <trkpt lat="49.01714" lon="2.03123">
        <ele>77.8</ele>
        <time>2022-04-18T14:25:14Z</time>
      </trkpt>
      <trkpt lat="49.01722" lon="2.03129">
        <ele>78.3</ele>
        <time>2022-04-18T14:25:20Z</time>
      </trkpt>
      <trkpt lat="49.01727" lon="2.03137">
        <ele>78.1</ele>
        <time>2022-04-18T14:25:25Z</time>
      </trkpt>
      <trkpt lat="49.01732" lon="2.03147">
        <ele>78</ele>
        <time>2022-04-18T14:25:31Z</time>
      </trkpt>
      <trkpt lat="49.01737" lon="2.03159">
        <ele>78</ele>
        <time>2022-04-18T14:25:37Z</time>
      </trkpt>
      <trkpt lat="49.0174" lon="2.03171">
        <ele>77.8</ele>
        <time>2022-04-18T14:25:42Z</time>
      </trkpt>
      <trkpt lat="49.01744" lon="2.03187">
        <ele>77.1</ele>
        <time>2022-04-18T14:25:47Z</time>
      </trkpt>
      <trkpt lat="49.01747" lon="2.03192">
        <ele>77</ele>
        <time>2022-04-18T14:25:52Z</time>
      </trkpt>
      <trkpt lat="49.01749" lon="2.03199">
        <ele>76.8</ele>
        <time>2022-04-18T14:25:57Z</time>
      </trkpt>
      <trkpt lat="49.01754" lon="2.03209">
        <ele>76.3</ele>
        <time>2022-04-18T14:26:03Z</time>
      </trkpt>
      <trkpt lat="49.01762" lon="2.0322">
        <ele>75.7</ele>
        <time>2022-04-18T14:26:09Z</time>
      </trkpt>
      <trkpt lat="49.01769" lon="2.03225">
        <ele>74.9</ele>
        <time>2022-04-18T14:26:15Z</time>
      </trkpt>
      <trkpt lat="49.01775" lon="2.03228">
        <ele>74.1</ele>
        <time>2022-04-18T14:26:21Z</time>
      </trkpt>
      <trkpt lat="49.01775" lon="2.0323">
        <ele>73.7</ele>
        <time>2022-04-18T14:26:26Z</time>
      </trkpt>
      <trkpt lat="49.01776" lon="2.03235">
        <ele>72.7</ele>
        <time>2022-04-18T14:26:31Z</time>
      </trkpt>
      <trkpt lat="49.01776" lon="2.03242">
        <ele>71.6</ele>
        <time>2022-04-18T14:26:37Z</time>
      </trkpt>
      <trkpt lat="49.01776" lon="2.03248">
        <ele>70.5</ele>
        <time>2022-04-18T14:26:42Z</time>
      </trkpt>
      <trkpt lat="49.01776" lon="2.03256">
        <ele>68.4</ele>
        <time>2022-04-18T14:26:48Z</time>
      </trkpt>
      <trkpt lat="49.01776" lon="2.03267">
        <ele>65.3</ele>
        <time>2022-04-18T14:26:54Z</time>
      </trkpt>
      <trkpt lat="49.01775" lon="2.03272">
        <ele>63.8</ele>
        <time>2022-04-18T14:26:59Z</time>
      </trkpt>
      <trkpt lat="49.01774" lon="2.03279">
        <ele>61.9</ele>
        <time>2022-04-18T14:27:05Z</time>
      </trkpt>
      <trkpt lat="49.01772" lon="2.03283">
        <ele>60.8</ele>
        <time>2022-04-18T14:27:10Z</time>
      </trkpt>
      <trkpt lat="49.01771" lon="2.0329">
        <ele>59.1</ele>
        <time>2022-04-18T14:27:15Z</time>
      </trkpt>
      <trkpt lat="49.01773" lon="2.03299">
        <ele>56.7</ele>
        <time>2022-04-18T14:27:21Z</time>
      </trkpt>
      <trkpt lat="49.01775" lon="2.03305">
        <ele>55</ele>
        <time>2022-04-18T14:27:26Z</time>
      </trkpt>
      <trkpt lat="49.01779" lon="2.03312">
        <ele>54</ele>
        <time>2022-04-18T14:27:32Z</time>
      </trkpt>
      <trkpt lat="49.01781" lon="2.03318">
        <ele>53.2</ele>
        <time>2022-04-18T14:27:37Z</time>
      </trkpt>
      <trkpt lat="49.01783" lon="2.03324">
        <ele>52.5</ele>
        <time>2022-04-18T14:27:42Z</time>
      </trkpt>
      <trkpt lat="49.01787" lon="2.03329">
        <ele>52.2</ele>
        <time>2022-04-18T14:27:48Z</time>
      </trkpt>
      <trkpt lat="49.01792" lon="2.03331">
        <ele>52.3</ele>
        <time>2022-04-18T14:27:53Z</time>
      </trkpt>
      <trkpt lat="49.01798" lon="2.0333">
        <ele>52.6</ele>
        <time>2022-04-18T14:27:59Z</time>
      </trkpt>
      <trkpt lat="49.018" lon="2.03323">
        <ele>53.2</ele>
        <time>2022-04-18T14:28:05Z</time>
      </trkpt>
      <trkpt lat="49.01801" lon="2.03312">
        <ele>53.8</ele>
        <time>2022-04-18T14:28:10Z</time>
      </trkpt>
      <trkpt lat="49.01803" lon="2.033">
        <ele>54.6</ele>
        <time>2022-04-18T14:28:16Z</time>
      </trkpt>
      <trkpt lat="49.01804" lon="2.03288">
        <ele>55.5</ele>
        <time>2022-04-18T14:28:22Z</time>
      </trkpt>
      <trkpt lat="49.01806" lon="2.03277">
        <ele>56.1</ele>
        <time>2022-04-18T14:28:28Z</time>
      </trkpt>
      <trkpt lat="49.01807" lon="2.03269">
        <ele>57.8</ele>
        <time>2022-04-18T14:28:33Z</time>
      </trkpt>
      <trkpt lat="49.01811" lon="2.0326">
        <ele>59.4</ele>
        <time>2022-04-18T14:28:39Z</time>
      </trkpt>
      <trkpt lat="49.01815" lon="2.03245">
        <ele>61.5</ele>
        <time>2022-04-18T14:28:45Z</time>
      </trkpt>
      <trkpt lat="49.01818" lon="2.03236">
        <ele>62.7</ele>
        <time>2022-04-18T14:28:50Z</time>
      </trkpt>
      <trkpt lat="49.01821" lon="2.03226">
        <ele>63.5</ele>
        <time>2022-04-18T14:28:55Z</time>
      </trkpt>
      <trkpt lat="49.01825" lon="2.03215">
        <ele>63.7</ele>
        <time>2022-04-18T14:29:01Z</time>
      </trkpt>
      <trkpt lat="49.01827" lon="2.03204">
        <ele>63.7</ele>
        <time>2022-04-18T14:29:06Z</time>
      </trkpt>
      <trkpt lat="49.01829" lon="2.03192">
        <ele>63.7</ele>
        <time>2022-04-18T14:29:12Z</time>
      </trkpt>
      <trkpt lat="49.01831" lon="2.03183">
        <ele>63.6</ele>
        <time>2022-04-18T14:29:17Z</time>
      </trkpt>
      <trkpt lat="49.01833" lon="2.03174">
        <ele>63.6</ele>
        <time>2022-04-18T14:29:22Z</time>
      </trkpt>
      <trkpt lat="49.01834" lon="2.03164">
        <ele>64.4</ele>
        <time>2022-04-18T14:29:28Z</time>
      </trkpt>
      <trkpt lat="49.01835" lon="2.03155">
        <ele>65.2</ele>
        <time>2022-04-18T14:29:33Z</time>
      </trkpt>
      <trkpt lat="49.01837" lon="2.03144">
        <ele>66.4</ele>
        <time>2022-04-18T14:29:39Z</time>
      </trkpt>
      <trkpt lat="49.01839" lon="2.03134">
        <ele>68</ele>
        <time>2022-04-18T14:29:45Z</time>
      </trkpt>
      <trkpt lat="49.01842" lon="2.03123">
        <ele>70.1</ele>
        <time>2022-04-18T14:29:51Z</time>
      </trkpt>
      <trkpt lat="49.01845" lon="2.03111">
        <ele>71.9</ele>
        <time>2022-04-18T14:29:57Z</time>
      </trkpt>
      <trkpt lat="49.01848" lon="2.031">
        <ele>72.8</ele>
        <time>2022-04-18T14:30:03Z</time>
      </trkpt>
      <trkpt lat="49.0185" lon="2.03091">
        <ele>73.5</ele>
        <time>2022-04-18T14:30:08Z</time>
      </trkpt>
      <trkpt lat="49.01851" lon="2.0308">
        <ele>74.2</ele>
        <time>2022-04-18T14:30:13Z</time>
      </trkpt>
      <trkpt lat="49.01851" lon="2.03067">
        <ele>74.8</ele>
        <time>2022-04-18T14:30:19Z</time>
      </trkpt>
      <trkpt lat="49.01852" lon="2.03056">
        <ele>75.3</ele>
        <time>2022-04-18T14:30:24Z</time>
      </trkpt>
      <trkpt lat="49.01852" lon="2.03042">
        <ele>75.8</ele>
        <time>2022-04-18T14:30:30Z</time>
      </trkpt>
      <trkpt lat="49.01854" lon="2.03031">
        <ele>76.2</ele>
        <time>2022-04-18T14:30:36Z</time>
      </trkpt>
      <trkpt lat="49.01855" lon="2.0302">
        <ele>76.5</ele>
        <time>2022-04-18T14:30:41Z</time>
      </trkpt>
      <trkpt lat="49.01857" lon="2.03011">
        <ele>76.8</ele>
        <time>2022-04-18T14:30:46Z</time>
      </trkpt>
      <trkpt lat="49.0186" lon="2.03">
        <ele>77</ele>
        <time>2022-04-18T14:30:51Z</time>
      </trkpt>
      <trkpt lat="49.01863" lon="2.02991">
        <ele>77.5</ele>
        <time>2022-04-18T14:30:56Z</time>
      </trkpt>
      <trkpt lat="49.01866" lon="2.0298">
        <ele>78</ele>
        <time>2022-04-18T14:31:02Z</time>
      </trkpt>
      <trkpt lat="49.01869" lon="2.02973">
        <ele>78.3</ele>
        <time>2022-04-18T14:31:07Z</time>
      </trkpt>
      <trkpt lat="49.0187" lon="2.02974">
        <ele>78.3</ele>
        <time>2022-04-18T14:31:13Z</time>
      </trkpt>
      <trkpt lat="49.0187" lon="2.02977">
        <ele>78.2</ele>
        <time>2022-04-18T14:31:18Z</time>
      </trkpt>
      <trkpt lat="49.0187" lon="2.02981">
        <ele>78.2</ele>
        <time>2022-04-18T14:31:23Z</time>
      </trkpt>
      <trkpt lat="49.0187" lon="2.02983">
        <ele>78.2</ele>
        <time>2022-04-18T14:31:29Z</time>
      </trkpt>
      <trkpt lat="49.0187" lon="2.02982">
        <ele>78.2</ele>
        <time>2022-04-18T14:31:35Z</time>
      </trkpt>
      <trkpt lat="49.0187" lon="2.02982">
        <ele>78.2</ele>
        <time>2022-04-18T14:31:41Z</time>
      </trkpt>
      <trkpt lat="49.0187" lon="2.02981">
        <ele>78.2</ele>
        <time>2022-04-18T14:31:46Z</time>
      </trkpt>
      <trkpt lat="49.0187" lon="2.02982">
        <ele>78.2</ele>
        <time>2022-04-18T14:31:52Z</time>
      </trkpt>
      <trkpt lat="49.0187" lon="2.02983">
        <ele>78.2</ele>
        <time>2022-04-18T14:31:58Z</time>
      </trkpt>
      <trkpt lat="49.01871" lon="2.02986">
        <ele>78.2</ele>
        <time>2022-04-18T14:32:03Z</time>
      </trkpt>
      <trkpt lat="49.01871" lon="2.02988">
        <ele>78.2</ele>
        <time>2022-04-18T14:32:09Z</time>
      </trkpt>
      <trkpt lat="49.0187" lon="2.02988">
        <ele>78.1</ele>
        <time>2022-04-18T14:32:15Z</time>
      </trkpt>
      <trkpt lat="49.01869" lon="2.02988">
        <ele>78.1</ele>
        <time>2022-04-18T14:32:20Z</time>
      </trkpt>
      <trkpt lat="49.0187" lon="2.02991">
        <ele>78.1</ele>
        <time>2022-04-18T14:32:26Z</time>
      </trkpt>
      <trkpt lat="49.01871" lon="2.02999">
        <ele>78.1</ele>
        <time>2022-04-18T14:32:32Z</time>
      </trkpt>
      <trkpt lat="49.01871" lon="2.0301">
        <ele>77.7</ele>
        <time>2022-04-18T14:32:37Z</time>
      </trkpt>
      <trkpt lat="49.01872" lon="2.0302">
        <ele>77.4</ele>
        <time>2022-04-18T14:32:42Z</time>
      </trkpt>
      <trkpt lat="49.01872" lon="2.03032">
        <ele>77</ele>
        <time>2022-04-18T14:32:47Z</time>
      </trkpt>
      <trkpt lat="49.01873" lon="2.03041">
        <ele>76.8</ele>
        <time>2022-04-18T14:32:52Z</time>
      </trkpt>
      <trkpt lat="49.01874" lon="2.03049">
        <ele>76.6</ele>
        <time>2022-04-18T14:32:57Z</time>
      </trkpt>
      <trkpt lat="49.01876" lon="2.03059">
        <ele>76.5</ele>
        <time>2022-04-18T14:33:03Z</time>
      </trkpt>
      <trkpt lat="49.01877" lon="2.03069">
        <ele>76.5</ele>
        <time>2022-04-18T14:33:08Z</time>
      </trkpt>
      <trkpt lat="49.01879" lon="2.03083">
        <ele>76.6</ele>
        <time>2022-04-18T14:33:14Z</time>
      </trkpt>
      <trkpt lat="49.0188" lon="2.03096">
        <ele>76.6</ele>
        <time>2022-04-18T14:33:20Z</time>
      </trkpt>
      <trkpt lat="49.01882" lon="2.03108">
        <ele>76.7</ele>
        <time>2022-04-18T14:33:25Z</time>
      </trkpt>
      <trkpt lat="49.01882" lon="2.03122">
        <ele>76.4</ele>
        <time>2022-04-18T14:33:31Z</time>
      </trkpt>
      <trkpt lat="49.01882" lon="2.03134">
        <ele>76</ele>
        <time>2022-04-18T14:33:36Z</time>
      </trkpt>
      <trkpt lat="49.01881" lon="2.03149">
        <ele>75.6</ele>
        <time>2022-04-18T14:33:42Z</time>
      </trkpt>
      <trkpt lat="49.01881" lon="2.03163">
        <ele>75.4</ele>
        <time>2022-04-18T14:33:48Z</time>
      </trkpt>
      <trkpt lat="49.0188" lon="2.03174">
        <ele>75.1</ele>
        <time>2022-04-18T14:33:53Z</time>
      </trkpt>
      <trkpt lat="49.0188" lon="2.03187">
        <ele>74.8</ele>
        <time>2022-04-18T14:33:59Z</time>
      </trkpt>
      <trkpt lat="49.01879" lon="2.03197">
        <ele>74.4</ele>
        <time>2022-04-18T14:34:04Z</time>
      </trkpt>
      <trkpt lat="49.01878" lon="2.03208">
        <ele>74.1</ele>
        <time>2022-04-18T14:34:09Z</time>
      </trkpt>
      <trkpt lat="49.01879" lon="2.03217">
        <ele>73.9</ele>
        <time>2022-04-18T14:34:15Z</time>
      </trkpt>
      <trkpt lat="49.01878" lon="2.0323">
        <ele>73.8</ele>
        <time>2022-04-18T14:34:21Z</time>
      </trkpt>
      <trkpt lat="49.01877" lon="2.03241">
        <ele>73.7</ele>
        <time>2022-04-18T14:34:27Z</time>
      </trkpt>
      <trkpt lat="49.01876" lon="2.03252">
        <ele>73.6</ele>
        <time>2022-04-18T14:34:32Z</time>
      </trkpt>
      <trkpt lat="49.01874" lon="2.03261">
        <ele>73.3</ele>
        <time>2022-04-18T14:34:38Z</time>
      </trkpt>
      <trkpt lat="49.01873" lon="2.0327">
        <ele>73.1</ele>
        <time>2022-04-18T14:34:44Z</time>
      </trkpt>
      <trkpt lat="49.01872" lon="2.03277">
        <ele>73</ele>
        <time>2022-04-18T14:34:49Z</time>
      </trkpt>
      <trkpt lat="49.01872" lon="2.03286">
        <ele>73.4</ele>
        <time>2022-04-18T14:34:55Z</time>
      </trkpt>
      <trkpt lat="49.01875" lon="2.03298">
        <ele>74.2</ele>
        <time>2022-04-18T14:35:01Z</time>
      </trkpt>
      <trkpt lat="49.01878" lon="2.03309">
        <ele>74.9</ele>
        <time>2022-04-18T14:35:06Z</time>
      </trkpt>
      <trkpt lat="49.01879" lon="2.03319">
        <ele>75.3</ele>
        <time>2022-04-18T14:35:11Z</time>
      </trkpt>
      <trkpt lat="49.01877" lon="2.03333">
        <ele>75.5</ele>
        <time>2022-04-18T14:35:16Z</time>
      </trkpt>
      <trkpt lat="49.01879" lon="2.03346">
        <ele>74.9</ele>
        <time>2022-04-18T14:35:22Z</time>
      </trkpt>
      <trkpt lat="49.0188" lon="2.03352">
        <ele>74.5</ele>
        <time>2022-04-18T14:35:27Z</time>
      </trkpt>
      <trkpt lat="49.0188" lon="2.0336">
        <ele>74.1</ele>
        <time>2022-04-18T14:35:33Z</time>
      </trkpt>
      <trkpt lat="49.01882" lon="2.03368">
        <ele>74.1</ele>
        <time>2022-04-18T14:35:38Z</time>
      </trkpt>
      <trkpt lat="49.01888" lon="2.03377">
        <ele>74.8</ele>
        <time>2022-04-18T14:35:43Z</time>
      </trkpt>
      <trkpt lat="49.01892" lon="2.03386">
        <ele>75.1</ele>
        <time>2022-04-18T14:35:48Z</time>
      </trkpt>
      <trkpt lat="49.01897" lon="2.03398">
        <ele>74.5</ele>
        <time>2022-04-18T14:35:54Z</time>
      </trkpt>
      <trkpt lat="49.019" lon="2.03407">
        <ele>73.9</ele>
        <time>2022-04-18T14:36:00Z</time>
      </trkpt>
      <trkpt lat="49.01901" lon="2.03415">
        <ele>73.4</ele>
        <time>2022-04-18T14:36:06Z</time>
      </trkpt>
      <trkpt lat="49.01904" lon="2.03424">
        <ele>72.4</ele>
        <time>2022-04-18T14:36:11Z</time>
      </trkpt>
      <trkpt lat="49.0191" lon="2.03436">
        <ele>72.6</ele>
        <time>2022-04-18T14:36:17Z</time>
      </trkpt>
      <trkpt lat="49.01917" lon="2.03447">
        <ele>74.9</ele>
        <time>2022-04-18T14:36:23Z</time>
      </trkpt>
      <trkpt lat="49.01921" lon="2.03457">
        <ele>74.7</ele>
        <time>2022-04-18T14:36:28Z</time>
      </trkpt>
      <trkpt lat="49.01924" lon="2.03469">
        <ele>74.4</ele>
        <time>2022-04-18T14:36:34Z</time>
      </trkpt>
      <trkpt lat="49.01926" lon="2.03479">
        <ele>73.6</ele>
        <time>2022-04-18T14:36:40Z</time>
      </trkpt>
      <trkpt lat="49.01929" lon="2.03488">
        <ele>73</ele>
        <time>2022-04-18T14:36:45Z</time>
      </trkpt>
      <trkpt lat="49.01932" lon="2.03505">
        <ele>71.8</ele>
        <time>2022-04-18T14:36:51Z</time>
      </trkpt>
      <trkpt lat="49.01933" lon="2.03517">
        <ele>71</ele>
        <time>2022-04-18T14:36:56Z</time>
      </trkpt>
      <trkpt lat="49.01935" lon="2.03531">
        <ele>70.3</ele>
        <time>2022-04-18T14:37:02Z</time>
      </trkpt>
      <trkpt lat="49.01938" lon="2.03545">
        <ele>70.4</ele>
        <time>2022-04-18T14:37:07Z</time>
      </trkpt>
      <trkpt lat="49.01943" lon="2.03557">
        <ele>71.3</ele>
        <time>2022-04-18T14:37:13Z</time>
      </trkpt>
      <trkpt lat="49.01947" lon="2.03562">
        <ele>72.1</ele>
        <time>2022-04-18T14:37:18Z</time>
      </trkpt>
      <trkpt lat="49.01951" lon="2.0357">
        <ele>72.2</ele>
        <time>2022-04-18T14:37:24Z</time>
      </trkpt>
      <trkpt lat="49.01955" lon="2.0358">
        <ele>72.2</ele>
        <time>2022-04-18T14:37:30Z</time>
      </trkpt>
      <trkpt lat="49.01958" lon="2.03593">
        <ele>71.4</ele>
        <time>2022-04-18T14:37:35Z</time>
      </trkpt>
      <trkpt lat="49.01959" lon="2.03608">
        <ele>69.9</ele>
        <time>2022-04-18T14:37:41Z</time>
      </trkpt>
      <trkpt lat="49.01962" lon="2.03619">
        <ele>69.4</ele>
        <time>2022-04-18T14:37:46Z</time>
      </trkpt>
      <trkpt lat="49.01963" lon="2.03632">
        <ele>68.6</ele>
        <time>2022-04-18T14:37:52Z</time>
      </trkpt>
      <trkpt lat="49.01964" lon="2.0364">
        <ele>68.1</ele>
        <time>2022-04-18T14:37:57Z</time>
      </trkpt>
      <trkpt lat="49.01969" lon="2.03648">
        <ele>69.1</ele>
        <time>2022-04-18T14:38:03Z</time>
      </trkpt>
      <trkpt lat="49.01977" lon="2.03658">
        <ele>69.5</ele>
        <time>2022-04-18T14:38:09Z</time>
      </trkpt>
      <trkpt lat="49.0198" lon="2.0367">
        <ele>68.5</ele>
        <time>2022-04-18T14:38:15Z</time>
      </trkpt>
      <trkpt lat="49.01985" lon="2.0368">
        <ele>68.1</ele>
        <time>2022-04-18T14:38:21Z</time>
      </trkpt>
      <trkpt lat="49.01992" lon="2.0369">
        <ele>68.5</ele>
        <time>2022-04-18T14:38:26Z</time>
      </trkpt>
      <trkpt lat="49.01998" lon="2.03697">
        <ele>69.2</ele>
        <time>2022-04-18T14:38:31Z</time>
      </trkpt>
      <trkpt lat="49.02002" lon="2.03704">
        <ele>69.2</ele>
        <time>2022-04-18T14:38:36Z</time>
      </trkpt>
      <trkpt lat="49.02006" lon="2.03716">
        <ele>68.5</ele>
        <time>2022-04-18T14:38:42Z</time>
      </trkpt>
      <trkpt lat="49.02011" lon="2.03725">
        <ele>68.2</ele>
        <time>2022-04-18T14:38:47Z</time>
      </trkpt>
      <trkpt lat="49.02014" lon="2.03735">
        <ele>67.7</ele>
        <time>2022-04-18T14:38:53Z</time>
      </trkpt>
      <trkpt lat="49.02018" lon="2.03745">
        <ele>67.7</ele>
        <time>2022-04-18T14:38:58Z</time>
      </trkpt>
      <trkpt lat="49.02023" lon="2.03757">
        <ele>68.2</ele>
        <time>2022-04-18T14:39:04Z</time>
      </trkpt>
      <trkpt lat="49.02024" lon="2.03764">
        <ele>67.8</ele>
        <time>2022-04-18T14:39:10Z</time>
      </trkpt>
      <trkpt lat="49.02024" lon="2.03775">
        <ele>67</ele>
        <time>2022-04-18T14:39:15Z</time>
      </trkpt>
      <trkpt lat="49.02022" lon="2.03787">
        <ele>65.5</ele>
        <time>2022-04-18T14:39:21Z</time>
      </trkpt>
      <trkpt lat="49.02023" lon="2.03799">
        <ele>64.5</ele>
        <time>2022-04-18T14:39:26Z</time>
      </trkpt>
      <trkpt lat="49.02024" lon="2.03807">
        <ele>64.2</ele>
        <time>2022-04-18T14:39:32Z</time>
      </trkpt>
      <trkpt lat="49.02025" lon="2.03814">
        <ele>63.6</ele>
        <time>2022-04-18T14:39:37Z</time>
      </trkpt>
      <trkpt lat="49.02027" lon="2.03821">
        <ele>62.8</ele>
        <time>2022-04-18T14:39:43Z</time>
      </trkpt>
      <trkpt lat="49.02027" lon="2.03829">
        <ele>61.5</ele>
        <time>2022-04-18T14:39:49Z</time>
      </trkpt>
      <trkpt lat="49.02027" lon="2.03834">
        <ele>60.7</ele>
        <time>2022-04-18T14:39:54Z</time>
      </trkpt>
      <trkpt lat="49.02027" lon="2.03841">
        <ele>59.7</ele>
        <time>2022-04-18T14:40:00Z</time>
      </trkpt>
      <trkpt lat="49.02027" lon="2.03848">
        <ele>58.8</ele>
        <time>2022-04-18T14:40:05Z</time>
      </trkpt>
      <trkpt lat="49.02027" lon="2.03859">
        <ele>57.1</ele>
        <time>2022-04-18T14:40:11Z</time>
      </trkpt>
      <trkpt lat="49.02027" lon="2.03867">
        <ele>56</ele>
        <time>2022-04-18T14:40:17Z</time>
      </trkpt>
      <trkpt lat="49.02026" lon="2.03876">
        <ele>54.5</ele>
        <time>2022-04-18T14:40:22Z</time>
      </trkpt>
      <trkpt lat="49.02024" lon="2.03884">
        <ele>53.1</ele>
        <time>2022-04-18T14:40:27Z</time>
      </trkpt>
      <trkpt lat="49.02023" lon="2.03889">
        <ele>52.3</ele>
        <time>2022-04-18T14:40:33Z</time>
      </trkpt>
      <trkpt lat="49.02022" lon="2.03891">
        <ele>52</ele>
        <time>2022-04-18T14:40:38Z</time>
      </trkpt>
      <trkpt lat="49.02023" lon="2.03894">
        <ele>51.7</ele>
        <time>2022-04-18T14:40:44Z</time>
      </trkpt>
      <trkpt lat="49.02023" lon="2.03894">
        <ele>51.7</ele>
        <time>2022-04-18T14:40:49Z</time>
      </trkpt>
      <trkpt lat="49.02023" lon="2.03894">
        <ele>51.8</ele>
        <time>2022-04-18T14:40:55Z</time>
      </trkpt>
      <trkpt lat="49.02024" lon="2.03893">
        <ele>51.9</ele>
        <time>2022-04-18T14:41:01Z</time>
      </trkpt>
      <trkpt lat="49.02025" lon="2.03892">
        <ele>52.2</ele>
        <time>2022-04-18T14:41:06Z</time>
      </trkpt>
      <trkpt lat="49.02025" lon="2.03891">
        <ele>52.4</ele>
        <time>2022-04-18T14:41:12Z</time>
      </trkpt>
      <trkpt lat="49.02024" lon="2.0389">
        <ele>52.4</ele>
        <time>2022-04-18T14:41:17Z</time>
      </trkpt>
      <trkpt lat="49.02023" lon="2.03892">
        <ele>52</ele>
        <time>2022-04-18T14:41:23Z</time>
      </trkpt>
      <trkpt lat="49.02023" lon="2.03892">
        <ele>52</ele>
        <time>2022-04-18T14:41:29Z</time>
      </trkpt>
      <trkpt lat="49.02023" lon="2.03892">
        <ele>52</ele>
        <time>2022-04-18T14:41:35Z</time>
      </trkpt>
      <trkpt lat="49.02023" lon="2.03891">
        <ele>52.1</ele>
        <time>2022-04-18T14:41:41Z</time>
      </trkpt>
      <trkpt lat="49.02023" lon="2.03891">
        <ele>52.1</ele>
        <time>2022-04-18T14:41:46Z</time>
      </trkpt>
      <trkpt lat="49.02023" lon="2.03896">
        <ele>51.5</ele>
        <time>2022-04-18T14:41:52Z</time>
      </trkpt>
      <trkpt lat="49.02021" lon="2.03903">
        <ele>50.6</ele>
        <time>2022-04-18T14:41:58Z</time>
      </trkpt>
      <trkpt lat="49.02021" lon="2.03908">
        <ele>50</ele>
        <time>2022-04-18T14:42:03Z</time>
      </trkpt>
      <trkpt lat="49.02022" lon="2.03917">
        <ele>49.2</ele>
        <time>2022-04-18T14:42:09Z</time>
      </trkpt>
      <trkpt lat="49.02023" lon="2.03925">
        <ele>48.4</ele>
        <time>2022-04-18T14:42:15Z</time>
      </trkpt>
      <trkpt lat="49.02022" lon="2.03936">
        <ele>47.3</ele>
        <time>2022-04-18T14:42:21Z</time>
      </trkpt>
      <trkpt lat="49.02021" lon="2.03945">
        <ele>46.2</ele>
        <time>2022-04-18T14:42:26Z</time>
      </trkpt>
      <trkpt lat="49.02021" lon="2.03951">
        <ele>45.5</ele>
        <time>2022-04-18T14:42:31Z</time>
      </trkpt>
      <trkpt lat="49.02022" lon="2.03959">
        <ele>44.9</ele>
        <time>2022-04-18T14:42:37Z</time>
      </trkpt>
      <trkpt lat="49.02022" lon="2.03968">
        <ele>44</ele>
        <time>2022-04-18T14:42:43Z</time>
      </trkpt>
      <trkpt lat="49.02021" lon="2.03976">
        <ele>43.2</ele>
        <time>2022-04-18T14:42:48Z</time>
      </trkpt>
      <trkpt lat="49.02018" lon="2.03985">
        <ele>42.2</ele>
        <time>2022-04-18T14:42:54Z</time>
      </trkpt>
      <trkpt lat="49.02015" lon="2.03995">
        <ele>41</ele>
        <time>2022-04-18T14:43:00Z</time>
      </trkpt>
      <trkpt lat="49.02013" lon="2.04">
        <ele>40.5</ele>
        <time>2022-04-18T14:43:05Z</time>
      </trkpt>
      <trkpt lat="49.02013" lon="2.04">
        <ele>40.4</ele>
        <time>2022-04-18T14:43:11Z</time>
      </trkpt>
      <trkpt lat="49.02013" lon="2.04">
        <ele>40.4</ele>
        <time>2022-04-18T14:43:16Z</time>
      </trkpt>
      <trkpt lat="49.02013" lon="2.04">
        <ele>40.4</ele>
        <time>2022-04-18T14:43:22Z</time>
      </trkpt>
      <trkpt lat="49.02013" lon="2.04">
        <ele>40.4</ele>
        <time>2022-04-18T14:43:27Z</time>
      </trkpt>
      <trkpt lat="49.02013" lon="2.04">
        <ele>40.5</ele>
        <time>2022-04-18T14:43:33Z</time>
      </trkpt>
      <trkpt lat="49.02014" lon="2.03999">
        <ele>40.6</ele>
        <time>2022-04-18T14:43:39Z</time>
      </trkpt>
      <trkpt lat="49.02014" lon="2.03998">
        <ele>40.7</ele>
        <time>2022-04-18T14:43:45Z</time>
      </trkpt>
      <trkpt lat="49.02014" lon="2.03998">
        <ele>40.7</ele>
        <time>2022-04-18T14:43:51Z</time>
      </trkpt>
      <trkpt lat="49.02014" lon="2.03998">
        <ele>40.8</ele>
        <time>2022-04-18T14:43:56Z</time>
      </trkpt>
      <trkpt lat="49.02015" lon="2.03997">
        <ele>40.9</ele>
        <time>2022-04-18T14:44:02Z</time>
      </trkpt>
      <trkpt lat="49.02016" lon="2.03996">
        <ele>41</ele>
        <time>2022-04-18T14:44:07Z</time>
      </trkpt>
      <trkpt lat="49.02016" lon="2.03995">
        <ele>41.1</ele>
        <time>2022-04-18T14:44:13Z</time>
      </trkpt>
      <trkpt lat="49.02016" lon="2.03995">
        <ele>41.1</ele>
        <time>2022-04-18T14:44:18Z</time>
      </trkpt>
      <trkpt lat="49.02015" lon="2.03994">
        <ele>41.2</ele>
        <time>2022-04-18T14:44:23Z</time>
      </trkpt>
      <trkpt lat="49.02014" lon="2.03993">
        <ele>41.2</ele>
        <time>2022-04-18T14:44:28Z</time>
      </trkpt>
      <trkpt lat="49.02014" lon="2.03993">
        <ele>41.1</ele>
        <time>2022-04-18T14:44:34Z</time>
      </trkpt>
      <trkpt lat="49.02015" lon="2.03996">
        <ele>41</ele>
        <time>2022-04-18T14:44:40Z</time>
      </trkpt>
      <trkpt lat="49.02017" lon="2.03999">
        <ele>40.9</ele>
        <time>2022-04-18T14:44:46Z</time>
      </trkpt>
      <trkpt lat="49.02018" lon="2.04001">
        <ele>40.8</ele>
        <time>2022-04-18T14:44:51Z</time>
      </trkpt>
      <trkpt lat="49.02018" lon="2.04001">
        <ele>40.9</ele>
        <time>2022-04-18T14:44:56Z</time>
      </trkpt>
      <trkpt lat="49.02017" lon="2.03999">
        <ele>40.9</ele>
        <time>2022-04-18T14:45:02Z</time>
      </trkpt>
      <trkpt lat="49.02015" lon="2.04">
        <ele>40.7</ele>
        <time>2022-04-18T14:45:07Z</time>
      </trkpt>
      <trkpt lat="49.02014" lon="2.04002">
        <ele>40.4</ele>
        <time>2022-04-18T14:45:13Z</time>
      </trkpt>
      <trkpt lat="49.02014" lon="2.04005">
        <ele>40.2</ele>
        <time>2022-04-18T14:45:19Z</time>
      </trkpt>
      <trkpt lat="49.02015" lon="2.04007">
        <ele>40.2</ele>
        <time>2022-04-18T14:45:24Z</time>
      </trkpt>
      <trkpt lat="49.02015" lon="2.04008">
        <ele>40.2</ele>
        <time>2022-04-18T14:45:30Z</time>
      </trkpt>
      <trkpt lat="49.02015" lon="2.04008">
        <ele>40.2</ele>
        <time>2022-04-18T14:45:36Z</time>
      </trkpt>
      <trkpt lat="49.02014" lon="2.04002">
        <ele>40.4</ele>
        <time>2022-04-18T14:45:41Z</time>
      </trkpt>
      <trkpt lat="49.02014" lon="2.04">
        <ele>40.5</ele>
        <time>2022-04-18T14:45:46Z</time>
      </trkpt>
      <trkpt lat="49.02017" lon="2.04002">
        <ele>40.7</ele>
        <time>2022-04-18T14:45:52Z</time>
      </trkpt>
      <trkpt lat="49.02018" lon="2.04002">
        <ele>40.8</ele>
        <time>2022-04-18T14:45:57Z</time>
      </trkpt>
      <trkpt lat="49.02017" lon="2.04001">
        <ele>40.8</ele>
        <time>2022-04-18T14:46:03Z</time>
      </trkpt>
      <trkpt lat="49.02017" lon="2.03998">
        <ele>41.1</ele>
        <time>2022-04-18T14:46:08Z</time>
      </trkpt>
      <trkpt lat="49.02019" lon="2.03995">
        <ele>41.4</ele>
        <time>2022-04-18T14:46:13Z</time>
      </trkpt>
      <trkpt lat="49.02021" lon="2.03996">
        <ele>41.6</ele>
        <time>2022-04-18T14:46:18Z</time>
      </trkpt>
      <trkpt lat="49.02022" lon="2.03997">
        <ele>41.6</ele>
        <time>2022-04-18T14:46:24Z</time>
      </trkpt>
      <trkpt lat="49.02022" lon="2.03997">
        <ele>41.6</ele>
        <time>2022-04-18T14:46:29Z</time>
      </trkpt>
      <trkpt lat="49.02023" lon="2.03998">
        <ele>41.7</ele>
        <time>2022-04-18T14:46:35Z</time>
      </trkpt>
      <trkpt lat="49.02021" lon="2.04">
        <ele>41.2</ele>
        <time>2022-04-18T14:46:40Z</time>
      </trkpt>
      <trkpt lat="49.02009" lon="2.04">
        <ele>40</ele>
        <time>2022-04-18T14:46:46Z</time>
      </trkpt>
      <trkpt lat="49.02001" lon="2.03999">
        <ele>39.2</ele>
        <time>2022-04-18T14:46:51Z</time>
      </trkpt>
      <trkpt lat="49.01993" lon="2.03999">
        <ele>38.3</ele>
        <time>2022-04-18T14:46:57Z</time>
      </trkpt>
      <trkpt lat="49.01985" lon="2.04001">
        <ele>37.4</ele>
        <time>2022-04-18T14:47:02Z</time>
      </trkpt>
      <trkpt lat="49.01975" lon="2.04004">
        <ele>36.2</ele>
        <time>2022-04-18T14:47:08Z</time>
      </trkpt>
      <trkpt lat="49.01966" lon="2.04009">
        <ele>35</ele>
        <time>2022-04-18T14:47:14Z</time>
      </trkpt>
      <trkpt lat="49.01959" lon="2.04019">
        <ele>33.9</ele>
        <time>2022-04-18T14:47:20Z</time>
      </trkpt>
      <trkpt lat="49.01955" lon="2.04028">
        <ele>33.2</ele>
        <time>2022-04-18T14:47:25Z</time>
      </trkpt>
      <trkpt lat="49.01951" lon="2.04037">
        <ele>32.2</ele>
        <time>2022-04-18T14:47:31Z</time>
      </trkpt>
      <trkpt lat="49.01945" lon="2.04048">
        <ele>31.3</ele>
        <time>2022-04-18T14:47:37Z</time>
      </trkpt>
      <trkpt lat="49.01941" lon="2.04056">
        <ele>31.1</ele>
        <time>2022-04-18T14:47:43Z</time>
      </trkpt>
      <trkpt lat="49.01936" lon="2.04065">
        <ele>31.1</ele>
        <time>2022-04-18T14:47:49Z</time>
      </trkpt>
      <trkpt lat="49.01929" lon="2.04077">
        <ele>31.2</ele>
        <time>2022-04-18T14:47:55Z</time>
      </trkpt>
      <trkpt lat="49.01926" lon="2.04088">
        <ele>31.4</ele>
        <time>2022-04-18T14:48:01Z</time>
      </trkpt>
      <trkpt lat="49.01924" lon="2.04099">
        <ele>31.5</ele>
        <time>2022-04-18T14:48:06Z</time>
      </trkpt>
      <trkpt lat="49.01919" lon="2.04108">
        <ele>31.2</ele>
        <time>2022-04-18T14:48:12Z</time>
      </trkpt>
      <trkpt lat="49.01914" lon="2.04117">
        <ele>32.4</ele>
        <time>2022-04-18T14:48:17Z</time>
      </trkpt>
      <trkpt lat="49.0191" lon="2.04124">
        <ele>34.2</ele>
        <time>2022-04-18T14:48:22Z</time>
      </trkpt>
      <trkpt lat="49.01906" lon="2.0413">
        <ele>35.5</ele>
        <time>2022-04-18T14:48:27Z</time>
      </trkpt>
      <trkpt lat="49.019" lon="2.04137">
        <ele>36.5</ele>
        <time>2022-04-18T14:48:33Z</time>
      </trkpt>
      <trkpt lat="49.01895" lon="2.04143">
        <ele>36.9</ele>
        <time>2022-04-18T14:48:38Z</time>
      </trkpt>
      <trkpt lat="49.0189" lon="2.0415">
        <ele>37.3</ele>
        <time>2022-04-18T14:48:44Z</time>
      </trkpt>
      <trkpt lat="49.01884" lon="2.04157">
        <ele>38.1</ele>
        <time>2022-04-18T14:48:50Z</time>
      </trkpt>
      <trkpt lat="49.01879" lon="2.04163">
        <ele>38.7</ele>
        <time>2022-04-18T14:48:55Z</time>
      </trkpt>
      <trkpt lat="49.01873" lon="2.04171">
        <ele>39.1</ele>
        <time>2022-04-18T14:49:01Z</time>
      </trkpt>
      <trkpt lat="49.01868" lon="2.04179">
        <ele>39.4</ele>
        <time>2022-04-18T14:49:07Z</time>
      </trkpt>
      <trkpt lat="49.01863" lon="2.04186">
        <ele>39.8</ele>
        <time>2022-04-18T14:49:12Z</time>
      </trkpt>
      <trkpt lat="49.0186" lon="2.04195">
        <ele>40.2</ele>
        <time>2022-04-18T14:49:17Z</time>
      </trkpt>
      <trkpt lat="49.01856" lon="2.04207">
        <ele>40.7</ele>
        <time>2022-04-18T14:49:23Z</time>
      </trkpt>
      <trkpt lat="49.01851" lon="2.04216">
        <ele>41.2</ele>
        <time>2022-04-18T14:49:29Z</time>
      </trkpt>
      <trkpt lat="49.01847" lon="2.04221">
        <ele>41.5</ele>
        <time>2022-04-18T14:49:34Z</time>
      </trkpt>
      <trkpt lat="49.01841" lon="2.04225">
        <ele>42.1</ele>
        <time>2022-04-18T14:49:40Z</time>
      </trkpt>
      <trkpt lat="49.01834" lon="2.04229">
        <ele>42.7</ele>
        <time>2022-04-18T14:49:45Z</time>
      </trkpt>
      <trkpt lat="49.01827" lon="2.04236">
        <ele>43.5</ele>
        <time>2022-04-18T14:49:51Z</time>
      </trkpt>
      <trkpt lat="49.01819" lon="2.04244">
        <ele>43.9</ele>
        <time>2022-04-18T14:49:57Z</time>
      </trkpt>
      <trkpt lat="49.01814" lon="2.0425">
        <ele>44.1</ele>
        <time>2022-04-18T14:50:03Z</time>
      </trkpt>
      <trkpt lat="49.01808" lon="2.04256">
        <ele>44.3</ele>
        <time>2022-04-18T14:50:09Z</time>
      </trkpt>
      <trkpt lat="49.01801" lon="2.04262">
        <ele>44.7</ele>
        <time>2022-04-18T14:50:14Z</time>
      </trkpt>
      <trkpt lat="49.01796" lon="2.04265">
        <ele>45.1</ele>
        <time>2022-04-18T14:50:20Z</time>
      </trkpt>
      <trkpt lat="49.01787" lon="2.04271">
        <ele>45.3</ele>
        <time>2022-04-18T14:50:26Z</time>
      </trkpt>
      <trkpt lat="49.0178" lon="2.04279">
        <ele>44.8</ele>
        <time>2022-04-18T14:50:32Z</time>
      </trkpt>
      <trkpt lat="49.01773" lon="2.04287">
        <ele>45.3</ele>
        <time>2022-04-18T14:50:38Z</time>
      </trkpt>
      <trkpt lat="49.01766" lon="2.04294">
        <ele>45.8</ele>
        <time>2022-04-18T14:50:43Z</time>
      </trkpt>
      <trkpt lat="49.01762" lon="2.04299">
        <ele>45.8</ele>
        <time>2022-04-18T14:50:48Z</time>
      </trkpt>
      <trkpt lat="49.01756" lon="2.04306">
        <ele>45.5</ele>
        <time>2022-04-18T14:50:54Z</time>
      </trkpt>
      <trkpt lat="49.0175" lon="2.04312">
        <ele>46.1</ele>
        <time>2022-04-18T14:50:59Z</time>
      </trkpt>
      <trkpt lat="49.01742" lon="2.0432">
        <ele>47</ele>
        <time>2022-04-18T14:51:05Z</time>
      </trkpt>
      <trkpt lat="49.01736" lon="2.04325">
        <ele>47.5</ele>
        <time>2022-04-18T14:51:10Z</time>
      </trkpt>
      <trkpt lat="49.01729" lon="2.04332">
        <ele>47.6</ele>
        <time>2022-04-18T14:51:16Z</time>
      </trkpt>
      <trkpt lat="49.01721" lon="2.04343">
        <ele>47.5</ele>
        <time>2022-04-18T14:51:22Z</time>
      </trkpt>
      <trkpt lat="49.01713" lon="2.04354">
        <ele>47.6</ele>
        <time>2022-04-18T14:51:28Z</time>
      </trkpt>
      <trkpt lat="49.01706" lon="2.04364">
        <ele>47.5</ele>
        <time>2022-04-18T14:51:33Z</time>
      </trkpt>
      <trkpt lat="49.017" lon="2.04376">
        <ele>47</ele>
        <time>2022-04-18T14:51:39Z</time>
      </trkpt>
      <trkpt lat="49.01694" lon="2.04384">
        <ele>46.6</ele>
        <time>2022-04-18T14:51:44Z</time>
      </trkpt>
      <trkpt lat="49.01688" lon="2.0439">
        <ele>46.9</ele>
        <time>2022-04-18T14:51:49Z</time>
      </trkpt>
      <trkpt lat="49.01682" lon="2.04397">
        <ele>47.4</ele>
        <time>2022-04-18T14:51:55Z</time>
      </trkpt>
      <trkpt lat="49.01675" lon="2.04406">
        <ele>47.5</ele>
        <time>2022-04-18T14:52:01Z</time>
      </trkpt>
      <trkpt lat="49.0167" lon="2.04414">
        <ele>47.1</ele>
        <time>2022-04-18T14:52:06Z</time>
      </trkpt>
      <trkpt lat="49.01663" lon="2.04424">
        <ele>47</ele>
        <time>2022-04-18T14:52:12Z</time>
      </trkpt>
      <trkpt lat="49.01659" lon="2.04433">
        <ele>46.9</ele>
        <time>2022-04-18T14:52:17Z</time>
      </trkpt>
      <trkpt lat="49.01654" lon="2.04439">
        <ele>46.8</ele>
        <time>2022-04-18T14:52:22Z</time>
      </trkpt>
      <trkpt lat="49.0165" lon="2.04445">
        <ele>46.8</ele>
        <time>2022-04-18T14:52:27Z</time>
      </trkpt>
      <trkpt lat="49.01643" lon="2.04454">
        <ele>47.2</ele>
        <time>2022-04-18T14:52:33Z</time>
      </trkpt>
      <trkpt lat="49.01638" lon="2.04463">
        <ele>47.4</ele>
        <time>2022-04-18T14:52:38Z</time>
      </trkpt>
      <trkpt lat="49.01632" lon="2.04473">
        <ele>47.6</ele>
        <time>2022-04-18T14:52:44Z</time>
      </trkpt>
      <trkpt lat="49.01625" lon="2.04482">
        <ele>47.8</ele>
        <time>2022-04-18T14:52:50Z</time>
      </trkpt>
      <trkpt lat="49.01619" lon="2.04489">
        <ele>48.2</ele>
        <time>2022-04-18T14:52:55Z</time>
      </trkpt>
      <trkpt lat="49.01613" lon="2.04499">
        <ele>48.7</ele>
        <time>2022-04-18T14:53:01Z</time>
      </trkpt>
      <trkpt lat="49.01607" lon="2.04508">
        <ele>48.8</ele>
        <time>2022-04-18T14:53:06Z</time>
      </trkpt>
      <trkpt lat="49.01602" lon="2.04517">
        <ele>48.5</ele>
        <time>2022-04-18T14:53:12Z</time>
      </trkpt>
      <trkpt lat="49.01599" lon="2.04525">
        <ele>48.1</ele>
        <time>2022-04-18T14:53:17Z</time>
      </trkpt>
      <trkpt lat="49.01594" lon="2.04534">
        <ele>47.8</ele>
        <time>2022-04-18T14:53:23Z</time>
      </trkpt>
      <trkpt lat="49.01586" lon="2.04545">
        <ele>47.8</ele>
        <time>2022-04-18T14:53:29Z</time>
      </trkpt>
      <trkpt lat="49.0158" lon="2.04553">
        <ele>47.9</ele>
        <time>2022-04-18T14:53:34Z</time>
      </trkpt>
      <trkpt lat="49.01573" lon="2.04561">
        <ele>48.4</ele>
        <time>2022-04-18T14:53:40Z</time>
      </trkpt>
      <trkpt lat="49.01566" lon="2.04568">
        <ele>49</ele>
        <time>2022-04-18T14:53:46Z</time>
      </trkpt>
      <trkpt lat="49.0156" lon="2.04575">
        <ele>49.1</ele>
        <time>2022-04-18T14:53:51Z</time>
      </trkpt>
      <trkpt lat="49.01556" lon="2.04584">
        <ele>48.9</ele>
        <time>2022-04-18T14:53:56Z</time>
      </trkpt>
      <trkpt lat="49.01552" lon="2.04593">
        <ele>48.9</ele>
        <time>2022-04-18T14:54:02Z</time>
      </trkpt>
      <trkpt lat="49.01548" lon="2.04599">
        <ele>49.3</ele>
        <time>2022-04-18T14:54:08Z</time>
      </trkpt>
      <trkpt lat="49.01543" lon="2.04605">
        <ele>49.7</ele>
        <time>2022-04-18T14:54:14Z</time>
      </trkpt>
      <trkpt lat="49.01539" lon="2.04611">
        <ele>50</ele>
        <time>2022-04-18T14:54:19Z</time>
      </trkpt>
      <trkpt lat="49.01535" lon="2.0462">
        <ele>49.6</ele>
        <time>2022-04-18T14:54:24Z</time>
      </trkpt>
      <trkpt lat="49.0153" lon="2.04628">
        <ele>49.3</ele>
        <time>2022-04-18T14:54:29Z</time>
      </trkpt>
      <trkpt lat="49.01525" lon="2.04637">
        <ele>48.9</ele>
        <time>2022-04-18T14:54:34Z</time>
      </trkpt>
      <trkpt lat="49.0152" lon="2.04647">
        <ele>48.9</ele>
        <time>2022-04-18T14:54:40Z</time>
      </trkpt>
      <trkpt lat="49.01515" lon="2.04658">
        <ele>48.8</ele>
        <time>2022-04-18T14:54:46Z</time>
      </trkpt>
      <trkpt lat="49.01511" lon="2.04667">
        <ele>48.6</ele>
        <time>2022-04-18T14:54:51Z</time>
      </trkpt>
      <trkpt lat="49.01506" lon="2.04679">
        <ele>48.6</ele>
        <time>2022-04-18T14:54:57Z</time>
      </trkpt>
      <trkpt lat="49.01503" lon="2.04689">
        <ele>48.2</ele>
        <time>2022-04-18T14:55:02Z</time>
      </trkpt>
      <trkpt lat="49.01499" lon="2.04699">
        <ele>48</ele>
        <time>2022-04-18T14:55:08Z</time>
      </trkpt>
      <trkpt lat="49.01495" lon="2.04709">
        <ele>48.1</ele>
        <time>2022-04-18T14:55:14Z</time>
      </trkpt>
      <trkpt lat="49.01492" lon="2.04722">
        <ele>48.1</ele>
        <time>2022-04-18T14:55:20Z</time>
      </trkpt>
      <trkpt lat="49.01491" lon="2.04732">
        <ele>47.7</ele>
        <time>2022-04-18T14:55:25Z</time>
      </trkpt>
      <trkpt lat="49.01485" lon="2.04746">
        <ele>47.3</ele>
        <time>2022-04-18T14:55:31Z</time>
      </trkpt>
      <trkpt lat="49.0148" lon="2.04757">
        <ele>46.9</ele>
        <time>2022-04-18T14:55:37Z</time>
      </trkpt>
      <trkpt lat="49.01477" lon="2.04764">
        <ele>46.6</ele>
        <time>2022-04-18T14:55:42Z</time>
      </trkpt>
      <trkpt lat="49.01472" lon="2.04776">
        <ele>46.2</ele>
        <time>2022-04-18T14:55:48Z</time>
      </trkpt>
      <trkpt lat="49.01469" lon="2.04785">
        <ele>46.2</ele>
        <time>2022-04-18T14:55:53Z</time>
      </trkpt>
      <trkpt lat="49.01467" lon="2.04795">
        <ele>46.1</ele>
        <time>2022-04-18T14:55:59Z</time>
      </trkpt>
      <trkpt lat="49.01464" lon="2.04805">
        <ele>45.9</ele>
        <time>2022-04-18T14:56:04Z</time>
      </trkpt>
      <trkpt lat="49.0146" lon="2.04816">
        <ele>45.4</ele>
        <time>2022-04-18T14:56:09Z</time>
      </trkpt>
      <trkpt lat="49.01455" lon="2.04831">
        <ele>44.8</ele>
        <time>2022-04-18T14:56:15Z</time>
      </trkpt>
      <trkpt lat="49.01452" lon="2.0484">
        <ele>44.3</ele>
        <time>2022-04-18T14:56:20Z</time>
      </trkpt>
      <trkpt lat="49.01448" lon="2.0485">
        <ele>43.9</ele>
        <time>2022-04-18T14:56:26Z</time>
      </trkpt>
      <trkpt lat="49.01442" lon="2.04859">
        <ele>43.5</ele>
        <time>2022-04-18T14:56:31Z</time>
      </trkpt>
      <trkpt lat="49.01435" lon="2.04869">
        <ele>43.4</ele>
        <time>2022-04-18T14:56:37Z</time>
      </trkpt>
      <trkpt lat="49.01431" lon="2.04875">
        <ele>43.5</ele>
        <time>2022-04-18T14:56:42Z</time>
      </trkpt>
      <trkpt lat="49.01426" lon="2.04883">
        <ele>43.4</ele>
        <time>2022-04-18T14:56:48Z</time>
      </trkpt>
      <trkpt lat="49.01419" lon="2.04891">
        <ele>43.6</ele>
        <time>2022-04-18T14:56:53Z</time>
      </trkpt>
      <trkpt lat="49.01412" lon="2.049">
        <ele>43.2</ele>
        <time>2022-04-18T14:56:58Z</time>
      </trkpt>
      <trkpt lat="49.01407" lon="2.04911">
        <ele>42.6</ele>
        <time>2022-04-18T14:57:04Z</time>
      </trkpt>
      <trkpt lat="49.01401" lon="2.04917">
        <ele>42.7</ele>
        <time>2022-04-18T14:57:10Z</time>
      </trkpt>
      <trkpt lat="49.01395" lon="2.04923">
        <ele>42.8</ele>
        <time>2022-04-18T14:57:16Z</time>
      </trkpt>
      <trkpt lat="49.0139" lon="2.04934">
        <ele>42.6</ele>
        <time>2022-04-18T14:57:21Z</time>
      </trkpt>
      <trkpt lat="49.01382" lon="2.04946">
        <ele>42.7</ele>
        <time>2022-04-18T14:57:27Z</time>
      </trkpt>
      <trkpt lat="49.01377" lon="2.04956">
        <ele>42.6</ele>
        <time>2022-04-18T14:57:32Z</time>
      </trkpt>
      <trkpt lat="49.0137" lon="2.04965">
        <ele>42.3</ele>
        <time>2022-04-18T14:57:38Z</time>
      </trkpt>
      <trkpt lat="49.01364" lon="2.04972">
        <ele>41.9</ele>
        <time>2022-04-18T14:57:44Z</time>
      </trkpt>
      <trkpt lat="49.01358" lon="2.04983">
        <ele>41.7</ele>
        <time>2022-04-18T14:57:50Z</time>
      </trkpt>
      <trkpt lat="49.01351" lon="2.04995">
        <ele>41.5</ele>
        <time>2022-04-18T14:57:56Z</time>
      </trkpt>
      <trkpt lat="49.01345" lon="2.05003">
        <ele>41.2</ele>
        <time>2022-04-18T14:58:02Z</time>
      </trkpt>
      <trkpt lat="49.01338" lon="2.05007">
        <ele>41.1</ele>
        <time>2022-04-18T14:58:07Z</time>
      </trkpt>
      <trkpt lat="49.01331" lon="2.05018">
        <ele>40.2</ele>
        <time>2022-04-18T14:58:13Z</time>
      </trkpt>
      <trkpt lat="49.01328" lon="2.05028">
        <ele>39.4</ele>
        <time>2022-04-18T14:58:18Z</time>
      </trkpt>
      <trkpt lat="49.01323" lon="2.05034">
        <ele>39.1</ele>
        <time>2022-04-18T14:58:23Z</time>
      </trkpt>
      <trkpt lat="49.01318" lon="2.05043">
        <ele>38.9</ele>
        <time>2022-04-18T14:58:29Z</time>
      </trkpt>
      <trkpt lat="49.01312" lon="2.05054">
        <ele>38.8</ele>
        <time>2022-04-18T14:58:35Z</time>
      </trkpt>
      <trkpt lat="49.01308" lon="2.05061">
        <ele>38.8</ele>
        <time>2022-04-18T14:58:41Z</time>
      </trkpt>
      <trkpt lat="49.013" lon="2.0507">
        <ele>38.4</ele>
        <time>2022-04-18T14:58:47Z</time>
      </trkpt>
      <trkpt lat="49.01295" lon="2.05082">
        <ele>37.7</ele>
        <time>2022-04-18T14:58:53Z</time>
      </trkpt>
      <trkpt lat="49.01291" lon="2.0509">
        <ele>37.8</ele>
        <time>2022-04-18T14:58:58Z</time>
      </trkpt>
      <trkpt lat="49.01286" lon="2.05096">
        <ele>38</ele>
        <time>2022-04-18T14:59:04Z</time>
      </trkpt>
      <trkpt lat="49.01277" lon="2.05107">
        <ele>38.4</ele>
        <time>2022-04-18T14:59:10Z</time>
      </trkpt>
      <trkpt lat="49.0127" lon="2.05116">
        <ele>38.3</ele>
        <time>2022-04-18T14:59:16Z</time>
      </trkpt>
      <trkpt lat="49.01264" lon="2.05124">
        <ele>38.3</ele>
        <time>2022-04-18T14:59:21Z</time>
      </trkpt>
      <trkpt lat="49.01259" lon="2.05132">
        <ele>38.3</ele>
        <time>2022-04-18T14:59:26Z</time>
      </trkpt>
      <trkpt lat="49.01253" lon="2.05141">
        <ele>38.6</ele>
        <time>2022-04-18T14:59:32Z</time>
      </trkpt>
      <trkpt lat="49.01249" lon="2.05148">
        <ele>38.8</ele>
        <time>2022-04-18T14:59:37Z</time>
      </trkpt>
      <trkpt lat="49.01243" lon="2.05154">
        <ele>39</ele>
        <time>2022-04-18T14:59:43Z</time>
      </trkpt>
      <trkpt lat="49.01235" lon="2.05158">
        <ele>39.4</ele>
        <time>2022-04-18T14:59:48Z</time>
      </trkpt>
      <trkpt lat="49.01228" lon="2.05165">
        <ele>39.6</ele>
        <time>2022-04-18T14:59:54Z</time>
      </trkpt>
      <trkpt lat="49.01221" lon="2.05172">
        <ele>39.9</ele>
        <time>2022-04-18T14:59:59Z</time>
      </trkpt>
      <trkpt lat="49.01215" lon="2.05177">
        <ele>40.1</ele>
        <time>2022-04-18T15:00:04Z</time>
      </trkpt>
      <trkpt lat="49.01207" lon="2.05183">
        <ele>40.1</ele>
        <time>2022-04-18T15:00:10Z</time>
      </trkpt>
      <trkpt lat="49.01198" lon="2.05188">
        <ele>39.8</ele>
        <time>2022-04-18T15:00:16Z</time>
      </trkpt>
      <trkpt lat="49.01191" lon="2.05191">
        <ele>39.5</ele>
        <time>2022-04-18T15:00:21Z</time>
      </trkpt>
      <trkpt lat="49.01187" lon="2.05197">
        <ele>38.9</ele>
        <time>2022-04-18T15:00:27Z</time>
      </trkpt>
      <trkpt lat="49.01187" lon="2.05196">
        <ele>38.9</ele>
        <time>2022-04-18T15:00:32Z</time>
      </trkpt>
      <trkpt lat="49.01189" lon="2.05194">
        <ele>39.1</ele>
        <time>2022-04-18T15:00:37Z</time>
      </trkpt>
      <trkpt lat="49.01189" lon="2.05193">
        <ele>39.2</ele>
        <time>2022-04-18T15:00:43Z</time>
      </trkpt>
      <trkpt lat="49.01189" lon="2.05193">
        <ele>39.2</ele>
        <time>2022-04-18T15:00:49Z</time>
      </trkpt>
      <trkpt lat="49.01189" lon="2.05193">
        <ele>39.1</ele>
        <time>2022-04-18T15:00:55Z</time>
      </trkpt>
      <trkpt lat="49.01189" lon="2.05194">
        <ele>39.1</ele>
        <time>2022-04-18T15:01:00Z</time>
      </trkpt>
      <trkpt lat="49.01189" lon="2.05194">
        <ele>39.1</ele>
        <time>2022-04-18T15:01:05Z</time>
      </trkpt>
      <trkpt lat="49.0119" lon="2.05194">
        <ele>39.1</ele>
        <time>2022-04-18T15:01:11Z</time>
      </trkpt>
      <trkpt lat="49.0119" lon="2.05194">
        <ele>39.1</ele>
        <time>2022-04-18T15:01:17Z</time>
      </trkpt>
      <trkpt lat="49.01191" lon="2.05194">
        <ele>39.1</ele>
        <time>2022-04-18T15:01:22Z</time>
      </trkpt>
      <trkpt lat="49.01191" lon="2.05194">
        <ele>39</ele>
        <time>2022-04-18T15:01:28Z</time>
      </trkpt>
      <trkpt lat="49.01191" lon="2.05194">
        <ele>39.1</ele>
        <time>2022-04-18T15:01:33Z</time>
      </trkpt>
      <trkpt lat="49.01192" lon="2.05195">
        <ele>39</ele>
        <time>2022-04-18T15:01:39Z</time>
      </trkpt>
      <trkpt lat="49.01193" lon="2.05194">
        <ele>39.1</ele>
        <time>2022-04-18T15:01:45Z</time>
      </trkpt>
      <trkpt lat="49.01192" lon="2.05195">
        <ele>39</ele>
        <time>2022-04-18T15:01:50Z</time>
      </trkpt>
      <trkpt lat="49.01191" lon="2.05196">
        <ele>39</ele>
        <time>2022-04-18T15:01:56Z</time>
      </trkpt>
      <trkpt lat="49.01191" lon="2.05195">
        <ele>39</ele>
        <time>2022-04-18T15:02:02Z</time>
      </trkpt>
      <trkpt lat="49.0119" lon="2.05195">
        <ele>39</ele>
        <time>2022-04-18T15:02:07Z</time>
      </trkpt>
      <trkpt lat="49.01187" lon="2.05195">
        <ele>39</ele>
        <time>2022-04-18T15:02:13Z</time>
      </trkpt>
      <trkpt lat="49.01187" lon="2.05195">
        <ele>39</ele>
        <time>2022-04-18T15:02:19Z</time>
      </trkpt>
      <trkpt lat="49.01186" lon="2.05195">
        <ele>39</ele>
        <time>2022-04-18T15:02:25Z</time>
      </trkpt>
      <trkpt lat="49.01187" lon="2.05196">
        <ele>38.9</ele>
        <time>2022-04-18T15:02:30Z</time>
      </trkpt>
      <trkpt lat="49.01187" lon="2.05196">
        <ele>38.9</ele>
        <time>2022-04-18T15:02:35Z</time>
      </trkpt>
      <trkpt lat="49.01187" lon="2.05196">
        <ele>38.9</ele>
        <time>2022-04-18T15:02:41Z</time>
      </trkpt>
      <trkpt lat="49.01188" lon="2.05196">
        <ele>38.9</ele>
        <time>2022-04-18T15:02:46Z</time>
      </trkpt>
      <trkpt lat="49.01188" lon="2.05196">
        <ele>38.9</ele>
        <time>2022-04-18T15:02:52Z</time>
      </trkpt>
      <trkpt lat="49.01188" lon="2.05197">
        <ele>38.9</ele>
        <time>2022-04-18T15:02:58Z</time>
      </trkpt>
      <trkpt lat="49.01189" lon="2.05197">
        <ele>38.9</ele>
        <time>2022-04-18T15:03:04Z</time>
      </trkpt>
      <trkpt lat="49.01189" lon="2.05197">
        <ele>38.9</ele>
        <time>2022-04-18T15:03:10Z</time>
      </trkpt>
      <trkpt lat="49.01188" lon="2.05196">
        <ele>38.9</ele>
        <time>2022-04-18T15:03:15Z</time>
      </trkpt>
      <trkpt lat="49.01188" lon="2.05196">
        <ele>38.9</ele>
        <time>2022-04-18T15:03:21Z</time>
      </trkpt>
      <trkpt lat="49.01188" lon="2.05196">
        <ele>38.9</ele>
        <time>2022-04-18T15:03:26Z</time>
      </trkpt>
      <trkpt lat="49.01188" lon="2.05197">
        <ele>38.9</ele>
        <time>2022-04-18T15:03:32Z</time>
      </trkpt>
      <trkpt lat="49.01188" lon="2.05197">
        <ele>38.9</ele>
        <time>2022-04-18T15:03:38Z</time>
      </trkpt>
      <trkpt lat="49.01188" lon="2.05196">
        <ele>38.9</ele>
        <time>2022-04-18T15:03:43Z</time>
      </trkpt>
      <trkpt lat="49.01188" lon="2.05196">
        <ele>39</ele>
        <time>2022-04-18T15:03:48Z</time>
      </trkpt>
      <trkpt lat="49.01187" lon="2.05195">
        <ele>39</ele>
        <time>2022-04-18T15:03:53Z</time>
      </trkpt>
      <trkpt lat="49.01187" lon="2.05194">
        <ele>39</ele>
        <time>2022-04-18T15:03:59Z</time>
      </trkpt>
      <trkpt lat="49.01188" lon="2.05194">
        <ele>39</ele>
        <time>2022-04-18T15:04:04Z</time>
      </trkpt>
      <trkpt lat="49.01189" lon="2.05194">
        <ele>39.1</ele>
        <time>2022-04-18T15:04:10Z</time>
      </trkpt>
      <trkpt lat="49.01189" lon="2.05193">
        <ele>39.2</ele>
        <time>2022-04-18T15:04:15Z</time>
      </trkpt>
      <trkpt lat="49.0119" lon="2.05193">
        <ele>39.2</ele>
        <time>2022-04-18T15:04:21Z</time>
      </trkpt>
      <trkpt lat="49.0119" lon="2.05193">
        <ele>39.2</ele>
        <time>2022-04-18T15:04:26Z</time>
      </trkpt>
      <trkpt lat="49.0119" lon="2.05192">
        <ele>39.3</ele>
        <time>2022-04-18T15:04:31Z</time>
      </trkpt>
      <trkpt lat="49.01191" lon="2.05193">
        <ele>39.2</ele>
        <time>2022-04-18T15:04:37Z</time>
      </trkpt>
      <trkpt lat="49.01191" lon="2.05193">
        <ele>39.2</ele>
        <time>2022-04-18T15:04:43Z</time>
      </trkpt>
      <trkpt lat="49.01192" lon="2.05193">
        <ele>39.3</ele>
        <time>2022-04-18T15:04:48Z</time>
      </trkpt>
      <trkpt lat="49.01193" lon="2.05192">
        <ele>39.3</ele>
        <time>2022-04-18T15:04:54Z</time>
      </trkpt>
      <trkpt lat="49.01192" lon="2.05193">
        <ele>39.1</ele>
        <time>2022-04-18T15:05:00Z</time>
      </trkpt>
      <trkpt lat="49.01191" lon="2.05198">
        <ele>38.8</ele>
        <time>2022-04-18T15:05:06Z</time>
      </trkpt>
      <trkpt lat="49.01193" lon="2.05209">
        <ele>38.5</ele>
        <time>2022-04-18T15:05:11Z</time>
      </trkpt>
      <trkpt lat="49.01195" lon="2.0522">
        <ele>38.1</ele>
        <time>2022-04-18T15:05:16Z</time>
      </trkpt>
      <trkpt lat="49.01197" lon="2.05232">
        <ele>37.3</ele>
        <time>2022-04-18T15:05:22Z</time>
      </trkpt>
      <trkpt lat="49.012" lon="2.05242">
        <ele>36.6</ele>
        <time>2022-04-18T15:05:28Z</time>
      </trkpt>
      <trkpt lat="49.01203" lon="2.0525">
        <ele>36</ele>
        <time>2022-04-18T15:05:33Z</time>
      </trkpt>
      <trkpt lat="49.0121" lon="2.05261">
        <ele>35</ele>
        <time>2022-04-18T15:05:39Z</time>
      </trkpt>
      <trkpt lat="49.01212" lon="2.05272">
        <ele>34.1</ele>
        <time>2022-04-18T15:05:44Z</time>
      </trkpt>
      <trkpt lat="49.01213" lon="2.05286">
        <ele>32.9</ele>
        <time>2022-04-18T15:05:49Z</time>
      </trkpt>
      <trkpt lat="49.01212" lon="2.05294">
        <ele>32.1</ele>
        <time>2022-04-18T15:05:55Z</time>
      </trkpt>
      <trkpt lat="49.01216" lon="2.05298">
        <ele>31.8</ele>
        <time>2022-04-18T15:06:00Z</time>
      </trkpt>
      <trkpt lat="49.01219" lon="2.05305">
        <ele>31.1</ele>
        <time>2022-04-18T15:06:05Z</time>
      </trkpt>
      <trkpt lat="49.01225" lon="2.05308">
        <ele>30.8</ele>
        <time>2022-04-18T15:06:10Z</time>
      </trkpt>
      <trkpt lat="49.01236" lon="2.05301">
        <ele>30.4</ele>
        <time>2022-04-18T15:06:16Z</time>
      </trkpt>
      <trkpt lat="49.01243" lon="2.05302">
        <ele>29.7</ele>
        <time>2022-04-18T15:06:21Z</time>
      </trkpt>
      <trkpt lat="49.01249" lon="2.05304">
        <ele>29.1</ele>
        <time>2022-04-18T15:06:26Z</time>
      </trkpt>
      <trkpt lat="49.01252" lon="2.0531">
        <ele>28.7</ele>
        <time>2022-04-18T15:06:31Z</time>
      </trkpt>
      <trkpt lat="49.01249" lon="2.05322">
        <ele>28.5</ele>
        <time>2022-04-18T15:06:37Z</time>
      </trkpt>
      <trkpt lat="49.01249" lon="2.05337">
        <ele>28.1</ele>
        <time>2022-04-18T15:06:43Z</time>
      </trkpt>
      <trkpt lat="49.0125" lon="2.05348">
        <ele>28</ele>
        <time>2022-04-18T15:06:48Z</time>
      </trkpt>
      <trkpt lat="49.01251" lon="2.05357">
        <ele>27.9</ele>
        <time>2022-04-18T15:06:53Z</time>
      </trkpt>
      <trkpt lat="49.01256" lon="2.05369">
        <ele>27.4</ele>
        <time>2022-04-18T15:06:59Z</time>
      </trkpt>
      <trkpt lat="49.01261" lon="2.05381">
        <ele>26.8</ele>
        <time>2022-04-18T15:07:04Z</time>
      </trkpt>
      <trkpt lat="49.01264" lon="2.05392">
        <ele>26.4</ele>
        <time>2022-04-18T15:07:10Z</time>
      </trkpt>
      <trkpt lat="49.01266" lon="2.054">
        <ele>25.8</ele>
        <time>2022-04-18T15:07:15Z</time>
      </trkpt>
      <trkpt lat="49.01268" lon="2.05411">
        <ele>25.3</ele>
        <time>2022-04-18T15:07:20Z</time>
      </trkpt>
      <trkpt lat="49.01268" lon="2.05424">
        <ele>25.1</ele>
        <time>2022-04-18T15:07:25Z</time>
      </trkpt>
      <trkpt lat="49.01267" lon="2.05439">
        <ele>25.4</ele>
        <time>2022-04-18T15:07:31Z</time>
      </trkpt>
      <trkpt lat="49.01267" lon="2.05449">
        <ele>25.6</ele>
        <time>2022-04-18T15:07:37Z</time>
      </trkpt>
      <trkpt lat="49.0127" lon="2.05461">
        <ele>25.4</ele>
        <time>2022-04-18T15:07:43Z</time>
      </trkpt>
      <trkpt lat="49.01272" lon="2.05474">
        <ele>25.6</ele>
        <time>2022-04-18T15:07:48Z</time>
      </trkpt>
      <trkpt lat="49.01276" lon="2.05486">
        <ele>26.1</ele>
        <time>2022-04-18T15:07:54Z</time>
      </trkpt>
      <trkpt lat="49.01279" lon="2.05494">
        <ele>26.4</ele>
        <time>2022-04-18T15:07:59Z</time>
      </trkpt>
      <trkpt lat="49.01284" lon="2.05505">
        <ele>26</ele>
        <time>2022-04-18T15:08:05Z</time>
      </trkpt>
      <trkpt lat="49.01287" lon="2.05515">
        <ele>25.6</ele>
        <time>2022-04-18T15:08:10Z</time>
      </trkpt>
      <trkpt lat="49.01285" lon="2.05519">
        <ele>25.8</ele>
        <time>2022-04-18T15:08:16Z</time>
      </trkpt>
      <trkpt lat="49.01282" lon="2.05526">
        <ele>25.9</ele>
        <time>2022-04-18T15:08:21Z</time>
      </trkpt>
      <trkpt lat="49.01287" lon="2.05534">
        <ele>25.4</ele>
        <time>2022-04-18T15:08:27Z</time>
      </trkpt>
      <trkpt lat="49.01297" lon="2.05546">
        <ele>25.6</ele>
        <time>2022-04-18T15:08:33Z</time>
      </trkpt>
      <trkpt lat="49.01304" lon="2.05553">
        <ele>26.6</ele>
        <time>2022-04-18T15:08:39Z</time>
      </trkpt>
      <trkpt lat="49.01308" lon="2.05559">
        <ele>26.5</ele>
        <time>2022-04-18T15:08:44Z</time>
      </trkpt>
      <trkpt lat="49.01315" lon="2.05569">
        <ele>25.8</ele>
        <time>2022-04-18T15:08:50Z</time>
      </trkpt>
      <trkpt lat="49.01321" lon="2.05577">
        <ele>26.3</ele>
        <time>2022-04-18T15:08:56Z</time>
      </trkpt>
      <trkpt lat="49.01325" lon="2.05588">
        <ele>27</ele>
        <time>2022-04-18T15:09:02Z</time>
      </trkpt>
      <trkpt lat="49.0133" lon="2.05598">
        <ele>27.5</ele>
        <time>2022-04-18T15:09:07Z</time>
      </trkpt>
      <trkpt lat="49.01333" lon="2.05607">
        <ele>28</ele>
        <time>2022-04-18T15:09:12Z</time>
      </trkpt>
      <trkpt lat="49.01336" lon="2.05616">
        <ele>26.9</ele>
        <time>2022-04-18T15:09:18Z</time>
      </trkpt>
      <trkpt lat="49.01341" lon="2.05627">
        <ele>24.8</ele>
        <time>2022-04-18T15:09:24Z</time>
      </trkpt>
      <trkpt lat="49.01341" lon="2.05635">
        <ele>23.7</ele>
        <time>2022-04-18T15:09:29Z</time>
      </trkpt>
      <trkpt lat="49.01339" lon="2.05643">
        <ele>23.1</ele>
        <time>2022-04-18T15:09:35Z</time>
      </trkpt>
      <trkpt lat="49.01337" lon="2.05647">
        <ele>23.1</ele>
        <time>2022-04-18T15:09:41Z</time>
      </trkpt>
      <trkpt lat="49.0133" lon="2.05643">
        <ele>23.7</ele>
        <time>2022-04-18T15:09:47Z</time>
      </trkpt>
      <trkpt lat="49.01322" lon="2.0565">
        <ele>23.4</ele>
        <time>2022-04-18T15:09:52Z</time>
      </trkpt>
      <trkpt lat="49.0132" lon="2.0566">
        <ele>22.9</ele>
        <time>2022-04-18T15:09:58Z</time>
      </trkpt>
      <trkpt lat="49.01318" lon="2.0567">
        <ele>22.4</ele>
        <time>2022-04-18T15:10:03Z</time>
      </trkpt>
      <trkpt lat="49.01311" lon="2.0568">
        <ele>22.3</ele>
        <time>2022-04-18T15:10:09Z</time>
      </trkpt>
      <trkpt lat="49.01308" lon="2.0569">
        <ele>22.1</ele>
        <time>2022-04-18T15:10:15Z</time>
      </trkpt>
      <trkpt lat="49.01302" lon="2.05699">
        <ele>22</ele>
        <time>2022-04-18T15:10:21Z</time>
      </trkpt>
      <trkpt lat="49.013" lon="2.05706">
        <ele>21.8</ele>
        <time>2022-04-18T15:10:26Z</time>
      </trkpt>
      <trkpt lat="49.01295" lon="2.05717">
        <ele>21.9</ele>
        <time>2022-04-18T15:10:32Z</time>
      </trkpt>
      <trkpt lat="49.01289" lon="2.05722">
        <ele>22.2</ele>
        <time>2022-04-18T15:10:37Z</time>
      </trkpt>
      <trkpt lat="49.0128" lon="2.05727">
        <ele>22.5</ele>
        <time>2022-04-18T15:10:43Z</time>
      </trkpt>
      <trkpt lat="49.01271" lon="2.0573">
        <ele>22.6</ele>
        <time>2022-04-18T15:10:48Z</time>
      </trkpt>
      <trkpt lat="49.01265" lon="2.05736">
        <ele>22.4</ele>
        <time>2022-04-18T15:10:54Z</time>
      </trkpt>
      <trkpt lat="49.01261" lon="2.05742">
        <ele>22.4</ele>
        <time>2022-04-18T15:10:59Z</time>
      </trkpt>
      <trkpt lat="49.01255" lon="2.0575">
        <ele>22.7</ele>
        <time>2022-04-18T15:11:04Z</time>
      </trkpt>
      <trkpt lat="49.01247" lon="2.0576">
        <ele>22.7</ele>
        <time>2022-04-18T15:11:10Z</time>
      </trkpt>
      <trkpt lat="49.01241" lon="2.05769">
        <ele>22.5</ele>
        <time>2022-04-18T15:11:16Z</time>
      </trkpt>
      <trkpt lat="49.01235" lon="2.05778">
        <ele>22.5</ele>
        <time>2022-04-18T15:11:22Z</time>
      </trkpt>
      <trkpt lat="49.01228" lon="2.05786">
        <ele>22.5</ele>
        <time>2022-04-18T15:11:27Z</time>
      </trkpt>
      <trkpt lat="49.01221" lon="2.05793">
        <ele>22.5</ele>
        <time>2022-04-18T15:11:32Z</time>
      </trkpt>
      <trkpt lat="49.01215" lon="2.05802">
        <ele>22.3</ele>
        <time>2022-04-18T15:11:38Z</time>
      </trkpt>
      <trkpt lat="49.0121" lon="2.05809">
        <ele>22.4</ele>
        <time>2022-04-18T15:11:43Z</time>
      </trkpt>
      <trkpt lat="49.01204" lon="2.0582">
        <ele>22.5</ele>
        <time>2022-04-18T15:11:49Z</time>
      </trkpt>
      <trkpt lat="49.01198" lon="2.05829">
        <ele>22.7</ele>
        <time>2022-04-18T15:11:54Z</time>
      </trkpt>
      <trkpt lat="49.01192" lon="2.05837">
        <ele>22.8</ele>
        <time>2022-04-18T15:12:00Z</time>
      </trkpt>
      <trkpt lat="49.01186" lon="2.05843">
        <ele>22.5</ele>
        <time>2022-04-18T15:12:05Z</time>
      </trkpt>
      <trkpt lat="49.01181" lon="2.05854">
        <ele>22.2</ele>
        <time>2022-04-18T15:12:11Z</time>
      </trkpt>
      <trkpt lat="49.01177" lon="2.05862">
        <ele>22.2</ele>
        <time>2022-04-18T15:12:16Z</time>
      </trkpt>
      <trkpt lat="49.01172" lon="2.05871">
        <ele>22.3</ele>
        <time>2022-04-18T15:12:21Z</time>
      </trkpt>
      <trkpt lat="49.01166" lon="2.05881">
        <ele>22.3</ele>
        <time>2022-04-18T15:12:27Z</time>
      </trkpt>
      <trkpt lat="49.01161" lon="2.05889">
        <ele>22.2</ele>
        <time>2022-04-18T15:12:32Z</time>
      </trkpt>
      <trkpt lat="49.01154" lon="2.05898">
        <ele>22.3</ele>
        <time>2022-04-18T15:12:38Z</time>
      </trkpt>
      <trkpt lat="49.01149" lon="2.05908">
        <ele>22.4</ele>
        <time>2022-04-18T15:12:44Z</time>
      </trkpt>
      <trkpt lat="49.01144" lon="2.05915">
        <ele>22.6</ele>
        <time>2022-04-18T15:12:49Z</time>
      </trkpt>
      <trkpt lat="49.01137" lon="2.05925">
        <ele>22.7</ele>
        <time>2022-04-18T15:12:55Z</time>
      </trkpt>
      <trkpt lat="49.01131" lon="2.05933">
        <ele>22.6</ele>
        <time>2022-04-18T15:13:00Z</time>
      </trkpt>
      <trkpt lat="49.01126" lon="2.05941">
        <ele>22.5</ele>
        <time>2022-04-18T15:13:06Z</time>
      </trkpt>
      <trkpt lat="49.01122" lon="2.05949">
        <ele>22.6</ele>
        <time>2022-04-18T15:13:11Z</time>
      </trkpt>
      <trkpt lat="49.01115" lon="2.05958">
        <ele>22.8</ele>
        <time>2022-04-18T15:13:17Z</time>
      </trkpt>
      <trkpt lat="49.01107" lon="2.05967">
        <ele>22.9</ele>
        <time>2022-04-18T15:13:23Z</time>
      </trkpt>
      <trkpt lat="49.01101" lon="2.05977">
        <ele>22.5</ele>
        <time>2022-04-18T15:13:28Z</time>
      </trkpt>
      <trkpt lat="49.01096" lon="2.05988">
        <ele>22.3</ele>
        <time>2022-04-18T15:13:34Z</time>
      </trkpt>
      <trkpt lat="49.01091" lon="2.05995">
        <ele>22.4</ele>
        <time>2022-04-18T15:13:39Z</time>
      </trkpt>
      <trkpt lat="49.01085" lon="2.06005">
        <ele>22.7</ele>
        <time>2022-04-18T15:13:45Z</time>
      </trkpt>
      <trkpt lat="49.01078" lon="2.06015">
        <ele>22.5</ele>
        <time>2022-04-18T15:13:51Z</time>
      </trkpt>
      <trkpt lat="49.0107" lon="2.06023">
        <ele>22.5</ele>
        <time>2022-04-18T15:13:57Z</time>
      </trkpt>
      <trkpt lat="49.01066" lon="2.06032">
        <ele>22.5</ele>
        <time>2022-04-18T15:14:02Z</time>
      </trkpt>
      <trkpt lat="49.01062" lon="2.0604">
        <ele>22.3</ele>
        <time>2022-04-18T15:14:07Z</time>
      </trkpt>
      <trkpt lat="49.01056" lon="2.06051">
        <ele>22.1</ele>
        <time>2022-04-18T15:14:13Z</time>
      </trkpt>
      <trkpt lat="49.01047" lon="2.06059">
        <ele>21.9</ele>
        <time>2022-04-18T15:14:19Z</time>
      </trkpt>
      <trkpt lat="49.01039" lon="2.06065">
        <ele>21.9</ele>
        <time>2022-04-18T15:14:25Z</time>
      </trkpt>
      <trkpt lat="49.01034" lon="2.0607">
        <ele>21.9</ele>
        <time>2022-04-18T15:14:30Z</time>
      </trkpt>
      <trkpt lat="49.01027" lon="2.06078">
        <ele>22</ele>
        <time>2022-04-18T15:14:35Z</time>
      </trkpt>
      <trkpt lat="49.01022" lon="2.06086">
        <ele>22.1</ele>
        <time>2022-04-18T15:14:41Z</time>
      </trkpt>
      <trkpt lat="49.01016" lon="2.06093">
        <ele>22.2</ele>
        <time>2022-04-18T15:14:47Z</time>
      </trkpt>
      <trkpt lat="49.01008" lon="2.06104">
        <ele>22.5</ele>
        <time>2022-04-18T15:14:53Z</time>
      </trkpt>
      <trkpt lat="49.01003" lon="2.06111">
        <ele>22.8</ele>
        <time>2022-04-18T15:14:59Z</time>
      </trkpt>
      <trkpt lat="49.00997" lon="2.06119">
        <ele>22.5</ele>
        <time>2022-04-18T15:15:05Z</time>
      </trkpt>
      <trkpt lat="49.00989" lon="2.06128">
        <ele>22.3</ele>
        <time>2022-04-18T15:15:11Z</time>
      </trkpt>
      <trkpt lat="49.00982" lon="2.06139">
        <ele>22.3</ele>
        <time>2022-04-18T15:15:17Z</time>
      </trkpt>
      <trkpt lat="49.00978" lon="2.06145">
        <ele>22.3</ele>
        <time>2022-04-18T15:15:23Z</time>
      </trkpt>
      <trkpt lat="49.00973" lon="2.06152">
        <ele>22.1</ele>
        <time>2022-04-18T15:15:28Z</time>
      </trkpt>
      <trkpt lat="49.00965" lon="2.06159">
        <ele>21.9</ele>
        <time>2022-04-18T15:15:34Z</time>
      </trkpt>
      <trkpt lat="49.0096" lon="2.06164">
        <ele>22</ele>
        <time>2022-04-18T15:15:39Z</time>
      </trkpt>
      <trkpt lat="49.00953" lon="2.06172">
        <ele>22.3</ele>
        <time>2022-04-18T15:15:45Z</time>
      </trkpt>
      <trkpt lat="49.00946" lon="2.06181">
        <ele>22.4</ele>
        <time>2022-04-18T15:15:51Z</time>
      </trkpt>
      <trkpt lat="49.0094" lon="2.06188">
        <ele>22.3</ele>
        <time>2022-04-18T15:15:56Z</time>
      </trkpt>
      <trkpt lat="49.00934" lon="2.06198">
        <ele>22.3</ele>
        <time>2022-04-18T15:16:02Z</time>
      </trkpt>
      <trkpt lat="49.00927" lon="2.06207">
        <ele>22.4</ele>
        <time>2022-04-18T15:16:07Z</time>
      </trkpt>
      <trkpt lat="49.0092" lon="2.06215">
        <ele>22.8</ele>
        <time>2022-04-18T15:16:13Z</time>
      </trkpt>
      <trkpt lat="49.00914" lon="2.06222">
        <ele>22.9</ele>
        <time>2022-04-18T15:16:19Z</time>
      </trkpt>
      <trkpt lat="49.00908" lon="2.06231">
        <ele>22.2</ele>
        <time>2022-04-18T15:16:25Z</time>
      </trkpt>
      <trkpt lat="49.00901" lon="2.06239">
        <ele>21.9</ele>
        <time>2022-04-18T15:16:30Z</time>
      </trkpt>
      <trkpt lat="49.00894" lon="2.06245">
        <ele>21.9</ele>
        <time>2022-04-18T15:16:36Z</time>
      </trkpt>
      <trkpt lat="49.00889" lon="2.06252">
        <ele>21.9</ele>
        <time>2022-04-18T15:16:41Z</time>
      </trkpt>
      <trkpt lat="49.00883" lon="2.06262">
        <ele>21.7</ele>
        <time>2022-04-18T15:16:47Z</time>
      </trkpt>
      <trkpt lat="49.00875" lon="2.06271">
        <ele>21.6</ele>
        <time>2022-04-18T15:16:53Z</time>
      </trkpt>
      <trkpt lat="49.00868" lon="2.0628">
        <ele>21.8</ele>
        <time>2022-04-18T15:16:59Z</time>
      </trkpt>
      <trkpt lat="49.00863" lon="2.06288">
        <ele>21.9</ele>
        <time>2022-04-18T15:17:04Z</time>
      </trkpt>
      <trkpt lat="49.00861" lon="2.06296">
        <ele>22</ele>
        <time>2022-04-18T15:17:09Z</time>
      </trkpt>
      <trkpt lat="49.00858" lon="2.06306">
        <ele>22</ele>
        <time>2022-04-18T15:17:15Z</time>
      </trkpt>
      <trkpt lat="49.00846" lon="2.06313">
        <ele>22</ele>
        <time>2022-04-18T15:17:21Z</time>
      </trkpt>
      <trkpt lat="49.00843" lon="2.06322">
        <ele>22.2</ele>
        <time>2022-04-18T15:17:27Z</time>
      </trkpt>
      <trkpt lat="49.00839" lon="2.06331">
        <ele>22.5</ele>
        <time>2022-04-18T15:17:32Z</time>
      </trkpt>
      <trkpt lat="49.00836" lon="2.06342">
        <ele>22.6</ele>
        <time>2022-04-18T15:17:38Z</time>
      </trkpt>
      <trkpt lat="49.00829" lon="2.06351">
        <ele>22.4</ele>
        <time>2022-04-18T15:17:43Z</time>
      </trkpt>
      <trkpt lat="49.00822" lon="2.0636">
        <ele>22.4</ele>
        <time>2022-04-18T15:17:49Z</time>
      </trkpt>
      <trkpt lat="49.00817" lon="2.06367">
        <ele>22.4</ele>
        <time>2022-04-18T15:17:54Z</time>
      </trkpt>
      <trkpt lat="49.00809" lon="2.06376">
        <ele>22.3</ele>
        <time>2022-04-18T15:18:00Z</time>
      </trkpt>
      <trkpt lat="49.00802" lon="2.06382">
        <ele>22.2</ele>
        <time>2022-04-18T15:18:06Z</time>
      </trkpt>
      <trkpt lat="49.00796" lon="2.0639">
        <ele>22</ele>
        <time>2022-04-18T15:18:11Z</time>
      </trkpt>
      <trkpt lat="49.00791" lon="2.06398">
        <ele>22</ele>
        <time>2022-04-18T15:18:17Z</time>
      </trkpt>
      <trkpt lat="49.00784" lon="2.06405">
        <ele>22.3</ele>
        <time>2022-04-18T15:18:22Z</time>
      </trkpt>
      <trkpt lat="49.00777" lon="2.06413">
        <ele>22.8</ele>
        <time>2022-04-18T15:18:28Z</time>
      </trkpt>
      <trkpt lat="49.00771" lon="2.06419">
        <ele>22.6</ele>
        <time>2022-04-18T15:18:33Z</time>
      </trkpt>
      <trkpt lat="49.00764" lon="2.06427">
        <ele>22.3</ele>
        <time>2022-04-18T15:18:39Z</time>
      </trkpt>
      <trkpt lat="49.00754" lon="2.06433">
        <ele>22.5</ele>
        <time>2022-04-18T15:18:45Z</time>
      </trkpt>
      <trkpt lat="49.00746" lon="2.06442">
        <ele>22.9</ele>
        <time>2022-04-18T15:18:51Z</time>
      </trkpt>
      <trkpt lat="49.00742" lon="2.0645">
        <ele>22.7</ele>
        <time>2022-04-18T15:18:57Z</time>
      </trkpt>
      <trkpt lat="49.00739" lon="2.06457">
        <ele>22.5</ele>
        <time>2022-04-18T15:19:02Z</time>
      </trkpt>
      <trkpt lat="49.00734" lon="2.06468">
        <ele>22.3</ele>
        <time>2022-04-18T15:19:08Z</time>
      </trkpt>
      <trkpt lat="49.00728" lon="2.06477">
        <ele>22.4</ele>
        <time>2022-04-18T15:19:13Z</time>
      </trkpt>
      <trkpt lat="49.00723" lon="2.06484">
        <ele>22.5</ele>
        <time>2022-04-18T15:19:18Z</time>
      </trkpt>
      <trkpt lat="49.00718" lon="2.06495">
        <ele>22.6</ele>
        <time>2022-04-18T15:19:24Z</time>
      </trkpt>
      <trkpt lat="49.00715" lon="2.06504">
        <ele>22.4</ele>
        <time>2022-04-18T15:19:29Z</time>
      </trkpt>
      <trkpt lat="49.00714" lon="2.06508">
        <ele>22.3</ele>
        <time>2022-04-18T15:19:34Z</time>
      </trkpt>
      <trkpt lat="49.00711" lon="2.06513">
        <ele>22.3</ele>
        <time>2022-04-18T15:19:39Z</time>
      </trkpt>
      <trkpt lat="49.00702" lon="2.06527">
        <ele>22.5</ele>
        <time>2022-04-18T15:19:45Z</time>
      </trkpt>
      <trkpt lat="49.00693" lon="2.06538">
        <ele>22.6</ele>
        <time>2022-04-18T15:19:51Z</time>
      </trkpt>
      <trkpt lat="49.00689" lon="2.06547">
        <ele>22.4</ele>
        <time>2022-04-18T15:19:57Z</time>
      </trkpt>
      <trkpt lat="49.00683" lon="2.06555">
        <ele>22.4</ele>
        <time>2022-04-18T15:20:03Z</time>
      </trkpt>
      <trkpt lat="49.00678" lon="2.06569">
        <ele>22.4</ele>
        <time>2022-04-18T15:20:09Z</time>
      </trkpt>
      <trkpt lat="49.00673" lon="2.06579">
        <ele>22.6</ele>
        <time>2022-04-18T15:20:15Z</time>
      </trkpt>
      <trkpt lat="49.00666" lon="2.06589">
        <ele>22.6</ele>
        <time>2022-04-18T15:20:21Z</time>
      </trkpt>
      <trkpt lat="49.00661" lon="2.06599">
        <ele>22</ele>
        <time>2022-04-18T15:20:26Z</time>
      </trkpt>
      <trkpt lat="49.00654" lon="2.06607">
        <ele>22</ele>
        <time>2022-04-18T15:20:32Z</time>
      </trkpt>
      <trkpt lat="49.00652" lon="2.06615">
        <ele>22</ele>
        <time>2022-04-18T15:20:38Z</time>
      </trkpt>
      <trkpt lat="49.00647" lon="2.06623">
        <ele>22.4</ele>
        <time>2022-04-18T15:20:44Z</time>
      </trkpt>
      <trkpt lat="49.00642" lon="2.0663">
        <ele>22.8</ele>
        <time>2022-04-18T15:20:49Z</time>
      </trkpt>
      <trkpt lat="49.00638" lon="2.06639">
        <ele>23</ele>
        <time>2022-04-18T15:20:54Z</time>
      </trkpt>
      <trkpt lat="49.00632" lon="2.06647">
        <ele>22.4</ele>
        <time>2022-04-18T15:21:00Z</time>
      </trkpt>
      <trkpt lat="49.00627" lon="2.06653">
        <ele>22.2</ele>
        <time>2022-04-18T15:21:05Z</time>
      </trkpt>
      <trkpt lat="49.00621" lon="2.06664">
        <ele>22.3</ele>
        <time>2022-04-18T15:21:11Z</time>
      </trkpt>
      <trkpt lat="49.00615" lon="2.06673">
        <ele>22.4</ele>
        <time>2022-04-18T15:21:17Z</time>
      </trkpt>
      <trkpt lat="49.0061" lon="2.0668">
        <ele>22.1</ele>
        <time>2022-04-18T15:21:22Z</time>
      </trkpt>
      <trkpt lat="49.00603" lon="2.06688">
        <ele>21.8</ele>
        <time>2022-04-18T15:21:28Z</time>
      </trkpt>
      <trkpt lat="49.00597" lon="2.06694">
        <ele>22</ele>
        <time>2022-04-18T15:21:33Z</time>
      </trkpt>
      <trkpt lat="49.00591" lon="2.06703">
        <ele>22.5</ele>
        <time>2022-04-18T15:21:39Z</time>
      </trkpt>
      <trkpt lat="49.00584" lon="2.0671">
        <ele>22.9</ele>
        <time>2022-04-18T15:21:44Z</time>
      </trkpt>
      <trkpt lat="49.00578" lon="2.06717">
        <ele>23</ele>
        <time>2022-04-18T15:21:50Z</time>
      </trkpt>
      <trkpt lat="49.00575" lon="2.06725">
        <ele>22.9</ele>
        <time>2022-04-18T15:21:55Z</time>
      </trkpt>
      <trkpt lat="49.0057" lon="2.06736">
        <ele>22.5</ele>
        <time>2022-04-18T15:22:01Z</time>
      </trkpt>
      <trkpt lat="49.00563" lon="2.06745">
        <ele>22.5</ele>
        <time>2022-04-18T15:22:06Z</time>
      </trkpt>
      <trkpt lat="49.00558" lon="2.06752">
        <ele>22.7</ele>
        <time>2022-04-18T15:22:11Z</time>
      </trkpt>
      <trkpt lat="49.00554" lon="2.0676">
        <ele>22.3</ele>
        <time>2022-04-18T15:22:17Z</time>
      </trkpt>
      <trkpt lat="49.00548" lon="2.06769">
        <ele>22</ele>
        <time>2022-04-18T15:22:23Z</time>
      </trkpt>
      <trkpt lat="49.00544" lon="2.06775">
        <ele>22</ele>
        <time>2022-04-18T15:22:28Z</time>
      </trkpt>
      <trkpt lat="49.00536" lon="2.06779">
        <ele>22.3</ele>
        <time>2022-04-18T15:22:34Z</time>
      </trkpt>
      <trkpt lat="49.00529" lon="2.06783">
        <ele>22.5</ele>
        <time>2022-04-18T15:22:39Z</time>
      </trkpt>
      <trkpt lat="49.00521" lon="2.06791">
        <ele>22.3</ele>
        <time>2022-04-18T15:22:45Z</time>
      </trkpt>
      <trkpt lat="49.00512" lon="2.06799">
        <ele>22.3</ele>
        <time>2022-04-18T15:22:51Z</time>
      </trkpt>
      <trkpt lat="49.00507" lon="2.06803">
        <ele>22.6</ele>
        <time>2022-04-18T15:22:57Z</time>
      </trkpt>
      <trkpt lat="49.00499" lon="2.0681">
        <ele>22.8</ele>
        <time>2022-04-18T15:23:02Z</time>
      </trkpt>
      <trkpt lat="49.00493" lon="2.06815">
        <ele>22.7</ele>
        <time>2022-04-18T15:23:08Z</time>
      </trkpt>
      <trkpt lat="49.00485" lon="2.0682">
        <ele>22.8</ele>
        <time>2022-04-18T15:23:13Z</time>
      </trkpt>
      <trkpt lat="49.00477" lon="2.06826">
        <ele>22.9</ele>
        <time>2022-04-18T15:23:19Z</time>
      </trkpt>
      <trkpt lat="49.00471" lon="2.06831">
        <ele>23</ele>
        <time>2022-04-18T15:23:25Z</time>
      </trkpt>
      <trkpt lat="49.00466" lon="2.06836">
        <ele>22.9</ele>
        <time>2022-04-18T15:23:30Z</time>
      </trkpt>
      <trkpt lat="49.00459" lon="2.06845">
        <ele>22.6</ele>
        <time>2022-04-18T15:23:36Z</time>
      </trkpt>
      <trkpt lat="49.00455" lon="2.06852">
        <ele>22.5</ele>
        <time>2022-04-18T15:23:41Z</time>
      </trkpt>
      <trkpt lat="49.0045" lon="2.06859">
        <ele>22.6</ele>
        <time>2022-04-18T15:23:46Z</time>
      </trkpt>
      <trkpt lat="49.00443" lon="2.06866">
        <ele>22.8</ele>
        <time>2022-04-18T15:23:52Z</time>
      </trkpt>
      <trkpt lat="49.00437" lon="2.06872">
        <ele>22.7</ele>
        <time>2022-04-18T15:23:57Z</time>
      </trkpt>
      <trkpt lat="49.00429" lon="2.0688">
        <ele>22.7</ele>
        <time>2022-04-18T15:24:03Z</time>
      </trkpt>
      <trkpt lat="49.00425" lon="2.06886">
        <ele>22.7</ele>
        <time>2022-04-18T15:24:08Z</time>
      </trkpt>
      <trkpt lat="49.0042" lon="2.06894">
        <ele>22.7</ele>
        <time>2022-04-18T15:24:14Z</time>
      </trkpt>
      <trkpt lat="49.00412" lon="2.06905">
        <ele>22.5</ele>
        <time>2022-04-18T15:24:19Z</time>
      </trkpt>
      <trkpt lat="49.00405" lon="2.06914">
        <ele>22.5</ele>
        <time>2022-04-18T15:24:25Z</time>
      </trkpt>
      <trkpt lat="49.00401" lon="2.0692">
        <ele>22.5</ele>
        <time>2022-04-18T15:24:30Z</time>
      </trkpt>
      <trkpt lat="49.00393" lon="2.06927">
        <ele>22.5</ele>
        <time>2022-04-18T15:24:36Z</time>
      </trkpt>
      <trkpt lat="49.00385" lon="2.06933">
        <ele>22.5</ele>
        <time>2022-04-18T15:24:42Z</time>
      </trkpt>
      <trkpt lat="49.0038" lon="2.06938">
        <ele>22.5</ele>
        <time>2022-04-18T15:24:47Z</time>
      </trkpt>
      <trkpt lat="49.00372" lon="2.06946">
        <ele>22.5</ele>
        <time>2022-04-18T15:24:53Z</time>
      </trkpt>
      <trkpt lat="49.00363" lon="2.06949">
        <ele>22.6</ele>
        <time>2022-04-18T15:24:59Z</time>
      </trkpt>
      <trkpt lat="49.00357" lon="2.06955">
        <ele>22.3</ele>
        <time>2022-04-18T15:25:05Z</time>
      </trkpt>
      <trkpt lat="49.0035" lon="2.06961">
        <ele>22.3</ele>
        <time>2022-04-18T15:25:10Z</time>
      </trkpt>
      <trkpt lat="49.0034" lon="2.06965">
        <ele>22.6</ele>
        <time>2022-04-18T15:25:16Z</time>
      </trkpt>
      <trkpt lat="49.00335" lon="2.06972">
        <ele>22.9</ele>
        <time>2022-04-18T15:25:22Z</time>
      </trkpt>
      <trkpt lat="49.00328" lon="2.06979">
        <ele>22.5</ele>
        <time>2022-04-18T15:25:28Z</time>
      </trkpt>
      <trkpt lat="49.00321" lon="2.06987">
        <ele>22.2</ele>
        <time>2022-04-18T15:25:33Z</time>
      </trkpt>
      <trkpt lat="49.00315" lon="2.06995">
        <ele>22.3</ele>
        <time>2022-04-18T15:25:39Z</time>
      </trkpt>
      <trkpt lat="49.00309" lon="2.07">
        <ele>22.7</ele>
        <time>2022-04-18T15:25:44Z</time>
      </trkpt>
      <trkpt lat="49.00301" lon="2.07006">
        <ele>22.6</ele>
        <time>2022-04-18T15:25:50Z</time>
      </trkpt>
      <trkpt lat="49.00291" lon="2.07012">
        <ele>22.6</ele>
        <time>2022-04-18T15:25:56Z</time>
      </trkpt>
      <trkpt lat="49.00285" lon="2.07018">
        <ele>22.7</ele>
        <time>2022-04-18T15:26:02Z</time>
      </trkpt>
      <trkpt lat="49.0028" lon="2.07027">
        <ele>22.8</ele>
        <time>2022-04-18T15:26:08Z</time>
      </trkpt>
      <trkpt lat="49.00275" lon="2.07035">
        <ele>22.4</ele>
        <time>2022-04-18T15:26:13Z</time>
      </trkpt>
      <trkpt lat="49.00269" lon="2.07037">
        <ele>22.2</ele>
        <time>2022-04-18T15:26:18Z</time>
      </trkpt>
      <trkpt lat="49.00261" lon="2.07044">
        <ele>21.9</ele>
        <time>2022-04-18T15:26:24Z</time>
      </trkpt>
      <trkpt lat="49.00254" lon="2.07051">
        <ele>21.9</ele>
        <time>2022-04-18T15:26:30Z</time>
      </trkpt>
      <trkpt lat="49.00249" lon="2.07054">
        <ele>22</ele>
        <time>2022-04-18T15:26:35Z</time>
      </trkpt>
      <trkpt lat="49.00242" lon="2.07059">
        <ele>21.9</ele>
        <time>2022-04-18T15:26:40Z</time>
      </trkpt>
      <trkpt lat="49.00233" lon="2.07062">
        <ele>21.8</ele>
        <time>2022-04-18T15:26:46Z</time>
      </trkpt>
      <trkpt lat="49.00228" lon="2.07064">
        <ele>21.7</ele>
        <time>2022-04-18T15:26:51Z</time>
      </trkpt>
      <trkpt lat="49.00219" lon="2.07066">
        <ele>21.8</ele>
        <time>2022-04-18T15:26:57Z</time>
      </trkpt>
      <trkpt lat="49.00211" lon="2.07071">
        <ele>21.9</ele>
        <time>2022-04-18T15:27:03Z</time>
      </trkpt>
      <trkpt lat="49.00204" lon="2.07075">
        <ele>21.9</ele>
        <time>2022-04-18T15:27:08Z</time>
      </trkpt>
      <trkpt lat="49.00197" lon="2.07081">
        <ele>22</ele>
        <time>2022-04-18T15:27:14Z</time>
      </trkpt>
      <trkpt lat="49.00189" lon="2.07085">
        <ele>22</ele>
        <time>2022-04-18T15:27:19Z</time>
      </trkpt>
      <trkpt lat="49.00184" lon="2.07088">
        <ele>21.8</ele>
        <time>2022-04-18T15:27:25Z</time>
      </trkpt>
      <trkpt lat="49.00178" lon="2.0709">
        <ele>21.7</ele>
        <time>2022-04-18T15:27:31Z</time>
      </trkpt>
      <trkpt lat="49.00169" lon="2.07092">
        <ele>21.7</ele>
        <time>2022-04-18T15:27:37Z</time>
      </trkpt>
      <trkpt lat="49.00164" lon="2.07092">
        <ele>21.8</ele>
        <time>2022-04-18T15:27:43Z</time>
      </trkpt>
      <trkpt lat="49.00164" lon="2.07086">
        <ele>22</ele>
        <time>2022-04-18T15:27:49Z</time>
      </trkpt>
      <trkpt lat="49.00164" lon="2.0708">
        <ele>22.1</ele>
        <time>2022-04-18T15:27:55Z</time>
      </trkpt>
      <trkpt lat="49.00163" lon="2.07076">
        <ele>22.1</ele>
        <time>2022-04-18T15:28:01Z</time>
      </trkpt>
      <trkpt lat="49.00163" lon="2.07073">
        <ele>22.1</ele>
        <time>2022-04-18T15:28:06Z</time>
      </trkpt>
      <trkpt lat="49.00163" lon="2.07071">
        <ele>22.1</ele>
        <time>2022-04-18T15:28:12Z</time>
      </trkpt>
      <trkpt lat="49.00163" lon="2.0707">
        <ele>22.1</ele>
        <time>2022-04-18T15:28:17Z</time>
      </trkpt>
      <trkpt lat="49.00163" lon="2.07071">
        <ele>22.1</ele>
        <time>2022-04-18T15:28:22Z</time>
      </trkpt>
      <trkpt lat="49.00163" lon="2.07071">
        <ele>22.1</ele>
        <time>2022-04-18T15:28:28Z</time>
      </trkpt>
      <trkpt lat="49.00163" lon="2.07069">
        <ele>22.1</ele>
        <time>2022-04-18T15:28:34Z</time>
      </trkpt>
      <trkpt lat="49.00163" lon="2.07068">
        <ele>22.1</ele>
        <time>2022-04-18T15:28:39Z</time>
      </trkpt>
      <trkpt lat="49.00163" lon="2.07068">
        <ele>22.1</ele>
        <time>2022-04-18T15:28:44Z</time>
      </trkpt>
      <trkpt lat="49.00162" lon="2.07065">
        <ele>22.2</ele>
        <time>2022-04-18T15:28:49Z</time>
      </trkpt>
      <trkpt lat="49.00165" lon="2.07053">
        <ele>22.1</ele>
        <time>2022-04-18T15:28:55Z</time>
      </trkpt>
      <trkpt lat="49.00169" lon="2.07047">
        <ele>22.3</ele>
        <time>2022-04-18T15:29:00Z</time>
      </trkpt>
      <trkpt lat="49.00174" lon="2.07041">
        <ele>22.5</ele>
        <time>2022-04-18T15:29:05Z</time>
      </trkpt>
      <trkpt lat="49.00179" lon="2.07033">
        <ele>22.5</ele>
        <time>2022-04-18T15:29:10Z</time>
      </trkpt>
      <trkpt lat="49.0018" lon="2.07022">
        <ele>22.5</ele>
        <time>2022-04-18T15:29:16Z</time>
      </trkpt>
      <trkpt lat="49.00179" lon="2.07011">
        <ele>22.5</ele>
        <time>2022-04-18T15:29:21Z</time>
      </trkpt>
      <trkpt lat="49.00175" lon="2.06999">
        <ele>22.7</ele>
        <time>2022-04-18T15:29:27Z</time>
      </trkpt>
      <trkpt lat="49.00168" lon="2.06993">
        <ele>23</ele>
        <time>2022-04-18T15:29:33Z</time>
      </trkpt>
      <trkpt lat="49.0016" lon="2.06992">
        <ele>23</ele>
        <time>2022-04-18T15:29:39Z</time>
      </trkpt>
      <trkpt lat="49.00151" lon="2.06996">
        <ele>23</ele>
        <time>2022-04-18T15:29:45Z</time>
      </trkpt>
      <trkpt lat="49.00145" lon="2.07005">
        <ele>23</ele>
        <time>2022-04-18T15:29:51Z</time>
      </trkpt>
      <trkpt lat="49.00141" lon="2.07015">
        <ele>23</ele>
        <time>2022-04-18T15:29:57Z</time>
      </trkpt>
      <trkpt lat="49.00136" lon="2.07025">
        <ele>23</ele>
        <time>2022-04-18T15:30:03Z</time>
      </trkpt>
      <trkpt lat="49.00132" lon="2.07037">
        <ele>23</ele>
        <time>2022-04-18T15:30:08Z</time>
      </trkpt>
      <trkpt lat="49.0013" lon="2.0705">
        <ele>23</ele>
        <time>2022-04-18T15:30:14Z</time>
      </trkpt>
      <trkpt lat="49.00128" lon="2.07059">
        <ele>23</ele>
        <time>2022-04-18T15:30:19Z</time>
      </trkpt>
      <trkpt lat="49.00128" lon="2.07069">
        <ele>23</ele>
        <time>2022-04-18T15:30:24Z</time>
      </trkpt>
      <trkpt lat="49.0013" lon="2.07083">
        <ele>23</ele>
        <time>2022-04-18T15:30:30Z</time>
      </trkpt>
      <trkpt lat="49.00135" lon="2.0709">
        <ele>22.8</ele>
        <time>2022-04-18T15:30:36Z</time>
      </trkpt>
      <trkpt lat="49.00141" lon="2.07094">
        <ele>22.5</ele>
        <time>2022-04-18T15:30:41Z</time>
      </trkpt>
      <trkpt lat="49.00145" lon="2.07104">
        <ele>22</ele>
        <time>2022-04-18T15:30:47Z</time>
      </trkpt>
      <trkpt lat="49.00137" lon="2.07103">
        <ele>22.3</ele>
        <time>2022-04-18T15:30:53Z</time>
      </trkpt>
      <trkpt lat="49.00128" lon="2.07105">
        <ele>22.5</ele>
        <time>2022-04-18T15:30:59Z</time>
      </trkpt>
      <trkpt lat="49.00122" lon="2.07106">
        <ele>22.7</ele>
        <time>2022-04-18T15:31:04Z</time>
      </trkpt>
      <trkpt lat="49.00114" lon="2.07105">
        <ele>22.9</ele>
        <time>2022-04-18T15:31:10Z</time>
      </trkpt>
      <trkpt lat="49.00105" lon="2.07102">
        <ele>22.9</ele>
        <time>2022-04-18T15:31:16Z</time>
      </trkpt>
      <trkpt lat="49.001" lon="2.071">
        <ele>22.8</ele>
        <time>2022-04-18T15:31:21Z</time>
      </trkpt>
      <trkpt lat="49.00093" lon="2.071">
        <ele>22.6</ele>
        <time>2022-04-18T15:31:27Z</time>
      </trkpt>
      <trkpt lat="49.00086" lon="2.07099">
        <ele>22.5</ele>
        <time>2022-04-18T15:31:33Z</time>
      </trkpt>
      <trkpt lat="49.00079" lon="2.071">
        <ele>22.5</ele>
        <time>2022-04-18T15:31:38Z</time>
      </trkpt>
      <trkpt lat="49.00071" lon="2.07104">
        <ele>22.6</ele>
        <time>2022-04-18T15:31:44Z</time>
      </trkpt>
      <trkpt lat="49.00064" lon="2.07108">
        <ele>22.7</ele>
        <time>2022-04-18T15:31:50Z</time>
      </trkpt>
      <trkpt lat="49.0006" lon="2.07109">
        <ele>22.8</ele>
        <time>2022-04-18T15:31:55Z</time>
      </trkpt>
      <trkpt lat="49.00055" lon="2.07109">
        <ele>23</ele>
        <time>2022-04-18T15:32:00Z</time>
      </trkpt>
      <trkpt lat="49.00047" lon="2.07107">
        <ele>23</ele>
        <time>2022-04-18T15:32:05Z</time>
      </trkpt>
      <trkpt lat="49.00038" lon="2.07105">
        <ele>23.1</ele>
        <time>2022-04-18T15:32:11Z</time>
      </trkpt>
      <trkpt lat="49.00031" lon="2.07099">
        <ele>23.4</ele>
        <time>2022-04-18T15:32:16Z</time>
      </trkpt>
      <trkpt lat="49.00025" lon="2.07093">
        <ele>23.6</ele>
        <time>2022-04-18T15:32:21Z</time>
      </trkpt>
      <trkpt lat="49.00019" lon="2.07087">
        <ele>23.8</ele>
        <time>2022-04-18T15:32:27Z</time>
      </trkpt>
      <trkpt lat="49.00013" lon="2.0708">
        <ele>24</ele>
        <time>2022-04-18T15:32:32Z</time>
      </trkpt>
      <trkpt lat="49.00003" lon="2.07071">
        <ele>24</ele>
        <time>2022-04-18T15:32:38Z</time>
      </trkpt>
      <trkpt lat="48.99995" lon="2.07067">
        <ele>24</ele>
        <time>2022-04-18T15:32:44Z</time>
      </trkpt>
      <trkpt lat="48.99985" lon="2.07067">
        <ele>24</ele>
        <time>2022-04-18T15:32:50Z</time>
      </trkpt>
      <trkpt lat="48.99977" lon="2.0707">
        <ele>24</ele>
        <time>2022-04-18T15:32:56Z</time>
      </trkpt>
      <trkpt lat="48.9997" lon="2.07078">
        <ele>24</ele>
        <time>2022-04-18T15:33:02Z</time>
      </trkpt>
      <trkpt lat="48.99964" lon="2.07087">
        <ele>23.8</ele>
        <time>2022-04-18T15:33:07Z</time>
      </trkpt>
      <trkpt lat="48.99956" lon="2.07095">
        <ele>23.3</ele>
        <time>2022-04-18T15:33:13Z</time>
      </trkpt>
      <trkpt lat="48.99949" lon="2.07102">
        <ele>22.8</ele>
        <time>2022-04-18T15:33:19Z</time>
      </trkpt>
      <trkpt lat="48.99941" lon="2.07104">
        <ele>22.5</ele>
        <time>2022-04-18T15:33:25Z</time>
      </trkpt>
      <trkpt lat="48.99933" lon="2.07105">
        <ele>22.4</ele>
        <time>2022-04-18T15:33:30Z</time>
      </trkpt>
      <trkpt lat="48.99926" lon="2.07108">
        <ele>22.3</ele>
        <time>2022-04-18T15:33:35Z</time>
      </trkpt>
      <trkpt lat="48.9992" lon="2.07111">
        <ele>22</ele>
        <time>2022-04-18T15:33:40Z</time>
      </trkpt>
      <trkpt lat="48.9991" lon="2.07112">
        <ele>22.2</ele>
        <time>2022-04-18T15:33:46Z</time>
      </trkpt>
      <trkpt lat="48.99902" lon="2.07111">
        <ele>22.5</ele>
        <time>2022-04-18T15:33:52Z</time>
      </trkpt>
      <trkpt lat="48.99894" lon="2.07112">
        <ele>22.8</ele>
        <time>2022-04-18T15:33:58Z</time>
      </trkpt>
      <trkpt lat="48.99886" lon="2.07119">
        <ele>22.7</ele>
        <time>2022-04-18T15:34:04Z</time>
      </trkpt>
      <trkpt lat="48.99879" lon="2.07128">
        <ele>22.5</ele>
        <time>2022-04-18T15:34:10Z</time>
      </trkpt>
      <trkpt lat="48.99875" lon="2.07133">
        <ele>22.5</ele>
        <time>2022-04-18T15:34:15Z</time>
      </trkpt>
      <trkpt lat="48.99867" lon="2.07137">
        <ele>22.8</ele>
        <time>2022-04-18T15:34:21Z</time>
      </trkpt>
      <trkpt lat="48.99858" lon="2.07143">
        <ele>22.6</ele>
        <time>2022-04-18T15:34:27Z</time>
      </trkpt>
      <trkpt lat="48.99852" lon="2.07146">
        <ele>22.2</ele>
        <time>2022-04-18T15:34:33Z</time>
      </trkpt>
      <trkpt lat="48.99844" lon="2.07147">
        <ele>22</ele>
        <time>2022-04-18T15:34:38Z</time>
      </trkpt>
      <trkpt lat="48.99837" lon="2.07148">
        <ele>21.8</ele>
        <time>2022-04-18T15:34:44Z</time>
      </trkpt>
      <trkpt lat="48.99831" lon="2.07148">
        <ele>21.7</ele>
        <time>2022-04-18T15:34:49Z</time>
      </trkpt>
      <trkpt lat="48.99822" lon="2.07148">
        <ele>21.8</ele>
        <time>2022-04-18T15:34:54Z</time>
      </trkpt>
      <trkpt lat="48.99813" lon="2.07145">
        <ele>22.2</ele>
        <time>2022-04-18T15:35:00Z</time>
      </trkpt>
      <trkpt lat="48.99805" lon="2.07139">
        <ele>23</ele>
        <time>2022-04-18T15:35:06Z</time>
      </trkpt>
      <trkpt lat="48.99799" lon="2.07136">
        <ele>22.7</ele>
        <time>2022-04-18T15:35:11Z</time>
      </trkpt>
      <trkpt lat="48.9979" lon="2.0713">
        <ele>22.5</ele>
        <time>2022-04-18T15:35:17Z</time>
      </trkpt>
      <trkpt lat="48.99782" lon="2.07124">
        <ele>22.5</ele>
        <time>2022-04-18T15:35:22Z</time>
      </trkpt>
      <trkpt lat="48.99775" lon="2.07121">
        <ele>22.6</ele>
        <time>2022-04-18T15:35:27Z</time>
      </trkpt>
      <trkpt lat="48.99769" lon="2.07123">
        <ele>22.4</ele>
        <time>2022-04-18T15:35:32Z</time>
      </trkpt>
      <trkpt lat="48.99758" lon="2.07122">
        <ele>22.2</ele>
        <time>2022-04-18T15:35:38Z</time>
      </trkpt>
      <trkpt lat="48.99751" lon="2.0712">
        <ele>22</ele>
        <time>2022-04-18T15:35:44Z</time>
      </trkpt>
      <trkpt lat="48.99744" lon="2.07119">
        <ele>22.1</ele>
        <time>2022-04-18T15:35:50Z</time>
      </trkpt>
      <trkpt lat="48.99736" lon="2.07119">
        <ele>22.2</ele>
        <time>2022-04-18T15:35:56Z</time>
      </trkpt>
      <trkpt lat="48.99729" lon="2.0712">
        <ele>22.3</ele>
        <time>2022-04-18T15:36:02Z</time>
      </trkpt>
      <trkpt lat="48.99721" lon="2.0712">
        <ele>22.4</ele>
        <time>2022-04-18T15:36:08Z</time>
      </trkpt>
      <trkpt lat="48.99717" lon="2.07119">
        <ele>22.3</ele>
        <time>2022-04-18T15:36:13Z</time>
      </trkpt>
      <trkpt lat="48.99709" lon="2.07115">
        <ele>22.3</ele>
        <time>2022-04-18T15:36:18Z</time>
      </trkpt>
      <trkpt lat="48.997" lon="2.0711">
        <ele>22.2</ele>
        <time>2022-04-18T15:36:24Z</time>
      </trkpt>
      <trkpt lat="48.9969" lon="2.07108">
        <ele>22</ele>
        <time>2022-04-18T15:36:30Z</time>
      </trkpt>
      <trkpt lat="48.99683" lon="2.07104">
        <ele>22.1</ele>
        <time>2022-04-18T15:36:35Z</time>
      </trkpt>
      <trkpt lat="48.99678" lon="2.07102">
        <ele>22.2</ele>
        <time>2022-04-18T15:36:40Z</time>
      </trkpt>
      <trkpt lat="48.9967" lon="2.07096">
        <ele>22.5</ele>
        <time>2022-04-18T15:36:45Z</time>
      </trkpt>
      <trkpt lat="48.99663" lon="2.07095">
        <ele>22.5</ele>
        <time>2022-04-18T15:36:50Z</time>
      </trkpt>
      <trkpt lat="48.99655" lon="2.07091">
        <ele>22.6</ele>
        <time>2022-04-18T15:36:56Z</time>
      </trkpt>
      <trkpt lat="48.99649" lon="2.0709">
        <ele>22.6</ele>
        <time>2022-04-18T15:37:01Z</time>
      </trkpt>
      <trkpt lat="48.9964" lon="2.07088">
        <ele>22.7</ele>
        <time>2022-04-18T15:37:07Z</time>
      </trkpt>
      <trkpt lat="48.99631" lon="2.07086">
        <ele>22.5</ele>
        <time>2022-04-18T15:37:13Z</time>
      </trkpt>
      <trkpt lat="48.99625" lon="2.07086">
        <ele>22.4</ele>
        <time>2022-04-18T15:37:18Z</time>
      </trkpt>
      <trkpt lat="48.99619" lon="2.07085">
        <ele>22.2</ele>
        <time>2022-04-18T15:37:23Z</time>
      </trkpt>
      <trkpt lat="48.99609" lon="2.07084">
        <ele>22.1</ele>
        <time>2022-04-18T15:37:29Z</time>
      </trkpt>
      <trkpt lat="48.99599" lon="2.07083">
        <ele>22.4</ele>
        <time>2022-04-18T15:37:35Z</time>
      </trkpt>
      <trkpt lat="48.99592" lon="2.07082">
        <ele>22.7</ele>
        <time>2022-04-18T15:37:41Z</time>
      </trkpt>
      <trkpt lat="48.99585" lon="2.07081">
        <ele>22.9</ele>
        <time>2022-04-18T15:37:46Z</time>
      </trkpt>
      <trkpt lat="48.99577" lon="2.0708">
        <ele>22.8</ele>
        <time>2022-04-18T15:37:52Z</time>
      </trkpt>
      <trkpt lat="48.99572" lon="2.0708">
        <ele>22.6</ele>
        <time>2022-04-18T15:37:57Z</time>
      </trkpt>
      <trkpt lat="48.99562" lon="2.07079">
        <ele>22.4</ele>
        <time>2022-04-18T15:38:03Z</time>
      </trkpt>
      <trkpt lat="48.99556" lon="2.07079">
        <ele>22.2</ele>
        <time>2022-04-18T15:38:08Z</time>
      </trkpt>
      <trkpt lat="48.99548" lon="2.07078">
        <ele>22.2</ele>
        <time>2022-04-18T15:38:14Z</time>
      </trkpt>
      <trkpt lat="48.99538" lon="2.07075">
        <ele>22.3</ele>
        <time>2022-04-18T15:38:20Z</time>
      </trkpt>
      <trkpt lat="48.99531" lon="2.07074">
        <ele>22.3</ele>
        <time>2022-04-18T15:38:25Z</time>
      </trkpt>
      <trkpt lat="48.99522" lon="2.07075">
        <ele>22.3</ele>
        <time>2022-04-18T15:38:31Z</time>
      </trkpt>
      <trkpt lat="48.99517" lon="2.07074">
        <ele>22.3</ele>
        <time>2022-04-18T15:38:36Z</time>
      </trkpt>
      <trkpt lat="48.9951" lon="2.07074">
        <ele>22.3</ele>
        <time>2022-04-18T15:38:41Z</time>
      </trkpt>
      <trkpt lat="48.99501" lon="2.07075">
        <ele>22.3</ele>
        <time>2022-04-18T15:38:47Z</time>
      </trkpt>
      <trkpt lat="48.99496" lon="2.07075">
        <ele>22.3</ele>
        <time>2022-04-18T15:38:52Z</time>
      </trkpt>
      <trkpt lat="48.99488" lon="2.07075">
        <ele>22.3</ele>
        <time>2022-04-18T15:38:57Z</time>
      </trkpt>
      <trkpt lat="48.99483" lon="2.07076">
        <ele>22.3</ele>
        <time>2022-04-18T15:39:03Z</time>
      </trkpt>
      <trkpt lat="48.99476" lon="2.07076">
        <ele>22.2</ele>
        <time>2022-04-18T15:39:09Z</time>
      </trkpt>
      <trkpt lat="48.9947" lon="2.07079">
        <ele>22.2</ele>
        <time>2022-04-18T15:39:14Z</time>
      </trkpt>
      <trkpt lat="48.9946" lon="2.0708">
        <ele>22.2</ele>
        <time>2022-04-18T15:39:20Z</time>
      </trkpt>
      <trkpt lat="48.9945" lon="2.07082">
        <ele>22.1</ele>
        <time>2022-04-18T15:39:26Z</time>
      </trkpt>
      <trkpt lat="48.99444" lon="2.07083">
        <ele>22.1</ele>
        <time>2022-04-18T15:39:31Z</time>
      </trkpt>
      <trkpt lat="48.99438" lon="2.07083">
        <ele>22.3</ele>
        <time>2022-04-18T15:39:36Z</time>
      </trkpt>
      <trkpt lat="48.99427" lon="2.07082">
        <ele>22.6</ele>
        <time>2022-04-18T15:39:42Z</time>
      </trkpt>
      <trkpt lat="48.9942" lon="2.07085">
        <ele>22.8</ele>
        <time>2022-04-18T15:39:48Z</time>
      </trkpt>
      <trkpt lat="48.99415" lon="2.07086">
        <ele>22.8</ele>
        <time>2022-04-18T15:39:53Z</time>
      </trkpt>
      <trkpt lat="48.99409" lon="2.07088">
        <ele>22.7</ele>
        <time>2022-04-18T15:39:59Z</time>
      </trkpt>
      <trkpt lat="48.99402" lon="2.0709">
        <ele>22.6</ele>
        <time>2022-04-18T15:40:04Z</time>
      </trkpt>
      <trkpt lat="48.99392" lon="2.07093">
        <ele>22.6</ele>
        <time>2022-04-18T15:40:10Z</time>
      </trkpt>
      <trkpt lat="48.99384" lon="2.07095">
        <ele>22.6</ele>
        <time>2022-04-18T15:40:16Z</time>
      </trkpt>
      <trkpt lat="48.99378" lon="2.07098">
        <ele>22.5</ele>
        <time>2022-04-18T15:40:22Z</time>
      </trkpt>
      <trkpt lat="48.99368" lon="2.07102">
        <ele>22.3</ele>
        <time>2022-04-18T15:40:28Z</time>
      </trkpt>
      <trkpt lat="48.9936" lon="2.07109">
        <ele>22.1</ele>
        <time>2022-04-18T15:40:34Z</time>
      </trkpt>
      <trkpt lat="48.9935" lon="2.07114">
        <ele>22.4</ele>
        <time>2022-04-18T15:40:40Z</time>
      </trkpt>
      <trkpt lat="48.99345" lon="2.07114">
        <ele>22.5</ele>
        <time>2022-04-18T15:40:45Z</time>
      </trkpt>
      <trkpt lat="48.99338" lon="2.07118">
        <ele>22.6</ele>
        <time>2022-04-18T15:40:51Z</time>
      </trkpt>
      <trkpt lat="48.9933" lon="2.07121">
        <ele>22.6</ele>
        <time>2022-04-18T15:40:57Z</time>
      </trkpt>
      <trkpt lat="48.99324" lon="2.07124">
        <ele>22.5</ele>
        <time>2022-04-18T15:41:02Z</time>
      </trkpt>
      <trkpt lat="48.99318" lon="2.07132">
        <ele>22.3</ele>
        <time>2022-04-18T15:41:08Z</time>
      </trkpt>
      <trkpt lat="48.99312" lon="2.07135">
        <ele>22.1</ele>
        <time>2022-04-18T15:41:13Z</time>
      </trkpt>
      <trkpt lat="48.99304" lon="2.07139">
        <ele>22.1</ele>
        <time>2022-04-18T15:41:19Z</time>
      </trkpt>
      <trkpt lat="48.99296" lon="2.07143">
        <ele>22.3</ele>
        <time>2022-04-18T15:41:25Z</time>
      </trkpt>
      <trkpt lat="48.99289" lon="2.07145">
        <ele>22.4</ele>
        <time>2022-04-18T15:41:30Z</time>
      </trkpt>
      <trkpt lat="48.9928" lon="2.07146">
        <ele>22.7</ele>
        <time>2022-04-18T15:41:36Z</time>
      </trkpt>
      <trkpt lat="48.99273" lon="2.07148">
        <ele>22.7</ele>
        <time>2022-04-18T15:41:41Z</time>
      </trkpt>
      <trkpt lat="48.99266" lon="2.0715">
        <ele>22.6</ele>
        <time>2022-04-18T15:41:46Z</time>
      </trkpt>
      <trkpt lat="48.99257" lon="2.07151">
        <ele>22.6</ele>
        <time>2022-04-18T15:41:52Z</time>
      </trkpt>
      <trkpt lat="48.99252" lon="2.07153">
        <ele>22.5</ele>
        <time>2022-04-18T15:41:57Z</time>
      </trkpt>
      <trkpt lat="48.99245" lon="2.07155">
        <ele>22.4</ele>
        <time>2022-04-18T15:42:03Z</time>
      </trkpt>
      <trkpt lat="48.99238" lon="2.07154">
        <ele>22.5</ele>
        <time>2022-04-18T15:42:08Z</time>
      </trkpt>
      <trkpt lat="48.99229" lon="2.07155">
        <ele>22.4</ele>
        <time>2022-04-18T15:42:14Z</time>
      </trkpt>
      <trkpt lat="48.99223" lon="2.07157">
        <ele>22.3</ele>
        <time>2022-04-18T15:42:19Z</time>
      </trkpt>
      <trkpt lat="48.99217" lon="2.07159">
        <ele>22.5</ele>
        <time>2022-04-18T15:42:24Z</time>
      </trkpt>
      <trkpt lat="48.99209" lon="2.07159">
        <ele>22.9</ele>
        <time>2022-04-18T15:42:30Z</time>
      </trkpt>
      <trkpt lat="48.992" lon="2.07156">
        <ele>23.5</ele>
        <time>2022-04-18T15:42:35Z</time>
      </trkpt>
      <trkpt lat="48.99197" lon="2.07152">
        <ele>23.9</ele>
        <time>2022-04-18T15:42:41Z</time>
      </trkpt>
      <trkpt lat="48.9919" lon="2.0715">
        <ele>24.2</ele>
        <time>2022-04-18T15:42:46Z</time>
      </trkpt>
      <trkpt lat="48.99181" lon="2.07153">
        <ele>24</ele>
        <time>2022-04-18T15:42:52Z</time>
      </trkpt>
      <trkpt lat="48.99172" lon="2.07153">
        <ele>24</ele>
        <time>2022-04-18T15:42:57Z</time>
      </trkpt>
      <trkpt lat="48.99164" lon="2.07152">
        <ele>24</ele>
        <time>2022-04-18T15:43:03Z</time>
      </trkpt>
      <trkpt lat="48.99157" lon="2.07151">
        <ele>23.8</ele>
        <time>2022-04-18T15:43:08Z</time>
      </trkpt>
      <trkpt lat="48.99149" lon="2.0715">
        <ele>23.6</ele>
        <time>2022-04-18T15:43:14Z</time>
      </trkpt>
      <trkpt lat="48.9914" lon="2.0715">
        <ele>23.3</ele>
        <time>2022-04-18T15:43:20Z</time>
      </trkpt>
      <trkpt lat="48.99132" lon="2.0715">
        <ele>23.5</ele>
        <time>2022-04-18T15:43:25Z</time>
      </trkpt>
      <trkpt lat="48.99122" lon="2.07151">
        <ele>23.8</ele>
        <time>2022-04-18T15:43:31Z</time>
      </trkpt>
      <trkpt lat="48.99115" lon="2.07151">
        <ele>24</ele>
        <time>2022-04-18T15:43:36Z</time>
      </trkpt>
      <trkpt lat="48.99108" lon="2.0715">
        <ele>24</ele>
        <time>2022-04-18T15:43:42Z</time>
      </trkpt>
      <trkpt lat="48.99101" lon="2.07149">
        <ele>23.6</ele>
        <time>2022-04-18T15:43:47Z</time>
      </trkpt>
      <trkpt lat="48.99093" lon="2.07148">
        <ele>23.2</ele>
        <time>2022-04-18T15:43:52Z</time>
      </trkpt>
      <trkpt lat="48.99082" lon="2.07147">
        <ele>22.7</ele>
        <time>2022-04-18T15:43:58Z</time>
      </trkpt>
      <trkpt lat="48.99075" lon="2.07147">
        <ele>22.6</ele>
        <time>2022-04-18T15:44:03Z</time>
      </trkpt>
      <trkpt lat="48.99068" lon="2.07147">
        <ele>22.6</ele>
        <time>2022-04-18T15:44:08Z</time>
      </trkpt>
      <trkpt lat="48.9906" lon="2.07145">
        <ele>22.6</ele>
        <time>2022-04-18T15:44:14Z</time>
      </trkpt>
      <trkpt lat="48.99051" lon="2.07144">
        <ele>22.7</ele>
        <time>2022-04-18T15:44:20Z</time>
      </trkpt>
      <trkpt lat="48.99042" lon="2.07142">
        <ele>22.8</ele>
        <time>2022-04-18T15:44:26Z</time>
      </trkpt>
      <trkpt lat="48.99034" lon="2.0714">
        <ele>22.9</ele>
        <time>2022-04-18T15:44:31Z</time>
      </trkpt>
      <trkpt lat="48.99028" lon="2.07139">
        <ele>23</ele>
        <time>2022-04-18T15:44:37Z</time>
      </trkpt>
      <trkpt lat="48.99021" lon="2.07137">
        <ele>23</ele>
        <time>2022-04-18T15:44:43Z</time>
      </trkpt>
      <trkpt lat="48.99014" lon="2.07135">
        <ele>23</ele>
        <time>2022-04-18T15:44:48Z</time>
      </trkpt>
      <trkpt lat="48.99007" lon="2.07132">
        <ele>23</ele>
        <time>2022-04-18T15:44:53Z</time>
      </trkpt>
      <trkpt lat="48.98995" lon="2.07128">
        <ele>23</ele>
        <time>2022-04-18T15:44:58Z</time>
      </trkpt>
      <trkpt lat="48.98985" lon="2.07128">
        <ele>23</ele>
        <time>2022-04-18T15:45:04Z</time>
      </trkpt>
      <trkpt lat="48.98977" lon="2.07123">
        <ele>23</ele>
        <time>2022-04-18T15:45:10Z</time>
      </trkpt>
      <trkpt lat="48.98971" lon="2.0712">
        <ele>23</ele>
        <time>2022-04-18T15:45:15Z</time>
      </trkpt>
      <trkpt lat="48.98966" lon="2.07118">
        <ele>22.9</ele>
        <time>2022-04-18T15:45:20Z</time>
      </trkpt>
      <trkpt lat="48.98957" lon="2.07115">
        <ele>22.8</ele>
        <time>2022-04-18T15:45:26Z</time>
      </trkpt>
      <trkpt lat="48.98951" lon="2.07113">
        <ele>22.9</ele>
        <time>2022-04-18T15:45:31Z</time>
      </trkpt>
      <trkpt lat="48.98947" lon="2.07107">
        <ele>23.1</ele>
        <time>2022-04-18T15:45:36Z</time>
      </trkpt>
      <trkpt lat="48.98943" lon="2.07095">
        <ele>23.6</ele>
        <time>2022-04-18T15:45:42Z</time>
      </trkpt>
      <trkpt lat="48.98943" lon="2.07084">
        <ele>23.9</ele>
        <time>2022-04-18T15:45:48Z</time>
      </trkpt>
      <trkpt lat="48.98945" lon="2.07077">
        <ele>24.4</ele>
        <time>2022-04-18T15:45:53Z</time>
      </trkpt>
      <trkpt lat="48.98952" lon="2.07066">
        <ele>24.7</ele>
        <time>2022-04-18T15:45:59Z</time>
      </trkpt>
      <trkpt lat="48.98953" lon="2.07056">
        <ele>25.1</ele>
        <time>2022-04-18T15:46:05Z</time>
      </trkpt>
      <trkpt lat="48.98951" lon="2.07063">
        <ele>24.9</ele>
        <time>2022-04-18T15:46:11Z</time>
      </trkpt>
      <trkpt lat="48.98949" lon="2.07069">
        <ele>24.7</ele>
        <time>2022-04-18T15:46:16Z</time>
      </trkpt>
      <trkpt lat="48.98947" lon="2.07079">
        <ele>24.2</ele>
        <time>2022-04-18T15:46:22Z</time>
      </trkpt>
      <trkpt lat="48.98944" lon="2.07087">
        <ele>23.8</ele>
        <time>2022-04-18T15:46:27Z</time>
      </trkpt>
      <trkpt lat="48.9894" lon="2.07095">
        <ele>23.6</ele>
        <time>2022-04-18T15:46:32Z</time>
      </trkpt>
      <trkpt lat="48.98936" lon="2.07103">
        <ele>23.4</ele>
        <time>2022-04-18T15:46:38Z</time>
      </trkpt>
      <trkpt lat="48.98934" lon="2.07108">
        <ele>23.4</ele>
        <time>2022-04-18T15:46:44Z</time>
      </trkpt>
      <trkpt lat="48.98935" lon="2.07107">
        <ele>23.4</ele>
        <time>2022-04-18T15:46:50Z</time>
      </trkpt>
      <trkpt lat="48.98935" lon="2.07107">
        <ele>23.4</ele>
        <time>2022-04-18T15:46:55Z</time>
      </trkpt>
      <trkpt lat="48.98935" lon="2.07106">
        <ele>23.4</ele>
        <time>2022-04-18T15:47:01Z</time>
      </trkpt>
      <trkpt lat="48.98934" lon="2.07106">
        <ele>23.4</ele>
        <time>2022-04-18T15:47:06Z</time>
      </trkpt>
      <trkpt lat="48.98934" lon="2.07106">
        <ele>23.4</ele>
        <time>2022-04-18T15:47:12Z</time>
      </trkpt>
      <trkpt lat="48.98935" lon="2.07107">
        <ele>23.4</ele>
        <time>2022-04-18T15:47:17Z</time>
      </trkpt>
      <trkpt lat="48.98935" lon="2.0711">
        <ele>23.4</ele>
        <time>2022-04-18T15:47:22Z</time>
      </trkpt>
      <trkpt lat="48.9893" lon="2.07119">
        <ele>22.8</ele>
        <time>2022-04-18T15:47:28Z</time>
      </trkpt>
      <trkpt lat="48.98927" lon="2.07126">
        <ele>22.2</ele>
        <time>2022-04-18T15:47:33Z</time>
      </trkpt>
      <trkpt lat="48.98923" lon="2.07135">
        <ele>21.4</ele>
        <time>2022-04-18T15:47:39Z</time>
      </trkpt>
      <trkpt lat="48.98919" lon="2.07145">
        <ele>21</ele>
        <time>2022-04-18T15:47:44Z</time>
      </trkpt>
      <trkpt lat="48.98915" lon="2.07155">
        <ele>21</ele>
        <time>2022-04-18T15:47:50Z</time>
      </trkpt>
      <trkpt lat="48.9891" lon="2.07166">
        <ele>21</ele>
        <time>2022-04-18T15:47:56Z</time>
      </trkpt>
      <trkpt lat="48.98908" lon="2.07175">
        <ele>21</ele>
        <time>2022-04-18T15:48:01Z</time>
      </trkpt>
      <trkpt lat="48.98904" lon="2.07186">
        <ele>21</ele>
        <time>2022-04-18T15:48:06Z</time>
      </trkpt>
      <trkpt lat="48.98901" lon="2.07198">
        <ele>21</ele>
        <time>2022-04-18T15:48:12Z</time>
      </trkpt>
      <trkpt lat="48.98899" lon="2.07207">
        <ele>21</ele>
        <time>2022-04-18T15:48:17Z</time>
      </trkpt>
      <trkpt lat="48.98895" lon="2.07219">
        <ele>21</ele>
        <time>2022-04-18T15:48:23Z</time>
      </trkpt>
      <trkpt lat="48.98891" lon="2.0723">
        <ele>21.5</ele>
        <time>2022-04-18T15:48:28Z</time>
      </trkpt>
      <trkpt lat="48.98887" lon="2.07242">
        <ele>22.4</ele>
        <time>2022-04-18T15:48:34Z</time>
      </trkpt>
      <trkpt lat="48.98883" lon="2.07251">
        <ele>23</ele>
        <time>2022-04-18T15:48:39Z</time>
      </trkpt>
      <trkpt lat="48.98878" lon="2.0726">
        <ele>23.1</ele>
        <time>2022-04-18T15:48:44Z</time>
      </trkpt>
      <trkpt lat="48.98874" lon="2.07273">
        <ele>23.4</ele>
        <time>2022-04-18T15:48:50Z</time>
      </trkpt>
      <trkpt lat="48.98871" lon="2.07284">
        <ele>23.6</ele>
        <time>2022-04-18T15:48:56Z</time>
      </trkpt>
      <trkpt lat="48.98867" lon="2.07297">
        <ele>23.8</ele>
        <time>2022-04-18T15:49:02Z</time>
      </trkpt>
      <trkpt lat="48.98866" lon="2.07304">
        <ele>23.8</ele>
        <time>2022-04-18T15:49:07Z</time>
      </trkpt>
      <trkpt lat="48.98862" lon="2.07316">
        <ele>24</ele>
        <time>2022-04-18T15:49:13Z</time>
      </trkpt>
      <trkpt lat="48.9886" lon="2.0732">
        <ele>24.1</ele>
        <time>2022-04-18T15:49:18Z</time>
      </trkpt>
      <trkpt lat="48.98862" lon="2.07311">
        <ele>24</ele>
        <time>2022-04-18T15:49:24Z</time>
      </trkpt>
      <trkpt lat="48.98866" lon="2.073">
        <ele>23.8</ele>
        <time>2022-04-18T15:49:30Z</time>
      </trkpt>
      <trkpt lat="48.98868" lon="2.07297">
        <ele>23.7</ele>
        <time>2022-04-18T15:49:35Z</time>
      </trkpt>
      <trkpt lat="48.98868" lon="2.07306">
        <ele>23.7</ele>
        <time>2022-04-18T15:49:41Z</time>
      </trkpt>
      <trkpt lat="48.98866" lon="2.07316">
        <ele>23.8</ele>
        <time>2022-04-18T15:49:46Z</time>
      </trkpt>
      <trkpt lat="48.98862" lon="2.07327">
        <ele>24</ele>
        <time>2022-04-18T15:49:52Z</time>
      </trkpt>
      <trkpt lat="48.98857" lon="2.07334">
        <ele>24.4</ele>
        <time>2022-04-18T15:49:58Z</time>
      </trkpt>
      <trkpt lat="48.98857" lon="2.07346">
        <ele>24.5</ele>
        <time>2022-04-18T15:50:04Z</time>
      </trkpt>
      <trkpt lat="48.98855" lon="2.07352">
        <ele>24.7</ele>
        <time>2022-04-18T15:50:10Z</time>
      </trkpt>
      <trkpt lat="48.9885" lon="2.07358">
        <ele>25.3</ele>
        <time>2022-04-18T15:50:15Z</time>
      </trkpt>
      <trkpt lat="48.98842" lon="2.0737">
        <ele>25.4</ele>
        <time>2022-04-18T15:50:21Z</time>
      </trkpt>
      <trkpt lat="48.98839" lon="2.07378">
        <ele>24.9</ele>
        <time>2022-04-18T15:50:27Z</time>
      </trkpt>
      <trkpt lat="48.98836" lon="2.07387">
        <ele>24.1</ele>
        <time>2022-04-18T15:50:33Z</time>
      </trkpt>
      <trkpt lat="48.98833" lon="2.07399">
        <ele>24</ele>
        <time>2022-04-18T15:50:39Z</time>
      </trkpt>
      <trkpt lat="48.9883" lon="2.07405">
        <ele>24.1</ele>
        <time>2022-04-18T15:50:44Z</time>
      </trkpt>
      <trkpt lat="48.98826" lon="2.07415">
        <ele>24.3</ele>
        <time>2022-04-18T15:50:50Z</time>
      </trkpt>
      <trkpt lat="48.98822" lon="2.0742">
        <ele>24.5</ele>
        <time>2022-04-18T15:50:55Z</time>
      </trkpt>
      <trkpt lat="48.98818" lon="2.07427">
        <ele>24.9</ele>
        <time>2022-04-18T15:51:00Z</time>
      </trkpt>
      <trkpt lat="48.98817" lon="2.07441">
        <ele>25.3</ele>
        <time>2022-04-18T15:51:06Z</time>
      </trkpt>
      <trkpt lat="48.98812" lon="2.07449">
        <ele>25.5</ele>
        <time>2022-04-18T15:51:12Z</time>
      </trkpt>
      <trkpt lat="48.98805" lon="2.07455">
        <ele>25.4</ele>
        <time>2022-04-18T15:51:18Z</time>
      </trkpt>
      <trkpt lat="48.98798" lon="2.07461">
        <ele>25</ele>
        <time>2022-04-18T15:51:24Z</time>
      </trkpt>
      <trkpt lat="48.98798" lon="2.07477">
        <ele>25.3</ele>
        <time>2022-04-18T15:51:30Z</time>
      </trkpt>
      <trkpt lat="48.98799" lon="2.07486">
        <ele>25.9</ele>
        <time>2022-04-18T15:51:35Z</time>
      </trkpt>
      <trkpt lat="48.98802" lon="2.07497">
        <ele>27.1</ele>
        <time>2022-04-18T15:51:40Z</time>
      </trkpt>
      <trkpt lat="48.98808" lon="2.0751">
        <ele>26.6</ele>
        <time>2022-04-18T15:51:46Z</time>
      </trkpt>
      <trkpt lat="48.98808" lon="2.07521">
        <ele>25.1</ele>
        <time>2022-04-18T15:51:52Z</time>
      </trkpt>
      <trkpt lat="48.98807" lon="2.07521">
        <ele>25.1</ele>
        <time>2022-04-18T15:51:58Z</time>
      </trkpt>
      <trkpt lat="48.98806" lon="2.0752">
        <ele>25.1</ele>
        <time>2022-04-18T15:52:03Z</time>
      </trkpt>
      <trkpt lat="48.98802" lon="2.0752">
        <ele>24.7</ele>
        <time>2022-04-18T15:52:09Z</time>
      </trkpt>
      <trkpt lat="48.98794" lon="2.07526">
        <ele>23.3</ele>
        <time>2022-04-18T15:52:15Z</time>
      </trkpt>
      <trkpt lat="48.98794" lon="2.0753">
        <ele>23.1</ele>
        <time>2022-04-18T15:52:21Z</time>
      </trkpt>
      <trkpt lat="48.98794" lon="2.0753">
        <ele>23.2</ele>
        <time>2022-04-18T15:52:27Z</time>
      </trkpt>
      <trkpt lat="48.98794" lon="2.0753">
        <ele>23.2</ele>
        <time>2022-04-18T15:52:33Z</time>
      </trkpt>
      <trkpt lat="48.98794" lon="2.0753">
        <ele>23.2</ele>
        <time>2022-04-18T15:52:38Z</time>
      </trkpt>
      <trkpt lat="48.98796" lon="2.07529">
        <ele>23.3</ele>
        <time>2022-04-18T15:52:43Z</time>
      </trkpt>
      <trkpt lat="48.98796" lon="2.07529">
        <ele>23.3</ele>
        <time>2022-04-18T15:52:48Z</time>
      </trkpt>
      <trkpt lat="48.98795" lon="2.07529">
        <ele>23.3</ele>
        <time>2022-04-18T15:52:54Z</time>
      </trkpt>
      <trkpt lat="48.98796" lon="2.07529">
        <ele>23.3</ele>
        <time>2022-04-18T15:52:59Z</time>
      </trkpt>
      <trkpt lat="48.98796" lon="2.0753">
        <ele>23.3</ele>
        <time>2022-04-18T15:53:04Z</time>
      </trkpt>
      <trkpt lat="48.98795" lon="2.07531">
        <ele>23.3</ele>
        <time>2022-04-18T15:53:10Z</time>
      </trkpt>
      <trkpt lat="48.98793" lon="2.07536">
        <ele>23.1</ele>
        <time>2022-04-18T15:53:15Z</time>
      </trkpt>
      <trkpt lat="48.98795" lon="2.0755">
        <ele>23.2</ele>
        <time>2022-04-18T15:53:20Z</time>
      </trkpt>
      <trkpt lat="48.98799" lon="2.07564">
        <ele>23.3</ele>
        <time>2022-04-18T15:53:26Z</time>
      </trkpt>
      <trkpt lat="48.988" lon="2.07573">
        <ele>23.1</ele>
        <time>2022-04-18T15:53:31Z</time>
      </trkpt>
      <trkpt lat="48.98801" lon="2.07582">
        <ele>22.9</ele>
        <time>2022-04-18T15:53:36Z</time>
      </trkpt>
      <trkpt lat="48.98804" lon="2.07597">
        <ele>22.4</ele>
        <time>2022-04-18T15:53:42Z</time>
      </trkpt>
      <trkpt lat="48.98806" lon="2.07606">
        <ele>22.2</ele>
        <time>2022-04-18T15:53:47Z</time>
      </trkpt>
      <trkpt lat="48.98806" lon="2.07617">
        <ele>21.9</ele>
        <time>2022-04-18T15:53:53Z</time>
      </trkpt>
      <trkpt lat="48.98809" lon="2.07627">
        <ele>21.7</ele>
        <time>2022-04-18T15:53:58Z</time>
      </trkpt>
      <trkpt lat="48.98811" lon="2.07635">
        <ele>21.7</ele>
        <time>2022-04-18T15:54:03Z</time>
      </trkpt>
      <trkpt lat="48.98815" lon="2.07646">
        <ele>21.7</ele>
        <time>2022-04-18T15:54:09Z</time>
      </trkpt>
      <trkpt lat="48.98818" lon="2.07659">
        <ele>21.6</ele>
        <time>2022-04-18T15:54:15Z</time>
      </trkpt>
      <trkpt lat="48.9882" lon="2.0767">
        <ele>21.6</ele>
        <time>2022-04-18T15:54:20Z</time>
      </trkpt>
      <trkpt lat="48.98823" lon="2.07684">
        <ele>21.8</ele>
        <time>2022-04-18T15:54:26Z</time>
      </trkpt>
      <trkpt lat="48.98827" lon="2.07694">
        <ele>22.3</ele>
        <time>2022-04-18T15:54:31Z</time>
      </trkpt>
      <trkpt lat="48.98829" lon="2.07701">
        <ele>22.4</ele>
        <time>2022-04-18T15:54:36Z</time>
      </trkpt>
      <trkpt lat="48.98829" lon="2.07706">
        <ele>22.2</ele>
        <time>2022-04-18T15:54:42Z</time>
      </trkpt>
      <trkpt lat="48.98831" lon="2.07714">
        <ele>22.1</ele>
        <time>2022-04-18T15:54:47Z</time>
      </trkpt>
      <trkpt lat="48.98834" lon="2.07725">
        <ele>22</ele>
        <time>2022-04-18T15:54:53Z</time>
      </trkpt>
      <trkpt lat="48.98838" lon="2.07738">
        <ele>21.9</ele>
        <time>2022-04-18T15:54:59Z</time>
      </trkpt>
      <trkpt lat="48.98839" lon="2.07751">
        <ele>21.6</ele>
        <time>2022-04-18T15:55:04Z</time>
      </trkpt>
      <trkpt lat="48.98841" lon="2.07764">
        <ele>21.8</ele>
        <time>2022-04-18T15:55:10Z</time>
      </trkpt>
      <trkpt lat="48.98845" lon="2.07774">
        <ele>22.2</ele>
        <time>2022-04-18T15:55:15Z</time>
      </trkpt>
      <trkpt lat="48.98848" lon="2.07785">
        <ele>22.7</ele>
        <time>2022-04-18T15:55:20Z</time>
      </trkpt>
      <trkpt lat="48.9885" lon="2.07798">
        <ele>23.1</ele>
        <time>2022-04-18T15:55:26Z</time>
      </trkpt>
      <trkpt lat="48.98852" lon="2.07811">
        <ele>23.2</ele>
        <time>2022-04-18T15:55:32Z</time>
      </trkpt>
      <trkpt lat="48.98855" lon="2.07821">
        <ele>23.1</ele>
        <time>2022-04-18T15:55:37Z</time>
      </trkpt>
      <trkpt lat="48.98856" lon="2.07832">
        <ele>22.8</ele>
        <time>2022-04-18T15:55:43Z</time>
      </trkpt>
      <trkpt lat="48.98859" lon="2.07845">
        <ele>22.6</ele>
        <time>2022-04-18T15:55:49Z</time>
      </trkpt>
      <trkpt lat="48.98863" lon="2.07857">
        <ele>22.3</ele>
        <time>2022-04-18T15:55:55Z</time>
      </trkpt>
      <trkpt lat="48.98866" lon="2.07866">
        <ele>22.3</ele>
        <time>2022-04-18T15:56:00Z</time>
      </trkpt>
      <trkpt lat="48.9887" lon="2.07876">
        <ele>22.7</ele>
        <time>2022-04-18T15:56:06Z</time>
      </trkpt>
      <trkpt lat="48.98874" lon="2.0789">
        <ele>22.9</ele>
        <time>2022-04-18T15:56:12Z</time>
      </trkpt>
      <trkpt lat="48.98877" lon="2.07902">
        <ele>23.1</ele>
        <time>2022-04-18T15:56:18Z</time>
      </trkpt>
      <trkpt lat="48.98879" lon="2.07913">
        <ele>23.3</ele>
        <time>2022-04-18T15:56:24Z</time>
      </trkpt>
      <trkpt lat="48.98882" lon="2.07924">
        <ele>23.3</ele>
        <time>2022-04-18T15:56:29Z</time>
      </trkpt>
      <trkpt lat="48.98885" lon="2.07936">
        <ele>23.1</ele>
        <time>2022-04-18T15:56:35Z</time>
      </trkpt>
      <trkpt lat="48.98886" lon="2.07948">
        <ele>22.8</ele>
        <time>2022-04-18T15:56:40Z</time>
      </trkpt>
      <trkpt lat="48.9889" lon="2.07958">
        <ele>22.6</ele>
        <time>2022-04-18T15:56:45Z</time>
      </trkpt>
      <trkpt lat="48.98893" lon="2.0797">
        <ele>22.4</ele>
        <time>2022-04-18T15:56:51Z</time>
      </trkpt>
      <trkpt lat="48.98896" lon="2.07978">
        <ele>22.3</ele>
        <time>2022-04-18T15:56:56Z</time>
      </trkpt>
      <trkpt lat="48.98899" lon="2.07992">
        <ele>22.3</ele>
        <time>2022-04-18T15:57:02Z</time>
      </trkpt>
      <trkpt lat="48.98903" lon="2.08003">
        <ele>22.5</ele>
        <time>2022-04-18T15:57:07Z</time>
      </trkpt>
      <trkpt lat="48.98904" lon="2.08013">
        <ele>22.8</ele>
        <time>2022-04-18T15:57:12Z</time>
      </trkpt>
      <trkpt lat="48.98906" lon="2.08024">
        <ele>23.2</ele>
        <time>2022-04-18T15:57:18Z</time>
      </trkpt>
      <trkpt lat="48.98909" lon="2.08036">
        <ele>23.2</ele>
        <time>2022-04-18T15:57:23Z</time>
      </trkpt>
      <trkpt lat="48.98912" lon="2.0805">
        <ele>23</ele>
        <time>2022-04-18T15:57:29Z</time>
      </trkpt>
      <trkpt lat="48.98914" lon="2.08061">
        <ele>22.7</ele>
        <time>2022-04-18T15:57:35Z</time>
      </trkpt>
      <trkpt lat="48.98918" lon="2.08074">
        <ele>22.4</ele>
        <time>2022-04-18T15:57:41Z</time>
      </trkpt>
      <trkpt lat="48.98922" lon="2.08084">
        <ele>22.3</ele>
        <time>2022-04-18T15:57:46Z</time>
      </trkpt>
      <trkpt lat="48.98925" lon="2.08096">
        <ele>22.3</ele>
        <time>2022-04-18T15:57:52Z</time>
      </trkpt>
      <trkpt lat="48.98927" lon="2.08108">
        <ele>22.2</ele>
        <time>2022-04-18T15:57:58Z</time>
      </trkpt>
      <trkpt lat="48.98929" lon="2.08119">
        <ele>22.5</ele>
        <time>2022-04-18T15:58:03Z</time>
      </trkpt>
      <trkpt lat="48.98933" lon="2.08132">
        <ele>23.1</ele>
        <time>2022-04-18T15:58:09Z</time>
      </trkpt>
      <trkpt lat="48.98934" lon="2.08143">
        <ele>23.1</ele>
        <time>2022-04-18T15:58:14Z</time>
      </trkpt>
      <trkpt lat="48.98937" lon="2.08154">
        <ele>22.9</ele>
        <time>2022-04-18T15:58:20Z</time>
      </trkpt>
      <trkpt lat="48.9894" lon="2.08169">
        <ele>22.6</ele>
        <time>2022-04-18T15:58:26Z</time>
      </trkpt>
      <trkpt lat="48.98942" lon="2.08181">
        <ele>22.4</ele>
        <time>2022-04-18T15:58:32Z</time>
      </trkpt>
      <trkpt lat="48.98944" lon="2.08187">
        <ele>22.3</ele>
        <time>2022-04-18T15:58:38Z</time>
      </trkpt>
      <trkpt lat="48.98947" lon="2.08189">
        <ele>22.4</ele>
        <time>2022-04-18T15:58:43Z</time>
      </trkpt>
      <trkpt lat="48.9895" lon="2.08208">
        <ele>22.4</ele>
        <time>2022-04-18T15:58:49Z</time>
      </trkpt>
      <trkpt lat="48.98954" lon="2.08222">
        <ele>22.7</ele>
        <time>2022-04-18T15:58:54Z</time>
      </trkpt>
      <trkpt lat="48.98958" lon="2.08232">
        <ele>23.2</ele>
        <time>2022-04-18T15:59:00Z</time>
      </trkpt>
      <trkpt lat="48.98958" lon="2.08242">
        <ele>23.4</ele>
        <time>2022-04-18T15:59:05Z</time>
      </trkpt>
      <trkpt lat="48.98961" lon="2.08253">
        <ele>23.8</ele>
        <time>2022-04-18T15:59:10Z</time>
      </trkpt>
      <trkpt lat="48.98963" lon="2.08265">
        <ele>24.2</ele>
        <time>2022-04-18T15:59:16Z</time>
      </trkpt>
      <trkpt lat="48.98962" lon="2.08274">
        <ele>24.1</ele>
        <time>2022-04-18T15:59:21Z</time>
      </trkpt>
      <trkpt lat="48.9896" lon="2.08283">
        <ele>23.8</ele>
        <time>2022-04-18T15:59:27Z</time>
      </trkpt>
      <trkpt lat="48.9896" lon="2.08294">
        <ele>23.8</ele>
        <time>2022-04-18T15:59:32Z</time>
      </trkpt>
      <trkpt lat="48.98963" lon="2.08307">
        <ele>24.2</ele>
        <time>2022-04-18T15:59:38Z</time>
      </trkpt>
      <trkpt lat="48.98965" lon="2.08318">
        <ele>23.7</ele>
        <time>2022-04-18T15:59:43Z</time>
      </trkpt>
      <trkpt lat="48.98967" lon="2.0833">
        <ele>22.9</ele>
        <time>2022-04-18T15:59:49Z</time>
      </trkpt>
      <trkpt lat="48.9897" lon="2.08342">
        <ele>22.9</ele>
        <time>2022-04-18T15:59:54Z</time>
      </trkpt>
      <trkpt lat="48.98973" lon="2.08355">
        <ele>23</ele>
        <time>2022-04-18T16:00:00Z</time>
      </trkpt>
      <trkpt lat="48.98974" lon="2.08365">
        <ele>23</ele>
        <time>2022-04-18T16:00:05Z</time>
      </trkpt>
      <trkpt lat="48.98978" lon="2.08376">
        <ele>22.8</ele>
        <time>2022-04-18T16:00:11Z</time>
      </trkpt>
      <trkpt lat="48.98982" lon="2.08388">
        <ele>22.7</ele>
        <time>2022-04-18T16:00:17Z</time>
      </trkpt>
      <trkpt lat="48.98985" lon="2.084">
        <ele>22.5</ele>
        <time>2022-04-18T16:00:23Z</time>
      </trkpt>
      <trkpt lat="48.98986" lon="2.08409">
        <ele>22.3</ele>
        <time>2022-04-18T16:00:28Z</time>
      </trkpt>
      <trkpt lat="48.98987" lon="2.08423">
        <ele>22.3</ele>
        <time>2022-04-18T16:00:34Z</time>
      </trkpt>
      <trkpt lat="48.98989" lon="2.08435">
        <ele>22.7</ele>
        <time>2022-04-18T16:00:39Z</time>
      </trkpt>
      <trkpt lat="48.98992" lon="2.08448">
        <ele>23</ele>
        <time>2022-04-18T16:00:45Z</time>
      </trkpt>
      <trkpt lat="48.98993" lon="2.08463">
        <ele>22.7</ele>
        <time>2022-04-18T16:00:51Z</time>
      </trkpt>
      <trkpt lat="48.98994" lon="2.08476">
        <ele>22.6</ele>
        <time>2022-04-18T16:00:57Z</time>
      </trkpt>
      <trkpt lat="48.98997" lon="2.08486">
        <ele>22.8</ele>
        <time>2022-04-18T16:01:02Z</time>
      </trkpt>
      <trkpt lat="48.98999" lon="2.08497">
        <ele>22.9</ele>
        <time>2022-04-18T16:01:08Z</time>
      </trkpt>
      <trkpt lat="48.99001" lon="2.08511">
        <ele>22.6</ele>
        <time>2022-04-18T16:01:14Z</time>
      </trkpt>
      <trkpt lat="48.99004" lon="2.08524">
        <ele>22.4</ele>
        <time>2022-04-18T16:01:20Z</time>
      </trkpt>
      <trkpt lat="48.99008" lon="2.08532">
        <ele>22.5</ele>
        <time>2022-04-18T16:01:26Z</time>
      </trkpt>
      <trkpt lat="48.9901" lon="2.08543">
        <ele>22.7</ele>
        <time>2022-04-18T16:01:31Z</time>
      </trkpt>
      <trkpt lat="48.99013" lon="2.08557">
        <ele>22.9</ele>
        <time>2022-04-18T16:01:37Z</time>
      </trkpt>
      <trkpt lat="48.99015" lon="2.08566">
        <ele>22.9</ele>
        <time>2022-04-18T16:01:42Z</time>
      </trkpt>
      <trkpt lat="48.99017" lon="2.08575">
        <ele>22.8</ele>
        <time>2022-04-18T16:01:47Z</time>
      </trkpt>
      <trkpt lat="48.99018" lon="2.08577">
        <ele>22.8</ele>
        <time>2022-04-18T16:01:52Z</time>
      </trkpt>
    </trkseg>
  </trk>
</gpx>